<?xml version='1.0' encoding='UTF-8'?><gpx version="1.1" creator="JPX - https://github.com/jenetics/jpx" xmlns="http://www.topografix.com/GPX/1/1"><trk><trkseg><trkpt lat="44.4642206" lon="11.1828954"><ele>118.00000000000001</ele><time>2026-03-22T09:09:06.648Z</time></trkpt><trkpt lat="44.4642898" lon="11.1828787"><ele>118.0</ele><time>2026-03-22T09:09:08.648Z</time></trkpt><trkpt lat="44.464368" lon="11.1829337"><ele>118.0</ele><time>2026-03-22T09:09:11.648Z</time></trkpt><trkpt lat="44.4643982" lon="11.1830439"><ele>118.0</ele><time>2026-03-22T09:09:13.648Z</time></trkpt><trkpt lat="44.4644274" lon="11.1831747"><ele>118.00000000000001</ele><time>2026-03-22T09:09:15.648Z</time></trkpt><trkpt lat="44.464453" lon="11.1832939"><ele>118.0</ele><time>2026-03-22T09:09:17.648Z</time></trkpt><trkpt lat="44.4644652" lon="11.183424"><ele>117.60000000000001</ele><time>2026-03-22T09:09:19.648Z</time></trkpt><trkpt lat="44.4644727" lon="11.1835514"><ele>117.20000000000002</ele><time>2026-03-22T09:09:21.648Z</time></trkpt><trkpt lat="44.4644826" lon="11.1836801"><ele>116.8</ele><time>2026-03-22T09:09:23.648Z</time></trkpt><trkpt lat="44.4644849" lon="11.1838097"><ele>116.4</ele><time>2026-03-22T09:09:25.648Z</time></trkpt><trkpt lat="44.4644829" lon="11.1839458"><ele>116.0</ele><time>2026-03-22T09:09:27.648Z</time></trkpt><trkpt lat="44.4644847" lon="11.1841179"><ele>115.83333333333333</ele><time>2026-03-22T09:09:29.648Z</time></trkpt><trkpt lat="44.46449" lon="11.184281"><ele>115.66666666666666</ele><time>2026-03-22T09:09:31.649Z</time></trkpt><trkpt lat="44.4644933" lon="11.1843799"><ele>115.5</ele><time>2026-03-22T09:09:32.648Z</time></trkpt><trkpt lat="44.464497" lon="11.1844692"><ele>115.33333333333334</ele><time>2026-03-22T09:09:33.648Z</time></trkpt><trkpt lat="44.4645103" lon="11.1846244"><ele>115.16666666666667</ele><time>2026-03-22T09:09:35.648Z</time></trkpt><trkpt lat="44.464515" lon="11.1847124"><ele>115.0</ele><time>2026-03-22T09:09:36.648Z</time></trkpt><trkpt lat="44.4645337" lon="11.1847995"><ele>115.6</ele><time>2026-03-22T09:09:37.648Z</time></trkpt><trkpt lat="44.464648" lon="11.1848425"><ele>116.2</ele><time>2026-03-22T09:09:39.648Z</time></trkpt><trkpt lat="44.4647119" lon="11.1848331"><ele>116.80000000000001</ele><time>2026-03-22T09:09:40.648Z</time></trkpt><trkpt lat="44.464812" lon="11.1848278"><ele>117.4</ele><time>2026-03-22T09:09:42.648Z</time></trkpt><trkpt lat="44.4648567" lon="11.1849446"><ele>118.0</ele><time>2026-03-22T09:09:49.648Z</time></trkpt><trkpt lat="44.4648776" lon="11.1850875"><ele>118.4</ele><time>2026-03-22T09:09:51.648Z</time></trkpt><trkpt lat="44.4648802" lon="11.1852057"><ele>118.80000000000001</ele><time>2026-03-22T09:09:52.648Z</time></trkpt><trkpt lat="44.4648875" lon="11.185328"><ele>119.2</ele><time>2026-03-22T09:09:53.648Z</time></trkpt><trkpt lat="44.4648957" lon="11.1854499"><ele>119.6</ele><time>2026-03-22T09:09:54.648Z</time></trkpt><trkpt lat="44.4649122" lon="11.1855798"><ele>120.0</ele><time>2026-03-22T09:09:55.648Z</time></trkpt><trkpt lat="44.4649343" lon="11.1857241"><ele>120.25</ele><time>2026-03-22T09:09:56.648Z</time></trkpt><trkpt lat="44.4649727" lon="11.1858768"><ele>120.5</ele><time>2026-03-22T09:09:57.648Z</time></trkpt><trkpt lat="44.4650069" lon="11.1860308"><ele>120.75</ele><time>2026-03-22T09:09:58.648Z</time></trkpt><trkpt lat="44.4650346" lon="11.1861905"><ele>121.0</ele><time>2026-03-22T09:09:59.648Z</time></trkpt><trkpt lat="44.4650548" lon="11.1863582"><ele>120.75</ele><time>2026-03-22T09:10:00.648Z</time></trkpt><trkpt lat="44.4650632" lon="11.1865255"><ele>120.5</ele><time>2026-03-22T09:10:01.648Z</time></trkpt><trkpt lat="44.4650236" lon="11.1866912"><ele>120.25</ele><time>2026-03-22T09:10:02.648Z</time></trkpt><trkpt lat="44.4649729" lon="11.1868512"><ele>120.0</ele><time>2026-03-22T09:10:03.648Z</time></trkpt><trkpt lat="44.4649032" lon="11.1870092"><ele>120.0</ele><time>2026-03-22T09:10:04.648Z</time></trkpt><trkpt lat="44.4648327" lon="11.1871543"><ele>120.0</ele><time>2026-03-22T09:10:05.648Z</time></trkpt><trkpt lat="44.4647623" lon="11.1873271"><ele>120.0</ele><time>2026-03-22T09:10:06.648Z</time></trkpt><trkpt lat="44.4647076" lon="11.1875032"><ele>120.0</ele><time>2026-03-22T09:10:07.648Z</time></trkpt><trkpt lat="44.4646734" lon="11.1876921"><ele>120.25</ele><time>2026-03-22T09:10:08.648Z</time></trkpt><trkpt lat="44.4646571" lon="11.1878885"><ele>120.5</ele><time>2026-03-22T09:10:09.648Z</time></trkpt><trkpt lat="44.4646647" lon="11.1880869"><ele>120.75</ele><time>2026-03-22T09:10:10.648Z</time></trkpt><trkpt lat="44.4646977" lon="11.1882914"><ele>121.0</ele><time>2026-03-22T09:10:11.648Z</time></trkpt><trkpt lat="44.4647366" lon="11.1884739"><ele>121.0</ele><time>2026-03-22T09:10:12.648Z</time></trkpt><trkpt lat="44.4647901" lon="11.188651"><ele>121.0</ele><time>2026-03-22T09:10:13.648Z</time></trkpt><trkpt lat="44.4648488" lon="11.1888145"><ele>121.0</ele><time>2026-03-22T09:10:14.648Z</time></trkpt><trkpt lat="44.4649029" lon="11.1889844"><ele>121.0</ele><time>2026-03-22T09:10:15.648Z</time></trkpt><trkpt lat="44.4649578" lon="11.1891534"><ele>119.25</ele><time>2026-03-22T09:10:16.648Z</time></trkpt><trkpt lat="44.4650156" lon="11.189328"><ele>117.5</ele><time>2026-03-22T09:10:17.648Z</time></trkpt><trkpt lat="44.4650741" lon="11.1895036"><ele>115.75</ele><time>2026-03-22T09:10:18.648Z</time></trkpt><trkpt lat="44.465134" lon="11.1896814"><ele>114.0</ele><time>2026-03-22T09:10:19.648Z</time></trkpt><trkpt lat="44.4651846" lon="11.1898638"><ele>113.5</ele><time>2026-03-22T09:10:20.648Z</time></trkpt><trkpt lat="44.4652198" lon="11.190055"><ele>113.0</ele><time>2026-03-22T09:10:21.648Z</time></trkpt><trkpt lat="44.4652262" lon="11.1902599"><ele>112.5</ele><time>2026-03-22T09:10:22.648Z</time></trkpt><trkpt lat="44.4652171" lon="11.1904639"><ele>112.0</ele><time>2026-03-22T09:10:23.648Z</time></trkpt><trkpt lat="44.4652297" lon="11.1906598"><ele>111.25</ele><time>2026-03-22T09:10:24.648Z</time></trkpt><trkpt lat="44.465252" lon="11.1908503"><ele>110.5</ele><time>2026-03-22T09:10:25.648Z</time></trkpt><trkpt lat="44.4652893" lon="11.1910245"><ele>109.75</ele><time>2026-03-22T09:10:26.648Z</time></trkpt><trkpt lat="44.4653474" lon="11.1912028"><ele>109.0</ele><time>2026-03-22T09:10:27.648Z</time></trkpt><trkpt lat="44.4654217" lon="11.1913679"><ele>109.75</ele><time>2026-03-22T09:10:28.648Z</time></trkpt><trkpt lat="44.4655069" lon="11.1915112"><ele>110.5</ele><time>2026-03-22T09:10:29.648Z</time></trkpt><trkpt lat="44.4655913" lon="11.1916498"><ele>111.25</ele><time>2026-03-22T09:10:30.648Z</time></trkpt><trkpt lat="44.4656827" lon="11.1917923"><ele>112.0</ele><time>2026-03-22T09:10:31.648Z</time></trkpt><trkpt lat="44.4657768" lon="11.1919355"><ele>112.0</ele><time>2026-03-22T09:10:32.648Z</time></trkpt><trkpt lat="44.465864" lon="11.192091"><ele>112.0</ele><time>2026-03-22T09:10:33.648Z</time></trkpt><trkpt lat="44.4659431" lon="11.1922495"><ele>112.0</ele><time>2026-03-22T09:10:34.648Z</time></trkpt><trkpt lat="44.4660187" lon="11.1924184"><ele>112.0</ele><time>2026-03-22T09:10:35.648Z</time></trkpt><trkpt lat="44.4660928" lon="11.1925787"><ele>111.25</ele><time>2026-03-22T09:10:36.648Z</time></trkpt><trkpt lat="44.4661556" lon="11.1927313"><ele>110.5</ele><time>2026-03-22T09:10:37.648Z</time></trkpt><trkpt lat="44.4662167" lon="11.1928673"><ele>109.75</ele><time>2026-03-22T09:10:38.648Z</time></trkpt><trkpt lat="44.4662787" lon="11.1930043"><ele>109.0</ele><time>2026-03-22T09:10:39.648Z</time></trkpt><trkpt lat="44.4663413" lon="11.1931327"><ele>109.16666666666667</ele><time>2026-03-22T09:10:40.648Z</time></trkpt><trkpt lat="44.4663915" lon="11.1932413"><ele>109.33333333333334</ele><time>2026-03-22T09:10:41.648Z</time></trkpt><trkpt lat="44.4664412" lon="11.1933499"><ele>109.5</ele><time>2026-03-22T09:10:42.648Z</time></trkpt><trkpt lat="44.4664826" lon="11.193447"><ele>109.66666666666666</ele><time>2026-03-22T09:10:43.648Z</time></trkpt><trkpt lat="44.4665331" lon="11.1935541"><ele>109.83333333333333</ele><time>2026-03-22T09:10:44.648Z</time></trkpt><trkpt lat="44.4665742" lon="11.1936595"><ele>110.0</ele><time>2026-03-22T09:10:45.648Z</time></trkpt><trkpt lat="44.4666176" lon="11.1937614"><ele>110.0</ele><time>2026-03-22T09:10:46.648Z</time></trkpt><trkpt lat="44.4666696" lon="11.1938664"><ele>110.0</ele><time>2026-03-22T09:10:47.648Z</time></trkpt><trkpt lat="44.4667091" lon="11.1939931"><ele>110.0</ele><time>2026-03-22T09:10:48.648Z</time></trkpt><trkpt lat="44.4667445" lon="11.1941349"><ele>110.0</ele><time>2026-03-22T09:10:49.648Z</time></trkpt><trkpt lat="44.4667752" lon="11.194275"><ele>110.0</ele><time>2026-03-22T09:10:50.648Z</time></trkpt><trkpt lat="44.4668128" lon="11.194423"><ele>109.25</ele><time>2026-03-22T09:10:51.648Z</time></trkpt><trkpt lat="44.466845" lon="11.1945707"><ele>108.5</ele><time>2026-03-22T09:10:52.648Z</time></trkpt><trkpt lat="44.4668868" lon="11.1947213"><ele>107.75</ele><time>2026-03-22T09:10:53.648Z</time></trkpt><trkpt lat="44.4669265" lon="11.1948699"><ele>107.0</ele><time>2026-03-22T09:10:54.648Z</time></trkpt><trkpt lat="44.466965" lon="11.195017"><ele>106.39999999999999</ele><time>2026-03-22T09:10:55.648Z</time></trkpt><trkpt lat="44.4669976" lon="11.195159"><ele>105.79999999999998</ele><time>2026-03-22T09:10:56.648Z</time></trkpt><trkpt lat="44.4670158" lon="11.1952993"><ele>105.2</ele><time>2026-03-22T09:10:57.648Z</time></trkpt><trkpt lat="44.4669976" lon="11.195439"><ele>104.6</ele><time>2026-03-22T09:10:58.648Z</time></trkpt><trkpt lat="44.4669416" lon="11.195559"><ele>104.0</ele><time>2026-03-22T09:10:59.648Z</time></trkpt><trkpt lat="44.4668591" lon="11.1956663"><ele>103.25</ele><time>2026-03-22T09:11:00.648Z</time></trkpt><trkpt lat="44.4667589" lon="11.1957748"><ele>102.5</ele><time>2026-03-22T09:11:01.648Z</time></trkpt><trkpt lat="44.4666554" lon="11.1958804"><ele>101.75</ele><time>2026-03-22T09:11:02.648Z</time></trkpt><trkpt lat="44.466544" lon="11.1960031"><ele>101.0</ele><time>2026-03-22T09:11:03.648Z</time></trkpt><trkpt lat="44.4664271" lon="11.1961315"><ele>101.0</ele><time>2026-03-22T09:11:04.648Z</time></trkpt><trkpt lat="44.4663063" lon="11.1962682"><ele>101.0</ele><time>2026-03-22T09:11:05.648Z</time></trkpt><trkpt lat="44.4661836" lon="11.1964067"><ele>101.0</ele><time>2026-03-22T09:11:06.648Z</time></trkpt><trkpt lat="44.4660639" lon="11.1965455"><ele>101.0</ele><time>2026-03-22T09:11:07.648Z</time></trkpt><trkpt lat="44.4659428" lon="11.1966791"><ele>101.0</ele><time>2026-03-22T09:11:08.648Z</time></trkpt><trkpt lat="44.4658254" lon="11.1968105"><ele>101.0</ele><time>2026-03-22T09:11:09.648Z</time></trkpt><trkpt lat="44.4657229" lon="11.196929"><ele>101.0</ele><time>2026-03-22T09:11:10.648Z</time></trkpt><trkpt lat="44.4656319" lon="11.1970354"><ele>101.0</ele><time>2026-03-22T09:11:11.648Z</time></trkpt><trkpt lat="44.4655387" lon="11.197152"><ele>101.0</ele><time>2026-03-22T09:11:12.648Z</time></trkpt><trkpt lat="44.4654475" lon="11.1972775"><ele>101.0</ele><time>2026-03-22T09:11:13.648Z</time></trkpt><trkpt lat="44.4653587" lon="11.1974032"><ele>101.0</ele><time>2026-03-22T09:11:14.648Z</time></trkpt><trkpt lat="44.4652768" lon="11.1975392"><ele>103.75</ele><time>2026-03-22T09:11:15.648Z</time></trkpt><trkpt lat="44.4652022" lon="11.1976793"><ele>106.5</ele><time>2026-03-22T09:11:16.648Z</time></trkpt><trkpt lat="44.4651402" lon="11.1978268"><ele>109.25</ele><time>2026-03-22T09:11:17.648Z</time></trkpt><trkpt lat="44.4650822" lon="11.1979752"><ele>112.0</ele><time>2026-03-22T09:11:18.648Z</time></trkpt><trkpt lat="44.4650261" lon="11.1981189"><ele>111.19999999999999</ele><time>2026-03-22T09:11:19.648Z</time></trkpt><trkpt lat="44.4649745" lon="11.1982543"><ele>110.39999999999999</ele><time>2026-03-22T09:11:20.648Z</time></trkpt><trkpt lat="44.4649288" lon="11.1983789"><ele>109.60000000000001</ele><time>2026-03-22T09:11:21.648Z</time></trkpt><trkpt lat="44.4648801" lon="11.1984852"><ele>108.80000000000001</ele><time>2026-03-22T09:11:22.648Z</time></trkpt><trkpt lat="44.4648262" lon="11.1985788"><ele>108.0</ele><time>2026-03-22T09:11:23.648Z</time></trkpt><trkpt lat="44.4647767" lon="11.1986685"><ele>108.0</ele><time>2026-03-22T09:11:24.648Z</time></trkpt><trkpt lat="44.4646713" lon="11.1987559"><ele>108.0</ele><time>2026-03-22T09:11:26.648Z</time></trkpt><trkpt lat="44.4646074" lon="11.1987417"><ele>108.0</ele><time>2026-03-22T09:11:27.648Z</time></trkpt><trkpt lat="44.4645361" lon="11.1986933"><ele>108.0</ele><time>2026-03-22T09:11:28.648Z</time></trkpt><trkpt lat="44.4644685" lon="11.1986393"><ele>108.0</ele><time>2026-03-22T09:11:29.648Z</time></trkpt><trkpt lat="44.4644257" lon="11.1985624"><ele>108.0</ele><time>2026-03-22T09:11:30.648Z</time></trkpt><trkpt lat="44.4643812" lon="11.1984237"><ele>108.4</ele><time>2026-03-22T09:11:32.648Z</time></trkpt><trkpt lat="44.4643094" lon="11.1983653"><ele>108.80000000000001</ele><time>2026-03-22T09:11:34.648Z</time></trkpt><trkpt lat="44.464193" lon="11.198355"><ele>109.2</ele><time>2026-03-22T09:15:12.648Z</time></trkpt><trkpt lat="44.4641549" lon="11.198451"><ele>109.6</ele><time>2026-03-22T09:15:23.648Z</time></trkpt><trkpt lat="44.4640655" lon="11.1984699"><ele>110.0</ele><time>2026-03-22T09:15:26.648Z</time></trkpt><trkpt lat="44.4639467" lon="11.1984345"><ele>109.99999999999999</ele><time>2026-03-22T09:15:28.648Z</time></trkpt><trkpt lat="44.4638715" lon="11.1984113"><ele>110.0</ele><time>2026-03-22T09:15:29.648Z</time></trkpt><trkpt lat="44.463791" lon="11.1984361"><ele>110.0</ele><time>2026-03-22T09:15:30.648Z</time></trkpt><trkpt lat="44.4637348" lon="11.198523"><ele>110.0</ele><time>2026-03-22T09:15:31.648Z</time></trkpt><trkpt lat="44.4636975" lon="11.1986333"><ele>109.99999999999999</ele><time>2026-03-22T09:15:32.648Z</time></trkpt><trkpt lat="44.463695" lon="11.1987694"><ele>110.0</ele><time>2026-03-22T09:15:33.648Z</time></trkpt><trkpt lat="44.4637179" lon="11.198918"><ele>108.25</ele><time>2026-03-22T09:15:34.648Z</time></trkpt><trkpt lat="44.4637391" lon="11.1990797"><ele>106.5</ele><time>2026-03-22T09:15:35.648Z</time></trkpt><trkpt lat="44.4637575" lon="11.1992473"><ele>104.75</ele><time>2026-03-22T09:15:36.648Z</time></trkpt><trkpt lat="44.4637767" lon="11.1994196"><ele>103.0</ele><time>2026-03-22T09:15:37.648Z</time></trkpt><trkpt lat="44.4637982" lon="11.1995858"><ele>103.0</ele><time>2026-03-22T09:15:38.648Z</time></trkpt><trkpt lat="44.4638402" lon="11.199745"><ele>103.0</ele><time>2026-03-22T09:15:39.648Z</time></trkpt><trkpt lat="44.4639066" lon="11.199885"><ele>103.0</ele><time>2026-03-22T09:15:40.648Z</time></trkpt><trkpt lat="44.463995" lon="11.1999927"><ele>103.0</ele><time>2026-03-22T09:15:41.648Z</time></trkpt><trkpt lat="44.4640904" lon="11.2000585"><ele>103.0</ele><time>2026-03-22T09:15:42.648Z</time></trkpt><trkpt lat="44.4641853" lon="11.20009"><ele>103.0</ele><time>2026-03-22T09:15:43.648Z</time></trkpt><trkpt lat="44.4642728" lon="11.200083"><ele>103.0</ele><time>2026-03-22T09:15:44.648Z</time></trkpt><trkpt lat="44.464352" lon="11.2000353"><ele>103.0</ele><time>2026-03-22T09:15:45.648Z</time></trkpt><trkpt lat="44.4644163" lon="11.1999438"><ele>103.0</ele><time>2026-03-22T09:15:46.648Z</time></trkpt><trkpt lat="44.4644727" lon="11.1998188"><ele>103.0</ele><time>2026-03-22T09:15:47.648Z</time></trkpt><trkpt lat="44.4645244" lon="11.199674"><ele>103.0</ele><time>2026-03-22T09:15:48.649Z</time></trkpt><trkpt lat="44.4645769" lon="11.1995243"><ele>103.0</ele><time>2026-03-22T09:15:49.648Z</time></trkpt><trkpt lat="44.4646332" lon="11.1993664"><ele>103.0</ele><time>2026-03-22T09:15:50.648Z</time></trkpt><trkpt lat="44.4646867" lon="11.1992081"><ele>103.5</ele><time>2026-03-22T09:15:51.648Z</time></trkpt><trkpt lat="44.4647361" lon="11.199063"><ele>104.0</ele><time>2026-03-22T09:15:52.648Z</time></trkpt><trkpt lat="44.4647799" lon="11.1989227"><ele>104.5</ele><time>2026-03-22T09:15:53.648Z</time></trkpt><trkpt lat="44.4648268" lon="11.1987789"><ele>105.0</ele><time>2026-03-22T09:15:54.648Z</time></trkpt><trkpt lat="44.4648818" lon="11.1986257"><ele>105.75</ele><time>2026-03-22T09:15:55.648Z</time></trkpt><trkpt lat="44.4649463" lon="11.1984722"><ele>106.5</ele><time>2026-03-22T09:15:56.648Z</time></trkpt><trkpt lat="44.4650108" lon="11.1983084"><ele>107.25</ele><time>2026-03-22T09:15:57.648Z</time></trkpt><trkpt lat="44.4650761" lon="11.1981381"><ele>108.0</ele><time>2026-03-22T09:15:58.648Z</time></trkpt><trkpt lat="44.4651395" lon="11.1979574"><ele>109.0</ele><time>2026-03-22T09:15:59.648Z</time></trkpt><trkpt lat="44.4652071" lon="11.1977824"><ele>110.0</ele><time>2026-03-22T09:16:00.648Z</time></trkpt><trkpt lat="44.4652852" lon="11.1976112"><ele>111.0</ele><time>2026-03-22T09:16:01.648Z</time></trkpt><trkpt lat="44.4653795" lon="11.1974527"><ele>112.0</ele><time>2026-03-22T09:16:02.648Z</time></trkpt><trkpt lat="44.4654739" lon="11.1972979"><ele>109.25</ele><time>2026-03-22T09:16:03.648Z</time></trkpt><trkpt lat="44.4655891" lon="11.1971682"><ele>106.5</ele><time>2026-03-22T09:16:04.648Z</time></trkpt><trkpt lat="44.4657066" lon="11.1970407"><ele>103.75</ele><time>2026-03-22T09:16:05.648Z</time></trkpt><trkpt lat="44.4658202" lon="11.1969056"><ele>101.0</ele><time>2026-03-22T09:16:06.648Z</time></trkpt><trkpt lat="44.4659347" lon="11.1967627"><ele>101.0</ele><time>2026-03-22T09:16:07.648Z</time></trkpt><trkpt lat="44.4660602" lon="11.1966214"><ele>101.0</ele><time>2026-03-22T09:16:08.648Z</time></trkpt><trkpt lat="44.4661844" lon="11.196479"><ele>101.0</ele><time>2026-03-22T09:16:09.648Z</time></trkpt><trkpt lat="44.4663074" lon="11.1963368"><ele>101.0</ele><time>2026-03-22T09:16:10.648Z</time></trkpt><trkpt lat="44.4664332" lon="11.1961969"><ele>101.0</ele><time>2026-03-22T09:16:11.648Z</time></trkpt><trkpt lat="44.4665556" lon="11.1960629"><ele>101.0</ele><time>2026-03-22T09:16:12.648Z</time></trkpt><trkpt lat="44.4666805" lon="11.1959458"><ele>101.0</ele><time>2026-03-22T09:16:13.648Z</time></trkpt><trkpt lat="44.4667927" lon="11.1958281"><ele>101.0</ele><time>2026-03-22T09:16:14.648Z</time></trkpt><trkpt lat="44.4668979" lon="11.1957091"><ele>101.0</ele><time>2026-03-22T09:16:15.648Z</time></trkpt><trkpt lat="44.4669847" lon="11.1955847"><ele>101.0</ele><time>2026-03-22T09:16:16.648Z</time></trkpt><trkpt lat="44.4670322" lon="11.1954493"><ele>101.75</ele><time>2026-03-22T09:16:17.648Z</time></trkpt><trkpt lat="44.4670535" lon="11.1952933"><ele>102.5</ele><time>2026-03-22T09:16:18.648Z</time></trkpt><trkpt lat="44.4670604" lon="11.1951468"><ele>103.25</ele><time>2026-03-22T09:16:19.648Z</time></trkpt><trkpt lat="44.4670064" lon="11.1949817"><ele>104.0</ele><time>2026-03-22T09:16:20.648Z</time></trkpt><trkpt lat="44.4669626" lon="11.1947907"><ele>104.75</ele><time>2026-03-22T09:16:21.648Z</time></trkpt><trkpt lat="44.4669173" lon="11.1946088"><ele>105.5</ele><time>2026-03-22T09:16:22.648Z</time></trkpt><trkpt lat="44.4668655" lon="11.1944099"><ele>106.25</ele><time>2026-03-22T09:16:23.648Z</time></trkpt><trkpt lat="44.4668155" lon="11.1942076"><ele>107.0</ele><time>2026-03-22T09:16:24.648Z</time></trkpt><trkpt lat="44.4667538" lon="11.1940033"><ele>108.0</ele><time>2026-03-22T09:16:25.648Z</time></trkpt><trkpt lat="44.4666825" lon="11.1937963"><ele>109.0</ele><time>2026-03-22T09:16:26.648Z</time></trkpt><trkpt lat="44.4665996" lon="11.1935998"><ele>110.0</ele><time>2026-03-22T09:16:27.648Z</time></trkpt><trkpt lat="44.4665134" lon="11.193404"><ele>110.0</ele><time>2026-03-22T09:16:28.648Z</time></trkpt><trkpt lat="44.4664265" lon="11.1932013"><ele>110.0</ele><time>2026-03-22T09:16:29.648Z</time></trkpt><trkpt lat="44.4663355" lon="11.1930025"><ele>110.0</ele><time>2026-03-22T09:16:30.648Z</time></trkpt><trkpt lat="44.4662468" lon="11.1927948"><ele>109.66666666666666</ele><time>2026-03-22T09:16:31.648Z</time></trkpt><trkpt lat="44.4661557" lon="11.192589"><ele>109.33333333333334</ele><time>2026-03-22T09:16:32.648Z</time></trkpt><trkpt lat="44.466069" lon="11.1923863"><ele>109.0</ele><time>2026-03-22T09:16:33.648Z</time></trkpt><trkpt lat="44.4659735" lon="11.1921819"><ele>110.0</ele><time>2026-03-22T09:16:34.648Z</time></trkpt><trkpt lat="44.4658617" lon="11.1919876"><ele>111.0</ele><time>2026-03-22T09:16:35.648Z</time></trkpt><trkpt lat="44.4657444" lon="11.191812"><ele>112.0</ele><time>2026-03-22T09:16:36.648Z</time></trkpt><trkpt lat="44.4656227" lon="11.1916383"><ele>111.0</ele><time>2026-03-22T09:16:37.648Z</time></trkpt><trkpt lat="44.4655171" lon="11.1914635"><ele>110.0</ele><time>2026-03-22T09:16:38.648Z</time></trkpt><trkpt lat="44.4654173" lon="11.1912558"><ele>109.0</ele><time>2026-03-22T09:16:39.648Z</time></trkpt><trkpt lat="44.4653469" lon="11.1910542"><ele>109.0</ele><time>2026-03-22T09:16:40.648Z</time></trkpt><trkpt lat="44.4652793" lon="11.1908469"><ele>109.0</ele><time>2026-03-22T09:16:41.648Z</time></trkpt><trkpt lat="44.4652688" lon="11.1906122"><ele>109.0</ele><time>2026-03-22T09:16:42.648Z</time></trkpt><trkpt lat="44.4652582" lon="11.190381"><ele>110.0</ele><time>2026-03-22T09:16:43.648Z</time></trkpt><trkpt lat="44.4652546" lon="11.1901521"><ele>111.0</ele><time>2026-03-22T09:16:44.648Z</time></trkpt><trkpt lat="44.4652347" lon="11.1899316"><ele>112.0</ele><time>2026-03-22T09:16:45.648Z</time></trkpt><trkpt lat="44.4651826" lon="11.1897206"><ele>112.66666666666667</ele><time>2026-03-22T09:16:46.648Z</time></trkpt><trkpt lat="44.4651234" lon="11.1895168"><ele>113.33333333333334</ele><time>2026-03-22T09:16:47.648Z</time></trkpt><trkpt lat="44.4650608" lon="11.1893207"><ele>114.0</ele><time>2026-03-22T09:16:48.648Z</time></trkpt><trkpt lat="44.4650021" lon="11.1891265"><ele>116.33333333333334</ele><time>2026-03-22T09:16:49.648Z</time></trkpt><trkpt lat="44.4649337" lon="11.188931"><ele>118.66666666666667</ele><time>2026-03-22T09:16:50.648Z</time></trkpt><trkpt lat="44.4648673" lon="11.1887178"><ele>121.0</ele><time>2026-03-22T09:16:51.648Z</time></trkpt><trkpt lat="44.4647923" lon="11.1884886"><ele>121.0</ele><time>2026-03-22T09:16:52.648Z</time></trkpt><trkpt lat="44.4647362" lon="11.1882689"><ele>121.0</ele><time>2026-03-22T09:16:53.648Z</time></trkpt><trkpt lat="44.4646938" lon="11.1880203"><ele>121.0</ele><time>2026-03-22T09:16:54.648Z</time></trkpt><trkpt lat="44.4646921" lon="11.1877922"><ele>120.66666666666667</ele><time>2026-03-22T09:16:55.648Z</time></trkpt><trkpt lat="44.4647382" lon="11.187585"><ele>120.33333333333334</ele><time>2026-03-22T09:16:56.648Z</time></trkpt><trkpt lat="44.4647922" lon="11.1873649"><ele>120.0</ele><time>2026-03-22T09:16:57.648Z</time></trkpt><trkpt lat="44.4648791" lon="11.1871634"><ele>120.0</ele><time>2026-03-22T09:16:58.648Z</time></trkpt><trkpt lat="44.4649756" lon="11.1869704"><ele>120.0</ele><time>2026-03-22T09:16:59.648Z</time></trkpt><trkpt lat="44.4650539" lon="11.1867658"><ele>120.0</ele><time>2026-03-22T09:17:00.648Z</time></trkpt><trkpt lat="44.4650981" lon="11.1865412"><ele>120.33333333333334</ele><time>2026-03-22T09:17:01.648Z</time></trkpt><trkpt lat="44.4651035" lon="11.1863107"><ele>120.66666666666667</ele><time>2026-03-22T09:17:02.648Z</time></trkpt><trkpt lat="44.4650749" lon="11.1860826"><ele>121.0</ele><time>2026-03-22T09:17:03.648Z</time></trkpt><trkpt lat="44.465029" lon="11.1858623"><ele>120.66666666666667</ele><time>2026-03-22T09:17:04.648Z</time></trkpt><trkpt lat="44.4649909" lon="11.1856324"><ele>120.33333333333334</ele><time>2026-03-22T09:17:05.648Z</time></trkpt><trkpt lat="44.464966" lon="11.1853929"><ele>120.0</ele><time>2026-03-22T09:17:06.648Z</time></trkpt><trkpt lat="44.4649563" lon="11.185165"><ele>120.0</ele><time>2026-03-22T09:17:07.648Z</time></trkpt><trkpt lat="44.4649447" lon="11.1849328"><ele>120.0</ele><time>2026-03-22T09:17:08.648Z</time></trkpt><trkpt lat="44.4649717" lon="11.1847156"><ele>120.0</ele><time>2026-03-22T09:17:09.648Z</time></trkpt><trkpt lat="44.4650006" lon="11.1845065"><ele>119.33333333333334</ele><time>2026-03-22T09:17:10.648Z</time></trkpt><trkpt lat="44.4650158" lon="11.1842711"><ele>118.66666666666667</ele><time>2026-03-22T09:17:11.648Z</time></trkpt><trkpt lat="44.4650292" lon="11.184039"><ele>118.0</ele><time>2026-03-22T09:17:12.648Z</time></trkpt><trkpt lat="44.4650133" lon="11.183799"><ele>117.66666666666667</ele><time>2026-03-22T09:17:13.648Z</time></trkpt><trkpt lat="44.4649754" lon="11.1835646"><ele>117.33333333333334</ele><time>2026-03-22T09:17:14.648Z</time></trkpt><trkpt lat="44.4649237" lon="11.1833377"><ele>117.0</ele><time>2026-03-22T09:17:15.648Z</time></trkpt><trkpt lat="44.4648628" lon="11.1831166"><ele>117.66666666666666</ele><time>2026-03-22T09:17:16.648Z</time></trkpt><trkpt lat="44.4648047" lon="11.1828816"><ele>118.33333333333333</ele><time>2026-03-22T09:17:17.648Z</time></trkpt><trkpt lat="44.4647493" lon="11.1826512"><ele>119.0</ele><time>2026-03-22T09:17:18.648Z</time></trkpt><trkpt lat="44.4646919" lon="11.1824186"><ele>119.66666666666666</ele><time>2026-03-22T09:17:19.648Z</time></trkpt><trkpt lat="44.464635" lon="11.1821868"><ele>120.33333333333334</ele><time>2026-03-22T09:17:20.648Z</time></trkpt><trkpt lat="44.4645735" lon="11.181955"><ele>121.0</ele><time>2026-03-22T09:17:21.648Z</time></trkpt><trkpt lat="44.4645142" lon="11.1817223"><ele>119.33333333333334</ele><time>2026-03-22T09:17:22.648Z</time></trkpt><trkpt lat="44.4644515" lon="11.1814836"><ele>117.66666666666666</ele><time>2026-03-22T09:17:23.648Z</time></trkpt><trkpt lat="44.4643863" lon="11.1812359"><ele>116.0</ele><time>2026-03-22T09:17:24.648Z</time></trkpt><trkpt lat="44.4643261" lon="11.1809932"><ele>116.0</ele><time>2026-03-22T09:17:25.648Z</time></trkpt><trkpt lat="44.4642654" lon="11.1807464"><ele>116.0</ele><time>2026-03-22T09:17:26.648Z</time></trkpt><trkpt lat="44.4642034" lon="11.1805059"><ele>116.0</ele><time>2026-03-22T09:17:27.648Z</time></trkpt><trkpt lat="44.4641388" lon="11.1802688"><ele>117.0</ele><time>2026-03-22T09:17:28.648Z</time></trkpt><trkpt lat="44.4640741" lon="11.1800257"><ele>118.0</ele><time>2026-03-22T09:17:29.648Z</time></trkpt><trkpt lat="44.4640108" lon="11.1797832"><ele>119.0</ele><time>2026-03-22T09:17:30.648Z</time></trkpt><trkpt lat="44.4639543" lon="11.1795506"><ele>120.66666666666666</ele><time>2026-03-22T09:17:31.648Z</time></trkpt><trkpt lat="44.4638945" lon="11.1793142"><ele>122.33333333333334</ele><time>2026-03-22T09:17:32.648Z</time></trkpt><trkpt lat="44.4638355" lon="11.1790817"><ele>124.0</ele><time>2026-03-22T09:17:33.648Z</time></trkpt><trkpt lat="44.4637761" lon="11.1788547"><ele>124.0</ele><time>2026-03-22T09:17:34.648Z</time></trkpt><trkpt lat="44.4637152" lon="11.1786296"><ele>124.0</ele><time>2026-03-22T09:17:35.648Z</time></trkpt><trkpt lat="44.4636571" lon="11.1784107"><ele>124.0</ele><time>2026-03-22T09:17:36.648Z</time></trkpt><trkpt lat="44.4635976" lon="11.1781833"><ele>125.33333333333334</ele><time>2026-03-22T09:17:37.648Z</time></trkpt><trkpt lat="44.4635474" lon="11.1779626"><ele>126.66666666666666</ele><time>2026-03-22T09:17:38.648Z</time></trkpt><trkpt lat="44.4634977" lon="11.1777369"><ele>128.0</ele><time>2026-03-22T09:17:39.648Z</time></trkpt><trkpt lat="44.4634599" lon="11.1775117"><ele>128.0</ele><time>2026-03-22T09:17:40.648Z</time></trkpt><trkpt lat="44.4634485" lon="11.1772846"><ele>128.0</ele><time>2026-03-22T09:17:41.648Z</time></trkpt><trkpt lat="44.4634541" lon="11.1770464"><ele>128.0</ele><time>2026-03-22T09:17:42.648Z</time></trkpt><trkpt lat="44.4634569" lon="11.1767973"><ele>128.0</ele><time>2026-03-22T09:17:43.648Z</time></trkpt><trkpt lat="44.4634614" lon="11.176564"><ele>128.0</ele><time>2026-03-22T09:17:44.648Z</time></trkpt><trkpt lat="44.4634675" lon="11.176356"><ele>128.0</ele><time>2026-03-22T09:17:45.648Z</time></trkpt><trkpt lat="44.4634734" lon="11.1761417"><ele>128.66666666666666</ele><time>2026-03-22T09:17:46.648Z</time></trkpt><trkpt lat="44.4634583" lon="11.1759205"><ele>129.33333333333334</ele><time>2026-03-22T09:17:47.648Z</time></trkpt><trkpt lat="44.4634375" lon="11.1757029"><ele>130.0</ele><time>2026-03-22T09:17:48.648Z</time></trkpt><trkpt lat="44.463412" lon="11.175493"><ele>131.25</ele><time>2026-03-22T09:17:49.648Z</time></trkpt><trkpt lat="44.4633887" lon="11.175284"><ele>132.5</ele><time>2026-03-22T09:17:50.648Z</time></trkpt><trkpt lat="44.4633688" lon="11.1750845"><ele>133.75</ele><time>2026-03-22T09:17:51.648Z</time></trkpt><trkpt lat="44.4633487" lon="11.1748793"><ele>135.0</ele><time>2026-03-22T09:17:52.648Z</time></trkpt><trkpt lat="44.4633254" lon="11.1746637"><ele>138.0</ele><time>2026-03-22T09:17:53.648Z</time></trkpt><trkpt lat="44.4632713" lon="11.1744592"><ele>141.0</ele><time>2026-03-22T09:17:54.648Z</time></trkpt><trkpt lat="44.4631962" lon="11.1742773"><ele>144.0</ele><time>2026-03-22T09:17:55.648Z</time></trkpt><trkpt lat="44.4631002" lon="11.1741111"><ele>148.66666666666666</ele><time>2026-03-22T09:17:56.648Z</time></trkpt><trkpt lat="44.462997" lon="11.1739552"><ele>153.33333333333331</ele><time>2026-03-22T09:17:57.648Z</time></trkpt><trkpt lat="44.4629007" lon="11.1737942"><ele>158.0</ele><time>2026-03-22T09:17:58.648Z</time></trkpt><trkpt lat="44.4628218" lon="11.1736074"><ele>148.66666666666666</ele><time>2026-03-22T09:17:59.648Z</time></trkpt><trkpt lat="44.4627604" lon="11.1734088"><ele>139.33333333333334</ele><time>2026-03-22T09:18:00.648Z</time></trkpt><trkpt lat="44.4627194" lon="11.1731897"><ele>130.0</ele><time>2026-03-22T09:18:01.648Z</time></trkpt><trkpt lat="44.4626895" lon="11.1729822"><ele>130.0</ele><time>2026-03-22T09:18:02.648Z</time></trkpt><trkpt lat="44.4626569" lon="11.1727763"><ele>130.0</ele><time>2026-03-22T09:18:03.648Z</time></trkpt><trkpt lat="44.4626226" lon="11.1725791"><ele>130.0</ele><time>2026-03-22T09:18:04.648Z</time></trkpt><trkpt lat="44.4625977" lon="11.172396"><ele>130.0</ele><time>2026-03-22T09:18:05.648Z</time></trkpt><trkpt lat="44.4625677" lon="11.1722193"><ele>131.0</ele><time>2026-03-22T09:18:06.648Z</time></trkpt><trkpt lat="44.4625432" lon="11.1720716"><ele>132.0</ele><time>2026-03-22T09:18:07.648Z</time></trkpt><trkpt lat="44.4625067" lon="11.1719368"><ele>133.0</ele><time>2026-03-22T09:18:08.648Z</time></trkpt><trkpt lat="44.4624701" lon="11.171835"><ele>134.0</ele><time>2026-03-22T09:18:09.648Z</time></trkpt><trkpt lat="44.4624363" lon="11.171739"><ele>135.0</ele><time>2026-03-22T09:18:10.648Z</time></trkpt><trkpt lat="44.4625063" lon="11.1716515"><ele>135.0</ele><time>2026-03-22T09:18:12.648Z</time></trkpt><trkpt lat="44.4625673" lon="11.1715913"><ele>135.0</ele><time>2026-03-22T09:18:13.648Z</time></trkpt><trkpt lat="44.4626596" lon="11.1715189"><ele>135.0</ele><time>2026-03-22T09:18:14.648Z</time></trkpt><trkpt lat="44.4627542" lon="11.171438"><ele>135.0</ele><time>2026-03-22T09:18:15.648Z</time></trkpt><trkpt lat="44.4628643" lon="11.1713643"><ele>135.0</ele><time>2026-03-22T09:18:16.648Z</time></trkpt><trkpt lat="44.4629767" lon="11.1713051"><ele>138.5</ele><time>2026-03-22T09:18:17.648Z</time></trkpt><trkpt lat="44.4630843" lon="11.1712631"><ele>142.0</ele><time>2026-03-22T09:18:18.648Z</time></trkpt><trkpt lat="44.4631918" lon="11.1712157"><ele>145.5</ele><time>2026-03-22T09:18:19.648Z</time></trkpt><trkpt lat="44.4632945" lon="11.1711499"><ele>149.0</ele><time>2026-03-22T09:18:20.648Z</time></trkpt><trkpt lat="44.4633904" lon="11.1710645"><ele>149.0</ele><time>2026-03-22T09:18:21.648Z</time></trkpt><trkpt lat="44.4634786" lon="11.1709612"><ele>149.0</ele><time>2026-03-22T09:18:22.648Z</time></trkpt><trkpt lat="44.4635596" lon="11.1708384"><ele>149.0</ele><time>2026-03-22T09:18:23.648Z</time></trkpt><trkpt lat="44.4636423" lon="11.1706984"><ele>149.0</ele><time>2026-03-22T09:18:24.648Z</time></trkpt><trkpt lat="44.4637194" lon="11.1705531"><ele>149.6</ele><time>2026-03-22T09:18:25.648Z</time></trkpt><trkpt lat="44.4637886" lon="11.1704254"><ele>150.2</ele><time>2026-03-22T09:18:26.648Z</time></trkpt><trkpt lat="44.4638472" lon="11.1703253"><ele>150.79999999999998</ele><time>2026-03-22T09:18:27.648Z</time></trkpt><trkpt lat="44.4638878" lon="11.1702267"><ele>151.4</ele><time>2026-03-22T09:18:28.648Z</time></trkpt><trkpt lat="44.4638986" lon="11.1700881"><ele>152.0</ele><time>2026-03-22T09:18:30.648Z</time></trkpt><trkpt lat="44.4637591" lon="11.1700363"><ele>155.25</ele><time>2026-03-22T09:18:32.648Z</time></trkpt><trkpt lat="44.4636696" lon="11.170022"><ele>158.5</ele><time>2026-03-22T09:18:33.648Z</time></trkpt><trkpt lat="44.463533" lon="11.1700165"><ele>161.75</ele><time>2026-03-22T09:18:34.648Z</time></trkpt><trkpt lat="44.4633989" lon="11.1699971"><ele>165.0</ele><time>2026-03-22T09:18:35.648Z</time></trkpt><trkpt lat="44.46327" lon="11.1699603"><ele>165.0</ele><time>2026-03-22T09:18:36.648Z</time></trkpt><trkpt lat="44.4631493" lon="11.1699438"><ele>165.0</ele><time>2026-03-22T09:18:37.648Z</time></trkpt><trkpt lat="44.4630342" lon="11.1699286"><ele>165.0</ele><time>2026-03-22T09:18:38.648Z</time></trkpt><trkpt lat="44.4629194" lon="11.1699816"><ele>165.0</ele><time>2026-03-22T09:18:39.648Z</time></trkpt><trkpt lat="44.4628041" lon="11.1700429"><ele>166.5</ele><time>2026-03-22T09:18:40.648Z</time></trkpt><trkpt lat="44.462699" lon="11.1701058"><ele>168.0</ele><time>2026-03-22T09:18:41.648Z</time></trkpt><trkpt lat="44.4626158" lon="11.1701455"><ele>169.5</ele><time>2026-03-22T09:18:42.648Z</time></trkpt><trkpt lat="44.4625381" lon="11.1701797"><ele>171.0</ele><time>2026-03-22T09:18:43.648Z</time></trkpt><trkpt lat="44.4624542" lon="11.170168"><ele>172.5</ele><time>2026-03-22T09:18:45.648Z</time></trkpt><trkpt lat="44.4624875" lon="11.170072"><ele>174.0</ele><time>2026-03-22T09:18:49.648Z</time></trkpt><trkpt lat="44.4625293" lon="11.1699796"><ele>174.0</ele><time>2026-03-22T09:18:51.648Z</time></trkpt><trkpt lat="44.4625419" lon="11.1698748"><ele>174.0</ele><time>2026-03-22T09:18:53.648Z</time></trkpt><trkpt lat="44.4625798" lon="11.1697557"><ele>174.0</ele><time>2026-03-22T09:18:55.648Z</time></trkpt><trkpt lat="44.4626529" lon="11.1695852"><ele>174.0</ele><time>2026-03-22T09:18:57.648Z</time></trkpt><trkpt lat="44.4626962" lon="11.1694907"><ele>174.0</ele><time>2026-03-22T09:18:58.648Z</time></trkpt><trkpt lat="44.4627529" lon="11.1694196"><ele>176.79999999999998</ele><time>2026-03-22T09:18:59.648Z</time></trkpt><trkpt lat="44.4628594" lon="11.1694129"><ele>179.6</ele><time>2026-03-22T09:19:00.648Z</time></trkpt><trkpt lat="44.4629702" lon="11.1693926"><ele>182.4</ele><time>2026-03-22T09:19:01.648Z</time></trkpt><trkpt lat="44.4630488" lon="11.1693531"><ele>185.2</ele><time>2026-03-22T09:19:02.648Z</time></trkpt><trkpt lat="44.4631186" lon="11.1693201"><ele>188.0</ele><time>2026-03-22T09:19:03.648Z</time></trkpt><trkpt lat="44.4632054" lon="11.1692832"><ele>188.0</ele><time>2026-03-22T09:19:05.648Z</time></trkpt><trkpt lat="44.4632577" lon="11.1691954"><ele>188.0</ele><time>2026-03-22T09:19:07.648Z</time></trkpt><trkpt lat="44.4632926" lon="11.1691094"><ele>188.0</ele><time>2026-03-22T09:19:08.648Z</time></trkpt><trkpt lat="44.4633296" lon="11.168979"><ele>188.0</ele><time>2026-03-22T09:19:09.648Z</time></trkpt><trkpt lat="44.463379" lon="11.1688136"><ele>188.0</ele><time>2026-03-22T09:19:10.648Z</time></trkpt><trkpt lat="44.4634314" lon="11.1686176"><ele>194.0</ele><time>2026-03-22T09:19:11.648Z</time></trkpt><trkpt lat="44.4635075" lon="11.1684119"><ele>200.0</ele><time>2026-03-22T09:19:12.648Z</time></trkpt><trkpt lat="44.4635711" lon="11.168197"><ele>206.0</ele><time>2026-03-22T09:19:13.648Z</time></trkpt><trkpt lat="44.4636309" lon="11.1679928"><ele>207.0</ele><time>2026-03-22T09:19:14.648Z</time></trkpt><trkpt lat="44.4636908" lon="11.1677961"><ele>208.0</ele><time>2026-03-22T09:19:15.648Z</time></trkpt><trkpt lat="44.4637496" lon="11.1676091"><ele>209.0</ele><time>2026-03-22T09:19:16.648Z</time></trkpt><trkpt lat="44.4638138" lon="11.1674541"><ele>210.0</ele><time>2026-03-22T09:19:17.648Z</time></trkpt><trkpt lat="44.4638678" lon="11.1673039"><ele>213.6</ele><time>2026-03-22T09:19:18.648Z</time></trkpt><trkpt lat="44.4639136" lon="11.1671785"><ele>217.2</ele><time>2026-03-22T09:19:19.648Z</time></trkpt><trkpt lat="44.4639719" lon="11.1671046"><ele>220.8</ele><time>2026-03-22T09:19:20.648Z</time></trkpt><trkpt lat="44.4640499" lon="11.1670547"><ele>224.4</ele><time>2026-03-22T09:19:21.648Z</time></trkpt><trkpt lat="44.4641244" lon="11.1670119"><ele>228.0</ele><time>2026-03-22T09:19:22.648Z</time></trkpt><trkpt lat="44.4642264" lon="11.1670468"><ele>228.0</ele><time>2026-03-22T09:19:23.648Z</time></trkpt><trkpt lat="44.4643064" lon="11.1670472"><ele>228.0</ele><time>2026-03-22T09:19:24.648Z</time></trkpt><trkpt lat="44.4643787" lon="11.1670491"><ele>228.0</ele><time>2026-03-22T09:19:25.648Z</time></trkpt><trkpt lat="44.4644687" lon="11.1670616"><ele>228.0</ele><time>2026-03-22T09:19:27.648Z</time></trkpt><trkpt lat="44.4645568" lon="11.1670515"><ele>228.0</ele><time>2026-03-22T09:19:29.648Z</time></trkpt><trkpt lat="44.4646861" lon="11.1670402"><ele>227.66666666666666</ele><time>2026-03-22T09:19:31.648Z</time></trkpt><trkpt lat="44.4647631" lon="11.1670185"><ele>227.33333333333331</ele><time>2026-03-22T09:19:32.648Z</time></trkpt><trkpt lat="44.4648457" lon="11.1669715"><ele>227.0</ele><time>2026-03-22T09:19:33.648Z</time></trkpt><trkpt lat="44.4649374" lon="11.1669355"><ele>226.66666666666666</ele><time>2026-03-22T09:19:34.648Z</time></trkpt><trkpt lat="44.4650322" lon="11.1669181"><ele>226.33333333333331</ele><time>2026-03-22T09:19:35.648Z</time></trkpt><trkpt lat="44.4651118" lon="11.1669043"><ele>226.0</ele><time>2026-03-22T09:19:36.648Z</time></trkpt><trkpt lat="44.4652001" lon="11.166888"><ele>226.0</ele><time>2026-03-22T09:19:37.648Z</time></trkpt><trkpt lat="44.4652794" lon="11.1668514"><ele>226.00000000000003</ele><time>2026-03-22T09:19:38.648Z</time></trkpt><trkpt lat="44.4653589" lon="11.1667785"><ele>226.00000000000003</ele><time>2026-03-22T09:19:39.648Z</time></trkpt><trkpt lat="44.4654377" lon="11.1667054"><ele>226.0</ele><time>2026-03-22T09:19:40.648Z</time></trkpt><trkpt lat="44.4655252" lon="11.1666353"><ele>226.0</ele><time>2026-03-22T09:19:41.648Z</time></trkpt><trkpt lat="44.4656204" lon="11.1665635"><ele>229.4</ele><time>2026-03-22T09:19:42.648Z</time></trkpt><trkpt lat="44.4657079" lon="11.1664794"><ele>232.8</ele><time>2026-03-22T09:19:43.648Z</time></trkpt><trkpt lat="44.4657944" lon="11.1663876"><ele>236.20000000000002</ele><time>2026-03-22T09:19:44.648Z</time></trkpt><trkpt lat="44.4658702" lon="11.166288"><ele>239.60000000000002</ele><time>2026-03-22T09:19:45.648Z</time></trkpt><trkpt lat="44.4659354" lon="11.1661828"><ele>243.0</ele><time>2026-03-22T09:19:46.648Z</time></trkpt><trkpt lat="44.4660058" lon="11.1660769"><ele>243.0</ele><time>2026-03-22T09:19:47.648Z</time></trkpt><trkpt lat="44.4660711" lon="11.1659724"><ele>243.0</ele><time>2026-03-22T09:19:48.648Z</time></trkpt><trkpt lat="44.4661479" lon="11.165882"><ele>243.0</ele><time>2026-03-22T09:19:49.648Z</time></trkpt><trkpt lat="44.4662476" lon="11.1658168"><ele>243.0</ele><time>2026-03-22T09:19:50.648Z</time></trkpt><trkpt lat="44.4663422" lon="11.1657688"><ele>243.0</ele><time>2026-03-22T09:19:51.648Z</time></trkpt><trkpt lat="44.4664369" lon="11.1658144"><ele>243.8</ele><time>2026-03-22T09:19:52.648Z</time></trkpt><trkpt lat="44.46654" lon="11.1658648"><ele>244.60000000000002</ele><time>2026-03-22T09:19:53.648Z</time></trkpt><trkpt lat="44.4666276" lon="11.1659448"><ele>245.39999999999998</ele><time>2026-03-22T09:19:54.648Z</time></trkpt><trkpt lat="44.4666979" lon="11.1660457"><ele>246.2</ele><time>2026-03-22T09:19:55.648Z</time></trkpt><trkpt lat="44.4667696" lon="11.166198"><ele>247.0</ele><time>2026-03-22T09:19:56.648Z</time></trkpt><trkpt lat="44.4668548" lon="11.1663312"><ele>247.0</ele><time>2026-03-22T09:19:57.648Z</time></trkpt><trkpt lat="44.466949" lon="11.1664257"><ele>247.0</ele><time>2026-03-22T09:19:58.648Z</time></trkpt><trkpt lat="44.4670434" lon="11.166495"><ele>247.0</ele><time>2026-03-22T09:19:59.648Z</time></trkpt><trkpt lat="44.4671303" lon="11.1665472"><ele>247.0</ele><time>2026-03-22T09:20:00.648Z</time></trkpt><trkpt lat="44.467239" lon="11.1665937"><ele>247.0</ele><time>2026-03-22T09:20:01.648Z</time></trkpt><trkpt lat="44.4673258" lon="11.1666283"><ele>247.16666666666666</ele><time>2026-03-22T09:20:02.648Z</time></trkpt><trkpt lat="44.4673972" lon="11.1666881"><ele>247.33333333333331</ele><time>2026-03-22T09:20:03.648Z</time></trkpt><trkpt lat="44.4674357" lon="11.1667593"><ele>247.5</ele><time>2026-03-22T09:20:04.648Z</time></trkpt><trkpt lat="44.4674997" lon="11.1668562"><ele>247.66666666666669</ele><time>2026-03-22T09:20:06.648Z</time></trkpt><trkpt lat="44.4675678" lon="11.1669686"><ele>247.83333333333334</ele><time>2026-03-22T09:20:08.648Z</time></trkpt><trkpt lat="44.4676033" lon="11.1670622"><ele>248.0</ele><time>2026-03-22T09:20:09.648Z</time></trkpt><trkpt lat="44.4676434" lon="11.1671617"><ele>248.00000000000003</ele><time>2026-03-22T09:20:10.648Z</time></trkpt><trkpt lat="44.4676883" lon="11.1672549"><ele>248.0</ele><time>2026-03-22T09:20:11.648Z</time></trkpt><trkpt lat="44.4677414" lon="11.1673555"><ele>248.0</ele><time>2026-03-22T09:20:12.648Z</time></trkpt><trkpt lat="44.4677935" lon="11.1674553"><ele>248.0</ele><time>2026-03-22T09:20:13.648Z</time></trkpt><trkpt lat="44.467851" lon="11.1675667"><ele>248.00000000000003</ele><time>2026-03-22T09:20:14.648Z</time></trkpt><trkpt lat="44.4679002" lon="11.1676729"><ele>248.0</ele><time>2026-03-22T09:20:15.648Z</time></trkpt><trkpt lat="44.4679427" lon="11.1677674"><ele>246.4</ele><time>2026-03-22T09:20:16.648Z</time></trkpt><trkpt lat="44.4679871" lon="11.1678548"><ele>244.8</ele><time>2026-03-22T09:20:17.648Z</time></trkpt><trkpt lat="44.4680496" lon="11.1679235"><ele>243.2</ele><time>2026-03-22T09:20:18.648Z</time></trkpt><trkpt lat="44.468137" lon="11.1679773"><ele>241.6</ele><time>2026-03-22T09:20:19.648Z</time></trkpt><trkpt lat="44.4682336" lon="11.1680404"><ele>240.0</ele><time>2026-03-22T09:20:20.648Z</time></trkpt><trkpt lat="44.4683387" lon="11.168109"><ele>240.0</ele><time>2026-03-22T09:20:21.648Z</time></trkpt><trkpt lat="44.4684536" lon="11.1681689"><ele>240.0</ele><time>2026-03-22T09:20:22.648Z</time></trkpt><trkpt lat="44.4685708" lon="11.1682157"><ele>240.0</ele><time>2026-03-22T09:20:23.648Z</time></trkpt><trkpt lat="44.4686824" lon="11.1682861"><ele>240.0</ele><time>2026-03-22T09:20:24.648Z</time></trkpt><trkpt lat="44.4687826" lon="11.1683796"><ele>237.0</ele><time>2026-03-22T09:20:25.648Z</time></trkpt><trkpt lat="44.4688684" lon="11.1684898"><ele>234.0</ele><time>2026-03-22T09:20:26.648Z</time></trkpt><trkpt lat="44.4689239" lon="11.168644"><ele>231.0</ele><time>2026-03-22T09:20:27.648Z</time></trkpt><trkpt lat="44.4689778" lon="11.1688283"><ele>228.0</ele><time>2026-03-22T09:20:28.648Z</time></trkpt><trkpt lat="44.4690324" lon="11.1690044"><ele>230.5</ele><time>2026-03-22T09:20:29.648Z</time></trkpt><trkpt lat="44.4690941" lon="11.1691665"><ele>233.0</ele><time>2026-03-22T09:20:30.648Z</time></trkpt><trkpt lat="44.4691664" lon="11.169329"><ele>235.5</ele><time>2026-03-22T09:20:31.648Z</time></trkpt><trkpt lat="44.469251" lon="11.1694995"><ele>238.0</ele><time>2026-03-22T09:20:32.648Z</time></trkpt><trkpt lat="44.4693258" lon="11.1696508"><ele>238.0</ele><time>2026-03-22T09:20:33.648Z</time></trkpt><trkpt lat="44.4693795" lon="11.1698131"><ele>238.0</ele><time>2026-03-22T09:20:34.648Z</time></trkpt><trkpt lat="44.4694114" lon="11.1699811"><ele>238.0</ele><time>2026-03-22T09:20:35.648Z</time></trkpt><trkpt lat="44.4694421" lon="11.1701621"><ele>238.0</ele><time>2026-03-22T09:20:36.648Z</time></trkpt><trkpt lat="44.4694654" lon="11.170331"><ele>238.5</ele><time>2026-03-22T09:20:37.648Z</time></trkpt><trkpt lat="44.469509" lon="11.1704958"><ele>239.0</ele><time>2026-03-22T09:20:38.648Z</time></trkpt><trkpt lat="44.4695543" lon="11.1706607"><ele>239.5</ele><time>2026-03-22T09:20:39.648Z</time></trkpt><trkpt lat="44.4696157" lon="11.1708177"><ele>240.0</ele><time>2026-03-22T09:20:40.648Z</time></trkpt><trkpt lat="44.4696919" lon="11.1709576"><ele>238.25</ele><time>2026-03-22T09:20:41.648Z</time></trkpt><trkpt lat="44.4697702" lon="11.1711058"><ele>236.5</ele><time>2026-03-22T09:20:42.648Z</time></trkpt><trkpt lat="44.4698413" lon="11.1712583"><ele>234.75</ele><time>2026-03-22T09:20:43.648Z</time></trkpt><trkpt lat="44.4699224" lon="11.1714132"><ele>233.0</ele><time>2026-03-22T09:20:44.648Z</time></trkpt><trkpt lat="44.4699922" lon="11.1715618"><ele>233.0</ele><time>2026-03-22T09:20:45.648Z</time></trkpt><trkpt lat="44.470063" lon="11.1716943"><ele>233.0</ele><time>2026-03-22T09:20:46.648Z</time></trkpt><trkpt lat="44.4701338" lon="11.17181"><ele>233.0</ele><time>2026-03-22T09:20:47.649Z</time></trkpt><trkpt lat="44.4702096" lon="11.1719364"><ele>233.0</ele><time>2026-03-22T09:20:48.648Z</time></trkpt><trkpt lat="44.470287" lon="11.1720748"><ele>233.0</ele><time>2026-03-22T09:20:49.648Z</time></trkpt><trkpt lat="44.4703598" lon="11.1722304"><ele>233.0</ele><time>2026-03-22T09:20:50.648Z</time></trkpt><trkpt lat="44.4704457" lon="11.1723948"><ele>233.0</ele><time>2026-03-22T09:20:51.648Z</time></trkpt><trkpt lat="44.470523" lon="11.1725567"><ele>233.0</ele><time>2026-03-22T09:20:52.648Z</time></trkpt><trkpt lat="44.4706055" lon="11.1727216"><ele>236.25</ele><time>2026-03-22T09:20:53.648Z</time></trkpt><trkpt lat="44.4706923" lon="11.1728885"><ele>239.5</ele><time>2026-03-22T09:20:54.648Z</time></trkpt><trkpt lat="44.4707751" lon="11.1730477"><ele>242.75</ele><time>2026-03-22T09:20:55.648Z</time></trkpt><trkpt lat="44.4708571" lon="11.1732161"><ele>246.0</ele><time>2026-03-22T09:20:56.648Z</time></trkpt><trkpt lat="44.4709375" lon="11.1733769"><ele>247.0</ele><time>2026-03-22T09:20:57.648Z</time></trkpt><trkpt lat="44.471015" lon="11.1735295"><ele>248.0</ele><time>2026-03-22T09:20:58.648Z</time></trkpt><trkpt lat="44.4710904" lon="11.1736729"><ele>249.0</ele><time>2026-03-22T09:20:59.648Z</time></trkpt><trkpt lat="44.4711619" lon="11.1738099"><ele>250.0</ele><time>2026-03-22T09:21:00.648Z</time></trkpt><trkpt lat="44.4712288" lon="11.1739397"><ele>250.4</ele><time>2026-03-22T09:21:01.648Z</time></trkpt><trkpt lat="44.4712891" lon="11.1740571"><ele>250.8</ele><time>2026-03-22T09:21:02.648Z</time></trkpt><trkpt lat="44.4713497" lon="11.1741726"><ele>251.2</ele><time>2026-03-22T09:21:03.648Z</time></trkpt><trkpt lat="44.4714024" lon="11.1742768"><ele>251.6</ele><time>2026-03-22T09:21:04.648Z</time></trkpt><trkpt lat="44.4714581" lon="11.1743809"><ele>252.0</ele><time>2026-03-22T09:21:05.648Z</time></trkpt><trkpt lat="44.4714935" lon="11.1744793"><ele>252.0</ele><time>2026-03-22T09:21:06.648Z</time></trkpt><trkpt lat="44.471534" lon="11.1745701"><ele>252.0</ele><time>2026-03-22T09:21:07.648Z</time></trkpt><trkpt lat="44.4715675" lon="11.1746588"><ele>252.0</ele><time>2026-03-22T09:21:08.648Z</time></trkpt><trkpt lat="44.4715949" lon="11.1747588"><ele>252.0</ele><time>2026-03-22T09:21:09.648Z</time></trkpt><trkpt lat="44.4716258" lon="11.1749259"><ele>252.0</ele><time>2026-03-22T09:21:11.648Z</time></trkpt><trkpt lat="44.4716981" lon="11.1750516"><ele>253.0</ele><time>2026-03-22T09:21:13.648Z</time></trkpt><trkpt lat="44.4717568" lon="11.1751355"><ele>254.0</ele><time>2026-03-22T09:21:14.648Z</time></trkpt><trkpt lat="44.471829" lon="11.1752239"><ele>255.0</ele><time>2026-03-22T09:21:15.648Z</time></trkpt><trkpt lat="44.4719024" lon="11.1753089"><ele>256.0</ele><time>2026-03-22T09:21:16.648Z</time></trkpt><trkpt lat="44.47198" lon="11.1754047"><ele>257.0</ele><time>2026-03-22T09:21:17.648Z</time></trkpt><trkpt lat="44.4720525" lon="11.1754956"><ele>253.2</ele><time>2026-03-22T09:21:18.648Z</time></trkpt><trkpt lat="44.4721332" lon="11.1755815"><ele>249.39999999999998</ele><time>2026-03-22T09:21:19.648Z</time></trkpt><trkpt lat="44.472214" lon="11.1756761"><ele>245.60000000000002</ele><time>2026-03-22T09:21:20.648Z</time></trkpt><trkpt lat="44.4723023" lon="11.1757897"><ele>241.8</ele><time>2026-03-22T09:21:21.648Z</time></trkpt><trkpt lat="44.472382" lon="11.1759076"><ele>238.0</ele><time>2026-03-22T09:21:22.648Z</time></trkpt><trkpt lat="44.4724805" lon="11.1760535"><ele>238.0</ele><time>2026-03-22T09:21:23.648Z</time></trkpt><trkpt lat="44.4725816" lon="11.1761835"><ele>238.0</ele><time>2026-03-22T09:21:24.648Z</time></trkpt><trkpt lat="44.4726766" lon="11.1763183"><ele>238.0</ele><time>2026-03-22T09:21:25.648Z</time></trkpt><trkpt lat="44.4727749" lon="11.1764491"><ele>238.0</ele><time>2026-03-22T09:21:26.648Z</time></trkpt><trkpt lat="44.4728634" lon="11.1765677"><ele>238.0</ele><time>2026-03-22T09:21:27.648Z</time></trkpt><trkpt lat="44.4729502" lon="11.1766874"><ele>238.0</ele><time>2026-03-22T09:21:28.648Z</time></trkpt><trkpt lat="44.4730396" lon="11.1767907"><ele>238.0</ele><time>2026-03-22T09:21:29.648Z</time></trkpt><trkpt lat="44.4731227" lon="11.1768761"><ele>238.0</ele><time>2026-03-22T09:21:30.648Z</time></trkpt><trkpt lat="44.4732097" lon="11.1769337"><ele>238.0</ele><time>2026-03-22T09:21:31.648Z</time></trkpt><trkpt lat="44.4733043" lon="11.1769445"><ele>238.0</ele><time>2026-03-22T09:21:32.648Z</time></trkpt><trkpt lat="44.4734032" lon="11.1769612"><ele>238.0</ele><time>2026-03-22T09:21:33.648Z</time></trkpt><trkpt lat="44.4734992" lon="11.1769717"><ele>238.0</ele><time>2026-03-22T09:21:34.648Z</time></trkpt><trkpt lat="44.4736067" lon="11.1770271"><ele>238.0</ele><time>2026-03-22T09:21:35.648Z</time></trkpt><trkpt lat="44.4737132" lon="11.1770762"><ele>238.0</ele><time>2026-03-22T09:21:36.648Z</time></trkpt><trkpt lat="44.4738138" lon="11.1771292"><ele>238.0</ele><time>2026-03-22T09:21:37.648Z</time></trkpt><trkpt lat="44.4739149" lon="11.1772078"><ele>238.0</ele><time>2026-03-22T09:21:38.648Z</time></trkpt><trkpt lat="44.4740099" lon="11.1772669"><ele>238.0</ele><time>2026-03-22T09:21:39.648Z</time></trkpt><trkpt lat="44.4740944" lon="11.1773539"><ele>238.0</ele><time>2026-03-22T09:21:40.648Z</time></trkpt><trkpt lat="44.4741734" lon="11.177419"><ele>238.0</ele><time>2026-03-22T09:21:41.648Z</time></trkpt><trkpt lat="44.4742597" lon="11.1774532"><ele>235.49999999999997</ele><time>2026-03-22T09:21:42.648Z</time></trkpt><trkpt lat="44.474349" lon="11.1774805"><ele>233.0</ele><time>2026-03-22T09:21:43.648Z</time></trkpt><trkpt lat="44.4744327" lon="11.1774819"><ele>230.5</ele><time>2026-03-22T09:21:44.648Z</time></trkpt><trkpt lat="44.4745617" lon="11.1774501"><ele>228.0</ele><time>2026-03-22T09:21:46.648Z</time></trkpt><trkpt lat="44.4746271" lon="11.177433"><ele>225.49999999999997</ele><time>2026-03-22T09:21:48.648Z</time></trkpt><trkpt lat="44.4746904" lon="11.1774156"><ele>223.0</ele><time>2026-03-22T09:21:50.648Z</time></trkpt><trkpt lat="44.4748329" lon="11.17739"><ele>222.4</ele><time>2026-03-22T09:21:52.648Z</time></trkpt><trkpt lat="44.4749322" lon="11.177387"><ele>221.8</ele><time>2026-03-22T09:21:53.648Z</time></trkpt><trkpt lat="44.4750413" lon="11.1773842"><ele>221.2</ele><time>2026-03-22T09:21:54.648Z</time></trkpt><trkpt lat="44.4751486" lon="11.1773767"><ele>220.6</ele><time>2026-03-22T09:21:55.648Z</time></trkpt><trkpt lat="44.4752525" lon="11.1773687"><ele>220.0</ele><time>2026-03-22T09:21:56.648Z</time></trkpt><trkpt lat="44.4753427" lon="11.1773946"><ele>220.0</ele><time>2026-03-22T09:21:57.648Z</time></trkpt><trkpt lat="44.4754262" lon="11.1774267"><ele>220.0</ele><time>2026-03-22T09:21:58.648Z</time></trkpt><trkpt lat="44.4755045" lon="11.1774409"><ele>220.0</ele><time>2026-03-22T09:21:59.648Z</time></trkpt><trkpt lat="44.4755997" lon="11.1774769"><ele>220.0</ele><time>2026-03-22T09:22:00.648Z</time></trkpt><trkpt lat="44.4756946" lon="11.1775263"><ele>220.0</ele><time>2026-03-22T09:22:01.648Z</time></trkpt><trkpt lat="44.4758896" lon="11.1775914"><ele>218.2</ele><time>2026-03-22T09:22:03.648Z</time></trkpt><trkpt lat="44.4759907" lon="11.1776229"><ele>216.4</ele><time>2026-03-22T09:22:04.648Z</time></trkpt><trkpt lat="44.4760964" lon="11.1776476"><ele>214.60000000000002</ele><time>2026-03-22T09:22:05.648Z</time></trkpt><trkpt lat="44.4762024" lon="11.1776728"><ele>212.8</ele><time>2026-03-22T09:22:06.648Z</time></trkpt><trkpt lat="44.4763123" lon="11.1777054"><ele>211.0</ele><time>2026-03-22T09:22:07.648Z</time></trkpt><trkpt lat="44.4764231" lon="11.1777404"><ele>208.25</ele><time>2026-03-22T09:22:08.648Z</time></trkpt><trkpt lat="44.4765337" lon="11.1777954"><ele>205.5</ele><time>2026-03-22T09:22:09.648Z</time></trkpt><trkpt lat="44.4766396" lon="11.1778826"><ele>202.75</ele><time>2026-03-22T09:22:10.648Z</time></trkpt><trkpt lat="44.4767439" lon="11.1779833"><ele>200.0</ele><time>2026-03-22T09:22:11.648Z</time></trkpt><trkpt lat="44.4768471" lon="11.1780752"><ele>200.0</ele><time>2026-03-22T09:22:12.648Z</time></trkpt><trkpt lat="44.4769513" lon="11.1781741"><ele>200.0</ele><time>2026-03-22T09:22:13.648Z</time></trkpt><trkpt lat="44.4770578" lon="11.178265"><ele>200.0</ele><time>2026-03-22T09:22:14.648Z</time></trkpt><trkpt lat="44.4771628" lon="11.1783458"><ele>200.0</ele><time>2026-03-22T09:22:15.648Z</time></trkpt><trkpt lat="44.4772712" lon="11.1784181"><ele>195.75</ele><time>2026-03-22T09:22:16.648Z</time></trkpt><trkpt lat="44.4773842" lon="11.1784959"><ele>191.5</ele><time>2026-03-22T09:22:17.648Z</time></trkpt><trkpt lat="44.4774925" lon="11.1785677"><ele>187.25</ele><time>2026-03-22T09:22:18.648Z</time></trkpt><trkpt lat="44.4775858" lon="11.1786527"><ele>183.0</ele><time>2026-03-22T09:22:19.648Z</time></trkpt><trkpt lat="44.4776761" lon="11.1787517"><ele>183.0</ele><time>2026-03-22T09:22:20.648Z</time></trkpt><trkpt lat="44.4777553" lon="11.1788609"><ele>183.0</ele><time>2026-03-22T09:22:21.648Z</time></trkpt><trkpt lat="44.4778224" lon="11.178987"><ele>183.0</ele><time>2026-03-22T09:22:22.648Z</time></trkpt><trkpt lat="44.4778813" lon="11.1791183"><ele>183.0</ele><time>2026-03-22T09:22:23.648Z</time></trkpt><trkpt lat="44.4780057" lon="11.1793527"><ele>179.8</ele><time>2026-03-22T09:22:25.648Z</time></trkpt><trkpt lat="44.4780639" lon="11.179435"><ele>176.60000000000002</ele><time>2026-03-22T09:22:26.648Z</time></trkpt><trkpt lat="44.4781247" lon="11.179481"><ele>173.39999999999998</ele><time>2026-03-22T09:22:27.648Z</time></trkpt><trkpt lat="44.4782548" lon="11.179443"><ele>170.2</ele><time>2026-03-22T09:22:29.648Z</time></trkpt><trkpt lat="44.4783302" lon="11.1793665"><ele>167.0</ele><time>2026-03-22T09:22:30.648Z</time></trkpt><trkpt lat="44.4784038" lon="11.1792548"><ele>167.0</ele><time>2026-03-22T09:22:31.648Z</time></trkpt><trkpt lat="44.4784822" lon="11.1791442"><ele>167.0</ele><time>2026-03-22T09:22:32.648Z</time></trkpt><trkpt lat="44.4785562" lon="11.179033"><ele>167.0</ele><time>2026-03-22T09:22:33.648Z</time></trkpt><trkpt lat="44.4786295" lon="11.178912"><ele>167.0</ele><time>2026-03-22T09:22:34.648Z</time></trkpt><trkpt lat="44.4787072" lon="11.1788113"><ele>167.0</ele><time>2026-03-22T09:22:35.648Z</time></trkpt><trkpt lat="44.4787786" lon="11.1787327"><ele>164.4</ele><time>2026-03-22T09:22:36.648Z</time></trkpt><trkpt lat="44.4788657" lon="11.1786564"><ele>161.79999999999998</ele><time>2026-03-22T09:22:37.648Z</time></trkpt><trkpt lat="44.4789711" lon="11.1786368"><ele>159.2</ele><time>2026-03-22T09:22:38.648Z</time></trkpt><trkpt lat="44.4790466" lon="11.1786252"><ele>156.6</ele><time>2026-03-22T09:22:39.648Z</time></trkpt><trkpt lat="44.479139" lon="11.1786377"><ele>154.0</ele><time>2026-03-22T09:22:40.648Z</time></trkpt><trkpt lat="44.4792225" lon="11.1786711"><ele>154.0</ele><time>2026-03-22T09:22:41.648Z</time></trkpt><trkpt lat="44.4793211" lon="11.1787174"><ele>154.0</ele><time>2026-03-22T09:22:42.648Z</time></trkpt><trkpt lat="44.4794058" lon="11.178765"><ele>154.0</ele><time>2026-03-22T09:22:43.648Z</time></trkpt><trkpt lat="44.479492" lon="11.1788107"><ele>154.0</ele><time>2026-03-22T09:22:44.648Z</time></trkpt><trkpt lat="44.4795776" lon="11.1788548"><ele>154.0</ele><time>2026-03-22T09:22:45.648Z</time></trkpt><trkpt lat="44.4796621" lon="11.178897"><ele>152.66666666666669</ele><time>2026-03-22T09:22:46.648Z</time></trkpt><trkpt lat="44.4797467" lon="11.1789237"><ele>151.33333333333334</ele><time>2026-03-22T09:22:47.648Z</time></trkpt><trkpt lat="44.4798229" lon="11.1789495"><ele>150.0</ele><time>2026-03-22T09:22:48.648Z</time></trkpt><trkpt lat="44.4799027" lon="11.1789716"><ele>148.66666666666666</ele><time>2026-03-22T09:22:49.648Z</time></trkpt><trkpt lat="44.4799769" lon="11.1789896"><ele>147.33333333333331</ele><time>2026-03-22T09:22:50.648Z</time></trkpt><trkpt lat="44.4800458" lon="11.1789969"><ele>146.0</ele><time>2026-03-22T09:22:51.648Z</time></trkpt><trkpt lat="44.4801088" lon="11.1790092"><ele>145.57142857142856</ele><time>2026-03-22T09:22:52.648Z</time></trkpt><trkpt lat="44.4801739" lon="11.1790188"><ele>145.14285714285714</ele><time>2026-03-22T09:22:53.648Z</time></trkpt><trkpt lat="44.4802378" lon="11.1790265"><ele>144.71428571428572</ele><time>2026-03-22T09:22:54.648Z</time></trkpt><trkpt lat="44.4803101" lon="11.1790303"><ele>144.28571428571428</ele><time>2026-03-22T09:22:55.648Z</time></trkpt><trkpt lat="44.4803779" lon="11.1790406"><ele>143.85714285714286</ele><time>2026-03-22T09:22:56.648Z</time></trkpt><trkpt lat="44.4804454" lon="11.1790672"><ele>143.42857142857142</ele><time>2026-03-22T09:22:57.648Z</time></trkpt><trkpt lat="44.4805126" lon="11.1790805"><ele>143.0</ele><time>2026-03-22T09:22:58.648Z</time></trkpt><trkpt lat="44.480587" lon="11.1790931"><ele>143.0</ele><time>2026-03-22T09:22:59.648Z</time></trkpt><trkpt lat="44.480668" lon="11.1791035"><ele>143.0</ele><time>2026-03-22T09:23:00.648Z</time></trkpt><trkpt lat="44.4807735" lon="11.1791279"><ele>143.0</ele><time>2026-03-22T09:23:01.648Z</time></trkpt><trkpt lat="44.4808948" lon="11.1791508"><ele>143.0</ele><time>2026-03-22T09:23:02.648Z</time></trkpt><trkpt lat="44.4810212" lon="11.1791717"><ele>143.0</ele><time>2026-03-22T09:23:03.648Z</time></trkpt><trkpt lat="44.4811383" lon="11.1792005"><ele>143.0</ele><time>2026-03-22T09:23:04.648Z</time></trkpt><trkpt lat="44.4812565" lon="11.179213"><ele>143.0</ele><time>2026-03-22T09:23:05.648Z</time></trkpt><trkpt lat="44.4813884" lon="11.179212"><ele>143.0</ele><time>2026-03-22T09:23:06.648Z</time></trkpt><trkpt lat="44.4815198" lon="11.1791993"><ele>143.0</ele><time>2026-03-22T09:23:07.648Z</time></trkpt><trkpt lat="44.4816588" lon="11.1791857"><ele>140.75</ele><time>2026-03-22T09:23:08.648Z</time></trkpt><trkpt lat="44.4817865" lon="11.1791815"><ele>138.5</ele><time>2026-03-22T09:23:09.648Z</time></trkpt><trkpt lat="44.4819234" lon="11.1791633"><ele>136.25</ele><time>2026-03-22T09:23:10.648Z</time></trkpt><trkpt lat="44.4820555" lon="11.1791405"><ele>134.0</ele><time>2026-03-22T09:23:11.648Z</time></trkpt><trkpt lat="44.4821905" lon="11.1791213"><ele>131.5</ele><time>2026-03-22T09:23:12.648Z</time></trkpt><trkpt lat="44.4823177" lon="11.1791103"><ele>129.0</ele><time>2026-03-22T09:23:13.648Z</time></trkpt><trkpt lat="44.482438" lon="11.1791096"><ele>126.5</ele><time>2026-03-22T09:23:14.648Z</time></trkpt><trkpt lat="44.4825578" lon="11.1791117"><ele>124.0</ele><time>2026-03-22T09:23:15.648Z</time></trkpt><trkpt lat="44.4826706" lon="11.1791048"><ele>124.0</ele><time>2026-03-22T09:23:16.648Z</time></trkpt><trkpt lat="44.482784" lon="11.1790891"><ele>124.0</ele><time>2026-03-22T09:23:17.648Z</time></trkpt><trkpt lat="44.4828993" lon="11.1790712"><ele>124.0</ele><time>2026-03-22T09:23:18.648Z</time></trkpt><trkpt lat="44.4830188" lon="11.179049"><ele>124.0</ele><time>2026-03-22T09:23:19.648Z</time></trkpt><trkpt lat="44.4831319" lon="11.179037"><ele>122.0</ele><time>2026-03-22T09:23:20.648Z</time></trkpt><trkpt lat="44.4832441" lon="11.1790187"><ele>120.0</ele><time>2026-03-22T09:23:21.648Z</time></trkpt><trkpt lat="44.4833498" lon="11.1790006"><ele>118.0</ele><time>2026-03-22T09:23:22.648Z</time></trkpt><trkpt lat="44.4834523" lon="11.1789859"><ele>116.0</ele><time>2026-03-22T09:23:23.648Z</time></trkpt><trkpt lat="44.483547" lon="11.1789799"><ele>114.0</ele><time>2026-03-22T09:23:24.648Z</time></trkpt><trkpt lat="44.4836397" lon="11.1789746"><ele>112.33333333333333</ele><time>2026-03-22T09:23:25.648Z</time></trkpt><trkpt lat="44.4837179" lon="11.1789681"><ele>110.66666666666666</ele><time>2026-03-22T09:23:26.648Z</time></trkpt><trkpt lat="44.4837926" lon="11.1789944"><ele>109.0</ele><time>2026-03-22T09:23:27.648Z</time></trkpt><trkpt lat="44.4838472" lon="11.1790629"><ele>107.33333333333333</ele><time>2026-03-22T09:23:28.648Z</time></trkpt><trkpt lat="44.4838882" lon="11.1791551"><ele>105.66666666666666</ele><time>2026-03-22T09:23:29.648Z</time></trkpt><trkpt lat="44.4839184" lon="11.1792663"><ele>104.0</ele><time>2026-03-22T09:23:30.648Z</time></trkpt><trkpt lat="44.4839248" lon="11.1793818"><ele>102.4</ele><time>2026-03-22T09:23:31.648Z</time></trkpt><trkpt lat="44.4839169" lon="11.1795092"><ele>100.80000000000001</ele><time>2026-03-22T09:23:32.648Z</time></trkpt><trkpt lat="44.4838927" lon="11.1796364"><ele>99.19999999999999</ele><time>2026-03-22T09:23:33.648Z</time></trkpt><trkpt lat="44.483855" lon="11.1797546"><ele>97.6</ele><time>2026-03-22T09:23:34.648Z</time></trkpt><trkpt lat="44.483812" lon="11.1798624"><ele>96.0</ele><time>2026-03-22T09:23:35.648Z</time></trkpt><trkpt lat="44.4837688" lon="11.1799641"><ele>96.0</ele><time>2026-03-22T09:23:36.648Z</time></trkpt><trkpt lat="44.4837269" lon="11.1800546"><ele>96.0</ele><time>2026-03-22T09:23:37.648Z</time></trkpt><trkpt lat="44.4836908" lon="11.1801898"><ele>96.0</ele><time>2026-03-22T09:23:39.648Z</time></trkpt><trkpt lat="44.4837429" lon="11.1802719"><ele>96.0</ele><time>2026-03-22T09:23:41.648Z</time></trkpt><trkpt lat="44.4838929" lon="11.1800814"><ele>96.0</ele><time>2026-03-22T09:23:43.648Z</time></trkpt><trkpt lat="44.4839727" lon="11.1799589"><ele>96.0</ele><time>2026-03-22T09:23:44.648Z</time></trkpt><trkpt lat="44.4840547" lon="11.1798103"><ele>96.0</ele><time>2026-03-22T09:23:45.648Z</time></trkpt><trkpt lat="44.4841318" lon="11.1796626"><ele>96.0</ele><time>2026-03-22T09:23:46.648Z</time></trkpt><trkpt lat="44.4842176" lon="11.1795318"><ele>96.0</ele><time>2026-03-22T09:23:47.648Z</time></trkpt><trkpt lat="44.4842902" lon="11.1793969"><ele>96.0</ele><time>2026-03-22T09:23:48.648Z</time></trkpt><trkpt lat="44.4843534" lon="11.1792609"><ele>96.0</ele><time>2026-03-22T09:23:49.648Z</time></trkpt><trkpt lat="44.4844296" lon="11.1791469"><ele>96.0</ele><time>2026-03-22T09:23:50.648Z</time></trkpt><trkpt lat="44.4844878" lon="11.1790323"><ele>96.0</ele><time>2026-03-22T09:23:51.648Z</time></trkpt><trkpt lat="44.4845507" lon="11.1789401"><ele>94.8</ele><time>2026-03-22T09:23:52.648Z</time></trkpt><trkpt lat="44.484621" lon="11.1788622"><ele>93.6</ele><time>2026-03-22T09:23:53.648Z</time></trkpt><trkpt lat="44.4847429" lon="11.1787994"><ele>92.4</ele><time>2026-03-22T09:23:55.648Z</time></trkpt><trkpt lat="44.4848551" lon="11.1788149"><ele>91.2</ele><time>2026-03-22T09:23:56.648Z</time></trkpt><trkpt lat="44.484959" lon="11.1787941"><ele>90.0</ele><time>2026-03-22T09:23:57.648Z</time></trkpt><trkpt lat="44.4850499" lon="11.1787519"><ele>90.0</ele><time>2026-03-22T09:23:58.648Z</time></trkpt><trkpt lat="44.4851452" lon="11.1787429"><ele>90.0</ele><time>2026-03-22T09:23:59.648Z</time></trkpt><trkpt lat="44.4852313" lon="11.1787156"><ele>90.0</ele><time>2026-03-22T09:24:00.648Z</time></trkpt><trkpt lat="44.4853226" lon="11.1786861"><ele>90.0</ele><time>2026-03-22T09:24:01.648Z</time></trkpt><trkpt lat="44.4854072" lon="11.1786599"><ele>90.0</ele><time>2026-03-22T09:24:02.648Z</time></trkpt><trkpt lat="44.4854861" lon="11.1786431"><ele>90.0</ele><time>2026-03-22T09:24:03.648Z</time></trkpt><trkpt lat="44.4855582" lon="11.1786268"><ele>90.14285714285714</ele><time>2026-03-22T09:24:04.648Z</time></trkpt><trkpt lat="44.485621" lon="11.1786169"><ele>90.28571428571429</ele><time>2026-03-22T09:24:05.648Z</time></trkpt><trkpt lat="44.4856891" lon="11.1786022"><ele>90.42857142857143</ele><time>2026-03-22T09:24:06.648Z</time></trkpt><trkpt lat="44.4857572" lon="11.1785738"><ele>90.57142857142857</ele><time>2026-03-22T09:24:07.648Z</time></trkpt><trkpt lat="44.4858259" lon="11.178551"><ele>90.71428571428572</ele><time>2026-03-22T09:24:08.648Z</time></trkpt><trkpt lat="44.4859054" lon="11.1785292"><ele>90.85714285714286</ele><time>2026-03-22T09:24:09.648Z</time></trkpt><trkpt lat="44.4859688" lon="11.1785162"><ele>91.0</ele><time>2026-03-22T09:24:10.648Z</time></trkpt><trkpt lat="44.4860772" lon="11.1784703"><ele>91.0</ele><time>2026-03-22T09:24:12.648Z</time></trkpt><trkpt lat="44.4861585" lon="11.1784402"><ele>91.0</ele><time>2026-03-22T09:24:13.648Z</time></trkpt><trkpt lat="44.4862323" lon="11.1784092"><ele>91.0</ele><time>2026-03-22T09:24:14.648Z</time></trkpt><trkpt lat="44.486322" lon="11.1783583"><ele>91.0</ele><time>2026-03-22T09:24:15.648Z</time></trkpt><trkpt lat="44.4864006" lon="11.178277"><ele>91.0</ele><time>2026-03-22T09:24:16.648Z</time></trkpt><trkpt lat="44.486467" lon="11.1781985"><ele>91.0</ele><time>2026-03-22T09:24:17.648Z</time></trkpt><trkpt lat="44.4865075" lon="11.1781017"><ele>90.8</ele><time>2026-03-22T09:24:18.648Z</time></trkpt><trkpt lat="44.4865761" lon="11.1779737"><ele>90.6</ele><time>2026-03-22T09:24:20.648Z</time></trkpt><trkpt lat="44.4866816" lon="11.1778829"><ele>90.4</ele><time>2026-03-22T09:24:22.648Z</time></trkpt><trkpt lat="44.4868004" lon="11.1779484"><ele>90.2</ele><time>2026-03-22T09:24:24.648Z</time></trkpt><trkpt lat="44.486858" lon="11.1779948"><ele>90.0</ele><time>2026-03-22T09:24:25.648Z</time></trkpt><trkpt lat="44.486923" lon="11.1780449"><ele>90.0</ele><time>2026-03-22T09:24:26.648Z</time></trkpt><trkpt lat="44.4870091" lon="11.1781817"><ele>90.0</ele><time>2026-03-22T09:24:28.648Z</time></trkpt><trkpt lat="44.4870504" lon="11.1782637"><ele>90.0</ele><time>2026-03-22T09:24:29.648Z</time></trkpt><trkpt lat="44.4870784" lon="11.1783548"><ele>90.0</ele><time>2026-03-22T09:24:30.648Z</time></trkpt><trkpt lat="44.487104" lon="11.1784444"><ele>90.0</ele><time>2026-03-22T09:24:31.648Z</time></trkpt><trkpt lat="44.48714" lon="11.1785304"><ele>90.0</ele><time>2026-03-22T09:24:32.648Z</time></trkpt><trkpt lat="44.4871814" lon="11.1786133"><ele>90.0</ele><time>2026-03-22T09:24:33.648Z</time></trkpt><trkpt lat="44.4872323" lon="11.1786979"><ele>90.0</ele><time>2026-03-22T09:24:34.648Z</time></trkpt><trkpt lat="44.4872861" lon="11.178783"><ele>90.0</ele><time>2026-03-22T09:24:35.648Z</time></trkpt><trkpt lat="44.4873368" lon="11.1788746"><ele>90.0</ele><time>2026-03-22T09:24:36.648Z</time></trkpt><trkpt lat="44.4873959" lon="11.178954"><ele>90.0</ele><time>2026-03-22T09:24:37.648Z</time></trkpt><trkpt lat="44.4874558" lon="11.1790599"><ele>90.0</ele><time>2026-03-22T09:24:38.648Z</time></trkpt><trkpt lat="44.4875192" lon="11.1791713"><ele>90.5</ele><time>2026-03-22T09:24:39.648Z</time></trkpt><trkpt lat="44.4875875" lon="11.1792886"><ele>91.0</ele><time>2026-03-22T09:24:40.648Z</time></trkpt><trkpt lat="44.4876573" lon="11.1794171"><ele>91.5</ele><time>2026-03-22T09:24:41.648Z</time></trkpt><trkpt lat="44.487731" lon="11.1795447"><ele>92.0</ele><time>2026-03-22T09:24:42.648Z</time></trkpt><trkpt lat="44.4878026" lon="11.1796643"><ele>92.0</ele><time>2026-03-22T09:24:43.648Z</time></trkpt><trkpt lat="44.4878809" lon="11.1797913"><ele>92.0</ele><time>2026-03-22T09:24:44.648Z</time></trkpt><trkpt lat="44.4879561" lon="11.179919"><ele>92.0</ele><time>2026-03-22T09:24:45.648Z</time></trkpt><trkpt lat="44.4880419" lon="11.1800427"><ele>92.0</ele><time>2026-03-22T09:24:46.648Z</time></trkpt><trkpt lat="44.4881329" lon="11.1801585"><ele>90.25</ele><time>2026-03-22T09:24:47.648Z</time></trkpt><trkpt lat="44.4882315" lon="11.1802604"><ele>88.5</ele><time>2026-03-22T09:24:48.648Z</time></trkpt><trkpt lat="44.4883361" lon="11.1803456"><ele>86.75</ele><time>2026-03-22T09:24:49.648Z</time></trkpt><trkpt lat="44.4884398" lon="11.1804301"><ele>85.0</ele><time>2026-03-22T09:24:50.648Z</time></trkpt><trkpt lat="44.4885366" lon="11.1805347"><ele>85.0</ele><time>2026-03-22T09:24:51.648Z</time></trkpt><trkpt lat="44.4886229" lon="11.1806557"><ele>85.0</ele><time>2026-03-22T09:24:52.648Z</time></trkpt><trkpt lat="44.4886813" lon="11.1808028"><ele>85.0</ele><time>2026-03-22T09:24:53.648Z</time></trkpt><trkpt lat="44.4887281" lon="11.1809751"><ele>85.0</ele><time>2026-03-22T09:24:54.648Z</time></trkpt><trkpt lat="44.4887556" lon="11.1811552"><ele>84.5</ele><time>2026-03-22T09:24:55.648Z</time></trkpt><trkpt lat="44.4887791" lon="11.1813487"><ele>84.0</ele><time>2026-03-22T09:24:56.648Z</time></trkpt><trkpt lat="44.4888165" lon="11.1815458"><ele>83.5</ele><time>2026-03-22T09:24:57.648Z</time></trkpt><trkpt lat="44.4888594" lon="11.181736"><ele>83.0</ele><time>2026-03-22T09:24:58.648Z</time></trkpt><trkpt lat="44.4889018" lon="11.1819272"><ele>83.0</ele><time>2026-03-22T09:24:59.648Z</time></trkpt><trkpt lat="44.4889426" lon="11.1821255"><ele>83.0</ele><time>2026-03-22T09:25:00.648Z</time></trkpt><trkpt lat="44.4889894" lon="11.1823271"><ele>83.0</ele><time>2026-03-22T09:25:01.648Z</time></trkpt><trkpt lat="44.4890372" lon="11.1825314"><ele>83.0</ele><time>2026-03-22T09:25:02.648Z</time></trkpt><trkpt lat="44.4890848" lon="11.18274"><ele>83.0</ele><time>2026-03-22T09:25:03.648Z</time></trkpt><trkpt lat="44.489129" lon="11.1829506"><ele>83.0</ele><time>2026-03-22T09:25:04.648Z</time></trkpt><trkpt lat="44.4891718" lon="11.1831578"><ele>83.5</ele><time>2026-03-22T09:25:05.648Z</time></trkpt><trkpt lat="44.4892202" lon="11.1833593"><ele>84.0</ele><time>2026-03-22T09:25:06.648Z</time></trkpt><trkpt lat="44.4892785" lon="11.1835544"><ele>84.5</ele><time>2026-03-22T09:25:07.648Z</time></trkpt><trkpt lat="44.4893274" lon="11.1837351"><ele>85.0</ele><time>2026-03-22T09:25:08.648Z</time></trkpt><trkpt lat="44.4893735" lon="11.1839262"><ele>85.5</ele><time>2026-03-22T09:25:09.648Z</time></trkpt><trkpt lat="44.4894277" lon="11.1840986"><ele>86.0</ele><time>2026-03-22T09:25:10.649Z</time></trkpt><trkpt lat="44.4894979" lon="11.1842667"><ele>86.5</ele><time>2026-03-22T09:25:11.648Z</time></trkpt><trkpt lat="44.4895863" lon="11.1844114"><ele>87.0</ele><time>2026-03-22T09:25:12.648Z</time></trkpt><trkpt lat="44.489672" lon="11.1845581"><ele>85.5</ele><time>2026-03-22T09:25:13.648Z</time></trkpt><trkpt lat="44.4897414" lon="11.1847123"><ele>84.0</ele><time>2026-03-22T09:25:14.648Z</time></trkpt><trkpt lat="44.4897916" lon="11.1848666"><ele>82.5</ele><time>2026-03-22T09:25:15.648Z</time></trkpt><trkpt lat="44.4898319" lon="11.1850251"><ele>81.0</ele><time>2026-03-22T09:25:16.648Z</time></trkpt><trkpt lat="44.4898747" lon="11.1851765"><ele>81.0</ele><time>2026-03-22T09:25:17.648Z</time></trkpt><trkpt lat="44.4899289" lon="11.1853055"><ele>81.0</ele><time>2026-03-22T09:25:18.648Z</time></trkpt><trkpt lat="44.4899913" lon="11.1854132"><ele>81.0</ele><time>2026-03-22T09:25:19.648Z</time></trkpt><trkpt lat="44.490053" lon="11.1855122"><ele>81.0</ele><time>2026-03-22T09:25:20.648Z</time></trkpt><trkpt lat="44.4901284" lon="11.1856166"><ele>81.0</ele><time>2026-03-22T09:25:21.648Z</time></trkpt><trkpt lat="44.4902194" lon="11.1857024"><ele>81.0</ele><time>2026-03-22T09:25:22.648Z</time></trkpt><trkpt lat="44.4903124" lon="11.1857758"><ele>81.0</ele><time>2026-03-22T09:25:23.648Z</time></trkpt><trkpt lat="44.4904065" lon="11.18582"><ele>81.0</ele><time>2026-03-22T09:25:24.648Z</time></trkpt><trkpt lat="44.4904976" lon="11.1858873"><ele>81.0</ele><time>2026-03-22T09:25:25.648Z</time></trkpt><trkpt lat="44.4905936" lon="11.1859477"><ele>81.0</ele><time>2026-03-22T09:25:26.648Z</time></trkpt><trkpt lat="44.4906972" lon="11.1860022"><ele>80.0</ele><time>2026-03-22T09:25:27.648Z</time></trkpt><trkpt lat="44.4907988" lon="11.1860605"><ele>79.0</ele><time>2026-03-22T09:25:28.648Z</time></trkpt><trkpt lat="44.4909111" lon="11.1861068"><ele>78.0</ele><time>2026-03-22T09:25:29.648Z</time></trkpt><trkpt lat="44.4909577" lon="11.1861671"><ele>77.0</ele><time>2026-03-22T09:25:30.648Z</time></trkpt><trkpt lat="44.4910425" lon="11.1862282"><ele>76.0</ele><time>2026-03-22T09:25:31.648Z</time></trkpt><trkpt lat="44.491134" lon="11.1862829"><ele>76.0</ele><time>2026-03-22T09:25:32.648Z</time></trkpt><trkpt lat="44.4912123" lon="11.1863486"><ele>76.0</ele><time>2026-03-22T09:25:33.648Z</time></trkpt><trkpt lat="44.491305" lon="11.1864041"><ele>76.0</ele><time>2026-03-22T09:25:34.648Z</time></trkpt><trkpt lat="44.4914092" lon="11.186459"><ele>76.0</ele><time>2026-03-22T09:25:35.648Z</time></trkpt><trkpt lat="44.4915272" lon="11.1864975"><ele>76.0</ele><time>2026-03-22T09:25:36.648Z</time></trkpt><trkpt lat="44.4916559" lon="11.1865216"><ele>76.0</ele><time>2026-03-22T09:25:37.648Z</time></trkpt><trkpt lat="44.4917817" lon="11.1865443"><ele>76.0</ele><time>2026-03-22T09:25:38.648Z</time></trkpt><trkpt lat="44.491907" lon="11.1865696"><ele>76.0</ele><time>2026-03-22T09:25:39.648Z</time></trkpt><trkpt lat="44.4920391" lon="11.186597"><ele>76.0</ele><time>2026-03-22T09:25:40.648Z</time></trkpt><trkpt lat="44.4921737" lon="11.1866186"><ele>75.25</ele><time>2026-03-22T09:25:41.648Z</time></trkpt><trkpt lat="44.4923164" lon="11.1866448"><ele>74.5</ele><time>2026-03-22T09:25:42.648Z</time></trkpt><trkpt lat="44.4924614" lon="11.1866744"><ele>73.75</ele><time>2026-03-22T09:25:43.648Z</time></trkpt><trkpt lat="44.4926035" lon="11.1867154"><ele>73.0</ele><time>2026-03-22T09:25:44.648Z</time></trkpt><trkpt lat="44.4927458" lon="11.1867665"><ele>73.0</ele><time>2026-03-22T09:25:45.648Z</time></trkpt><trkpt lat="44.4928799" lon="11.1868441"><ele>73.0</ele><time>2026-03-22T09:25:46.648Z</time></trkpt><trkpt lat="44.4930073" lon="11.1869195"><ele>73.0</ele><time>2026-03-22T09:25:47.648Z</time></trkpt><trkpt lat="44.493118" lon="11.1869876"><ele>73.0</ele><time>2026-03-22T09:25:48.648Z</time></trkpt><trkpt lat="44.4932191" lon="11.18705"><ele>72.75</ele><time>2026-03-22T09:25:49.648Z</time></trkpt><trkpt lat="44.4933073" lon="11.1871119"><ele>72.5</ele><time>2026-03-22T09:25:50.648Z</time></trkpt><trkpt lat="44.4933978" lon="11.1871988"><ele>72.25</ele><time>2026-03-22T09:25:51.648Z</time></trkpt><trkpt lat="44.4934896" lon="11.1873151"><ele>72.0</ele><time>2026-03-22T09:25:52.648Z</time></trkpt><trkpt lat="44.4935829" lon="11.1874318"><ele>71.25</ele><time>2026-03-22T09:25:53.648Z</time></trkpt><trkpt lat="44.4936832" lon="11.187553"><ele>70.5</ele><time>2026-03-22T09:25:54.648Z</time></trkpt><trkpt lat="44.4938042" lon="11.1876474"><ele>69.75</ele><time>2026-03-22T09:25:55.648Z</time></trkpt><trkpt lat="44.4939393" lon="11.1877111"><ele>69.0</ele><time>2026-03-22T09:25:56.648Z</time></trkpt><trkpt lat="44.4940785" lon="11.1877646"><ele>69.0</ele><time>2026-03-22T09:25:57.648Z</time></trkpt><trkpt lat="44.4942173" lon="11.1878241"><ele>69.0</ele><time>2026-03-22T09:25:58.648Z</time></trkpt><trkpt lat="44.4943625" lon="11.1878762"><ele>69.0</ele><time>2026-03-22T09:25:59.648Z</time></trkpt><trkpt lat="44.4945099" lon="11.1879341"><ele>69.0</ele><time>2026-03-22T09:26:00.648Z</time></trkpt><trkpt lat="44.4946482" lon="11.1880045"><ele>69.0</ele><time>2026-03-22T09:26:01.648Z</time></trkpt><trkpt lat="44.4947876" lon="11.1880629"><ele>69.0</ele><time>2026-03-22T09:26:02.648Z</time></trkpt><trkpt lat="44.4949324" lon="11.1881019"><ele>69.0</ele><time>2026-03-22T09:26:03.648Z</time></trkpt><trkpt lat="44.4950676" lon="11.1881558"><ele>69.0</ele><time>2026-03-22T09:26:04.648Z</time></trkpt><trkpt lat="44.4952148" lon="11.1882047"><ele>69.0</ele><time>2026-03-22T09:26:05.648Z</time></trkpt><trkpt lat="44.495358" lon="11.1882645"><ele>69.0</ele><time>2026-03-22T09:26:06.648Z</time></trkpt><trkpt lat="44.4954984" lon="11.1883319"><ele>69.0</ele><time>2026-03-22T09:26:07.648Z</time></trkpt><trkpt lat="44.4956415" lon="11.1883984"><ele>69.0</ele><time>2026-03-22T09:26:08.648Z</time></trkpt><trkpt lat="44.4957847" lon="11.1884704"><ele>68.66666666666667</ele><time>2026-03-22T09:26:09.648Z</time></trkpt><trkpt lat="44.4959294" lon="11.1885349"><ele>68.33333333333334</ele><time>2026-03-22T09:26:10.648Z</time></trkpt><trkpt lat="44.4960736" lon="11.188593"><ele>68.0</ele><time>2026-03-22T09:26:11.648Z</time></trkpt><trkpt lat="44.4962184" lon="11.1886482"><ele>67.33333333333334</ele><time>2026-03-22T09:26:12.648Z</time></trkpt><trkpt lat="44.4963694" lon="11.1886924"><ele>66.66666666666667</ele><time>2026-03-22T09:26:13.648Z</time></trkpt><trkpt lat="44.4965184" lon="11.1887533"><ele>66.0</ele><time>2026-03-22T09:26:14.648Z</time></trkpt><trkpt lat="44.496672" lon="11.1888173"><ele>66.0</ele><time>2026-03-22T09:26:15.648Z</time></trkpt><trkpt lat="44.4968214" lon="11.1888953"><ele>66.0</ele><time>2026-03-22T09:26:16.648Z</time></trkpt><trkpt lat="44.4969662" lon="11.1889756"><ele>66.0</ele><time>2026-03-22T09:26:17.648Z</time></trkpt><trkpt lat="44.4971142" lon="11.1890498"><ele>66.0</ele><time>2026-03-22T09:26:18.648Z</time></trkpt><trkpt lat="44.4972617" lon="11.1891232"><ele>66.0</ele><time>2026-03-22T09:26:19.648Z</time></trkpt><trkpt lat="44.4973988" lon="11.1891892"><ele>66.0</ele><time>2026-03-22T09:26:20.648Z</time></trkpt><trkpt lat="44.4975484" lon="11.1892527"><ele>66.0</ele><time>2026-03-22T09:26:21.648Z</time></trkpt><trkpt lat="44.4976984" lon="11.1893063"><ele>66.0</ele><time>2026-03-22T09:26:22.648Z</time></trkpt><trkpt lat="44.4978482" lon="11.1893511"><ele>66.0</ele><time>2026-03-22T09:26:23.648Z</time></trkpt><trkpt lat="44.497994" lon="11.189387"><ele>66.25</ele><time>2026-03-22T09:26:24.648Z</time></trkpt><trkpt lat="44.4981392" lon="11.1894038"><ele>66.5</ele><time>2026-03-22T09:26:25.648Z</time></trkpt><trkpt lat="44.4982804" lon="11.1894115"><ele>66.75</ele><time>2026-03-22T09:26:26.648Z</time></trkpt><trkpt lat="44.4984171" lon="11.189421"><ele>67.0</ele><time>2026-03-22T09:26:27.648Z</time></trkpt><trkpt lat="44.4985476" lon="11.1894436"><ele>67.0</ele><time>2026-03-22T09:26:28.648Z</time></trkpt><trkpt lat="44.4986762" lon="11.1894617"><ele>67.0</ele><time>2026-03-22T09:26:29.648Z</time></trkpt><trkpt lat="44.4988003" lon="11.1894788"><ele>67.0</ele><time>2026-03-22T09:26:30.648Z</time></trkpt><trkpt lat="44.4989195" lon="11.1895036"><ele>67.0</ele><time>2026-03-22T09:26:31.648Z</time></trkpt><trkpt lat="44.4990259" lon="11.1895456"><ele>67.0</ele><time>2026-03-22T09:26:32.648Z</time></trkpt><trkpt lat="44.4991174" lon="11.1895853"><ele>67.0</ele><time>2026-03-22T09:26:33.648Z</time></trkpt><trkpt lat="44.4992081" lon="11.1896313"><ele>67.0</ele><time>2026-03-22T09:26:34.648Z</time></trkpt><trkpt lat="44.4992921" lon="11.1896822"><ele>67.0</ele><time>2026-03-22T09:26:35.648Z</time></trkpt><trkpt lat="44.499368" lon="11.1897274"><ele>67.0</ele><time>2026-03-22T09:26:36.648Z</time></trkpt><trkpt lat="44.4994412" lon="11.1897623"><ele>67.0</ele><time>2026-03-22T09:26:37.648Z</time></trkpt><trkpt lat="44.4995075" lon="11.1897995"><ele>67.0</ele><time>2026-03-22T09:26:38.648Z</time></trkpt><trkpt lat="44.4995644" lon="11.1898419"><ele>67.0</ele><time>2026-03-22T09:26:39.648Z</time></trkpt><trkpt lat="44.4996061" lon="11.189913"><ele>67.0</ele><time>2026-03-22T09:26:40.648Z</time></trkpt><trkpt lat="44.4995882" lon="11.1901131"><ele>67.0</ele><time>2026-03-22T09:26:42.648Z</time></trkpt><trkpt lat="44.4995553" lon="11.1902341"><ele>67.0</ele><time>2026-03-22T09:26:43.648Z</time></trkpt><trkpt lat="44.4995155" lon="11.1903648"><ele>67.0</ele><time>2026-03-22T09:26:44.648Z</time></trkpt><trkpt lat="44.4994745" lon="11.1905046"><ele>67.0</ele><time>2026-03-22T09:26:45.648Z</time></trkpt><trkpt lat="44.4994313" lon="11.190654"><ele>67.0</ele><time>2026-03-22T09:26:46.648Z</time></trkpt><trkpt lat="44.4993851" lon="11.1907985"><ele>67.0</ele><time>2026-03-22T09:26:47.648Z</time></trkpt><trkpt lat="44.4993484" lon="11.1909354"><ele>67.0</ele><time>2026-03-22T09:26:48.648Z</time></trkpt><trkpt lat="44.4993086" lon="11.1910637"><ele>67.0</ele><time>2026-03-22T09:26:49.648Z</time></trkpt><trkpt lat="44.4992628" lon="11.1911775"><ele>67.0</ele><time>2026-03-22T09:26:50.648Z</time></trkpt><trkpt lat="44.499226" lon="11.1912818"><ele>67.0</ele><time>2026-03-22T09:26:51.648Z</time></trkpt><trkpt lat="44.499199" lon="11.1913839"><ele>67.0</ele><time>2026-03-22T09:26:52.648Z</time></trkpt><trkpt lat="44.4992152" lon="11.1914753"><ele>67.0</ele><time>2026-03-22T09:26:53.648Z</time></trkpt><trkpt lat="44.4992666" lon="11.191536"><ele>67.0</ele><time>2026-03-22T09:26:54.648Z</time></trkpt><trkpt lat="44.4993451" lon="11.1915976"><ele>67.0</ele><time>2026-03-22T09:26:55.648Z</time></trkpt><trkpt lat="44.4994405" lon="11.1916374"><ele>67.0</ele><time>2026-03-22T09:26:56.648Z</time></trkpt><trkpt lat="44.4995334" lon="11.1916893"><ele>67.0</ele><time>2026-03-22T09:26:57.648Z</time></trkpt><trkpt lat="44.4996296" lon="11.1917371"><ele>67.0</ele><time>2026-03-22T09:26:58.648Z</time></trkpt><trkpt lat="44.4997207" lon="11.1917843"><ele>67.0</ele><time>2026-03-22T09:26:59.648Z</time></trkpt><trkpt lat="44.4998049" lon="11.1918256"><ele>66.8</ele><time>2026-03-22T09:27:00.648Z</time></trkpt><trkpt lat="44.4998821" lon="11.1918697"><ele>66.6</ele><time>2026-03-22T09:27:01.648Z</time></trkpt><trkpt lat="44.4999436" lon="11.191906"><ele>66.39999999999999</ele><time>2026-03-22T09:27:02.648Z</time></trkpt><trkpt lat="44.5000383" lon="11.1919649"><ele>66.2</ele><time>2026-03-22T09:27:04.648Z</time></trkpt><trkpt lat="44.500158" lon="11.1920129"><ele>66.0</ele><time>2026-03-22T09:27:06.648Z</time></trkpt><trkpt lat="44.5002665" lon="11.1920612"><ele>66.0</ele><time>2026-03-22T09:27:08.648Z</time></trkpt><trkpt lat="44.5003779" lon="11.1921217"><ele>66.0</ele><time>2026-03-22T09:27:10.648Z</time></trkpt><trkpt lat="44.5004729" lon="11.19217"><ele>66.0</ele><time>2026-03-22T09:27:12.648Z</time></trkpt><trkpt lat="44.5005501" lon="11.1922264"><ele>66.0</ele><time>2026-03-22T09:27:14.648Z</time></trkpt><trkpt lat="44.5006288" lon="11.192263"><ele>66.0</ele><time>2026-03-22T09:27:16.648Z</time></trkpt><trkpt lat="44.5006976" lon="11.1922932"><ele>66.0</ele><time>2026-03-22T09:27:18.648Z</time></trkpt><trkpt lat="44.5007526" lon="11.1923525"><ele>66.0</ele><time>2026-03-22T09:27:20.648Z</time></trkpt><trkpt lat="44.500718" lon="11.192484"><ele>66.0</ele><time>2026-03-22T09:27:21.648Z</time></trkpt><trkpt lat="44.5006918" lon="11.1925755"><ele>66.0</ele><time>2026-03-22T09:27:22.648Z</time></trkpt><trkpt lat="44.5006622" lon="11.1926718"><ele>66.0</ele><time>2026-03-22T09:27:23.648Z</time></trkpt><trkpt lat="44.5006327" lon="11.1927719"><ele>66.0</ele><time>2026-03-22T09:27:24.648Z</time></trkpt><trkpt lat="44.5006037" lon="11.1928728"><ele>66.0</ele><time>2026-03-22T09:27:25.648Z</time></trkpt><trkpt lat="44.5005704" lon="11.1929821"><ele>66.0</ele><time>2026-03-22T09:27:26.648Z</time></trkpt><trkpt lat="44.5005369" lon="11.1930949"><ele>66.0</ele><time>2026-03-22T09:27:27.648Z</time></trkpt><trkpt lat="44.5005051" lon="11.193203"><ele>66.0</ele><time>2026-03-22T09:27:28.648Z</time></trkpt><trkpt lat="44.5004818" lon="11.1933143"><ele>66.0</ele><time>2026-03-22T09:27:29.648Z</time></trkpt><trkpt lat="44.5004448" lon="11.1934212"><ele>66.0</ele><time>2026-03-22T09:27:30.648Z</time></trkpt><trkpt lat="44.5004153" lon="11.1935281"><ele>66.0</ele><time>2026-03-22T09:27:31.648Z</time></trkpt><trkpt lat="44.5004154" lon="11.1936441"><ele>66.0</ele><time>2026-03-22T09:27:32.648Z</time></trkpt><trkpt lat="44.5004097" lon="11.1937446"><ele>66.0</ele><time>2026-03-22T09:27:33.648Z</time></trkpt><trkpt lat="44.5003866" lon="11.1938415"><ele>66.0</ele><time>2026-03-22T09:27:34.648Z</time></trkpt><trkpt lat="44.5003605" lon="11.1939248"><ele>66.0</ele><time>2026-03-22T09:27:35.648Z</time></trkpt><trkpt lat="44.5003133" lon="11.1940624"><ele>66.0</ele><time>2026-03-22T09:27:37.648Z</time></trkpt><trkpt lat="44.5003496" lon="11.1941427"><ele>66.0</ele><time>2026-03-22T09:27:39.648Z</time></trkpt><trkpt lat="44.5004032" lon="11.1940917"><ele>66.0</ele><time>2026-03-22T09:29:18.648Z</time></trkpt><trkpt lat="44.5004231" lon="11.1939892"><ele>66.0</ele><time>2026-03-22T09:31:30.648Z</time></trkpt><trkpt lat="44.500427" lon="11.193877"><ele>66.0</ele><time>2026-03-22T09:31:32.648Z</time></trkpt><trkpt lat="44.5004113" lon="11.1935974"><ele>66.0</ele><time>2026-03-22T09:31:35.648Z</time></trkpt><trkpt lat="44.5004344" lon="11.1934752"><ele>66.0</ele><time>2026-03-22T09:31:36.648Z</time></trkpt><trkpt lat="44.500481" lon="11.1933191"><ele>66.0</ele><time>2026-03-22T09:31:37.648Z</time></trkpt><trkpt lat="44.5005387" lon="11.193155"><ele>66.0</ele><time>2026-03-22T09:31:38.648Z</time></trkpt><trkpt lat="44.5005908" lon="11.1929865"><ele>66.0</ele><time>2026-03-22T09:31:39.648Z</time></trkpt><trkpt lat="44.5006425" lon="11.1928178"><ele>66.0</ele><time>2026-03-22T09:31:40.648Z</time></trkpt><trkpt lat="44.500695" lon="11.1926569"><ele>66.0</ele><time>2026-03-22T09:31:41.648Z</time></trkpt><trkpt lat="44.5007444" lon="11.1925012"><ele>66.0</ele><time>2026-03-22T09:31:42.648Z</time></trkpt><trkpt lat="44.5007975" lon="11.1923456"><ele>66.0</ele><time>2026-03-22T09:31:43.648Z</time></trkpt><trkpt lat="44.5008527" lon="11.1921727"><ele>66.0</ele><time>2026-03-22T09:31:44.648Z</time></trkpt><trkpt lat="44.5009102" lon="11.1919736"><ele>66.0</ele><time>2026-03-22T09:31:45.648Z</time></trkpt><trkpt lat="44.5009625" lon="11.1917802"><ele>66.0</ele><time>2026-03-22T09:31:46.648Z</time></trkpt><trkpt lat="44.501019" lon="11.1916056"><ele>66.0</ele><time>2026-03-22T09:31:47.648Z</time></trkpt><trkpt lat="44.5010691" lon="11.1914458"><ele>66.0</ele><time>2026-03-22T09:31:48.648Z</time></trkpt><trkpt lat="44.5011083" lon="11.1912929"><ele>66.0</ele><time>2026-03-22T09:31:49.648Z</time></trkpt><trkpt lat="44.5011477" lon="11.191155"><ele>66.0</ele><time>2026-03-22T09:31:50.648Z</time></trkpt><trkpt lat="44.5011835" lon="11.1910366"><ele>66.0</ele><time>2026-03-22T09:31:51.648Z</time></trkpt><trkpt lat="44.5012117" lon="11.1909328"><ele>66.0</ele><time>2026-03-22T09:31:52.648Z</time></trkpt><trkpt lat="44.5012228" lon="11.1908345"><ele>66.0</ele><time>2026-03-22T09:31:53.648Z</time></trkpt><trkpt lat="44.5011871" lon="11.1907613"><ele>66.0</ele><time>2026-03-22T09:31:54.648Z</time></trkpt><trkpt lat="44.5011095" lon="11.1906958"><ele>66.0</ele><time>2026-03-22T09:31:56.648Z</time></trkpt><trkpt lat="44.5010437" lon="11.1906755"><ele>66.0</ele><time>2026-03-22T09:31:57.648Z</time></trkpt><trkpt lat="44.5009798" lon="11.1906538"><ele>66.0</ele><time>2026-03-22T09:31:58.648Z</time></trkpt><trkpt lat="44.5009148" lon="11.1906245"><ele>66.0</ele><time>2026-03-22T09:31:59.648Z</time></trkpt><trkpt lat="44.500848" lon="11.1906055"><ele>66.0</ele><time>2026-03-22T09:32:00.648Z</time></trkpt><trkpt lat="44.5007529" lon="11.1906239"><ele>65.8</ele><time>2026-03-22T09:32:02.648Z</time></trkpt><trkpt lat="44.5006649" lon="11.1905945"><ele>65.6</ele><time>2026-03-22T09:32:04.648Z</time></trkpt><trkpt lat="44.5005683" lon="11.1905088"><ele>65.4</ele><time>2026-03-22T09:32:06.648Z</time></trkpt><trkpt lat="44.5004655" lon="11.1903926"><ele>65.2</ele><time>2026-03-22T09:32:08.648Z</time></trkpt><trkpt lat="44.5004076" lon="11.1903316"><ele>65.0</ele><time>2026-03-22T09:32:09.648Z</time></trkpt><trkpt lat="44.5003307" lon="11.1902656"><ele>65.75</ele><time>2026-03-22T09:32:10.648Z</time></trkpt><trkpt lat="44.5002126" lon="11.1901753"><ele>66.5</ele><time>2026-03-22T09:32:11.648Z</time></trkpt><trkpt lat="44.5000915" lon="11.190076"><ele>67.25</ele><time>2026-03-22T09:32:12.648Z</time></trkpt><trkpt lat="44.4999629" lon="11.1899822"><ele>68.0</ele><time>2026-03-22T09:32:13.648Z</time></trkpt><trkpt lat="44.4998617" lon="11.1899263"><ele>68.0</ele><time>2026-03-22T09:32:14.648Z</time></trkpt><trkpt lat="44.4997634" lon="11.1898667"><ele>68.0</ele><time>2026-03-22T09:32:15.648Z</time></trkpt><trkpt lat="44.4996805" lon="11.1898166"><ele>68.0</ele><time>2026-03-22T09:32:16.648Z</time></trkpt><trkpt lat="44.4995763" lon="11.1897618"><ele>68.0</ele><time>2026-03-22T09:32:17.648Z</time></trkpt><trkpt lat="44.4994733" lon="11.1897025"><ele>68.0</ele><time>2026-03-22T09:32:18.648Z</time></trkpt><trkpt lat="44.4993784" lon="11.189651"><ele>67.8</ele><time>2026-03-22T09:32:19.648Z</time></trkpt><trkpt lat="44.4992955" lon="11.1895991"><ele>67.6</ele><time>2026-03-22T09:32:20.648Z</time></trkpt><trkpt lat="44.4992045" lon="11.1895603"><ele>67.4</ele><time>2026-03-22T09:32:21.648Z</time></trkpt><trkpt lat="44.4991078" lon="11.1895315"><ele>67.2</ele><time>2026-03-22T09:32:22.648Z</time></trkpt><trkpt lat="44.4989993" lon="11.1894955"><ele>67.0</ele><time>2026-03-22T09:32:23.648Z</time></trkpt><trkpt lat="44.4989012" lon="11.1894664"><ele>67.0</ele><time>2026-03-22T09:32:24.648Z</time></trkpt><trkpt lat="44.4988057" lon="11.1894489"><ele>67.0</ele><time>2026-03-22T09:32:25.648Z</time></trkpt><trkpt lat="44.4987183" lon="11.1894294"><ele>67.0</ele><time>2026-03-22T09:32:26.648Z</time></trkpt><trkpt lat="44.4986284" lon="11.1894092"><ele>67.0</ele><time>2026-03-22T09:32:27.648Z</time></trkpt><trkpt lat="44.4985309" lon="11.1893893"><ele>67.0</ele><time>2026-03-22T09:32:28.648Z</time></trkpt><trkpt lat="44.4984279" lon="11.1893753"><ele>67.0</ele><time>2026-03-22T09:32:29.648Z</time></trkpt><trkpt lat="44.4983212" lon="11.1893613"><ele>67.0</ele><time>2026-03-22T09:32:30.648Z</time></trkpt><trkpt lat="44.4982051" lon="11.1893566"><ele>67.0</ele><time>2026-03-22T09:32:31.648Z</time></trkpt><trkpt lat="44.4980788" lon="11.1893535"><ele>67.0</ele><time>2026-03-22T09:32:32.648Z</time></trkpt><trkpt lat="44.4979473" lon="11.1893348"><ele>66.75</ele><time>2026-03-22T09:32:33.648Z</time></trkpt><trkpt lat="44.4978121" lon="11.1893023"><ele>66.5</ele><time>2026-03-22T09:32:34.648Z</time></trkpt><trkpt lat="44.4976753" lon="11.1892513"><ele>66.25</ele><time>2026-03-22T09:32:35.648Z</time></trkpt><trkpt lat="44.4975395" lon="11.1892003"><ele>66.0</ele><time>2026-03-22T09:32:36.648Z</time></trkpt><trkpt lat="44.4974009" lon="11.189136"><ele>66.0</ele><time>2026-03-22T09:32:37.648Z</time></trkpt><trkpt lat="44.4972655" lon="11.1890676"><ele>66.0</ele><time>2026-03-22T09:32:38.648Z</time></trkpt><trkpt lat="44.49713" lon="11.1889976"><ele>66.0</ele><time>2026-03-22T09:32:39.648Z</time></trkpt><trkpt lat="44.496855" lon="11.1888647"><ele>66.0</ele><time>2026-03-22T09:32:41.648Z</time></trkpt><trkpt lat="44.4967236" lon="11.1888029"><ele>66.0</ele><time>2026-03-22T09:32:42.648Z</time></trkpt><trkpt lat="44.4965919" lon="11.1887453"><ele>66.0</ele><time>2026-03-22T09:32:43.648Z</time></trkpt><trkpt lat="44.4964618" lon="11.188699"><ele>66.0</ele><time>2026-03-22T09:32:44.648Z</time></trkpt><trkpt lat="44.496332" lon="11.1886545"><ele>66.5</ele><time>2026-03-22T09:32:45.648Z</time></trkpt><trkpt lat="44.4962046" lon="11.1886089"><ele>67.0</ele><time>2026-03-22T09:32:46.648Z</time></trkpt><trkpt lat="44.4960785" lon="11.1885569"><ele>67.5</ele><time>2026-03-22T09:32:47.648Z</time></trkpt><trkpt lat="44.4959556" lon="11.1885007"><ele>68.0</ele><time>2026-03-22T09:32:48.648Z</time></trkpt><trkpt lat="44.4958328" lon="11.1884376"><ele>68.0</ele><time>2026-03-22T09:32:49.648Z</time></trkpt><trkpt lat="44.4957048" lon="11.1883843"><ele>68.0</ele><time>2026-03-22T09:32:50.648Z</time></trkpt><trkpt lat="44.4955758" lon="11.1883243"><ele>68.0</ele><time>2026-03-22T09:32:51.648Z</time></trkpt><trkpt lat="44.495447" lon="11.1882624"><ele>68.0</ele><time>2026-03-22T09:32:52.648Z</time></trkpt><trkpt lat="44.4953154" lon="11.1882137"><ele>68.0</ele><time>2026-03-22T09:32:53.648Z</time></trkpt><trkpt lat="44.4951824" lon="11.1881602"><ele>68.0</ele><time>2026-03-22T09:32:54.648Z</time></trkpt><trkpt lat="44.4950476" lon="11.1881039"><ele>68.0</ele><time>2026-03-22T09:32:55.648Z</time></trkpt><trkpt lat="44.49478" lon="11.1880056"><ele>68.0</ele><time>2026-03-22T09:32:57.648Z</time></trkpt><trkpt lat="44.494648" lon="11.1879579"><ele>68.0</ele><time>2026-03-22T09:32:58.648Z</time></trkpt><trkpt lat="44.4945152" lon="11.1879063"><ele>68.0</ele><time>2026-03-22T09:32:59.648Z</time></trkpt><trkpt lat="44.4943815" lon="11.1878574"><ele>68.0</ele><time>2026-03-22T09:33:00.648Z</time></trkpt><trkpt lat="44.4942499" lon="11.1878151"><ele>68.25</ele><time>2026-03-22T09:33:01.648Z</time></trkpt><trkpt lat="44.4941203" lon="11.1877667"><ele>68.5</ele><time>2026-03-22T09:33:02.648Z</time></trkpt><trkpt lat="44.4939922" lon="11.1877233"><ele>68.75</ele><time>2026-03-22T09:33:03.648Z</time></trkpt><trkpt lat="44.4938736" lon="11.1876693"><ele>69.0</ele><time>2026-03-22T09:33:04.648Z</time></trkpt><trkpt lat="44.4937732" lon="11.187595"><ele>69.75</ele><time>2026-03-22T09:33:05.648Z</time></trkpt><trkpt lat="44.4936693" lon="11.1875028"><ele>70.5</ele><time>2026-03-22T09:33:06.648Z</time></trkpt><trkpt lat="44.4935811" lon="11.1874011"><ele>71.25</ele><time>2026-03-22T09:33:07.648Z</time></trkpt><trkpt lat="44.4934805" lon="11.1872882"><ele>72.0</ele><time>2026-03-22T09:33:08.648Z</time></trkpt><trkpt lat="44.493378" lon="11.1871763"><ele>72.0</ele><time>2026-03-22T09:33:09.648Z</time></trkpt><trkpt lat="44.4932504" lon="11.1870888"><ele>72.0</ele><time>2026-03-22T09:33:10.648Z</time></trkpt><trkpt lat="44.4931263" lon="11.187032"><ele>72.0</ele><time>2026-03-22T09:33:11.648Z</time></trkpt><trkpt lat="44.4928889" lon="11.186862"><ele>72.25</ele><time>2026-03-22T09:33:13.648Z</time></trkpt><trkpt lat="44.4927613" lon="11.1867877"><ele>72.5</ele><time>2026-03-22T09:33:14.648Z</time></trkpt><trkpt lat="44.4926295" lon="11.1867393"><ele>72.75</ele><time>2026-03-22T09:33:15.648Z</time></trkpt><trkpt lat="44.492489" lon="11.1867012"><ele>73.0</ele><time>2026-03-22T09:33:16.648Z</time></trkpt><trkpt lat="44.4923528" lon="11.1866578"><ele>73.0</ele><time>2026-03-22T09:33:17.648Z</time></trkpt><trkpt lat="44.4922223" lon="11.1866236"><ele>73.0</ele><time>2026-03-22T09:33:18.648Z</time></trkpt><trkpt lat="44.4920953" lon="11.1865951"><ele>73.0</ele><time>2026-03-22T09:33:19.648Z</time></trkpt><trkpt lat="44.4919674" lon="11.186569"><ele>73.0</ele><time>2026-03-22T09:33:20.648Z</time></trkpt><trkpt lat="44.4918504" lon="11.1865486"><ele>73.4</ele><time>2026-03-22T09:33:21.648Z</time></trkpt><trkpt lat="44.491749" lon="11.1865271"><ele>73.8</ele><time>2026-03-22T09:33:22.648Z</time></trkpt><trkpt lat="44.4916546" lon="11.1865023"><ele>74.2</ele><time>2026-03-22T09:33:23.648Z</time></trkpt><trkpt lat="44.4915751" lon="11.1864828"><ele>74.6</ele><time>2026-03-22T09:33:24.648Z</time></trkpt><trkpt lat="44.4914896" lon="11.1864609"><ele>75.0</ele><time>2026-03-22T09:33:25.648Z</time></trkpt><trkpt lat="44.4914015" lon="11.1864361"><ele>75.0</ele><time>2026-03-22T09:33:26.648Z</time></trkpt><trkpt lat="44.4913092" lon="11.1863845"><ele>75.0</ele><time>2026-03-22T09:33:27.648Z</time></trkpt><trkpt lat="44.4912066" lon="11.186325"><ele>75.0</ele><time>2026-03-22T09:33:28.648Z</time></trkpt><trkpt lat="44.4910912" lon="11.1862333"><ele>75.0</ele><time>2026-03-22T09:33:29.648Z</time></trkpt><trkpt lat="44.490972" lon="11.1861439"><ele>75.25</ele><time>2026-03-22T09:33:30.648Z</time></trkpt><trkpt lat="44.4908581" lon="11.186064"><ele>75.5</ele><time>2026-03-22T09:33:31.648Z</time></trkpt><trkpt lat="44.4907488" lon="11.186"><ele>75.75</ele><time>2026-03-22T09:33:32.648Z</time></trkpt><trkpt lat="44.4906455" lon="11.1859343"><ele>76.0</ele><time>2026-03-22T09:33:33.648Z</time></trkpt><trkpt lat="44.4905411" lon="11.185869"><ele>76.0</ele><time>2026-03-22T09:33:34.648Z</time></trkpt><trkpt lat="44.4904358" lon="11.1858017"><ele>76.0</ele><time>2026-03-22T09:33:35.648Z</time></trkpt><trkpt lat="44.4903346" lon="11.1857411"><ele>76.0</ele><time>2026-03-22T09:33:36.648Z</time></trkpt><trkpt lat="44.490235" lon="11.1856742"><ele>76.0</ele><time>2026-03-22T09:33:37.648Z</time></trkpt><trkpt lat="44.4901407" lon="11.1855927"><ele>76.0</ele><time>2026-03-22T09:33:38.648Z</time></trkpt><trkpt lat="44.4900523" lon="11.1854707"><ele>76.0</ele><time>2026-03-22T09:33:39.648Z</time></trkpt><trkpt lat="44.4899808" lon="11.1853352"><ele>76.0</ele><time>2026-03-22T09:33:40.648Z</time></trkpt><trkpt lat="44.4898646" lon="11.1849978"><ele>76.0</ele><time>2026-03-22T09:33:42.648Z</time></trkpt><trkpt lat="44.4898105" lon="11.1848187"><ele>77.25</ele><time>2026-03-22T09:33:43.648Z</time></trkpt><trkpt lat="44.4897489" lon="11.1846529"><ele>78.5</ele><time>2026-03-22T09:33:44.648Z</time></trkpt><trkpt lat="44.4896768" lon="11.1845116"><ele>79.75</ele><time>2026-03-22T09:33:45.648Z</time></trkpt><trkpt lat="44.4895856" lon="11.1843793"><ele>81.0</ele><time>2026-03-22T09:33:46.648Z</time></trkpt><trkpt lat="44.4895094" lon="11.1842213"><ele>82.0</ele><time>2026-03-22T09:33:47.648Z</time></trkpt><trkpt lat="44.4894481" lon="11.1840416"><ele>83.0</ele><time>2026-03-22T09:33:48.648Z</time></trkpt><trkpt lat="44.4894005" lon="11.1838546"><ele>84.0</ele><time>2026-03-22T09:33:49.648Z</time></trkpt><trkpt lat="44.4893509" lon="11.1836643"><ele>85.0</ele><time>2026-03-22T09:33:50.648Z</time></trkpt><trkpt lat="44.4892943" lon="11.1834737"><ele>85.0</ele><time>2026-03-22T09:33:51.648Z</time></trkpt><trkpt lat="44.4892462" lon="11.1832799"><ele>85.0</ele><time>2026-03-22T09:33:52.648Z</time></trkpt><trkpt lat="44.489199" lon="11.1830746"><ele>85.0</ele><time>2026-03-22T09:33:53.648Z</time></trkpt><trkpt lat="44.4891533" lon="11.1828678"><ele>84.33333333333333</ele><time>2026-03-22T09:33:54.648Z</time></trkpt><trkpt lat="44.4891061" lon="11.1826487"><ele>83.66666666666667</ele><time>2026-03-22T09:33:55.648Z</time></trkpt><trkpt lat="44.4890566" lon="11.1824488"><ele>83.0</ele><time>2026-03-22T09:33:56.648Z</time></trkpt><trkpt lat="44.4890111" lon="11.1822372"><ele>83.0</ele><time>2026-03-22T09:33:57.648Z</time></trkpt><trkpt lat="44.4889632" lon="11.1820289"><ele>83.0</ele><time>2026-03-22T09:33:58.648Z</time></trkpt><trkpt lat="44.4889177" lon="11.1818199"><ele>83.0</ele><time>2026-03-22T09:33:59.648Z</time></trkpt><trkpt lat="44.4888705" lon="11.1816085"><ele>83.0</ele><time>2026-03-22T09:34:00.648Z</time></trkpt><trkpt lat="44.4888279" lon="11.1813977"><ele>83.0</ele><time>2026-03-22T09:34:01.648Z</time></trkpt><trkpt lat="44.4888026" lon="11.1811907"><ele>83.0</ele><time>2026-03-22T09:34:02.648Z</time></trkpt><trkpt lat="44.4887713" lon="11.1809737"><ele>83.5</ele><time>2026-03-22T09:34:03.648Z</time></trkpt><trkpt lat="44.48872" lon="11.1807808"><ele>84.0</ele><time>2026-03-22T09:34:04.648Z</time></trkpt><trkpt lat="44.4886441" lon="11.1806095"><ele>84.5</ele><time>2026-03-22T09:34:05.648Z</time></trkpt><trkpt lat="44.4885476" lon="11.1804642"><ele>85.0</ele><time>2026-03-22T09:34:06.648Z</time></trkpt><trkpt lat="44.4884276" lon="11.1803612"><ele>85.0</ele><time>2026-03-22T09:34:07.648Z</time></trkpt><trkpt lat="44.4882967" lon="11.1802504"><ele>85.0</ele><time>2026-03-22T09:34:08.648Z</time></trkpt><trkpt lat="44.4881767" lon="11.180122"><ele>85.0</ele><time>2026-03-22T09:34:09.648Z</time></trkpt><trkpt lat="44.488066" lon="11.1799694"><ele>86.33333333333333</ele><time>2026-03-22T09:34:10.648Z</time></trkpt><trkpt lat="44.4879611" lon="11.1798078"><ele>87.66666666666667</ele><time>2026-03-22T09:34:11.648Z</time></trkpt><trkpt lat="44.4878541" lon="11.1796501"><ele>89.0</ele><time>2026-03-22T09:34:12.648Z</time></trkpt><trkpt lat="44.4877498" lon="11.1794867"><ele>89.25</ele><time>2026-03-22T09:34:13.648Z</time></trkpt><trkpt lat="44.4876612" lon="11.1793353"><ele>89.5</ele><time>2026-03-22T09:34:14.648Z</time></trkpt><trkpt lat="44.4875769" lon="11.1792007"><ele>89.75</ele><time>2026-03-22T09:34:15.648Z</time></trkpt><trkpt lat="44.4874995" lon="11.1790729"><ele>90.0</ele><time>2026-03-22T09:34:16.648Z</time></trkpt><trkpt lat="44.4874227" lon="11.1789516"><ele>90.0</ele><time>2026-03-22T09:34:17.648Z</time></trkpt><trkpt lat="44.4873549" lon="11.1788403"><ele>90.0</ele><time>2026-03-22T09:34:18.648Z</time></trkpt><trkpt lat="44.4872952" lon="11.1787347"><ele>90.0</ele><time>2026-03-22T09:34:19.648Z</time></trkpt><trkpt lat="44.4872307" lon="11.1786258"><ele>90.0</ele><time>2026-03-22T09:34:20.648Z</time></trkpt><trkpt lat="44.4871765" lon="11.1785105"><ele>90.0</ele><time>2026-03-22T09:34:21.648Z</time></trkpt><trkpt lat="44.48713" lon="11.1783751"><ele>90.0</ele><time>2026-03-22T09:34:22.648Z</time></trkpt><trkpt lat="44.4870764" lon="11.1782264"><ele>90.0</ele><time>2026-03-22T09:34:23.648Z</time></trkpt><trkpt lat="44.4870006" lon="11.1780951"><ele>90.0</ele><time>2026-03-22T09:34:24.648Z</time></trkpt><trkpt lat="44.4869129" lon="11.1779983"><ele>90.0</ele><time>2026-03-22T09:34:25.648Z</time></trkpt><trkpt lat="44.4868259" lon="11.1779362"><ele>90.0</ele><time>2026-03-22T09:34:26.648Z</time></trkpt><trkpt lat="44.4867539" lon="11.1779009"><ele>90.0</ele><time>2026-03-22T09:34:27.648Z</time></trkpt><trkpt lat="44.4866837" lon="11.1778605"><ele>90.0</ele><time>2026-03-22T09:34:29.648Z</time></trkpt><trkpt lat="44.4866059" lon="11.1778448"><ele>90.0</ele><time>2026-03-22T09:34:49.648Z</time></trkpt><trkpt lat="44.4865181" lon="11.1779994"><ele>90.0</ele><time>2026-03-22T09:34:51.648Z</time></trkpt><trkpt lat="44.4864668" lon="11.1781137"><ele>90.0</ele><time>2026-03-22T09:34:52.648Z</time></trkpt><trkpt lat="44.4864125" lon="11.1782139"><ele>90.25</ele><time>2026-03-22T09:34:53.648Z</time></trkpt><trkpt lat="44.4863406" lon="11.178326"><ele>90.5</ele><time>2026-03-22T09:34:54.648Z</time></trkpt><trkpt lat="44.4862319" lon="11.1783892"><ele>90.75</ele><time>2026-03-22T09:34:55.648Z</time></trkpt><trkpt lat="44.4861195" lon="11.1784317"><ele>91.0</ele><time>2026-03-22T09:34:56.648Z</time></trkpt><trkpt lat="44.4859917" lon="11.1784657"><ele>91.0</ele><time>2026-03-22T09:34:57.648Z</time></trkpt><trkpt lat="44.4858719" lon="11.1785103"><ele>91.0</ele><time>2026-03-22T09:34:58.648Z</time></trkpt><trkpt lat="44.4857497" lon="11.1785442"><ele>91.0</ele><time>2026-03-22T09:34:59.648Z</time></trkpt><trkpt lat="44.4856334" lon="11.1785786"><ele>91.0</ele><time>2026-03-22T09:35:00.648Z</time></trkpt><trkpt lat="44.4855162" lon="11.1786213"><ele>90.75</ele><time>2026-03-22T09:35:01.648Z</time></trkpt><trkpt lat="44.4854036" lon="11.1786658"><ele>90.5</ele><time>2026-03-22T09:35:02.648Z</time></trkpt><trkpt lat="44.485295" lon="11.178691"><ele>90.25</ele><time>2026-03-22T09:35:03.648Z</time></trkpt><trkpt lat="44.4851842" lon="11.1787174"><ele>90.0</ele><time>2026-03-22T09:35:04.648Z</time></trkpt><trkpt lat="44.4850758" lon="11.1787479"><ele>90.0</ele><time>2026-03-22T09:35:05.648Z</time></trkpt><trkpt lat="44.4849644" lon="11.178786"><ele>90.0</ele><time>2026-03-22T09:35:06.648Z</time></trkpt><trkpt lat="44.4848567" lon="11.1788153"><ele>90.0</ele><time>2026-03-22T09:35:07.648Z</time></trkpt><trkpt lat="44.4847525" lon="11.1788123"><ele>90.0</ele><time>2026-03-22T09:35:08.648Z</time></trkpt><trkpt lat="44.4846619" lon="11.1788301"><ele>90.0</ele><time>2026-03-22T09:35:09.648Z</time></trkpt><trkpt lat="44.4845789" lon="11.1788885"><ele>90.6</ele><time>2026-03-22T09:35:10.648Z</time></trkpt><trkpt lat="44.4845165" lon="11.1789816"><ele>91.2</ele><time>2026-03-22T09:35:11.648Z</time></trkpt><trkpt lat="44.4844498" lon="11.179091"><ele>91.80000000000001</ele><time>2026-03-22T09:35:12.648Z</time></trkpt><trkpt lat="44.4843812" lon="11.1791979"><ele>92.4</ele><time>2026-03-22T09:35:13.648Z</time></trkpt><trkpt lat="44.4843219" lon="11.1792979"><ele>93.0</ele><time>2026-03-22T09:35:14.648Z</time></trkpt><trkpt lat="44.4842636" lon="11.1794007"><ele>93.60000000000001</ele><time>2026-03-22T09:35:15.648Z</time></trkpt><trkpt lat="44.4842069" lon="11.1794831"><ele>94.2</ele><time>2026-03-22T09:35:16.648Z</time></trkpt><trkpt lat="44.4841596" lon="11.1795666"><ele>94.8</ele><time>2026-03-22T09:35:17.648Z</time></trkpt><trkpt lat="44.4840827" lon="11.1797301"><ele>95.4</ele><time>2026-03-22T09:35:19.648Z</time></trkpt><trkpt lat="44.4840361" lon="11.1798182"><ele>96.0</ele><time>2026-03-22T09:35:20.648Z</time></trkpt><trkpt lat="44.4839818" lon="11.1799127"><ele>96.0</ele><time>2026-03-22T09:35:21.648Z</time></trkpt><trkpt lat="44.4839167" lon="11.1800144"><ele>96.0</ele><time>2026-03-22T09:35:22.648Z</time></trkpt><trkpt lat="44.4838606" lon="11.1801037"><ele>96.0</ele><time>2026-03-22T09:35:23.648Z</time></trkpt><trkpt lat="44.4838192" lon="11.1801732"><ele>96.0</ele><time>2026-03-22T09:35:24.648Z</time></trkpt><trkpt lat="44.4837333" lon="11.1802343"><ele>96.0</ele><time>2026-03-22T09:35:26.648Z</time></trkpt><trkpt lat="44.4836976" lon="11.1801262"><ele>96.0</ele><time>2026-03-22T09:35:28.648Z</time></trkpt><trkpt lat="44.4837293" lon="11.1800357"><ele>96.0</ele><time>2026-03-22T09:35:29.648Z</time></trkpt><trkpt lat="44.4837801" lon="11.1799271"><ele>96.0</ele><time>2026-03-22T09:35:30.648Z</time></trkpt><trkpt lat="44.4838459" lon="11.1797934"><ele>96.0</ele><time>2026-03-22T09:35:31.648Z</time></trkpt><trkpt lat="44.4838911" lon="11.1796486"><ele>96.0</ele><time>2026-03-22T09:35:32.648Z</time></trkpt><trkpt lat="44.4839192" lon="11.1795102"><ele>96.0</ele><time>2026-03-22T09:35:33.648Z</time></trkpt><trkpt lat="44.4839323" lon="11.179366"><ele>96.0</ele><time>2026-03-22T09:35:34.648Z</time></trkpt><trkpt lat="44.4839183" lon="11.179228"><ele>96.0</ele><time>2026-03-22T09:35:35.648Z</time></trkpt><trkpt lat="44.4838851" lon="11.1791083"><ele>96.0</ele><time>2026-03-22T09:35:36.648Z</time></trkpt><trkpt lat="44.483831" lon="11.1790137"><ele>96.0</ele><time>2026-03-22T09:35:37.648Z</time></trkpt><trkpt lat="44.4837649" lon="11.1789528"><ele>96.0</ele><time>2026-03-22T09:35:38.648Z</time></trkpt><trkpt lat="44.4836883" lon="11.1789375"><ele>96.0</ele><time>2026-03-22T09:35:39.648Z</time></trkpt><trkpt lat="44.4835941" lon="11.1789409"><ele>98.0</ele><time>2026-03-22T09:35:40.648Z</time></trkpt><trkpt lat="44.4834885" lon="11.1789606"><ele>100.0</ele><time>2026-03-22T09:35:41.648Z</time></trkpt><trkpt lat="44.4833759" lon="11.1789717"><ele>102.0</ele><time>2026-03-22T09:35:42.648Z</time></trkpt><trkpt lat="44.4832481" lon="11.1789878"><ele>104.0</ele><time>2026-03-22T09:35:43.648Z</time></trkpt><trkpt lat="44.4831174" lon="11.1790083"><ele>106.5</ele><time>2026-03-22T09:35:44.648Z</time></trkpt><trkpt lat="44.4829744" lon="11.1790387"><ele>109.0</ele><time>2026-03-22T09:35:45.648Z</time></trkpt><trkpt lat="44.482828" lon="11.1790652"><ele>111.5</ele><time>2026-03-22T09:35:46.648Z</time></trkpt><trkpt lat="44.4826909" lon="11.17908"><ele>114.0</ele><time>2026-03-22T09:35:47.648Z</time></trkpt><trkpt lat="44.4825534" lon="11.1790888"><ele>116.5</ele><time>2026-03-22T09:35:48.648Z</time></trkpt><trkpt lat="44.4824127" lon="11.1790931"><ele>119.0</ele><time>2026-03-22T09:35:49.648Z</time></trkpt><trkpt lat="44.4822703" lon="11.179102"><ele>121.5</ele><time>2026-03-22T09:35:50.648Z</time></trkpt><trkpt lat="44.4821275" lon="11.1791237"><ele>124.0</ele><time>2026-03-22T09:35:51.648Z</time></trkpt><trkpt lat="44.4819941" lon="11.1791375"><ele>126.5</ele><time>2026-03-22T09:35:52.648Z</time></trkpt><trkpt lat="44.4818615" lon="11.1791464"><ele>129.0</ele><time>2026-03-22T09:35:53.648Z</time></trkpt><trkpt lat="44.4817304" lon="11.1791545"><ele>131.5</ele><time>2026-03-22T09:35:54.648Z</time></trkpt><trkpt lat="44.4816065" lon="11.1791702"><ele>134.0</ele><time>2026-03-22T09:35:55.648Z</time></trkpt><trkpt lat="44.4814814" lon="11.1791956"><ele>134.0</ele><time>2026-03-22T09:35:56.648Z</time></trkpt><trkpt lat="44.4813535" lon="11.179209"><ele>134.0</ele><time>2026-03-22T09:35:57.648Z</time></trkpt><trkpt lat="44.4812236" lon="11.1792146"><ele>134.0</ele><time>2026-03-22T09:35:58.648Z</time></trkpt><trkpt lat="44.481106" lon="11.1791797"><ele>134.0</ele><time>2026-03-22T09:35:59.648Z</time></trkpt><trkpt lat="44.4809982" lon="11.1791625"><ele>135.5</ele><time>2026-03-22T09:36:00.648Z</time></trkpt><trkpt lat="44.4808975" lon="11.1791274"><ele>137.0</ele><time>2026-03-22T09:36:01.648Z</time></trkpt><trkpt lat="44.4808032" lon="11.1791055"><ele>138.5</ele><time>2026-03-22T09:36:02.648Z</time></trkpt><trkpt lat="44.4807207" lon="11.1790955"><ele>140.0</ele><time>2026-03-22T09:36:03.648Z</time></trkpt><trkpt lat="44.4806474" lon="11.1790838"><ele>141.5</ele><time>2026-03-22T09:36:04.648Z</time></trkpt><trkpt lat="44.4805812" lon="11.1790735"><ele>143.0</ele><time>2026-03-22T09:36:05.648Z</time></trkpt><trkpt lat="44.4805" lon="11.1790553"><ele>143.6</ele><time>2026-03-22T09:36:06.648Z</time></trkpt><trkpt lat="44.4804045" lon="11.1790407"><ele>144.20000000000002</ele><time>2026-03-22T09:36:07.648Z</time></trkpt><trkpt lat="44.4803074" lon="11.179026"><ele>144.8</ele><time>2026-03-22T09:36:08.648Z</time></trkpt><trkpt lat="44.4802086" lon="11.1790073"><ele>145.4</ele><time>2026-03-22T09:36:09.648Z</time></trkpt><trkpt lat="44.4801036" lon="11.1789943"><ele>146.0</ele><time>2026-03-22T09:36:10.648Z</time></trkpt><trkpt lat="44.4799968" lon="11.1789847"><ele>146.0</ele><time>2026-03-22T09:36:11.648Z</time></trkpt><trkpt lat="44.4798838" lon="11.1789565"><ele>146.0</ele><time>2026-03-22T09:36:12.648Z</time></trkpt><trkpt lat="44.4797696" lon="11.1789199"><ele>146.0</ele><time>2026-03-22T09:36:13.648Z</time></trkpt><trkpt lat="44.4796535" lon="11.1788666"><ele>146.0</ele><time>2026-03-22T09:36:14.648Z</time></trkpt><trkpt lat="44.4795267" lon="11.1788027"><ele>148.0</ele><time>2026-03-22T09:36:15.648Z</time></trkpt><trkpt lat="44.4793904" lon="11.178736"><ele>150.0</ele><time>2026-03-22T09:36:16.648Z</time></trkpt><trkpt lat="44.4792761" lon="11.1786752"><ele>152.0</ele><time>2026-03-22T09:36:17.648Z</time></trkpt><trkpt lat="44.4791709" lon="11.1786334"><ele>154.0</ele><time>2026-03-22T09:36:18.648Z</time></trkpt><trkpt lat="44.479082" lon="11.1786175"><ele>154.0</ele><time>2026-03-22T09:36:19.648Z</time></trkpt><trkpt lat="44.478986" lon="11.1786129"><ele>154.0</ele><time>2026-03-22T09:36:20.648Z</time></trkpt><trkpt lat="44.4788837" lon="11.1786476"><ele>154.0</ele><time>2026-03-22T09:36:21.648Z</time></trkpt><trkpt lat="44.4787863" lon="11.1787033"><ele>154.0</ele><time>2026-03-22T09:36:22.648Z</time></trkpt><trkpt lat="44.4787014" lon="11.1788"><ele>154.0</ele><time>2026-03-22T09:36:23.648Z</time></trkpt><trkpt lat="44.4786121" lon="11.1789117"><ele>157.25</ele><time>2026-03-22T09:36:24.648Z</time></trkpt><trkpt lat="44.478523" lon="11.1790504"><ele>160.5</ele><time>2026-03-22T09:36:25.648Z</time></trkpt><trkpt lat="44.4784324" lon="11.1791716"><ele>163.75</ele><time>2026-03-22T09:36:26.648Z</time></trkpt><trkpt lat="44.478358" lon="11.1792922"><ele>167.0</ele><time>2026-03-22T09:36:27.648Z</time></trkpt><trkpt lat="44.4782905" lon="11.1793919"><ele>167.0</ele><time>2026-03-22T09:36:28.648Z</time></trkpt><trkpt lat="44.4782305" lon="11.1794586"><ele>167.0</ele><time>2026-03-22T09:36:29.648Z</time></trkpt><trkpt lat="44.4781271" lon="11.1794785"><ele>167.0</ele><time>2026-03-22T09:36:31.648Z</time></trkpt><trkpt lat="44.478063" lon="11.1794357"><ele>167.0</ele><time>2026-03-22T09:36:32.648Z</time></trkpt><trkpt lat="44.4780004" lon="11.1793449"><ele>167.0</ele><time>2026-03-22T09:36:33.648Z</time></trkpt><trkpt lat="44.4779395" lon="11.1792147"><ele>168.5</ele><time>2026-03-22T09:36:34.648Z</time></trkpt><trkpt lat="44.477872" lon="11.1790729"><ele>170.0</ele><time>2026-03-22T09:36:35.648Z</time></trkpt><trkpt lat="44.4777967" lon="11.1789313"><ele>171.5</ele><time>2026-03-22T09:36:36.648Z</time></trkpt><trkpt lat="44.4777135" lon="11.1788013"><ele>173.0</ele><time>2026-03-22T09:36:37.648Z</time></trkpt><trkpt lat="44.4776166" lon="11.1786907"><ele>175.5</ele><time>2026-03-22T09:36:38.648Z</time></trkpt><trkpt lat="44.4775125" lon="11.178596"><ele>178.0</ele><time>2026-03-22T09:36:39.648Z</time></trkpt><trkpt lat="44.4773928" lon="11.1785139"><ele>180.5</ele><time>2026-03-22T09:36:40.648Z</time></trkpt><trkpt lat="44.4772637" lon="11.1784253"><ele>183.0</ele><time>2026-03-22T09:36:41.648Z</time></trkpt><trkpt lat="44.4771525" lon="11.1783344"><ele>184.2</ele><time>2026-03-22T09:36:42.648Z</time></trkpt><trkpt lat="44.4770521" lon="11.1782512"><ele>185.4</ele><time>2026-03-22T09:36:43.649Z</time></trkpt><trkpt lat="44.476965" lon="11.1781773"><ele>186.6</ele><time>2026-03-22T09:36:44.648Z</time></trkpt><trkpt lat="44.4768878" lon="11.1781186"><ele>187.79999999999998</ele><time>2026-03-22T09:36:45.648Z</time></trkpt><trkpt lat="44.4768197" lon="11.1780589"><ele>189.0</ele><time>2026-03-22T09:36:46.648Z</time></trkpt><trkpt lat="44.4767515" lon="11.1779963"><ele>190.83333333333334</ele><time>2026-03-22T09:36:47.648Z</time></trkpt><trkpt lat="44.4766906" lon="11.1779325"><ele>192.66666666666669</ele><time>2026-03-22T09:36:48.648Z</time></trkpt><trkpt lat="44.476629" lon="11.1778634"><ele>194.5</ele><time>2026-03-22T09:36:49.648Z</time></trkpt><trkpt lat="44.4765581" lon="11.1778006"><ele>196.33333333333334</ele><time>2026-03-22T09:36:50.648Z</time></trkpt><trkpt lat="44.4764821" lon="11.1777582"><ele>198.16666666666669</ele><time>2026-03-22T09:36:51.648Z</time></trkpt><trkpt lat="44.4763949" lon="11.1777257"><ele>200.0</ele><time>2026-03-22T09:36:52.648Z</time></trkpt><trkpt lat="44.4763075" lon="11.1776892"><ele>202.2</ele><time>2026-03-22T09:36:53.648Z</time></trkpt><trkpt lat="44.4762094" lon="11.1776619"><ele>204.4</ele><time>2026-03-22T09:36:54.648Z</time></trkpt><trkpt lat="44.4761152" lon="11.177636"><ele>206.60000000000002</ele><time>2026-03-22T09:36:55.648Z</time></trkpt><trkpt lat="44.4760205" lon="11.1776099"><ele>208.8</ele><time>2026-03-22T09:36:56.648Z</time></trkpt><trkpt lat="44.475929" lon="11.1775932"><ele>211.0</ele><time>2026-03-22T09:36:57.648Z</time></trkpt><trkpt lat="44.4758306" lon="11.1775557"><ele>210.99999999999997</ele><time>2026-03-22T09:36:58.648Z</time></trkpt><trkpt lat="44.4757321" lon="11.1775271"><ele>211.0</ele><time>2026-03-22T09:36:59.648Z</time></trkpt><trkpt lat="44.4756484" lon="11.1774895"><ele>211.0</ele><time>2026-03-22T09:37:00.648Z</time></trkpt><trkpt lat="44.4755757" lon="11.1774505"><ele>211.0</ele><time>2026-03-22T09:37:01.648Z</time></trkpt><trkpt lat="44.4755091" lon="11.1774206"><ele>210.99999999999997</ele><time>2026-03-22T09:37:02.648Z</time></trkpt><trkpt lat="44.4754282" lon="11.1773978"><ele>211.0</ele><time>2026-03-22T09:37:03.648Z</time></trkpt><trkpt lat="44.4753479" lon="11.177377"><ele>212.8</ele><time>2026-03-22T09:37:04.648Z</time></trkpt><trkpt lat="44.4752242" lon="11.1773485"><ele>214.60000000000002</ele><time>2026-03-22T09:37:06.648Z</time></trkpt><trkpt lat="44.4751132" lon="11.1773635"><ele>216.4</ele><time>2026-03-22T09:37:08.648Z</time></trkpt><trkpt lat="44.4749947" lon="11.1773801"><ele>218.2</ele><time>2026-03-22T09:37:10.648Z</time></trkpt><trkpt lat="44.4749308" lon="11.1773848"><ele>220.0</ele><time>2026-03-22T09:37:11.648Z</time></trkpt><trkpt lat="44.4748502" lon="11.1773878"><ele>220.0</ele><time>2026-03-22T09:37:12.648Z</time></trkpt><trkpt lat="44.4747554" lon="11.1773931"><ele>220.0</ele><time>2026-03-22T09:37:13.648Z</time></trkpt><trkpt lat="44.4746508" lon="11.1774084"><ele>220.0</ele><time>2026-03-22T09:37:14.648Z</time></trkpt><trkpt lat="44.4745406" lon="11.1774227"><ele>220.0</ele><time>2026-03-22T09:37:15.648Z</time></trkpt><trkpt lat="44.4744345" lon="11.1774237"><ele>220.0</ele><time>2026-03-22T09:37:16.648Z</time></trkpt><trkpt lat="44.4743423" lon="11.177408"><ele>220.49999999999997</ele><time>2026-03-22T09:37:17.648Z</time></trkpt><trkpt lat="44.4742539" lon="11.1773744"><ele>221.0</ele><time>2026-03-22T09:37:18.648Z</time></trkpt><trkpt lat="44.4741706" lon="11.1773266"><ele>221.5</ele><time>2026-03-22T09:37:19.648Z</time></trkpt><trkpt lat="44.4741018" lon="11.1772913"><ele>222.0</ele><time>2026-03-22T09:37:20.648Z</time></trkpt><trkpt lat="44.4740298" lon="11.1772267"><ele>222.49999999999997</ele><time>2026-03-22T09:37:21.648Z</time></trkpt><trkpt lat="44.4739373" lon="11.1771559"><ele>223.0</ele><time>2026-03-22T09:37:22.648Z</time></trkpt><trkpt lat="44.4738373" lon="11.177089"><ele>226.75</ele><time>2026-03-22T09:37:23.648Z</time></trkpt><trkpt lat="44.4737264" lon="11.1770345"><ele>230.5</ele><time>2026-03-22T09:37:24.648Z</time></trkpt><trkpt lat="44.4735972" lon="11.1769949"><ele>234.25</ele><time>2026-03-22T09:37:25.648Z</time></trkpt><trkpt lat="44.473491" lon="11.176948"><ele>238.0</ele><time>2026-03-22T09:37:26.648Z</time></trkpt><trkpt lat="44.4733773" lon="11.1769435"><ele>238.0</ele><time>2026-03-22T09:37:27.648Z</time></trkpt><trkpt lat="44.4732767" lon="11.1769234"><ele>238.0</ele><time>2026-03-22T09:37:28.648Z</time></trkpt><trkpt lat="44.4731938" lon="11.1768912"><ele>238.0</ele><time>2026-03-22T09:37:29.648Z</time></trkpt><trkpt lat="44.4731122" lon="11.1768233"><ele>238.0</ele><time>2026-03-22T09:37:30.648Z</time></trkpt><trkpt lat="44.4730323" lon="11.1767279"><ele>238.0</ele><time>2026-03-22T09:37:31.648Z</time></trkpt><trkpt lat="44.4729573" lon="11.1766301"><ele>238.0</ele><time>2026-03-22T09:37:32.648Z</time></trkpt><trkpt lat="44.4728903" lon="11.1765433"><ele>238.0</ele><time>2026-03-22T09:37:33.648Z</time></trkpt><trkpt lat="44.4727328" lon="11.1763441"><ele>238.0</ele><time>2026-03-22T09:37:35.648Z</time></trkpt><trkpt lat="44.4726596" lon="11.1762376"><ele>238.0</ele><time>2026-03-22T09:37:36.648Z</time></trkpt><trkpt lat="44.4725865" lon="11.1761362"><ele>238.0</ele><time>2026-03-22T09:37:37.648Z</time></trkpt><trkpt lat="44.4725044" lon="11.176029"><ele>238.0</ele><time>2026-03-22T09:37:38.648Z</time></trkpt><trkpt lat="44.472432" lon="11.1759231"><ele>238.0</ele><time>2026-03-22T09:37:39.648Z</time></trkpt><trkpt lat="44.4723587" lon="11.1758153"><ele>238.0</ele><time>2026-03-22T09:37:40.648Z</time></trkpt><trkpt lat="44.4722844" lon="11.1757158"><ele>238.0</ele><time>2026-03-22T09:37:41.648Z</time></trkpt><trkpt lat="44.472212" lon="11.1756301"><ele>234.2</ele><time>2026-03-22T09:37:42.648Z</time></trkpt><trkpt lat="44.4721353" lon="11.1755495"><ele>230.4</ele><time>2026-03-22T09:37:43.648Z</time></trkpt><trkpt lat="44.4720581" lon="11.1754555"><ele>226.59999999999997</ele><time>2026-03-22T09:37:44.648Z</time></trkpt><trkpt lat="44.4719746" lon="11.1753653"><ele>222.79999999999998</ele><time>2026-03-22T09:37:45.648Z</time></trkpt><trkpt lat="44.4718921" lon="11.1752606"><ele>219.0</ele><time>2026-03-22T09:37:46.648Z</time></trkpt><trkpt lat="44.4718084" lon="11.1751702"><ele>225.6</ele><time>2026-03-22T09:37:47.648Z</time></trkpt><trkpt lat="44.4717464" lon="11.1750895"><ele>232.2</ele><time>2026-03-22T09:37:48.648Z</time></trkpt><trkpt lat="44.4716869" lon="11.1750097"><ele>238.79999999999998</ele><time>2026-03-22T09:37:49.648Z</time></trkpt><trkpt lat="44.4716319" lon="11.1749176"><ele>245.39999999999998</ele><time>2026-03-22T09:37:51.648Z</time></trkpt><trkpt lat="44.4716133" lon="11.1747723"><ele>252.0</ele><time>2026-03-22T09:37:54.648Z</time></trkpt><trkpt lat="44.4715651" lon="11.1745784"><ele>252.0</ele><time>2026-03-22T09:37:56.648Z</time></trkpt><trkpt lat="44.4715208" lon="11.1744696"><ele>252.0</ele><time>2026-03-22T09:37:57.648Z</time></trkpt><trkpt lat="44.4714695" lon="11.1743661"><ele>252.0</ele><time>2026-03-22T09:37:58.648Z</time></trkpt><trkpt lat="44.4714133" lon="11.1742516"><ele>252.0</ele><time>2026-03-22T09:37:59.648Z</time></trkpt><trkpt lat="44.4713614" lon="11.174133"><ele>252.0</ele><time>2026-03-22T09:38:00.648Z</time></trkpt><trkpt lat="44.4713033" lon="11.1740168"><ele>251.6</ele><time>2026-03-22T09:38:01.648Z</time></trkpt><trkpt lat="44.4712449" lon="11.1738947"><ele>251.2</ele><time>2026-03-22T09:38:02.648Z</time></trkpt><trkpt lat="44.471185" lon="11.1737764"><ele>250.8</ele><time>2026-03-22T09:38:03.648Z</time></trkpt><trkpt lat="44.4711246" lon="11.1736563"><ele>250.4</ele><time>2026-03-22T09:38:04.648Z</time></trkpt><trkpt lat="44.4710668" lon="11.1735471"><ele>250.0</ele><time>2026-03-22T09:38:05.648Z</time></trkpt><trkpt lat="44.471007" lon="11.1734289"><ele>250.0</ele><time>2026-03-22T09:38:06.649Z</time></trkpt><trkpt lat="44.4709435" lon="11.1733065"><ele>250.0</ele><time>2026-03-22T09:38:07.648Z</time></trkpt><trkpt lat="44.4708825" lon="11.1731868"><ele>250.0</ele><time>2026-03-22T09:38:08.648Z</time></trkpt><trkpt lat="44.4708179" lon="11.1730608"><ele>250.0</ele><time>2026-03-22T09:38:09.648Z</time></trkpt><trkpt lat="44.4707489" lon="11.1729276"><ele>250.0</ele><time>2026-03-22T09:38:10.648Z</time></trkpt><trkpt lat="44.4706825" lon="11.1727935"><ele>249.0</ele><time>2026-03-22T09:38:11.648Z</time></trkpt><trkpt lat="44.4706186" lon="11.1726637"><ele>248.0</ele><time>2026-03-22T09:38:12.648Z</time></trkpt><trkpt lat="44.4705519" lon="11.1725282"><ele>247.0</ele><time>2026-03-22T09:38:13.648Z</time></trkpt><trkpt lat="44.4704854" lon="11.1723962"><ele>246.0</ele><time>2026-03-22T09:38:14.648Z</time></trkpt><trkpt lat="44.4704165" lon="11.1722664"><ele>242.75</ele><time>2026-03-22T09:38:15.648Z</time></trkpt><trkpt lat="44.4703413" lon="11.172138"><ele>239.5</ele><time>2026-03-22T09:38:16.648Z</time></trkpt><trkpt lat="44.4702644" lon="11.1719941"><ele>236.25</ele><time>2026-03-22T09:38:17.648Z</time></trkpt><trkpt lat="44.4701757" lon="11.1718355"><ele>233.0</ele><time>2026-03-22T09:38:18.648Z</time></trkpt><trkpt lat="44.4700841" lon="11.1716641"><ele>231.75</ele><time>2026-03-22T09:38:19.648Z</time></trkpt><trkpt lat="44.4699989" lon="11.1714997"><ele>230.5</ele><time>2026-03-22T09:38:20.648Z</time></trkpt><trkpt lat="44.4699219" lon="11.1713418"><ele>229.25</ele><time>2026-03-22T09:38:21.648Z</time></trkpt><trkpt lat="44.4698468" lon="11.1711789"><ele>228.0</ele><time>2026-03-22T09:38:22.648Z</time></trkpt><trkpt lat="44.4697767" lon="11.1710275"><ele>228.0</ele><time>2026-03-22T09:38:23.648Z</time></trkpt><trkpt lat="44.4696858" lon="11.1708703"><ele>228.0</ele><time>2026-03-22T09:38:24.648Z</time></trkpt><trkpt lat="44.4696103" lon="11.1707194"><ele>228.0</ele><time>2026-03-22T09:38:25.648Z</time></trkpt><trkpt lat="44.4695513" lon="11.1705556"><ele>228.0</ele><time>2026-03-22T09:38:26.648Z</time></trkpt><trkpt lat="44.4695074" lon="11.1703936"><ele>230.0</ele><time>2026-03-22T09:38:27.648Z</time></trkpt><trkpt lat="44.469474" lon="11.1702341"><ele>232.0</ele><time>2026-03-22T09:38:28.648Z</time></trkpt><trkpt lat="44.4694528" lon="11.1700892"><ele>234.0</ele><time>2026-03-22T09:38:29.648Z</time></trkpt><trkpt lat="44.4694408" lon="11.1699454"><ele>236.0</ele><time>2026-03-22T09:38:30.648Z</time></trkpt><trkpt lat="44.4694184" lon="11.1698108"><ele>238.0</ele><time>2026-03-22T09:38:31.648Z</time></trkpt><trkpt lat="44.4693783" lon="11.1696893"><ele>238.0</ele><time>2026-03-22T09:38:32.648Z</time></trkpt><trkpt lat="44.4693348" lon="11.169586"><ele>238.0</ele><time>2026-03-22T09:38:33.648Z</time></trkpt><trkpt lat="44.4692768" lon="11.1694836"><ele>238.0</ele><time>2026-03-22T09:38:34.648Z</time></trkpt><trkpt lat="44.4692132" lon="11.1693768"><ele>238.0</ele><time>2026-03-22T09:38:35.648Z</time></trkpt><trkpt lat="44.4691601" lon="11.1692576"><ele>238.0</ele><time>2026-03-22T09:38:36.648Z</time></trkpt><trkpt lat="44.4691115" lon="11.1691303"><ele>236.0</ele><time>2026-03-22T09:38:37.648Z</time></trkpt><trkpt lat="44.4690704" lon="11.1690097"><ele>234.0</ele><time>2026-03-22T09:38:38.648Z</time></trkpt><trkpt lat="44.4690294" lon="11.1688638"><ele>232.0</ele><time>2026-03-22T09:38:39.648Z</time></trkpt><trkpt lat="44.4689857" lon="11.1687117"><ele>230.0</ele><time>2026-03-22T09:38:40.648Z</time></trkpt><trkpt lat="44.4689393" lon="11.1685672"><ele>228.0</ele><time>2026-03-22T09:38:41.648Z</time></trkpt><trkpt lat="44.4688454" lon="11.1684407"><ele>231.0</ele><time>2026-03-22T09:38:42.648Z</time></trkpt><trkpt lat="44.4687719" lon="11.1683143"><ele>234.0</ele><time>2026-03-22T09:38:43.648Z</time></trkpt><trkpt lat="44.4686669" lon="11.1682205"><ele>237.0</ele><time>2026-03-22T09:38:44.648Z</time></trkpt><trkpt lat="44.4685485" lon="11.1681529"><ele>240.0</ele><time>2026-03-22T09:38:45.648Z</time></trkpt><trkpt lat="44.4684293" lon="11.1681053"><ele>240.0</ele><time>2026-03-22T09:38:46.648Z</time></trkpt><trkpt lat="44.4683158" lon="11.1680448"><ele>240.0</ele><time>2026-03-22T09:38:47.648Z</time></trkpt><trkpt lat="44.4682276" lon="11.1679769"><ele>240.0</ele><time>2026-03-22T09:38:48.649Z</time></trkpt><trkpt lat="44.4681476" lon="11.1679198"><ele>240.0</ele><time>2026-03-22T09:38:49.648Z</time></trkpt><trkpt lat="44.4680872" lon="11.1678814"><ele>240.0</ele><time>2026-03-22T09:38:50.648Z</time></trkpt><trkpt lat="44.4679887" lon="11.1677645"><ele>239.6</ele><time>2026-03-22T09:38:52.648Z</time></trkpt><trkpt lat="44.4679345" lon="11.1676669"><ele>239.2</ele><time>2026-03-22T09:38:53.648Z</time></trkpt><trkpt lat="44.4678884" lon="11.1675531"><ele>238.8</ele><time>2026-03-22T09:38:54.648Z</time></trkpt><trkpt lat="44.4678149" lon="11.1673944"><ele>238.4</ele><time>2026-03-22T09:38:55.648Z</time></trkpt><trkpt lat="44.4677562" lon="11.16727"><ele>238.0</ele><time>2026-03-22T09:38:56.648Z</time></trkpt><trkpt lat="44.4676994" lon="11.1671325"><ele>240.0</ele><time>2026-03-22T09:38:57.648Z</time></trkpt><trkpt lat="44.4676436" lon="11.1670105"><ele>242.0</ele><time>2026-03-22T09:38:58.648Z</time></trkpt><trkpt lat="44.4676035" lon="11.1668882"><ele>244.0</ele><time>2026-03-22T09:38:59.648Z</time></trkpt><trkpt lat="44.4675943" lon="11.1667415"><ele>246.0</ele><time>2026-03-22T09:39:00.648Z</time></trkpt><trkpt lat="44.4675969" lon="11.1665796"><ele>248.0</ele><time>2026-03-22T09:39:01.648Z</time></trkpt><trkpt lat="44.4676034" lon="11.1664372"><ele>249.4</ele><time>2026-03-22T09:39:02.648Z</time></trkpt><trkpt lat="44.4676132" lon="11.1663023"><ele>250.8</ele><time>2026-03-22T09:39:03.648Z</time></trkpt><trkpt lat="44.4676357" lon="11.1661697"><ele>252.2</ele><time>2026-03-22T09:39:04.648Z</time></trkpt><trkpt lat="44.4676658" lon="11.1659862"><ele>253.6</ele><time>2026-03-22T09:39:05.648Z</time></trkpt><trkpt lat="44.4676956" lon="11.1658247"><ele>255.0</ele><time>2026-03-22T09:39:06.648Z</time></trkpt><trkpt lat="44.4677229" lon="11.1655919"><ele>257.25</ele><time>2026-03-22T09:39:07.648Z</time></trkpt><trkpt lat="44.4677518" lon="11.1653845"><ele>259.5</ele><time>2026-03-22T09:39:08.648Z</time></trkpt><trkpt lat="44.4677869" lon="11.1651767"><ele>261.75</ele><time>2026-03-22T09:39:09.648Z</time></trkpt><trkpt lat="44.4678214" lon="11.1649905"><ele>264.0</ele><time>2026-03-22T09:39:10.648Z</time></trkpt><trkpt lat="44.4678585" lon="11.1648255"><ele>266.4</ele><time>2026-03-22T09:39:11.648Z</time></trkpt><trkpt lat="44.4678788" lon="11.1646637"><ele>268.79999999999995</ele><time>2026-03-22T09:39:12.648Z</time></trkpt><trkpt lat="44.4678972" lon="11.1645287"><ele>271.20000000000005</ele><time>2026-03-22T09:39:13.648Z</time></trkpt><trkpt lat="44.4679166" lon="11.1643911"><ele>273.6</ele><time>2026-03-22T09:39:14.648Z</time></trkpt><trkpt lat="44.4679184" lon="11.1642578"><ele>276.0</ele><time>2026-03-22T09:39:15.648Z</time></trkpt><trkpt lat="44.4678997" lon="11.1641024"><ele>277.25</ele><time>2026-03-22T09:39:16.648Z</time></trkpt><trkpt lat="44.4678526" lon="11.1639674"><ele>278.5</ele><time>2026-03-22T09:39:17.648Z</time></trkpt><trkpt lat="44.4677742" lon="11.1638222"><ele>279.75</ele><time>2026-03-22T09:39:18.648Z</time></trkpt><trkpt lat="44.467696" lon="11.163669"><ele>281.0</ele><time>2026-03-22T09:39:19.648Z</time></trkpt><trkpt lat="44.4676182" lon="11.1635099"><ele>281.0</ele><time>2026-03-22T09:39:20.648Z</time></trkpt><trkpt lat="44.4675357" lon="11.1633682"><ele>281.0</ele><time>2026-03-22T09:39:21.648Z</time></trkpt><trkpt lat="44.4674441" lon="11.1632067"><ele>281.0</ele><time>2026-03-22T09:39:22.648Z</time></trkpt><trkpt lat="44.4673539" lon="11.1630517"><ele>281.0</ele><time>2026-03-22T09:39:23.648Z</time></trkpt><trkpt lat="44.467272" lon="11.1628922"><ele>279.5</ele><time>2026-03-22T09:39:24.648Z</time></trkpt><trkpt lat="44.4671846" lon="11.1627345"><ele>278.0</ele><time>2026-03-22T09:39:25.648Z</time></trkpt><trkpt lat="44.4671026" lon="11.1625677"><ele>276.5</ele><time>2026-03-22T09:39:26.648Z</time></trkpt><trkpt lat="44.467023" lon="11.1624211"><ele>275.0</ele><time>2026-03-22T09:39:27.648Z</time></trkpt><trkpt lat="44.4669283" lon="11.1622409"><ele>282.6666666666667</ele><time>2026-03-22T09:39:28.648Z</time></trkpt><trkpt lat="44.4668363" lon="11.1620616"><ele>290.3333333333333</ele><time>2026-03-22T09:39:29.648Z</time></trkpt><trkpt lat="44.4667454" lon="11.1619001"><ele>298.0</ele><time>2026-03-22T09:39:30.648Z</time></trkpt><trkpt lat="44.4666558" lon="11.161739"><ele>298.0</ele><time>2026-03-22T09:39:31.648Z</time></trkpt><trkpt lat="44.4665828" lon="11.1615872"><ele>298.0</ele><time>2026-03-22T09:39:32.648Z</time></trkpt><trkpt lat="44.4664949" lon="11.1614347"><ele>298.0</ele><time>2026-03-22T09:39:33.648Z</time></trkpt><trkpt lat="44.4664203" lon="11.1612952"><ele>298.0</ele><time>2026-03-22T09:39:34.648Z</time></trkpt><trkpt lat="44.4663349" lon="11.1611544"><ele>298.5</ele><time>2026-03-22T09:39:35.648Z</time></trkpt><trkpt lat="44.4662411" lon="11.160991"><ele>299.0</ele><time>2026-03-22T09:39:36.648Z</time></trkpt><trkpt lat="44.4661447" lon="11.1608465"><ele>299.5</ele><time>2026-03-22T09:39:37.648Z</time></trkpt><trkpt lat="44.4660571" lon="11.1606998"><ele>300.0</ele><time>2026-03-22T09:39:38.648Z</time></trkpt><trkpt lat="44.4659669" lon="11.1605486"><ele>300.0</ele><time>2026-03-22T09:39:39.648Z</time></trkpt><trkpt lat="44.4658811" lon="11.1604083"><ele>300.0</ele><time>2026-03-22T09:39:40.648Z</time></trkpt><trkpt lat="44.465804" lon="11.1602673"><ele>300.0</ele><time>2026-03-22T09:39:41.648Z</time></trkpt><trkpt lat="44.4657295" lon="11.1601272"><ele>300.0</ele><time>2026-03-22T09:39:42.648Z</time></trkpt><trkpt lat="44.4656605" lon="11.1599803"><ele>300.5</ele><time>2026-03-22T09:39:43.648Z</time></trkpt><trkpt lat="44.4655919" lon="11.1598444"><ele>301.0</ele><time>2026-03-22T09:39:44.648Z</time></trkpt><trkpt lat="44.465519" lon="11.1597299"><ele>301.5</ele><time>2026-03-22T09:39:45.648Z</time></trkpt><trkpt lat="44.4654457" lon="11.1595956"><ele>302.0</ele><time>2026-03-22T09:39:46.648Z</time></trkpt><trkpt lat="44.4653744" lon="11.1594961"><ele>302.0</ele><time>2026-03-22T09:39:47.648Z</time></trkpt><trkpt lat="44.4653029" lon="11.1593932"><ele>302.0</ele><time>2026-03-22T09:39:48.648Z</time></trkpt><trkpt lat="44.4652485" lon="11.1592777"><ele>302.0</ele><time>2026-03-22T09:39:49.648Z</time></trkpt><trkpt lat="44.4652087" lon="11.1591574"><ele>302.0</ele><time>2026-03-22T09:39:50.648Z</time></trkpt><trkpt lat="44.4651819" lon="11.1589873"><ele>302.0</ele><time>2026-03-22T09:39:52.648Z</time></trkpt><trkpt lat="44.4651351" lon="11.1588697"><ele>304.6</ele><time>2026-03-22T09:39:54.648Z</time></trkpt><trkpt lat="44.4650568" lon="11.1587687"><ele>307.2</ele><time>2026-03-22T09:39:56.648Z</time></trkpt><trkpt lat="44.4649523" lon="11.1586899"><ele>309.8</ele><time>2026-03-22T09:39:58.648Z</time></trkpt><trkpt lat="44.4648785" lon="11.1586328"><ele>312.4</ele><time>2026-03-22T09:39:59.648Z</time></trkpt><trkpt lat="44.4648079" lon="11.1585866"><ele>315.0</ele><time>2026-03-22T09:40:00.648Z</time></trkpt><trkpt lat="44.4647522" lon="11.1585208"><ele>315.0</ele><time>2026-03-22T09:40:01.648Z</time></trkpt><trkpt lat="44.4646838" lon="11.1584686"><ele>315.0</ele><time>2026-03-22T09:40:02.648Z</time></trkpt><trkpt lat="44.4646108" lon="11.1584204"><ele>315.0</ele><time>2026-03-22T09:40:03.648Z</time></trkpt><trkpt lat="44.4645381" lon="11.1584116"><ele>315.0</ele><time>2026-03-22T09:40:04.648Z</time></trkpt><trkpt lat="44.4644707" lon="11.1584122"><ele>315.0</ele><time>2026-03-22T09:40:05.648Z</time></trkpt><trkpt lat="44.4643982" lon="11.1584096"><ele>315.0</ele><time>2026-03-22T09:40:06.648Z</time></trkpt><trkpt lat="44.4643314" lon="11.1584024"><ele>315.0</ele><time>2026-03-22T09:40:07.648Z</time></trkpt><trkpt lat="44.4642693" lon="11.1583795"><ele>314.6666666666667</ele><time>2026-03-22T09:40:08.648Z</time></trkpt><trkpt lat="44.4642076" lon="11.1583387"><ele>314.3333333333333</ele><time>2026-03-22T09:40:09.648Z</time></trkpt><trkpt lat="44.4641459" lon="11.1582838"><ele>314.0</ele><time>2026-03-22T09:40:10.648Z</time></trkpt><trkpt lat="44.4640955" lon="11.1582082"><ele>313.66666666666663</ele><time>2026-03-22T09:40:11.648Z</time></trkpt><trkpt lat="44.464049" lon="11.1581376"><ele>313.3333333333333</ele><time>2026-03-22T09:40:12.648Z</time></trkpt><trkpt lat="44.4640128" lon="11.1580291"><ele>313.0</ele><time>2026-03-22T09:40:13.648Z</time></trkpt><trkpt lat="44.4639446" lon="11.1578653"><ele>313.0</ele><time>2026-03-22T09:40:15.648Z</time></trkpt><trkpt lat="44.4638126" lon="11.1576932"><ele>313.0</ele><time>2026-03-22T09:40:17.648Z</time></trkpt><trkpt lat="44.4637357" lon="11.1576054"><ele>313.0</ele><time>2026-03-22T09:40:18.648Z</time></trkpt><trkpt lat="44.4636704" lon="11.1575227"><ele>313.0</ele><time>2026-03-22T09:40:19.648Z</time></trkpt><trkpt lat="44.4636063" lon="11.1574133"><ele>312.0</ele><time>2026-03-22T09:40:20.648Z</time></trkpt><trkpt lat="44.4635365" lon="11.1572832"><ele>311.0</ele><time>2026-03-22T09:40:21.648Z</time></trkpt><trkpt lat="44.4634602" lon="11.1571584"><ele>310.0</ele><time>2026-03-22T09:40:22.648Z</time></trkpt><trkpt lat="44.4633748" lon="11.1570248"><ele>309.0</ele><time>2026-03-22T09:40:23.648Z</time></trkpt><trkpt lat="44.4632918" lon="11.1568951"><ele>309.0</ele><time>2026-03-22T09:40:24.648Z</time></trkpt><trkpt lat="44.4632137" lon="11.1567864"><ele>309.0</ele><time>2026-03-22T09:40:25.648Z</time></trkpt><trkpt lat="44.4631398" lon="11.1566808"><ele>309.0</ele><time>2026-03-22T09:40:26.648Z</time></trkpt><trkpt lat="44.4630791" lon="11.1565814"><ele>309.0</ele><time>2026-03-22T09:40:27.648Z</time></trkpt><trkpt lat="44.4630261" lon="11.1565047"><ele>309.0</ele><time>2026-03-22T09:40:28.648Z</time></trkpt><trkpt lat="44.4629741" lon="11.1563838"><ele>313.0</ele><time>2026-03-22T09:40:30.648Z</time></trkpt><trkpt lat="44.463012" lon="11.1562917"><ele>317.0</ele><time>2026-03-22T09:40:32.648Z</time></trkpt><trkpt lat="44.4631656" lon="11.1562745"><ele>321.0</ele><time>2026-03-22T09:40:34.648Z</time></trkpt><trkpt lat="44.4632622" lon="11.1562576"><ele>325.0</ele><time>2026-03-22T09:40:35.648Z</time></trkpt><trkpt lat="44.4633993" lon="11.1562494"><ele>325.0</ele><time>2026-03-22T09:40:36.648Z</time></trkpt><trkpt lat="44.463525" lon="11.1562561"><ele>325.0</ele><time>2026-03-22T09:40:37.648Z</time></trkpt><trkpt lat="44.4636235" lon="11.1562551"><ele>325.0</ele><time>2026-03-22T09:40:38.648Z</time></trkpt><trkpt lat="44.4637028" lon="11.1562561"><ele>325.0</ele><time>2026-03-22T09:40:39.648Z</time></trkpt><trkpt lat="44.4637925" lon="11.1561565"><ele>325.0</ele><time>2026-03-22T09:40:41.648Z</time></trkpt><trkpt lat="44.4637298" lon="11.1559929"><ele>325.0</ele><time>2026-03-22T09:40:43.648Z</time></trkpt><trkpt lat="44.4636688" lon="11.1558932"><ele>325.0</ele><time>2026-03-22T09:40:44.648Z</time></trkpt><trkpt lat="44.4636121" lon="11.1557773"><ele>325.0</ele><time>2026-03-22T09:40:45.648Z</time></trkpt><trkpt lat="44.4635518" lon="11.1556569"><ele>325.0</ele><time>2026-03-22T09:40:46.648Z</time></trkpt><trkpt lat="44.4634864" lon="11.1555234"><ele>325.0</ele><time>2026-03-22T09:40:47.648Z</time></trkpt><trkpt lat="44.4634245" lon="11.1553945"><ele>328.8</ele><time>2026-03-22T09:40:48.648Z</time></trkpt><trkpt lat="44.4633604" lon="11.1552638"><ele>332.6</ele><time>2026-03-22T09:40:49.648Z</time></trkpt><trkpt lat="44.463308" lon="11.1551484"><ele>336.4</ele><time>2026-03-22T09:40:50.648Z</time></trkpt><trkpt lat="44.4632576" lon="11.1550159"><ele>340.2</ele><time>2026-03-22T09:40:51.648Z</time></trkpt><trkpt lat="44.463217" lon="11.1548969"><ele>344.0</ele><time>2026-03-22T09:40:52.648Z</time></trkpt><trkpt lat="44.4631832" lon="11.1547768"><ele>345.6666666666667</ele><time>2026-03-22T09:40:53.648Z</time></trkpt><trkpt lat="44.4631501" lon="11.1546452"><ele>347.33333333333337</ele><time>2026-03-22T09:40:54.648Z</time></trkpt><trkpt lat="44.4631399" lon="11.1545537"><ele>349.0</ele><time>2026-03-22T09:40:55.648Z</time></trkpt><trkpt lat="44.463115" lon="11.1544619"><ele>350.6666666666667</ele><time>2026-03-22T09:40:56.648Z</time></trkpt><trkpt lat="44.4630912" lon="11.154366"><ele>352.3333333333333</ele><time>2026-03-22T09:40:57.648Z</time></trkpt><trkpt lat="44.4630525" lon="11.1542238"><ele>354.0</ele><time>2026-03-22T09:40:59.648Z</time></trkpt><trkpt lat="44.4630208" lon="11.1541397"><ele>354.0</ele><time>2026-03-22T09:41:00.648Z</time></trkpt><trkpt lat="44.4630004" lon="11.1540331"><ele>354.0</ele><time>2026-03-22T09:41:01.648Z</time></trkpt><trkpt lat="44.4629809" lon="11.1539265"><ele>354.0</ele><time>2026-03-22T09:41:02.648Z</time></trkpt><trkpt lat="44.4629649" lon="11.153784"><ele>354.0</ele><time>2026-03-22T09:41:04.648Z</time></trkpt><trkpt lat="44.4629607" lon="11.1539194"><ele>354.0</ele><time>2026-03-22T09:41:10.648Z</time></trkpt><trkpt lat="44.463" lon="11.1540858"><ele>354.0</ele><time>2026-03-22T09:41:12.648Z</time></trkpt><trkpt lat="44.4630495" lon="11.1542739"><ele>354.0</ele><time>2026-03-22T09:41:14.648Z</time></trkpt><trkpt lat="44.4630774" lon="11.1543762"><ele>354.0</ele><time>2026-03-22T09:41:15.648Z</time></trkpt><trkpt lat="44.463106" lon="11.1544914"><ele>354.0</ele><time>2026-03-22T09:41:16.648Z</time></trkpt><trkpt lat="44.4631422" lon="11.1546149"><ele>354.0</ele><time>2026-03-22T09:41:17.648Z</time></trkpt><trkpt lat="44.463177" lon="11.154754"><ele>352.0</ele><time>2026-03-22T09:41:18.648Z</time></trkpt><trkpt lat="44.4632107" lon="11.1548851"><ele>350.0</ele><time>2026-03-22T09:41:19.648Z</time></trkpt><trkpt lat="44.4632544" lon="11.1550284"><ele>348.0</ele><time>2026-03-22T09:41:20.648Z</time></trkpt><trkpt lat="44.4633128" lon="11.1551809"><ele>346.0</ele><time>2026-03-22T09:41:21.648Z</time></trkpt><trkpt lat="44.463368" lon="11.1552978"><ele>344.0</ele><time>2026-03-22T09:41:22.648Z</time></trkpt><trkpt lat="44.4634233" lon="11.1554154"><ele>344.0</ele><time>2026-03-22T09:41:23.648Z</time></trkpt><trkpt lat="44.4634811" lon="11.155541"><ele>344.0</ele><time>2026-03-22T09:41:24.648Z</time></trkpt><trkpt lat="44.4635459" lon="11.1556714"><ele>344.0</ele><time>2026-03-22T09:41:25.648Z</time></trkpt><trkpt lat="44.4636146" lon="11.1557735"><ele>344.0</ele><time>2026-03-22T09:41:26.648Z</time></trkpt><trkpt lat="44.463676" lon="11.1558981"><ele>344.0</ele><time>2026-03-22T09:41:27.648Z</time></trkpt><trkpt lat="44.4637332" lon="11.1559869"><ele>343.33333333333337</ele><time>2026-03-22T09:41:28.648Z</time></trkpt><trkpt lat="44.4637848" lon="11.1560798"><ele>342.6666666666667</ele><time>2026-03-22T09:41:29.648Z</time></trkpt><trkpt lat="44.463825" lon="11.1561706"><ele>342.0</ele><time>2026-03-22T09:41:30.648Z</time></trkpt><trkpt lat="44.4637449" lon="11.1562659"><ele>341.3333333333333</ele><time>2026-03-22T09:41:32.648Z</time></trkpt><trkpt lat="44.4636756" lon="11.156271"><ele>340.66666666666663</ele><time>2026-03-22T09:41:33.648Z</time></trkpt><trkpt lat="44.4635922" lon="11.1562745"><ele>340.0</ele><time>2026-03-22T09:41:34.648Z</time></trkpt><trkpt lat="44.4634901" lon="11.1562681"><ele>337.5</ele><time>2026-03-22T09:41:35.648Z</time></trkpt><trkpt lat="44.4633962" lon="11.1562701"><ele>335.0</ele><time>2026-03-22T09:41:36.648Z</time></trkpt><trkpt lat="44.4633017" lon="11.1562739"><ele>332.5</ele><time>2026-03-22T09:41:37.648Z</time></trkpt><trkpt lat="44.4632121" lon="11.1562776"><ele>330.0</ele><time>2026-03-22T09:41:38.648Z</time></trkpt><trkpt lat="44.4631328" lon="11.1562813"><ele>327.5</ele><time>2026-03-22T09:41:39.648Z</time></trkpt><trkpt lat="44.4630628" lon="11.1562822"><ele>325.0</ele><time>2026-03-22T09:41:40.648Z</time></trkpt><trkpt lat="44.4629725" lon="11.1562873"><ele>321.6</ele><time>2026-03-22T09:41:42.648Z</time></trkpt><trkpt lat="44.4629125" lon="11.1562136"><ele>318.2</ele><time>2026-03-22T09:41:44.648Z</time></trkpt><trkpt lat="44.4628171" lon="11.1560902"><ele>314.8</ele><time>2026-03-22T09:41:46.648Z</time></trkpt><trkpt lat="44.4627567" lon="11.1559736"><ele>311.4</ele><time>2026-03-22T09:41:47.648Z</time></trkpt><trkpt lat="44.4626864" lon="11.1558696"><ele>308.0</ele><time>2026-03-22T09:41:48.648Z</time></trkpt><trkpt lat="44.4626133" lon="11.155773"><ele>308.0</ele><time>2026-03-22T09:41:49.648Z</time></trkpt><trkpt lat="44.4625418" lon="11.1557084"><ele>308.0</ele><time>2026-03-22T09:41:50.648Z</time></trkpt><trkpt lat="44.4624833" lon="11.1556437"><ele>308.0</ele><time>2026-03-22T09:41:51.648Z</time></trkpt><trkpt lat="44.462403" lon="11.1555799"><ele>308.0</ele><time>2026-03-22T09:41:52.648Z</time></trkpt><trkpt lat="44.4623347" lon="11.155493"><ele>308.0</ele><time>2026-03-22T09:41:53.648Z</time></trkpt><trkpt lat="44.4622882" lon="11.1554283"><ele>308.0</ele><time>2026-03-22T09:41:54.648Z</time></trkpt><trkpt lat="44.4622381" lon="11.1553605"><ele>309.0</ele><time>2026-03-22T09:41:55.648Z</time></trkpt><trkpt lat="44.4621778" lon="11.1552618"><ele>310.0</ele><time>2026-03-22T09:41:57.648Z</time></trkpt><trkpt lat="44.4621159" lon="11.1552364"><ele>311.0</ele><time>2026-03-22T09:41:59.648Z</time></trkpt><trkpt lat="44.4620265" lon="11.1552223"><ele>312.0</ele><time>2026-03-22T09:42:01.648Z</time></trkpt><trkpt lat="44.4619141" lon="11.1551789"><ele>313.0</ele><time>2026-03-22T09:42:03.648Z</time></trkpt><trkpt lat="44.4618158" lon="11.1551297"><ele>313.0</ele><time>2026-03-22T09:42:05.648Z</time></trkpt><trkpt lat="44.4617002" lon="11.1551241"><ele>313.0</ele><time>2026-03-22T09:42:07.648Z</time></trkpt><trkpt lat="44.4616364" lon="11.1550903"><ele>313.0</ele><time>2026-03-22T09:42:08.648Z</time></trkpt><trkpt lat="44.4615632" lon="11.1550571"><ele>313.0</ele><time>2026-03-22T09:42:09.648Z</time></trkpt><trkpt lat="44.4614923" lon="11.155038"><ele>313.0</ele><time>2026-03-22T09:42:10.648Z</time></trkpt><trkpt lat="44.4614191" lon="11.1550207"><ele>313.0</ele><time>2026-03-22T09:42:11.648Z</time></trkpt><trkpt lat="44.4612953" lon="11.1549896"><ele>311.66666666666663</ele><time>2026-03-22T09:42:13.648Z</time></trkpt><trkpt lat="44.4612163" lon="11.1549276"><ele>310.3333333333333</ele><time>2026-03-22T09:42:14.648Z</time></trkpt><trkpt lat="44.4610968" lon="11.154853"><ele>309.0</ele><time>2026-03-22T09:42:16.648Z</time></trkpt><trkpt lat="44.461012" lon="11.1547886"><ele>307.6666666666667</ele><time>2026-03-22T09:42:18.648Z</time></trkpt><trkpt lat="44.4609521" lon="11.1547557"><ele>306.33333333333337</ele><time>2026-03-22T09:42:19.648Z</time></trkpt><trkpt lat="44.4608936" lon="11.1547103"><ele>305.0</ele><time>2026-03-22T09:42:20.648Z</time></trkpt><trkpt lat="44.4608366" lon="11.1546642"><ele>308.6</ele><time>2026-03-22T09:42:21.648Z</time></trkpt><trkpt lat="44.4607381" lon="11.1545237"><ele>312.2</ele><time>2026-03-22T09:42:23.648Z</time></trkpt><trkpt lat="44.4607026" lon="11.1544291"><ele>315.79999999999995</ele><time>2026-03-22T09:42:24.648Z</time></trkpt><trkpt lat="44.4605893" lon="11.15436"><ele>319.4</ele><time>2026-03-22T09:42:26.648Z</time></trkpt><trkpt lat="44.4605207" lon="11.154357"><ele>323.0</ele><time>2026-03-22T09:42:27.648Z</time></trkpt><trkpt lat="44.4604401" lon="11.1543156"><ele>323.0</ele><time>2026-03-22T09:42:28.648Z</time></trkpt><trkpt lat="44.4603614" lon="11.1542826"><ele>323.0</ele><time>2026-03-22T09:42:29.648Z</time></trkpt><trkpt lat="44.4602203" lon="11.1542325"><ele>323.0</ele><time>2026-03-22T09:42:30.648Z</time></trkpt><trkpt lat="44.4601171" lon="11.154227"><ele>323.0</ele><time>2026-03-22T09:42:31.648Z</time></trkpt><trkpt lat="44.4599635" lon="11.154166"><ele>323.0</ele><time>2026-03-22T09:42:33.648Z</time></trkpt><trkpt lat="44.4598911" lon="11.1541359"><ele>323.0</ele><time>2026-03-22T09:42:34.648Z</time></trkpt><trkpt lat="44.4598088" lon="11.154067"><ele>323.0</ele><time>2026-03-22T09:42:35.648Z</time></trkpt><trkpt lat="44.4597151" lon="11.1540274"><ele>323.0</ele><time>2026-03-22T09:42:36.648Z</time></trkpt><trkpt lat="44.4596237" lon="11.1539732"><ele>323.0</ele><time>2026-03-22T09:42:37.648Z</time></trkpt><trkpt lat="44.4595498" lon="11.1539432"><ele>323.0</ele><time>2026-03-22T09:42:38.648Z</time></trkpt><trkpt lat="44.4594593" lon="11.1539169"><ele>323.0</ele><time>2026-03-22T09:42:40.648Z</time></trkpt><trkpt lat="44.4593945" lon="11.1539083"><ele>323.0</ele><time>2026-03-22T09:42:42.648Z</time></trkpt><trkpt lat="44.4593463" lon="11.1538346"><ele>323.0</ele><time>2026-03-22T09:42:44.648Z</time></trkpt><trkpt lat="44.4593002" lon="11.1537268"><ele>323.0</ele><time>2026-03-22T09:42:46.648Z</time></trkpt><trkpt lat="44.4592523" lon="11.1536074"><ele>323.0</ele><time>2026-03-22T09:42:48.648Z</time></trkpt><trkpt lat="44.4591858" lon="11.153511"><ele>323.0</ele><time>2026-03-22T09:42:50.648Z</time></trkpt><trkpt lat="44.4591215" lon="11.1534222"><ele>323.0</ele><time>2026-03-22T09:42:51.648Z</time></trkpt><trkpt lat="44.4590556" lon="11.1533341"><ele>323.0</ele><time>2026-03-22T09:42:52.648Z</time></trkpt><trkpt lat="44.4589753" lon="11.153252"><ele>323.0</ele><time>2026-03-22T09:42:53.648Z</time></trkpt><trkpt lat="44.4589052" lon="11.153174"><ele>323.0</ele><time>2026-03-22T09:42:54.648Z</time></trkpt><trkpt lat="44.4588425" lon="11.1531286"><ele>323.0</ele><time>2026-03-22T09:42:55.648Z</time></trkpt><trkpt lat="44.4587924" lon="11.1530528"><ele>323.0</ele><time>2026-03-22T09:42:56.648Z</time></trkpt><trkpt lat="44.4587193" lon="11.1530012"><ele>322.33333333333337</ele><time>2026-03-22T09:42:57.648Z</time></trkpt><trkpt lat="44.4586674" lon="11.1529265"><ele>321.6666666666667</ele><time>2026-03-22T09:42:58.648Z</time></trkpt><trkpt lat="44.4586024" lon="11.1528055"><ele>321.0</ele><time>2026-03-22T09:42:59.648Z</time></trkpt><trkpt lat="44.4585554" lon="11.1527264"><ele>320.3333333333333</ele><time>2026-03-22T09:43:00.648Z</time></trkpt><trkpt lat="44.4585171" lon="11.152627"><ele>319.66666666666663</ele><time>2026-03-22T09:43:02.648Z</time></trkpt><trkpt lat="44.4584729" lon="11.1524928"><ele>319.0</ele><time>2026-03-22T09:43:05.648Z</time></trkpt><trkpt lat="44.4584729" lon="11.1523845"><ele>319.0</ele><time>2026-03-22T09:43:07.648Z</time></trkpt><trkpt lat="44.4585594" lon="11.1523683"><ele>319.0</ele><time>2026-03-22T09:43:10.648Z</time></trkpt><trkpt lat="44.4586295" lon="11.1524042"><ele>319.0</ele><time>2026-03-22T09:43:12.648Z</time></trkpt><trkpt lat="44.4587488" lon="11.1524596"><ele>319.0</ele><time>2026-03-22T09:43:14.648Z</time></trkpt><trkpt lat="44.4588127" lon="11.1524807"><ele>319.0</ele><time>2026-03-22T09:43:15.648Z</time></trkpt><trkpt lat="44.4588812" lon="11.1524989"><ele>319.0</ele><time>2026-03-22T09:43:16.648Z</time></trkpt><trkpt lat="44.4589582" lon="11.1525362"><ele>321.5</ele><time>2026-03-22T09:43:17.648Z</time></trkpt><trkpt lat="44.4590432" lon="11.1525729"><ele>324.0</ele><time>2026-03-22T09:43:18.648Z</time></trkpt><trkpt lat="44.4591627" lon="11.152619"><ele>326.5</ele><time>2026-03-22T09:43:20.648Z</time></trkpt><trkpt lat="44.4592264" lon="11.1526639"><ele>329.0</ele><time>2026-03-22T09:43:22.648Z</time></trkpt><trkpt lat="44.4592941" lon="11.1526733"><ele>331.5</ele><time>2026-03-22T09:43:23.648Z</time></trkpt><trkpt lat="44.4593791" lon="11.1526879"><ele>334.0</ele><time>2026-03-22T09:43:25.648Z</time></trkpt><trkpt lat="44.4594447" lon="11.1526695"><ele>334.0</ele><time>2026-03-22T09:43:28.648Z</time></trkpt><trkpt lat="44.4595108" lon="11.1526628"><ele>334.0</ele><time>2026-03-22T09:43:30.648Z</time></trkpt><trkpt lat="44.4595822" lon="11.1526612"><ele>334.0</ele><time>2026-03-22T09:43:32.648Z</time></trkpt><trkpt lat="44.4596713" lon="11.1526488"><ele>334.0</ele><time>2026-03-22T09:43:35.648Z</time></trkpt><trkpt lat="44.4597603" lon="11.1526621"><ele>334.0</ele><time>2026-03-22T09:43:37.648Z</time></trkpt><trkpt lat="44.4598313" lon="11.1526585"><ele>334.0</ele><time>2026-03-22T09:43:39.648Z</time></trkpt><trkpt lat="44.4599372" lon="11.1527104"><ele>338.6</ele><time>2026-03-22T09:43:41.648Z</time></trkpt><trkpt lat="44.4600167" lon="11.1526878"><ele>343.2</ele><time>2026-03-22T09:43:43.648Z</time></trkpt><trkpt lat="44.4601091" lon="11.1526732"><ele>347.8</ele><time>2026-03-22T09:43:45.648Z</time></trkpt><trkpt lat="44.4601947" lon="11.1526465"><ele>352.40000000000003</ele><time>2026-03-22T09:43:47.648Z</time></trkpt><trkpt lat="44.4603152" lon="11.152644"><ele>357.0</ele><time>2026-03-22T09:43:49.648Z</time></trkpt><trkpt lat="44.460399" lon="11.1525737"><ele>363.5</ele><time>2026-03-22T09:43:52.648Z</time></trkpt><trkpt lat="44.4604817" lon="11.1525543"><ele>370.0</ele><time>2026-03-22T09:43:55.648Z</time></trkpt><trkpt lat="44.4605616" lon="11.1525592"><ele>376.5</ele><time>2026-03-22T09:43:58.648Z</time></trkpt><trkpt lat="44.4606467" lon="11.1525433"><ele>383.0</ele><time>2026-03-22T09:44:00.648Z</time></trkpt><trkpt lat="44.4607171" lon="11.1525339"><ele>389.5</ele><time>2026-03-22T09:44:02.648Z</time></trkpt><trkpt lat="44.4607805" lon="11.1524904"><ele>396.0</ele><time>2026-03-22T09:44:33.648Z</time></trkpt><trkpt lat="44.4607911" lon="11.1523735"><ele>396.3333333333333</ele><time>2026-03-22T09:44:37.648Z</time></trkpt><trkpt lat="44.4608019" lon="11.1522845"><ele>396.66666666666663</ele><time>2026-03-22T09:44:40.648Z</time></trkpt><trkpt lat="44.4608426" lon="11.152139"><ele>397.0</ele><time>2026-03-22T09:44:55.648Z</time></trkpt><trkpt lat="44.4609044" lon="11.1520639"><ele>397.3333333333333</ele><time>2026-03-22T09:48:16.648Z</time></trkpt><trkpt lat="44.4609654" lon="11.1520114"><ele>397.66666666666663</ele><time>2026-03-22T09:48:19.648Z</time></trkpt><trkpt lat="44.4610475" lon="11.1520278"><ele>398.0</ele><time>2026-03-22T09:48:22.648Z</time></trkpt><trkpt lat="44.461105" lon="11.1521123"><ele>397.99999999999994</ele><time>2026-03-22T09:48:42.648Z</time></trkpt><trkpt lat="44.4611671" lon="11.1522109"><ele>398.0</ele><time>2026-03-22T09:48:45.648Z</time></trkpt><trkpt lat="44.461262" lon="11.152197"><ele>398.0</ele><time>2026-03-22T09:48:48.648Z</time></trkpt><trkpt lat="44.4612907" lon="11.1520921"><ele>398.0</ele><time>2026-03-22T09:48:56.648Z</time></trkpt><trkpt lat="44.4613117" lon="11.1519541"><ele>397.99999999999994</ele><time>2026-03-22T09:48:59.648Z</time></trkpt><trkpt lat="44.4613452" lon="11.1518554"><ele>398.0</ele><time>2026-03-22T09:49:01.648Z</time></trkpt><trkpt lat="44.4614292" lon="11.151844"><ele>399.3333333333333</ele><time>2026-03-22T09:49:03.648Z</time></trkpt><trkpt lat="44.4615106" lon="11.1518915"><ele>400.66666666666663</ele><time>2026-03-22T09:49:06.648Z</time></trkpt><trkpt lat="44.461549" lon="11.1519768"><ele>402.0</ele><time>2026-03-22T09:49:13.636Z</time></trkpt><trkpt lat="44.4614836" lon="11.1519779"><ele>403.33333333333337</ele><time>2026-03-22T09:49:19.642Z</time></trkpt><trkpt lat="44.4614687" lon="11.1518914"><ele>404.6666666666667</ele><time>2026-03-22T09:49:35.688Z</time></trkpt><trkpt lat="44.4613831" lon="11.1518692"><ele>406.0</ele><time>2026-03-22T09:49:42.689Z</time></trkpt><trkpt lat="44.4613058" lon="11.1518293"><ele>404.6666666666667</ele><time>2026-03-22T09:49:44.685Z</time></trkpt><trkpt lat="44.4612381" lon="11.1518046"><ele>403.33333333333337</ele><time>2026-03-22T09:49:46.686Z</time></trkpt><trkpt lat="44.461183" lon="11.1517474"><ele>402.0</ele><time>2026-03-22T09:49:56.684Z</time></trkpt><trkpt lat="44.4611018" lon="11.1517246"><ele>400.66666666666663</ele><time>2026-03-22T09:50:00.685Z</time></trkpt><trkpt lat="44.4610311" lon="11.1516476"><ele>399.3333333333333</ele><time>2026-03-22T09:50:03.68Z</time></trkpt><trkpt lat="44.4610459" lon="11.1515263"><ele>398.0</ele><time>2026-03-22T09:50:24.684Z</time></trkpt><trkpt lat="44.4610316" lon="11.1513413"><ele>397.16666666666663</ele><time>2026-03-22T09:50:26.685Z</time></trkpt><trkpt lat="44.4610407" lon="11.151231"><ele>396.3333333333333</ele><time>2026-03-22T09:50:27.686Z</time></trkpt><trkpt lat="44.4610179" lon="11.1510897"><ele>395.5</ele><time>2026-03-22T09:50:28.701Z</time></trkpt><trkpt lat="44.4610035" lon="11.150987"><ele>394.66666666666663</ele><time>2026-03-22T09:50:29.69Z</time></trkpt><trkpt lat="44.4609874" lon="11.1508629"><ele>393.8333333333333</ele><time>2026-03-22T09:50:30.689Z</time></trkpt><trkpt lat="44.4609506" lon="11.1507373"><ele>393.0</ele><time>2026-03-22T09:50:31.684Z</time></trkpt><trkpt lat="44.4609189" lon="11.1506018"><ele>393.0</ele><time>2026-03-22T09:50:32.683Z</time></trkpt><trkpt lat="44.460877" lon="11.1504987"><ele>393.0</ele><time>2026-03-22T09:50:33.68Z</time></trkpt><trkpt lat="44.4608526" lon="11.1503771"><ele>393.0</ele><time>2026-03-22T09:50:34.683Z</time></trkpt><trkpt lat="44.4608322" lon="11.1502724"><ele>393.0</ele><time>2026-03-22T09:50:35.687Z</time></trkpt><trkpt lat="44.4607861" lon="11.1501692"><ele>393.0</ele><time>2026-03-22T09:50:36.696Z</time></trkpt><trkpt lat="44.4607582" lon="11.1500662"><ele>393.0</ele><time>2026-03-22T09:50:37.691Z</time></trkpt><trkpt lat="44.4607078" lon="11.1498833"><ele>393.0</ele><time>2026-03-22T09:50:38.69Z</time></trkpt><trkpt lat="44.4606748" lon="11.1497508"><ele>393.0</ele><time>2026-03-22T09:50:40.685Z</time></trkpt><trkpt lat="44.4607368" lon="11.14979"><ele>393.0</ele><time>2026-03-22T09:54:06.689Z</time></trkpt><trkpt lat="44.4607949" lon="11.1499115"><ele>393.0</ele><time>2026-03-22T09:54:08.69Z</time></trkpt><trkpt lat="44.4608304" lon="11.1499954"><ele>393.0</ele><time>2026-03-22T09:54:09.701Z</time></trkpt><trkpt lat="44.4608682" lon="11.1500833"><ele>393.0</ele><time>2026-03-22T09:54:10.701Z</time></trkpt><trkpt lat="44.460893" lon="11.1502048"><ele>393.0</ele><time>2026-03-22T09:54:11.697Z</time></trkpt><trkpt lat="44.4609341" lon="11.1503186"><ele>393.0</ele><time>2026-03-22T09:54:12.694Z</time></trkpt><trkpt lat="44.4609869" lon="11.1504784"><ele>393.0</ele><time>2026-03-22T09:54:13.693Z</time></trkpt><trkpt lat="44.4610231" lon="11.150617"><ele>393.0</ele><time>2026-03-22T09:54:14.687Z</time></trkpt><trkpt lat="44.4610789" lon="11.1507791"><ele>392.79999999999995</ele><time>2026-03-22T09:54:15.683Z</time></trkpt><trkpt lat="44.4611139" lon="11.1509064"><ele>392.6</ele><time>2026-03-22T09:54:16.686Z</time></trkpt><trkpt lat="44.4611569" lon="11.1510109"><ele>392.4</ele><time>2026-03-22T09:54:17.684Z</time></trkpt><trkpt lat="44.4611582" lon="11.1511825"><ele>392.20000000000005</ele><time>2026-03-22T09:54:18.701Z</time></trkpt><trkpt lat="44.4611629" lon="11.151339"><ele>392.0</ele><time>2026-03-22T09:54:19.681Z</time></trkpt><trkpt lat="44.4612403" lon="11.1513257"><ele>390.20000000000005</ele><time>2026-03-22T09:54:20.679Z</time></trkpt><trkpt lat="44.4613143" lon="11.1512924"><ele>388.4</ele><time>2026-03-22T09:54:21.679Z</time></trkpt><trkpt lat="44.4613827" lon="11.1512672"><ele>386.6</ele><time>2026-03-22T09:54:22.701Z</time></trkpt><trkpt lat="44.461472" lon="11.1511857"><ele>384.79999999999995</ele><time>2026-03-22T09:54:23.685Z</time></trkpt><trkpt lat="44.461568" lon="11.1511242"><ele>383.0</ele><time>2026-03-22T09:54:24.688Z</time></trkpt><trkpt lat="44.4616567" lon="11.1510842"><ele>383.0</ele><time>2026-03-22T09:54:25.68Z</time></trkpt><trkpt lat="44.4617637" lon="11.1510368"><ele>383.0</ele><time>2026-03-22T09:54:26.686Z</time></trkpt><trkpt lat="44.4618568" lon="11.1509772"><ele>383.0</ele><time>2026-03-22T09:54:27.682Z</time></trkpt><trkpt lat="44.4619489" lon="11.1509256"><ele>383.0</ele><time>2026-03-22T09:54:28.688Z</time></trkpt><trkpt lat="44.462024" lon="11.1508703"><ele>383.0</ele><time>2026-03-22T09:54:29.685Z</time></trkpt><trkpt lat="44.4620901" lon="11.1508189"><ele>380.5</ele><time>2026-03-22T09:54:30.684Z</time></trkpt><trkpt lat="44.4621642" lon="11.1508224"><ele>378.0</ele><time>2026-03-22T09:54:32.685Z</time></trkpt><trkpt lat="44.4622223" lon="11.1508872"><ele>375.5</ele><time>2026-03-22T09:54:34.701Z</time></trkpt><trkpt lat="44.4622723" lon="11.1509736"><ele>373.0</ele><time>2026-03-22T09:54:36.685Z</time></trkpt><trkpt lat="44.4623428" lon="11.1510421"><ele>370.5</ele><time>2026-03-22T09:54:39.682Z</time></trkpt><trkpt lat="44.4623868" lon="11.1511297"><ele>368.0</ele><time>2026-03-22T09:54:40.683Z</time></trkpt><trkpt lat="44.4624411" lon="11.1512378"><ele>368.0</ele><time>2026-03-22T09:54:41.685Z</time></trkpt><trkpt lat="44.4624921" lon="11.1513112"><ele>368.0</ele><time>2026-03-22T09:54:42.692Z</time></trkpt><trkpt lat="44.462538" lon="11.1514115"><ele>368.0</ele><time>2026-03-22T09:54:43.701Z</time></trkpt><trkpt lat="44.4625431" lon="11.1515306"><ele>368.0</ele><time>2026-03-22T09:54:44.682Z</time></trkpt><trkpt lat="44.4625792" lon="11.1516156"><ele>368.0</ele><time>2026-03-22T09:54:45.686Z</time></trkpt><trkpt lat="44.4625925" lon="11.1517082"><ele>368.0</ele><time>2026-03-22T09:54:46.684Z</time></trkpt><trkpt lat="44.462597" lon="11.1518018"><ele>368.0</ele><time>2026-03-22T09:54:47.683Z</time></trkpt><trkpt lat="44.4626077" lon="11.1518914"><ele>369.79999999999995</ele><time>2026-03-22T09:54:48.68Z</time></trkpt><trkpt lat="44.4625884" lon="11.152046"><ele>371.6</ele><time>2026-03-22T09:54:50.686Z</time></trkpt><trkpt lat="44.462629" lon="11.1521771"><ele>373.4</ele><time>2026-03-22T09:54:52.686Z</time></trkpt><trkpt lat="44.4626255" lon="11.1523148"><ele>375.20000000000005</ele><time>2026-03-22T09:54:54.676Z</time></trkpt><trkpt lat="44.4626324" lon="11.1524317"><ele>377.0</ele><time>2026-03-22T09:54:58.687Z</time></trkpt><trkpt lat="44.4626488" lon="11.1525431"><ele>376.99999999999994</ele><time>2026-03-22T09:55:00.678Z</time></trkpt><trkpt lat="44.4626403" lon="11.1526673"><ele>377.0</ele><time>2026-03-22T09:55:04.685Z</time></trkpt><trkpt lat="44.4626759" lon="11.1527671"><ele>377.0</ele><time>2026-03-22T09:55:07.688Z</time></trkpt><trkpt lat="44.4627337" lon="11.1528115"><ele>377.0</ele><time>2026-03-22T09:55:09.684Z</time></trkpt><trkpt lat="44.4627947" lon="11.1528423"><ele>377.0</ele><time>2026-03-22T09:55:13.689Z</time></trkpt><trkpt lat="44.462865" lon="11.1528842"><ele>376.99999999999994</ele><time>2026-03-22T09:55:18.701Z</time></trkpt><trkpt lat="44.4629217" lon="11.1529373"><ele>377.0</ele><time>2026-03-22T09:55:20.686Z</time></trkpt><trkpt lat="44.4629795" lon="11.1530188"><ele>372.6666666666667</ele><time>2026-03-22T09:55:21.684Z</time></trkpt><trkpt lat="44.4630185" lon="11.1530886"><ele>368.33333333333337</ele><time>2026-03-22T09:55:22.692Z</time></trkpt><trkpt lat="44.4630866" lon="11.1532128"><ele>364.0</ele><time>2026-03-22T09:55:24.681Z</time></trkpt><trkpt lat="44.46315" lon="11.1532871"><ele>359.6666666666667</ele><time>2026-03-22T09:55:25.701Z</time></trkpt><trkpt lat="44.4631952" lon="11.1533691"><ele>355.3333333333333</ele><time>2026-03-22T09:55:26.689Z</time></trkpt><trkpt lat="44.4632466" lon="11.1534261"><ele>351.0</ele><time>2026-03-22T09:55:27.687Z</time></trkpt><trkpt lat="44.4633073" lon="11.1535195"><ele>351.0</ele><time>2026-03-22T09:55:29.68Z</time></trkpt><trkpt lat="44.4633654" lon="11.1535693"><ele>351.0</ele><time>2026-03-22T09:55:35.679Z</time></trkpt><trkpt lat="44.4634551" lon="11.1536258"><ele>351.0</ele><time>2026-03-22T09:55:37.701Z</time></trkpt><trkpt lat="44.463531" lon="11.1537318"><ele>351.0</ele><time>2026-03-22T09:55:39.701Z</time></trkpt><trkpt lat="44.4635684" lon="11.1538067"><ele>351.0</ele><time>2026-03-22T09:55:40.682Z</time></trkpt><trkpt lat="44.4636341" lon="11.1539699"><ele>351.5</ele><time>2026-03-22T09:55:42.681Z</time></trkpt><trkpt lat="44.4636676" lon="11.1540528"><ele>352.0</ele><time>2026-03-22T09:55:43.681Z</time></trkpt><trkpt lat="44.4637092" lon="11.1541583"><ele>352.5</ele><time>2026-03-22T09:55:44.683Z</time></trkpt><trkpt lat="44.4637491" lon="11.1542709"><ele>353.0</ele><time>2026-03-22T09:55:45.701Z</time></trkpt><trkpt lat="44.4637734" lon="11.1543592"><ele>353.5</ele><time>2026-03-22T09:55:46.689Z</time></trkpt><trkpt lat="44.4638332" lon="11.1545226"><ele>354.0</ele><time>2026-03-22T09:55:49.684Z</time></trkpt><trkpt lat="44.4638687" lon="11.1546096"><ele>354.8333333333333</ele><time>2026-03-22T09:55:51.684Z</time></trkpt><trkpt lat="44.4639027" lon="11.1547078"><ele>355.6666666666667</ele><time>2026-03-22T09:55:53.684Z</time></trkpt><trkpt lat="44.4639342" lon="11.1547842"><ele>356.5</ele><time>2026-03-22T09:56:16.684Z</time></trkpt><trkpt lat="44.4638958" lon="11.1547091"><ele>357.33333333333337</ele><time>2026-03-22T09:56:19.686Z</time></trkpt><trkpt lat="44.4638576" lon="11.1546371"><ele>358.1666666666667</ele><time>2026-03-22T09:56:22.686Z</time></trkpt><trkpt lat="44.463828" lon="11.1545517"><ele>359.0</ele><time>2026-03-22T09:56:24.682Z</time></trkpt><trkpt lat="44.4637912" lon="11.1544025"><ele>358.1666666666667</ele><time>2026-03-22T09:56:26.701Z</time></trkpt><trkpt lat="44.4637604" lon="11.1543214"><ele>357.33333333333337</ele><time>2026-03-22T09:56:27.686Z</time></trkpt><trkpt lat="44.4637265" lon="11.1542346"><ele>356.5</ele><time>2026-03-22T09:56:28.684Z</time></trkpt><trkpt lat="44.4636965" lon="11.1541543"><ele>355.6666666666667</ele><time>2026-03-22T09:56:29.701Z</time></trkpt><trkpt lat="44.4636374" lon="11.1540063"><ele>354.8333333333333</ele><time>2026-03-22T09:56:31.69Z</time></trkpt><trkpt lat="44.4635691" lon="11.153866"><ele>354.0</ele><time>2026-03-22T09:56:33.701Z</time></trkpt><trkpt lat="44.4635147" lon="11.1537813"><ele>353.5</ele><time>2026-03-22T09:56:35.701Z</time></trkpt><trkpt lat="44.4634387" lon="11.1536737"><ele>353.0</ele><time>2026-03-22T09:56:37.701Z</time></trkpt><trkpt lat="44.4633743" lon="11.1536632"><ele>352.5</ele><time>2026-03-22T09:56:39.693Z</time></trkpt><trkpt lat="44.4633757" lon="11.1535253"><ele>352.0</ele><time>2026-03-22T09:56:59.701Z</time></trkpt><trkpt lat="44.4634088" lon="11.1534136"><ele>351.5</ele><time>2026-03-22T09:57:02.701Z</time></trkpt><trkpt lat="44.4633541" lon="11.1533255"><ele>351.0</ele><time>2026-03-22T09:57:05.701Z</time></trkpt><trkpt lat="44.4633045" lon="11.1532645"><ele>348.4</ele><time>2026-03-22T09:57:07.686Z</time></trkpt><trkpt lat="44.4632498" lon="11.1531715"><ele>345.8</ele><time>2026-03-22T09:57:11.687Z</time></trkpt><trkpt lat="44.4633325" lon="11.1531057"><ele>343.2</ele><time>2026-03-22T09:57:13.682Z</time></trkpt><trkpt lat="44.463422" lon="11.1531082"><ele>340.59999999999997</ele><time>2026-03-22T09:57:14.687Z</time></trkpt><trkpt lat="44.4635572" lon="11.1531254"><ele>338.0</ele><time>2026-03-22T09:57:16.681Z</time></trkpt><trkpt lat="44.4636572" lon="11.1531462"><ele>338.0</ele><time>2026-03-22T09:57:18.686Z</time></trkpt><trkpt lat="44.4637433" lon="11.1531512"><ele>338.0</ele><time>2026-03-22T09:57:19.685Z</time></trkpt><trkpt lat="44.4638783" lon="11.1531699"><ele>338.0</ele><time>2026-03-22T09:57:21.686Z</time></trkpt><trkpt lat="44.4639384" lon="11.1531369"><ele>338.0</ele><time>2026-03-22T09:57:22.684Z</time></trkpt><trkpt lat="44.4640397" lon="11.1531385"><ele>338.0</ele><time>2026-03-22T09:57:24.689Z</time></trkpt><trkpt lat="44.4641" lon="11.1531801"><ele>338.14285714285717</ele><time>2026-03-22T09:57:26.685Z</time></trkpt><trkpt lat="44.4641646" lon="11.1531589"><ele>338.2857142857143</ele><time>2026-03-22T09:57:30.684Z</time></trkpt><trkpt lat="44.4642527" lon="11.1531233"><ele>338.42857142857144</ele><time>2026-03-22T09:57:31.691Z</time></trkpt><trkpt lat="44.4643305" lon="11.1531585"><ele>338.57142857142856</ele><time>2026-03-22T09:57:32.687Z</time></trkpt><trkpt lat="44.4643989" lon="11.1531614"><ele>338.7142857142857</ele><time>2026-03-22T09:57:33.685Z</time></trkpt><trkpt lat="44.4644514" lon="11.1532243"><ele>338.85714285714283</ele><time>2026-03-22T09:57:34.692Z</time></trkpt><trkpt lat="44.4645151" lon="11.1532241"><ele>339.0</ele><time>2026-03-22T09:57:35.695Z</time></trkpt><trkpt lat="44.464579" lon="11.1532465"><ele>337.2</ele><time>2026-03-22T09:57:36.677Z</time></trkpt><trkpt lat="44.4646975" lon="11.1532786"><ele>335.4</ele><time>2026-03-22T09:57:38.684Z</time></trkpt><trkpt lat="44.4647692" lon="11.153282"><ele>333.6</ele><time>2026-03-22T09:57:39.701Z</time></trkpt><trkpt lat="44.4648842" lon="11.1533448"><ele>331.8</ele><time>2026-03-22T09:57:41.701Z</time></trkpt><trkpt lat="44.464995" lon="11.1533794"><ele>330.0</ele><time>2026-03-22T09:57:43.693Z</time></trkpt><trkpt lat="44.4650664" lon="11.1534121"><ele>330.0</ele><time>2026-03-22T09:57:45.688Z</time></trkpt><trkpt lat="44.4651392" lon="11.1534491"><ele>330.0</ele><time>2026-03-22T09:57:48.69Z</time></trkpt><trkpt lat="44.465201" lon="11.1534991"><ele>330.0</ele><time>2026-03-22T09:58:02.687Z</time></trkpt><trkpt lat="44.4651658" lon="11.1533989"><ele>330.0</ele><time>2026-03-22T09:58:11.681Z</time></trkpt><trkpt lat="44.4651041" lon="11.1533422"><ele>330.0</ele><time>2026-03-22T09:58:13.679Z</time></trkpt><trkpt lat="44.4650419" lon="11.153276"><ele>330.0</ele><time>2026-03-22T09:58:15.687Z</time></trkpt><trkpt lat="44.4649477" lon="11.1531983"><ele>328.1666666666667</ele><time>2026-03-22T09:58:17.697Z</time></trkpt><trkpt lat="44.4648943" lon="11.1531508"><ele>326.3333333333333</ele><time>2026-03-22T09:58:18.685Z</time></trkpt><trkpt lat="44.4648363" lon="11.1530978"><ele>324.5</ele><time>2026-03-22T09:58:19.676Z</time></trkpt><trkpt lat="44.4647778" lon="11.1530378"><ele>322.66666666666663</ele><time>2026-03-22T09:58:20.68Z</time></trkpt><trkpt lat="44.464714" lon="11.1529727"><ele>320.8333333333333</ele><time>2026-03-22T09:58:21.682Z</time></trkpt><trkpt lat="44.4646401" lon="11.1529108"><ele>319.0</ele><time>2026-03-22T09:58:22.685Z</time></trkpt><trkpt lat="44.464533" lon="11.1528031"><ele>319.0</ele><time>2026-03-22T09:58:23.684Z</time></trkpt><trkpt lat="44.4644321" lon="11.1527135"><ele>319.0</ele><time>2026-03-22T09:58:24.683Z</time></trkpt><trkpt lat="44.4643327" lon="11.1526203"><ele>319.0</ele><time>2026-03-22T09:58:25.686Z</time></trkpt><trkpt lat="44.464239" lon="11.1525257"><ele>319.0</ele><time>2026-03-22T09:58:26.677Z</time></trkpt><trkpt lat="44.4641487" lon="11.1524316"><ele>316.5</ele><time>2026-03-22T09:58:27.683Z</time></trkpt><trkpt lat="44.4640618" lon="11.152339"><ele>314.0</ele><time>2026-03-22T09:58:28.68Z</time></trkpt><trkpt lat="44.46398" lon="11.1522377"><ele>311.5</ele><time>2026-03-22T09:58:29.687Z</time></trkpt><trkpt lat="44.4638979" lon="11.1521214"><ele>309.0</ele><time>2026-03-22T09:58:30.688Z</time></trkpt><trkpt lat="44.4638109" lon="11.1519702"><ele>315.0</ele><time>2026-03-22T09:58:31.701Z</time></trkpt><trkpt lat="44.4637375" lon="11.1518238"><ele>321.0</ele><time>2026-03-22T09:58:32.689Z</time></trkpt><trkpt lat="44.4636652" lon="11.1516628"><ele>327.0</ele><time>2026-03-22T09:58:33.685Z</time></trkpt><trkpt lat="44.4635419" lon="11.1513435"><ele>327.0</ele><time>2026-03-22T09:58:35.682Z</time></trkpt><trkpt lat="44.4634729" lon="11.1511688"><ele>327.0</ele><time>2026-03-22T09:58:36.683Z</time></trkpt><trkpt lat="44.4633936" lon="11.1510052"><ele>327.0</ele><time>2026-03-22T09:58:37.684Z</time></trkpt><trkpt lat="44.4632951" lon="11.1508704"><ele>327.0</ele><time>2026-03-22T09:58:38.682Z</time></trkpt><trkpt lat="44.4631852" lon="11.1507615"><ele>327.75</ele><time>2026-03-22T09:58:39.679Z</time></trkpt><trkpt lat="44.4630929" lon="11.1506567"><ele>328.5</ele><time>2026-03-22T09:58:40.679Z</time></trkpt><trkpt lat="44.4630132" lon="11.150532"><ele>329.25</ele><time>2026-03-22T09:58:41.681Z</time></trkpt><trkpt lat="44.4629567" lon="11.1504077"><ele>330.0</ele><time>2026-03-22T09:58:42.679Z</time></trkpt><trkpt lat="44.4629064" lon="11.1502464"><ele>335.5</ele><time>2026-03-22T09:58:43.695Z</time></trkpt><trkpt lat="44.4628642" lon="11.1500446"><ele>341.0</ele><time>2026-03-22T09:58:44.686Z</time></trkpt><trkpt lat="44.4628736" lon="11.1498754"><ele>346.5</ele><time>2026-03-22T09:58:45.684Z</time></trkpt><trkpt lat="44.4628762" lon="11.1496703"><ele>352.0</ele><time>2026-03-22T09:58:46.685Z</time></trkpt><trkpt lat="44.4628877" lon="11.1494795"><ele>352.0</ele><time>2026-03-22T09:58:47.679Z</time></trkpt><trkpt lat="44.4628972" lon="11.1492904"><ele>352.0</ele><time>2026-03-22T09:58:48.688Z</time></trkpt><trkpt lat="44.4628956" lon="11.1491115"><ele>352.0</ele><time>2026-03-22T09:58:49.684Z</time></trkpt><trkpt lat="44.4629002" lon="11.1489221"><ele>352.0</ele><time>2026-03-22T09:58:50.681Z</time></trkpt><trkpt lat="44.4628972" lon="11.1487248"><ele>350.25</ele><time>2026-03-22T09:58:51.69Z</time></trkpt><trkpt lat="44.4629007" lon="11.1485373"><ele>348.5</ele><time>2026-03-22T09:58:52.68Z</time></trkpt><trkpt lat="44.4629394" lon="11.1483692"><ele>346.75</ele><time>2026-03-22T09:58:53.681Z</time></trkpt><trkpt lat="44.4629914" lon="11.1482003"><ele>345.0</ele><time>2026-03-22T09:58:54.681Z</time></trkpt><trkpt lat="44.4630773" lon="11.1480426"><ele>349.5</ele><time>2026-03-22T09:58:55.681Z</time></trkpt><trkpt lat="44.4631722" lon="11.1479123"><ele>354.0</ele><time>2026-03-22T09:58:56.685Z</time></trkpt><trkpt lat="44.4632688" lon="11.1477592"><ele>358.5</ele><time>2026-03-22T09:58:57.683Z</time></trkpt><trkpt lat="44.463358" lon="11.147608"><ele>363.0</ele><time>2026-03-22T09:58:58.677Z</time></trkpt><trkpt lat="44.4634465" lon="11.1474611"><ele>362.4</ele><time>2026-03-22T09:58:59.701Z</time></trkpt><trkpt lat="44.4635175" lon="11.1473338"><ele>361.79999999999995</ele><time>2026-03-22T09:59:00.687Z</time></trkpt><trkpt lat="44.4635792" lon="11.1472035"><ele>361.2</ele><time>2026-03-22T09:59:01.682Z</time></trkpt><trkpt lat="44.4636395" lon="11.1470838"><ele>360.6</ele><time>2026-03-22T09:59:02.683Z</time></trkpt><trkpt lat="44.4637135" lon="11.1469671"><ele>360.0</ele><time>2026-03-22T09:59:03.681Z</time></trkpt><trkpt lat="44.4637905" lon="11.1468603"><ele>360.0</ele><time>2026-03-22T09:59:04.685Z</time></trkpt><trkpt lat="44.4638716" lon="11.1467517"><ele>360.0</ele><time>2026-03-22T09:59:05.683Z</time></trkpt><trkpt lat="44.4639671" lon="11.1466866"><ele>360.0</ele><time>2026-03-22T09:59:06.68Z</time></trkpt><trkpt lat="44.4640625" lon="11.1466131"><ele>360.0</ele><time>2026-03-22T09:59:07.687Z</time></trkpt><trkpt lat="44.464153" lon="11.1465612"><ele>360.0</ele><time>2026-03-22T09:59:08.681Z</time></trkpt><trkpt lat="44.4642309" lon="11.1464893"><ele>359.0</ele><time>2026-03-22T09:59:09.68Z</time></trkpt><trkpt lat="44.4643316" lon="11.1464056"><ele>358.0</ele><time>2026-03-22T09:59:10.681Z</time></trkpt><trkpt lat="44.4644034" lon="11.1463311"><ele>357.0</ele><time>2026-03-22T09:59:11.687Z</time></trkpt><trkpt lat="44.4644856" lon="11.1462673"><ele>356.0</ele><time>2026-03-22T09:59:12.698Z</time></trkpt><trkpt lat="44.4645755" lon="11.1461841"><ele>355.0</ele><time>2026-03-22T09:59:13.685Z</time></trkpt><trkpt lat="44.4646281" lon="11.1460666"><ele>355.0</ele><time>2026-03-22T09:59:14.687Z</time></trkpt><trkpt lat="44.4646733" lon="11.1459116"><ele>355.0</ele><time>2026-03-22T09:59:15.682Z</time></trkpt><trkpt lat="44.464708" lon="11.1457397"><ele>355.0</ele><time>2026-03-22T09:59:16.682Z</time></trkpt><trkpt lat="44.4647166" lon="11.1455797"><ele>355.0</ele><time>2026-03-22T09:59:17.683Z</time></trkpt><trkpt lat="44.4647038" lon="11.1454"><ele>355.25</ele><time>2026-03-22T09:59:18.682Z</time></trkpt><trkpt lat="44.4646902" lon="11.1452056"><ele>355.5</ele><time>2026-03-22T09:59:19.687Z</time></trkpt><trkpt lat="44.4646813" lon="11.1450219"><ele>355.75</ele><time>2026-03-22T09:59:20.682Z</time></trkpt><trkpt lat="44.464671" lon="11.1448616"><ele>356.0</ele><time>2026-03-22T09:59:21.686Z</time></trkpt><trkpt lat="44.4646839" lon="11.1446719"><ele>354.6</ele><time>2026-03-22T09:59:22.686Z</time></trkpt><trkpt lat="44.4646836" lon="11.1445313"><ele>353.20000000000005</ele><time>2026-03-22T09:59:23.683Z</time></trkpt><trkpt lat="44.4646455" lon="11.1444104"><ele>351.79999999999995</ele><time>2026-03-22T09:59:24.68Z</time></trkpt><trkpt lat="44.4646228" lon="11.1442487"><ele>350.4</ele><time>2026-03-22T09:59:25.682Z</time></trkpt><trkpt lat="44.4645804" lon="11.1441297"><ele>349.0</ele><time>2026-03-22T09:59:26.682Z</time></trkpt><trkpt lat="44.4645295" lon="11.1440652"><ele>349.5</ele><time>2026-03-22T09:59:27.679Z</time></trkpt><trkpt lat="44.4644851" lon="11.1439809"><ele>350.0</ele><time>2026-03-22T09:59:28.701Z</time></trkpt><trkpt lat="44.4645023" lon="11.1438214"><ele>350.5</ele><time>2026-03-22T09:59:30.701Z</time></trkpt><trkpt lat="44.4645061" lon="11.1437241"><ele>351.0</ele><time>2026-03-22T09:59:31.684Z</time></trkpt><trkpt lat="44.464511" lon="11.1436297"><ele>351.5</ele><time>2026-03-22T09:59:32.682Z</time></trkpt><trkpt lat="44.4644944" lon="11.1435143"><ele>352.0</ele><time>2026-03-22T09:59:33.68Z</time></trkpt><trkpt lat="44.4644858" lon="11.1434105"><ele>352.0</ele><time>2026-03-22T09:59:34.688Z</time></trkpt><trkpt lat="44.4644675" lon="11.1433098"><ele>352.0</ele><time>2026-03-22T09:59:35.683Z</time></trkpt><trkpt lat="44.4644447" lon="11.1431374"><ele>352.0</ele><time>2026-03-22T09:59:37.691Z</time></trkpt><trkpt lat="44.4644261" lon="11.1430492"><ele>352.0</ele><time>2026-03-22T09:59:38.685Z</time></trkpt><trkpt lat="44.4643837" lon="11.142896"><ele>352.0</ele><time>2026-03-22T09:59:40.7Z</time></trkpt><trkpt lat="44.4643355" lon="11.1427182"><ele>352.0</ele><time>2026-03-22T09:59:42.685Z</time></trkpt><trkpt lat="44.4643124" lon="11.1426269"><ele>352.0</ele><time>2026-03-22T09:59:43.679Z</time></trkpt><trkpt lat="44.4642937" lon="11.1425423"><ele>352.0</ele><time>2026-03-22T09:59:44.677Z</time></trkpt><trkpt lat="44.4642516" lon="11.1423867"><ele>352.0</ele><time>2026-03-22T09:59:46.687Z</time></trkpt><trkpt lat="44.4642306" lon="11.1423028"><ele>352.0</ele><time>2026-03-22T09:59:47.684Z</time></trkpt><trkpt lat="44.4641875" lon="11.1421564"><ele>352.0</ele><time>2026-03-22T09:59:49.68Z</time></trkpt><trkpt lat="44.464161" lon="11.1420688"><ele>348.75</ele><time>2026-03-22T09:59:50.684Z</time></trkpt><trkpt lat="44.4641068" lon="11.1419089"><ele>345.5</ele><time>2026-03-22T09:59:52.682Z</time></trkpt><trkpt lat="44.4640435" lon="11.1417952"><ele>342.25</ele><time>2026-03-22T09:59:54.686Z</time></trkpt><trkpt lat="44.4639591" lon="11.1416692"><ele>339.0</ele><time>2026-03-22T09:59:56.686Z</time></trkpt><trkpt lat="44.4638716" lon="11.1415541"><ele>337.1666666666667</ele><time>2026-03-22T09:59:58.701Z</time></trkpt><trkpt lat="44.463817" lon="11.1414699"><ele>335.3333333333333</ele><time>2026-03-22T09:59:59.675Z</time></trkpt><trkpt lat="44.4637739" lon="11.1413655"><ele>333.5</ele><time>2026-03-22T10:00:00.673Z</time></trkpt><trkpt lat="44.4637458" lon="11.1412694"><ele>331.66666666666663</ele><time>2026-03-22T10:00:01.679Z</time></trkpt><trkpt lat="44.4637303" lon="11.1411664"><ele>329.8333333333333</ele><time>2026-03-22T10:00:02.675Z</time></trkpt><trkpt lat="44.4637695" lon="11.1410917"><ele>328.0</ele><time>2026-03-22T10:00:03.701Z</time></trkpt><trkpt lat="44.4638022" lon="11.1409425"><ele>328.0</ele><time>2026-03-22T10:00:05.701Z</time></trkpt><trkpt lat="44.4638367" lon="11.140866"><ele>328.0</ele><time>2026-03-22T10:00:06.674Z</time></trkpt><trkpt lat="44.4639203" lon="11.1407455"><ele>328.0</ele><time>2026-03-22T10:00:08.682Z</time></trkpt><trkpt lat="44.4640153" lon="11.1406357"><ele>328.0</ele><time>2026-03-22T10:00:10.676Z</time></trkpt><trkpt lat="44.4641059" lon="11.1405358"><ele>328.0</ele><time>2026-03-22T10:00:12.684Z</time></trkpt><trkpt lat="44.4641762" lon="11.1405178"><ele>325.3333333333333</ele><time>2026-03-22T10:00:13.682Z</time></trkpt><trkpt lat="44.4642846" lon="11.140469"><ele>322.66666666666663</ele><time>2026-03-22T10:00:15.683Z</time></trkpt><trkpt lat="44.464351" lon="11.1404261"><ele>320.0</ele><time>2026-03-22T10:00:16.687Z</time></trkpt><trkpt lat="44.4643304" lon="11.1403299"><ele>317.3333333333333</ele><time>2026-03-22T10:00:19.681Z</time></trkpt><trkpt lat="44.4642557" lon="11.1403588"><ele>314.6666666666667</ele><time>2026-03-22T10:00:28.676Z</time></trkpt><trkpt lat="44.4641643" lon="11.1404275"><ele>312.0</ele><time>2026-03-22T10:00:30.685Z</time></trkpt><trkpt lat="44.4641028" lon="11.1404619"><ele>312.0</ele><time>2026-03-22T10:00:31.679Z</time></trkpt><trkpt lat="44.4640238" lon="11.1404612"><ele>312.0</ele><time>2026-03-22T10:00:32.688Z</time></trkpt><trkpt lat="44.4639607" lon="11.1404877"><ele>312.0</ele><time>2026-03-22T10:00:33.679Z</time></trkpt><trkpt lat="44.4638966" lon="11.1405069"><ele>312.0</ele><time>2026-03-22T10:00:34.682Z</time></trkpt><trkpt lat="44.4638179" lon="11.1405415"><ele>312.0</ele><time>2026-03-22T10:00:35.685Z</time></trkpt><trkpt lat="44.4637413" lon="11.1405875"><ele>312.0</ele><time>2026-03-22T10:00:36.678Z</time></trkpt><trkpt lat="44.463664" lon="11.1406352"><ele>311.8</ele><time>2026-03-22T10:00:37.683Z</time></trkpt><trkpt lat="44.4635903" lon="11.1406892"><ele>311.6</ele><time>2026-03-22T10:00:38.678Z</time></trkpt><trkpt lat="44.4635007" lon="11.1407477"><ele>311.40000000000003</ele><time>2026-03-22T10:00:39.684Z</time></trkpt><trkpt lat="44.4634533" lon="11.1408235"><ele>311.2</ele><time>2026-03-22T10:00:40.682Z</time></trkpt><trkpt lat="44.4633585" lon="11.1409238"><ele>311.0</ele><time>2026-03-22T10:00:42.682Z</time></trkpt><trkpt lat="44.4632755" lon="11.1408579"><ele>311.0</ele><time>2026-03-22T10:00:44.68Z</time></trkpt><trkpt lat="44.4631958" lon="11.1407655"><ele>311.0</ele><time>2026-03-22T10:00:46.679Z</time></trkpt><trkpt lat="44.4631005" lon="11.1407333"><ele>311.0</ele><time>2026-03-22T10:00:48.701Z</time></trkpt><trkpt lat="44.462999" lon="11.1407602"><ele>311.0</ele><time>2026-03-22T10:00:50.687Z</time></trkpt><trkpt lat="44.4629035" lon="11.1407798"><ele>311.0</ele><time>2026-03-22T10:00:52.678Z</time></trkpt><trkpt lat="44.4628412" lon="11.1407965"><ele>307.2857142857143</ele><time>2026-03-22T10:00:58.689Z</time></trkpt><trkpt lat="44.4627655" lon="11.1408035"><ele>303.5714285714286</ele><time>2026-03-22T10:01:09.685Z</time></trkpt><trkpt lat="44.4626931" lon="11.1407914"><ele>299.8571428571429</ele><time>2026-03-22T10:01:11.693Z</time></trkpt><trkpt lat="44.4626294" lon="11.1407918"><ele>296.1428571428571</ele><time>2026-03-22T10:01:13.675Z</time></trkpt><trkpt lat="44.4625648" lon="11.1407817"><ele>292.42857142857144</ele><time>2026-03-22T10:01:22.682Z</time></trkpt><trkpt lat="44.4624998" lon="11.1407392"><ele>288.7142857142857</ele><time>2026-03-22T10:01:25.687Z</time></trkpt><trkpt lat="44.4624304" lon="11.1406554"><ele>285.0</ele><time>2026-03-22T10:01:28.685Z</time></trkpt><trkpt lat="44.4623554" lon="11.1405832"><ele>283.5</ele><time>2026-03-22T10:01:31.701Z</time></trkpt><trkpt lat="44.4622949" lon="11.140541"><ele>282.0</ele><time>2026-03-22T10:01:33.688Z</time></trkpt><trkpt lat="44.4622029" lon="11.1405088"><ele>280.5</ele><time>2026-03-22T10:01:35.687Z</time></trkpt><trkpt lat="44.4621382" lon="11.1404861"><ele>279.0</ele><time>2026-03-22T10:01:36.681Z</time></trkpt><trkpt lat="44.4620364" lon="11.1404415"><ele>277.5</ele><time>2026-03-22T10:01:38.685Z</time></trkpt><trkpt lat="44.4619752" lon="11.1403945"><ele>276.0</ele><time>2026-03-22T10:01:40.686Z</time></trkpt><trkpt lat="44.4619269" lon="11.1403246"><ele>276.0</ele><time>2026-03-22T10:01:44.682Z</time></trkpt><trkpt lat="44.4618857" lon="11.1402379"><ele>276.0</ele><time>2026-03-22T10:01:48.683Z</time></trkpt><trkpt lat="44.4619116" lon="11.1400695"><ele>276.0</ele><time>2026-03-22T10:01:50.686Z</time></trkpt><trkpt lat="44.4619052" lon="11.139968"><ele>276.0</ele><time>2026-03-22T10:01:51.68Z</time></trkpt><trkpt lat="44.461874" lon="11.1398594"><ele>276.0</ele><time>2026-03-22T10:01:52.679Z</time></trkpt><trkpt lat="44.4618337" lon="11.139791"><ele>276.0</ele><time>2026-03-22T10:01:53.686Z</time></trkpt><trkpt lat="44.4617535" lon="11.1397017"><ele>274.7142857142857</ele><time>2026-03-22T10:01:55.678Z</time></trkpt><trkpt lat="44.4617055" lon="11.139641"><ele>273.42857142857144</ele><time>2026-03-22T10:01:56.678Z</time></trkpt><trkpt lat="44.4616597" lon="11.1395584"><ele>272.14285714285717</ele><time>2026-03-22T10:01:57.701Z</time></trkpt><trkpt lat="44.4616206" lon="11.1394721"><ele>270.8571428571429</ele><time>2026-03-22T10:01:58.68Z</time></trkpt><trkpt lat="44.4615718" lon="11.139382"><ele>269.57142857142856</ele><time>2026-03-22T10:01:59.686Z</time></trkpt><trkpt lat="44.4615215" lon="11.1393002"><ele>268.28571428571433</ele><time>2026-03-22T10:02:00.688Z</time></trkpt><trkpt lat="44.4614718" lon="11.1392219"><ele>267.0</ele><time>2026-03-22T10:02:01.694Z</time></trkpt><trkpt lat="44.4614232" lon="11.1391367"><ele>268.3333333333333</ele><time>2026-03-22T10:02:02.68Z</time></trkpt><trkpt lat="44.4613785" lon="11.1390447"><ele>269.6666666666667</ele><time>2026-03-22T10:02:03.681Z</time></trkpt><trkpt lat="44.4613291" lon="11.1389575"><ele>271.0</ele><time>2026-03-22T10:02:04.681Z</time></trkpt><trkpt lat="44.4612789" lon="11.1388837"><ele>272.33333333333337</ele><time>2026-03-22T10:02:05.686Z</time></trkpt><trkpt lat="44.4612279" lon="11.138814"><ele>273.6666666666667</ele><time>2026-03-22T10:02:06.676Z</time></trkpt><trkpt lat="44.4611701" lon="11.1387573"><ele>275.0</ele><time>2026-03-22T10:02:07.701Z</time></trkpt><trkpt lat="44.4610757" lon="11.1386635"><ele>275.0</ele><time>2026-03-22T10:02:09.677Z</time></trkpt><trkpt lat="44.4610057" lon="11.138576"><ele>275.0</ele><time>2026-03-22T10:02:11.684Z</time></trkpt><trkpt lat="44.4609369" lon="11.1384284"><ele>275.0</ele><time>2026-03-22T10:02:13.681Z</time></trkpt><trkpt lat="44.4608901" lon="11.1383478"><ele>275.0</ele><time>2026-03-22T10:02:14.684Z</time></trkpt><trkpt lat="44.4608273" lon="11.138271"><ele>275.0</ele><time>2026-03-22T10:02:15.674Z</time></trkpt><trkpt lat="44.4607587" lon="11.1381973"><ele>273.2</ele><time>2026-03-22T10:02:16.68Z</time></trkpt><trkpt lat="44.460675" lon="11.1381228"><ele>271.4</ele><time>2026-03-22T10:02:17.685Z</time></trkpt><trkpt lat="44.4605876" lon="11.1380525"><ele>269.6</ele><time>2026-03-22T10:02:18.701Z</time></trkpt><trkpt lat="44.4604938" lon="11.137976"><ele>267.8</ele><time>2026-03-22T10:02:19.678Z</time></trkpt><trkpt lat="44.4603947" lon="11.1378972"><ele>266.0</ele><time>2026-03-22T10:02:20.682Z</time></trkpt><trkpt lat="44.4602811" lon="11.1378174"><ele>269.8</ele><time>2026-03-22T10:02:21.701Z</time></trkpt><trkpt lat="44.4601776" lon="11.1377505"><ele>273.6</ele><time>2026-03-22T10:02:22.683Z</time></trkpt><trkpt lat="44.4601009" lon="11.1376826"><ele>277.4</ele><time>2026-03-22T10:02:23.682Z</time></trkpt><trkpt lat="44.4600254" lon="11.1376047"><ele>281.2</ele><time>2026-03-22T10:02:24.679Z</time></trkpt><trkpt lat="44.4599494" lon="11.1375124"><ele>285.0</ele><time>2026-03-22T10:02:25.681Z</time></trkpt><trkpt lat="44.4598707" lon="11.1373881"><ele>285.2</ele><time>2026-03-22T10:02:26.683Z</time></trkpt><trkpt lat="44.4598023" lon="11.1372698"><ele>285.4</ele><time>2026-03-22T10:02:27.685Z</time></trkpt><trkpt lat="44.4597335" lon="11.1371654"><ele>285.6</ele><time>2026-03-22T10:02:28.687Z</time></trkpt><trkpt lat="44.4596744" lon="11.1370753"><ele>285.8</ele><time>2026-03-22T10:02:29.684Z</time></trkpt><trkpt lat="44.4596075" lon="11.136998"><ele>286.0</ele><time>2026-03-22T10:02:30.676Z</time></trkpt><trkpt lat="44.4595454" lon="11.1369375"><ele>285.0</ele><time>2026-03-22T10:02:31.682Z</time></trkpt><trkpt lat="44.4594741" lon="11.1369087"><ele>284.0</ele><time>2026-03-22T10:02:32.681Z</time></trkpt><trkpt lat="44.4594002" lon="11.1369024"><ele>283.0</ele><time>2026-03-22T10:02:33.689Z</time></trkpt><trkpt lat="44.459327" lon="11.136908"><ele>282.0</ele><time>2026-03-22T10:02:34.701Z</time></trkpt><trkpt lat="44.4592479" lon="11.1369162"><ele>281.0</ele><time>2026-03-22T10:02:35.678Z</time></trkpt><trkpt lat="44.4591758" lon="11.1369279"><ele>280.0</ele><time>2026-03-22T10:02:36.678Z</time></trkpt><trkpt lat="44.4590966" lon="11.1369349"><ele>280.0</ele><time>2026-03-22T10:02:37.701Z</time></trkpt><trkpt lat="44.4589967" lon="11.1369557"><ele>280.0</ele><time>2026-03-22T10:02:38.679Z</time></trkpt><trkpt lat="44.4588717" lon="11.1369752"><ele>280.0</ele><time>2026-03-22T10:02:39.689Z</time></trkpt><trkpt lat="44.4587446" lon="11.1369881"><ele>280.0</ele><time>2026-03-22T10:02:40.701Z</time></trkpt><trkpt lat="44.4586137" lon="11.1370041"><ele>281.2</ele><time>2026-03-22T10:02:41.681Z</time></trkpt><trkpt lat="44.4585001" lon="11.1370142"><ele>282.4</ele><time>2026-03-22T10:02:42.675Z</time></trkpt><trkpt lat="44.4584021" lon="11.1370135"><ele>283.6</ele><time>2026-03-22T10:02:43.681Z</time></trkpt><trkpt lat="44.458312" lon="11.1369981"><ele>284.8</ele><time>2026-03-22T10:02:44.701Z</time></trkpt><trkpt lat="44.4582203" lon="11.1369519"><ele>286.0</ele><time>2026-03-22T10:02:45.681Z</time></trkpt><trkpt lat="44.4581403" lon="11.1368608"><ele>286.0</ele><time>2026-03-22T10:02:46.681Z</time></trkpt><trkpt lat="44.4580665" lon="11.1367551"><ele>286.0</ele><time>2026-03-22T10:02:47.701Z</time></trkpt><trkpt lat="44.457975" lon="11.13658"><ele>286.0</ele><time>2026-03-22T10:02:48.674Z</time></trkpt><trkpt lat="44.4578784" lon="11.1363985"><ele>286.0</ele><time>2026-03-22T10:02:49.701Z</time></trkpt><trkpt lat="44.4578023" lon="11.1362287"><ele>287.25</ele><time>2026-03-22T10:02:50.685Z</time></trkpt><trkpt lat="44.4577405" lon="11.1360629"><ele>288.5</ele><time>2026-03-22T10:02:51.678Z</time></trkpt><trkpt lat="44.4576911" lon="11.1359093"><ele>289.75</ele><time>2026-03-22T10:02:52.681Z</time></trkpt><trkpt lat="44.4576426" lon="11.1357612"><ele>291.0</ele><time>2026-03-22T10:02:53.679Z</time></trkpt><trkpt lat="44.4575971" lon="11.1356283"><ele>291.5</ele><time>2026-03-22T10:02:54.678Z</time></trkpt><trkpt lat="44.4575482" lon="11.1355137"><ele>292.0</ele><time>2026-03-22T10:02:55.686Z</time></trkpt><trkpt lat="44.4575025" lon="11.1354152"><ele>292.5</ele><time>2026-03-22T10:02:56.685Z</time></trkpt><trkpt lat="44.4574545" lon="11.1353327"><ele>293.0</ele><time>2026-03-22T10:02:57.685Z</time></trkpt><trkpt lat="44.4574132" lon="11.1352658"><ele>293.5</ele><time>2026-03-22T10:02:58.688Z</time></trkpt><trkpt lat="44.4573571" lon="11.1351453"><ele>294.0</ele><time>2026-03-22T10:03:00.684Z</time></trkpt><trkpt lat="44.4573129" lon="11.1350503"><ele>294.0</ele><time>2026-03-22T10:03:02.68Z</time></trkpt><trkpt lat="44.4572763" lon="11.134978"><ele>294.0</ele><time>2026-03-22T10:03:04.679Z</time></trkpt><trkpt lat="44.4572278" lon="11.1349073"><ele>294.0</ele><time>2026-03-22T10:03:08.678Z</time></trkpt><trkpt lat="44.4571846" lon="11.1348237"><ele>294.0</ele><time>2026-03-22T10:03:17.695Z</time></trkpt><trkpt lat="44.4571549" lon="11.1347403"><ele>294.0</ele><time>2026-03-22T10:03:20.679Z</time></trkpt><trkpt lat="44.4570981" lon="11.1346573"><ele>294.0</ele><time>2026-03-22T10:03:23.683Z</time></trkpt><trkpt lat="44.4570816" lon="11.13457"><ele>294.0</ele><time>2026-03-22T10:06:41.683Z</time></trkpt><trkpt lat="44.4570357" lon="11.1344829"><ele>293.0</ele><time>2026-03-22T10:06:43.695Z</time></trkpt><trkpt lat="44.4569741" lon="11.1343418"><ele>292.0</ele><time>2026-03-22T10:06:45.678Z</time></trkpt><trkpt lat="44.4569331" lon="11.1342695"><ele>291.0</ele><time>2026-03-22T10:06:46.683Z</time></trkpt><trkpt lat="44.4568875" lon="11.1341891"><ele>290.0</ele><time>2026-03-22T10:06:47.68Z</time></trkpt><trkpt lat="44.4568423" lon="11.1341044"><ele>289.0</ele><time>2026-03-22T10:06:48.677Z</time></trkpt><trkpt lat="44.4567918" lon="11.1340179"><ele>288.0</ele><time>2026-03-22T10:06:49.685Z</time></trkpt><trkpt lat="44.4567366" lon="11.1339248"><ele>287.75</ele><time>2026-03-22T10:06:50.699Z</time></trkpt><trkpt lat="44.4566781" lon="11.1338101"><ele>287.5</ele><time>2026-03-22T10:06:51.692Z</time></trkpt><trkpt lat="44.4566047" lon="11.1336676"><ele>287.25</ele><time>2026-03-22T10:06:52.686Z</time></trkpt><trkpt lat="44.456521" lon="11.1335077"><ele>287.0</ele><time>2026-03-22T10:06:53.684Z</time></trkpt><trkpt lat="44.4564422" lon="11.1333591"><ele>285.4</ele><time>2026-03-22T10:06:54.68Z</time></trkpt><trkpt lat="44.4563638" lon="11.1332171"><ele>283.79999999999995</ele><time>2026-03-22T10:06:55.681Z</time></trkpt><trkpt lat="44.4562956" lon="11.1330859"><ele>282.2</ele><time>2026-03-22T10:06:56.68Z</time></trkpt><trkpt lat="44.4562353" lon="11.1329746"><ele>280.59999999999997</ele><time>2026-03-22T10:06:57.685Z</time></trkpt><trkpt lat="44.4561816" lon="11.1328643"><ele>279.0</ele><time>2026-03-22T10:06:58.686Z</time></trkpt><trkpt lat="44.4561408" lon="11.1327795"><ele>279.0</ele><time>2026-03-22T10:06:59.687Z</time></trkpt><trkpt lat="44.4560898" lon="11.1326957"><ele>279.0</ele><time>2026-03-22T10:07:00.682Z</time></trkpt><trkpt lat="44.4560367" lon="11.1326001"><ele>279.0</ele><time>2026-03-22T10:07:01.686Z</time></trkpt><trkpt lat="44.455984" lon="11.1325153"><ele>279.0</ele><time>2026-03-22T10:07:02.684Z</time></trkpt><trkpt lat="44.455888" lon="11.1324151"><ele>279.0</ele><time>2026-03-22T10:07:04.684Z</time></trkpt><trkpt lat="44.4557889" lon="11.132364"><ele>278.75</ele><time>2026-03-22T10:07:06.686Z</time></trkpt><trkpt lat="44.4556799" lon="11.1322352"><ele>278.5</ele><time>2026-03-22T10:07:08.69Z</time></trkpt><trkpt lat="44.4556069" lon="11.1321155"><ele>278.25</ele><time>2026-03-22T10:07:09.701Z</time></trkpt><trkpt lat="44.4555136" lon="11.1319693"><ele>278.0</ele><time>2026-03-22T10:07:10.683Z</time></trkpt><trkpt lat="44.4554153" lon="11.1318076"><ele>278.0</ele><time>2026-03-22T10:07:11.684Z</time></trkpt><trkpt lat="44.45533" lon="11.1316793"><ele>278.0</ele><time>2026-03-22T10:07:12.685Z</time></trkpt><trkpt lat="44.455222" lon="11.1315401"><ele>278.0</ele><time>2026-03-22T10:07:13.676Z</time></trkpt><trkpt lat="44.4551258" lon="11.1314017"><ele>278.0</ele><time>2026-03-22T10:07:14.685Z</time></trkpt><trkpt lat="44.4550345" lon="11.1312667"><ele>280.5</ele><time>2026-03-22T10:07:15.701Z</time></trkpt><trkpt lat="44.4549463" lon="11.1311241"><ele>283.0</ele><time>2026-03-22T10:07:16.68Z</time></trkpt><trkpt lat="44.4548598" lon="11.1309746"><ele>285.5</ele><time>2026-03-22T10:07:17.686Z</time></trkpt><trkpt lat="44.4547614" lon="11.1308215"><ele>288.0</ele><time>2026-03-22T10:07:18.701Z</time></trkpt><trkpt lat="44.4546679" lon="11.1306664"><ele>288.25</ele><time>2026-03-22T10:07:19.683Z</time></trkpt><trkpt lat="44.4545831" lon="11.1305185"><ele>288.5</ele><time>2026-03-22T10:07:20.684Z</time></trkpt><trkpt lat="44.4545039" lon="11.1303778"><ele>288.75</ele><time>2026-03-22T10:07:21.684Z</time></trkpt><trkpt lat="44.4544266" lon="11.1302457"><ele>289.0</ele><time>2026-03-22T10:07:22.683Z</time></trkpt><trkpt lat="44.4543643" lon="11.1301701"><ele>289.0</ele><time>2026-03-22T10:07:23.683Z</time></trkpt><trkpt lat="44.4543163" lon="11.1301074"><ele>289.0</ele><time>2026-03-22T10:07:24.692Z</time></trkpt><trkpt lat="44.4542705" lon="11.1300357"><ele>289.0</ele><time>2026-03-22T10:07:27.679Z</time></trkpt><trkpt lat="44.454202" lon="11.12995"><ele>289.0</ele><time>2026-03-22T10:07:29.698Z</time></trkpt><trkpt lat="44.4541271" lon="11.1299266"><ele>289.0</ele><time>2026-03-22T10:07:30.683Z</time></trkpt><trkpt lat="44.4540279" lon="11.1299243"><ele>289.0</ele><time>2026-03-22T10:07:31.683Z</time></trkpt><trkpt lat="44.4539186" lon="11.1299285"><ele>289.0</ele><time>2026-03-22T10:07:32.683Z</time></trkpt><trkpt lat="44.453814" lon="11.1299219"><ele>289.0</ele><time>2026-03-22T10:07:33.685Z</time></trkpt><trkpt lat="44.453704" lon="11.1299129"><ele>289.0</ele><time>2026-03-22T10:07:34.691Z</time></trkpt><trkpt lat="44.4535967" lon="11.1299031"><ele>289.0</ele><time>2026-03-22T10:07:35.701Z</time></trkpt><trkpt lat="44.4535003" lon="11.1298937"><ele>289.0</ele><time>2026-03-22T10:07:36.684Z</time></trkpt><trkpt lat="44.4534079" lon="11.1298835"><ele>287.16666666666663</ele><time>2026-03-22T10:07:37.682Z</time></trkpt><trkpt lat="44.4533134" lon="11.1298793"><ele>285.3333333333333</ele><time>2026-03-22T10:07:38.681Z</time></trkpt><trkpt lat="44.453234" lon="11.1298699"><ele>283.5</ele><time>2026-03-22T10:07:39.685Z</time></trkpt><trkpt lat="44.4531551" lon="11.1298698"><ele>281.6666666666667</ele><time>2026-03-22T10:07:40.683Z</time></trkpt><trkpt lat="44.4530674" lon="11.1298348"><ele>279.83333333333337</ele><time>2026-03-22T10:07:42.681Z</time></trkpt><trkpt lat="44.4530235" lon="11.1297656"><ele>278.0</ele><time>2026-03-22T10:07:45.691Z</time></trkpt><trkpt lat="44.4529879" lon="11.1296353"><ele>278.0</ele><time>2026-03-22T10:07:48.68Z</time></trkpt><trkpt lat="44.4529644" lon="11.1295449"><ele>278.0</ele><time>2026-03-22T10:07:50.684Z</time></trkpt><trkpt lat="44.4529351" lon="11.1294151"><ele>278.0</ele><time>2026-03-22T10:07:52.684Z</time></trkpt><trkpt lat="44.4529314" lon="11.1292999"><ele>278.0</ele><time>2026-03-22T10:07:53.679Z</time></trkpt><trkpt lat="44.4529287" lon="11.1291689"><ele>278.0</ele><time>2026-03-22T10:07:54.682Z</time></trkpt><trkpt lat="44.4529286" lon="11.1290166"><ele>276.1666666666667</ele><time>2026-03-22T10:07:55.701Z</time></trkpt><trkpt lat="44.4529219" lon="11.1288873"><ele>274.33333333333337</ele><time>2026-03-22T10:07:56.687Z</time></trkpt><trkpt lat="44.4529147" lon="11.1287581"><ele>272.5</ele><time>2026-03-22T10:07:57.685Z</time></trkpt><trkpt lat="44.4528946" lon="11.1286382"><ele>270.6666666666667</ele><time>2026-03-22T10:07:58.678Z</time></trkpt><trkpt lat="44.4528636" lon="11.1285259"><ele>268.8333333333333</ele><time>2026-03-22T10:07:59.685Z</time></trkpt><trkpt lat="44.4528217" lon="11.1284202"><ele>267.0</ele><time>2026-03-22T10:08:00.678Z</time></trkpt><trkpt lat="44.452764" lon="11.1283162"><ele>267.0</ele><time>2026-03-22T10:08:01.701Z</time></trkpt><trkpt lat="44.4527025" lon="11.1282313"><ele>267.0</ele><time>2026-03-22T10:08:02.701Z</time></trkpt><trkpt lat="44.4526454" lon="11.1281451"><ele>267.0</ele><time>2026-03-22T10:08:03.685Z</time></trkpt><trkpt lat="44.452585" lon="11.1280711"><ele>267.0</ele><time>2026-03-22T10:08:04.681Z</time></trkpt><trkpt lat="44.452519" lon="11.1280236"><ele>267.0</ele><time>2026-03-22T10:08:05.684Z</time></trkpt><trkpt lat="44.4524409" lon="11.1279878"><ele>267.0</ele><time>2026-03-22T10:08:06.701Z</time></trkpt><trkpt lat="44.4523574" lon="11.1279691"><ele>268.2</ele><time>2026-03-22T10:08:07.678Z</time></trkpt><trkpt lat="44.4522605" lon="11.1279877"><ele>269.4</ele><time>2026-03-22T10:08:08.676Z</time></trkpt><trkpt lat="44.4521664" lon="11.1280122"><ele>270.6</ele><time>2026-03-22T10:08:09.677Z</time></trkpt><trkpt lat="44.452078" lon="11.1280501"><ele>271.8</ele><time>2026-03-22T10:08:10.684Z</time></trkpt><trkpt lat="44.4519867" lon="11.1280892"><ele>273.0</ele><time>2026-03-22T10:08:11.688Z</time></trkpt><trkpt lat="44.4519102" lon="11.1281404"><ele>274.1666666666667</ele><time>2026-03-22T10:08:12.701Z</time></trkpt><trkpt lat="44.4518371" lon="11.1281885"><ele>275.3333333333333</ele><time>2026-03-22T10:08:13.683Z</time></trkpt><trkpt lat="44.4517649" lon="11.1282399"><ele>276.5</ele><time>2026-03-22T10:08:14.68Z</time></trkpt><trkpt lat="44.4516856" lon="11.1282857"><ele>277.66666666666663</ele><time>2026-03-22T10:08:15.693Z</time></trkpt><trkpt lat="44.4516061" lon="11.1283189"><ele>278.8333333333333</ele><time>2026-03-22T10:08:16.677Z</time></trkpt><trkpt lat="44.4515263" lon="11.1283521"><ele>280.0</ele><time>2026-03-22T10:08:17.688Z</time></trkpt><trkpt lat="44.4514416" lon="11.1283731"><ele>277.6</ele><time>2026-03-22T10:08:18.681Z</time></trkpt><trkpt lat="44.4513582" lon="11.1283897"><ele>275.2</ele><time>2026-03-22T10:08:19.687Z</time></trkpt><trkpt lat="44.451261" lon="11.1283959"><ele>272.8</ele><time>2026-03-22T10:08:20.684Z</time></trkpt><trkpt lat="44.4511485" lon="11.128412"><ele>270.4</ele><time>2026-03-22T10:08:21.701Z</time></trkpt><trkpt lat="44.4510423" lon="11.1284306"><ele>268.0</ele><time>2026-03-22T10:08:22.683Z</time></trkpt><trkpt lat="44.450947" lon="11.1284477"><ele>268.0</ele><time>2026-03-22T10:08:23.688Z</time></trkpt><trkpt lat="44.4508604" lon="11.1284568"><ele>268.0</ele><time>2026-03-22T10:08:24.676Z</time></trkpt><trkpt lat="44.4507813" lon="11.1284672"><ele>268.0</ele><time>2026-03-22T10:08:25.683Z</time></trkpt><trkpt lat="44.4507034" lon="11.1284809"><ele>268.0</ele><time>2026-03-22T10:08:26.701Z</time></trkpt><trkpt lat="44.4506168" lon="11.1284857"><ele>268.0</ele><time>2026-03-22T10:08:27.69Z</time></trkpt><trkpt lat="44.4505325" lon="11.1284918"><ele>268.0</ele><time>2026-03-22T10:08:28.676Z</time></trkpt><trkpt lat="44.4504619" lon="11.1284821"><ele>268.16666666666663</ele><time>2026-03-22T10:08:29.686Z</time></trkpt><trkpt lat="44.4503677" lon="11.1284732"><ele>268.3333333333333</ele><time>2026-03-22T10:08:31.685Z</time></trkpt><trkpt lat="44.4502825" lon="11.1284661"><ele>268.5</ele><time>2026-03-22T10:08:33.678Z</time></trkpt><trkpt lat="44.450212" lon="11.1284448"><ele>268.6666666666667</ele><time>2026-03-22T10:08:35.687Z</time></trkpt><trkpt lat="44.4501211" lon="11.1284365"><ele>268.83333333333337</ele><time>2026-03-22T10:08:38.701Z</time></trkpt><trkpt lat="44.4500421" lon="11.1284274"><ele>269.0</ele><time>2026-03-22T10:08:54.683Z</time></trkpt><trkpt lat="44.4500302" lon="11.1285313"><ele>269.0</ele><time>2026-03-22T10:08:57.688Z</time></trkpt><trkpt lat="44.4499469" lon="11.1286402"><ele>269.0</ele><time>2026-03-22T10:08:59.695Z</time></trkpt><trkpt lat="44.4498894" lon="11.1286969"><ele>269.0</ele><time>2026-03-22T10:09:00.681Z</time></trkpt><trkpt lat="44.4498302" lon="11.1287893"><ele>269.0</ele><time>2026-03-22T10:09:01.683Z</time></trkpt><trkpt lat="44.4497707" lon="11.1288696"><ele>269.0</ele><time>2026-03-22T10:09:02.681Z</time></trkpt><trkpt lat="44.4497235" lon="11.1289592"><ele>269.0</ele><time>2026-03-22T10:09:03.681Z</time></trkpt><trkpt lat="44.4496673" lon="11.1290457"><ele>267.5</ele><time>2026-03-22T10:09:04.701Z</time></trkpt><trkpt lat="44.4496321" lon="11.1291214"><ele>266.0</ele><time>2026-03-22T10:09:05.685Z</time></trkpt><trkpt lat="44.449581" lon="11.1292175"><ele>264.5</ele><time>2026-03-22T10:09:06.701Z</time></trkpt><trkpt lat="44.4495366" lon="11.1292976"><ele>263.0</ele><time>2026-03-22T10:09:07.694Z</time></trkpt><trkpt lat="44.4494878" lon="11.1294021"><ele>261.5</ele><time>2026-03-22T10:09:08.68Z</time></trkpt><trkpt lat="44.4494434" lon="11.129478"><ele>260.0</ele><time>2026-03-22T10:09:09.681Z</time></trkpt><trkpt lat="44.4493929" lon="11.1295534"><ele>263.83333333333337</ele><time>2026-03-22T10:09:10.687Z</time></trkpt><trkpt lat="44.4493151" lon="11.1296618"><ele>267.6666666666667</ele><time>2026-03-22T10:09:11.681Z</time></trkpt><trkpt lat="44.449242" lon="11.1297339"><ele>271.5</ele><time>2026-03-22T10:09:12.682Z</time></trkpt><trkpt lat="44.449189" lon="11.1297952"><ele>275.3333333333333</ele><time>2026-03-22T10:09:13.687Z</time></trkpt><trkpt lat="44.4491324" lon="11.1298569"><ele>279.16666666666663</ele><time>2026-03-22T10:09:15.68Z</time></trkpt><trkpt lat="44.4490418" lon="11.1298244"><ele>283.0</ele><time>2026-03-22T10:09:18.689Z</time></trkpt><trkpt lat="44.448984" lon="11.129762"><ele>283.0</ele><time>2026-03-22T10:09:19.693Z</time></trkpt><trkpt lat="44.448917" lon="11.1297051"><ele>283.0</ele><time>2026-03-22T10:09:20.675Z</time></trkpt><trkpt lat="44.4488559" lon="11.1296325"><ele>283.0</ele><time>2026-03-22T10:09:21.686Z</time></trkpt><trkpt lat="44.4487713" lon="11.1295224"><ele>283.0</ele><time>2026-03-22T10:09:23.682Z</time></trkpt><trkpt lat="44.448712" lon="11.1294675"><ele>283.0</ele><time>2026-03-22T10:09:25.681Z</time></trkpt><trkpt lat="44.4486423" lon="11.1294446"><ele>283.0</ele><time>2026-03-22T10:09:34.69Z</time></trkpt><trkpt lat="44.4485816" lon="11.129379"><ele>281.66666666666663</ele><time>2026-03-22T10:09:36.685Z</time></trkpt><trkpt lat="44.4485134" lon="11.1293327"><ele>280.3333333333333</ele><time>2026-03-22T10:09:38.689Z</time></trkpt><trkpt lat="44.448465" lon="11.1292556"><ele>279.0</ele><time>2026-03-22T10:09:43.691Z</time></trkpt><trkpt lat="44.4484925" lon="11.1293404"><ele>277.6666666666667</ele><time>2026-03-22T10:10:30.701Z</time></trkpt><trkpt lat="44.4485762" lon="11.1293981"><ele>276.33333333333337</ele><time>2026-03-22T10:10:37.684Z</time></trkpt><trkpt lat="44.4486623" lon="11.129468"><ele>275.0</ele><time>2026-03-22T10:10:39.697Z</time></trkpt><trkpt lat="44.4487188" lon="11.1295141"><ele>275.0</ele><time>2026-03-22T10:10:40.671Z</time></trkpt><trkpt lat="44.4487812" lon="11.1295687"><ele>275.0</ele><time>2026-03-22T10:10:41.687Z</time></trkpt><trkpt lat="44.4488485" lon="11.1296334"><ele>275.0</ele><time>2026-03-22T10:10:42.68Z</time></trkpt><trkpt lat="44.4489133" lon="11.1297075"><ele>275.0</ele><time>2026-03-22T10:10:43.68Z</time></trkpt><trkpt lat="44.4489747" lon="11.1297774"><ele>275.0</ele><time>2026-03-22T10:10:44.67Z</time></trkpt><trkpt lat="44.4490348" lon="11.129834"><ele>275.0</ele><time>2026-03-22T10:10:45.683Z</time></trkpt><trkpt lat="44.4491308" lon="11.1298864"><ele>276.33333333333337</ele><time>2026-03-22T10:10:47.683Z</time></trkpt><trkpt lat="44.4491936" lon="11.1298384"><ele>277.6666666666667</ele><time>2026-03-22T10:10:51.692Z</time></trkpt><trkpt lat="44.4492574" lon="11.129753"><ele>279.0</ele><time>2026-03-22T10:10:53.694Z</time></trkpt><trkpt lat="44.4493185" lon="11.129684"><ele>280.3333333333333</ele><time>2026-03-22T10:10:54.681Z</time></trkpt><trkpt lat="44.4493911" lon="11.1295835"><ele>281.66666666666663</ele><time>2026-03-22T10:10:55.676Z</time></trkpt><trkpt lat="44.4494554" lon="11.1294681"><ele>283.0</ele><time>2026-03-22T10:10:56.678Z</time></trkpt><trkpt lat="44.4495198" lon="11.1293458"><ele>283.0</ele><time>2026-03-22T10:10:57.68Z</time></trkpt><trkpt lat="44.4495808" lon="11.1292286"><ele>283.0</ele><time>2026-03-22T10:10:58.682Z</time></trkpt><trkpt lat="44.4496558" lon="11.1291074"><ele>283.0</ele><time>2026-03-22T10:10:59.676Z</time></trkpt><trkpt lat="44.4497287" lon="11.1289873"><ele>283.0</ele><time>2026-03-22T10:11:00.674Z</time></trkpt><trkpt lat="44.4498128" lon="11.1288653"><ele>280.2</ele><time>2026-03-22T10:11:01.678Z</time></trkpt><trkpt lat="44.4498921" lon="11.1287388"><ele>277.4</ele><time>2026-03-22T10:11:02.675Z</time></trkpt><trkpt lat="44.4499695" lon="11.1286237"><ele>274.59999999999997</ele><time>2026-03-22T10:11:03.681Z</time></trkpt><trkpt lat="44.4500125" lon="11.1285436"><ele>271.8</ele><time>2026-03-22T10:11:04.678Z</time></trkpt><trkpt lat="44.4500842" lon="11.1284544"><ele>269.0</ele><time>2026-03-22T10:11:06.685Z</time></trkpt><trkpt lat="44.4500198" lon="11.1283916"><ele>269.0</ele><time>2026-03-22T10:11:09.685Z</time></trkpt><trkpt lat="44.4498611" lon="11.1282883"><ele>269.0</ele><time>2026-03-22T10:11:11.681Z</time></trkpt><trkpt lat="44.4497488" lon="11.1282291"><ele>269.0</ele><time>2026-03-22T10:11:12.701Z</time></trkpt><trkpt lat="44.4496337" lon="11.1281633"><ele>269.0</ele><time>2026-03-22T10:11:13.678Z</time></trkpt><trkpt lat="44.4495005" lon="11.1280941"><ele>268.0</ele><time>2026-03-22T10:11:14.688Z</time></trkpt><trkpt lat="44.4493857" lon="11.1280365"><ele>267.0</ele><time>2026-03-22T10:11:15.695Z</time></trkpt><trkpt lat="44.4492835" lon="11.1279797"><ele>266.0</ele><time>2026-03-22T10:11:16.679Z</time></trkpt><trkpt lat="44.449205" lon="11.1279365"><ele>265.0</ele><time>2026-03-22T10:11:17.683Z</time></trkpt><trkpt lat="44.4491018" lon="11.1278826"><ele>264.0</ele><time>2026-03-22T10:11:19.687Z</time></trkpt><trkpt lat="44.4490265" lon="11.1278369"><ele>264.0</ele><time>2026-03-22T10:11:21.686Z</time></trkpt><trkpt lat="44.4489567" lon="11.1278011"><ele>264.0</ele><time>2026-03-22T10:11:23.678Z</time></trkpt><trkpt lat="44.4488496" lon="11.1277493"><ele>264.0</ele><time>2026-03-22T10:11:25.688Z</time></trkpt><trkpt lat="44.4487551" lon="11.1276922"><ele>264.0</ele><time>2026-03-22T10:11:27.701Z</time></trkpt><trkpt lat="44.4486618" lon="11.1276297"><ele>264.0</ele><time>2026-03-22T10:11:29.682Z</time></trkpt><trkpt lat="44.4485722" lon="11.1275578"><ele>264.6666666666667</ele><time>2026-03-22T10:11:31.701Z</time></trkpt><trkpt lat="44.4484702" lon="11.1274923"><ele>265.3333333333333</ele><time>2026-03-22T10:11:33.688Z</time></trkpt><trkpt lat="44.4483658" lon="11.1274235"><ele>266.0</ele><time>2026-03-22T10:11:35.682Z</time></trkpt><trkpt lat="44.448312" lon="11.1273725"><ele>266.66666666666663</ele><time>2026-03-22T10:11:36.682Z</time></trkpt><trkpt lat="44.4482613" lon="11.1273159"><ele>267.3333333333333</ele><time>2026-03-22T10:11:37.683Z</time></trkpt><trkpt lat="44.4482094" lon="11.1272588"><ele>268.0</ele><time>2026-03-22T10:11:38.701Z</time></trkpt><trkpt lat="44.4481272" lon="11.1271473"><ele>268.0</ele><time>2026-03-22T10:11:40.684Z</time></trkpt><trkpt lat="44.448042" lon="11.1270306"><ele>268.0</ele><time>2026-03-22T10:11:42.686Z</time></trkpt><trkpt lat="44.4479949" lon="11.1269576"><ele>268.0</ele><time>2026-03-22T10:11:43.681Z</time></trkpt><trkpt lat="44.4479403" lon="11.1268869"><ele>268.0</ele><time>2026-03-22T10:11:44.682Z</time></trkpt><trkpt lat="44.4478916" lon="11.1268059"><ele>268.0</ele><time>2026-03-22T10:11:45.68Z</time></trkpt><trkpt lat="44.4478381" lon="11.1267331"><ele>268.0</ele><time>2026-03-22T10:11:46.683Z</time></trkpt><trkpt lat="44.447784" lon="11.1266629"><ele>267.3333333333333</ele><time>2026-03-22T10:11:47.684Z</time></trkpt><trkpt lat="44.4477264" lon="11.1265879"><ele>266.66666666666663</ele><time>2026-03-22T10:11:48.687Z</time></trkpt><trkpt lat="44.4476648" lon="11.126523"><ele>266.0</ele><time>2026-03-22T10:11:49.688Z</time></trkpt><trkpt lat="44.4476032" lon="11.1264607"><ele>265.3333333333333</ele><time>2026-03-22T10:11:50.683Z</time></trkpt><trkpt lat="44.4475338" lon="11.1264059"><ele>264.6666666666667</ele><time>2026-03-22T10:11:51.687Z</time></trkpt><trkpt lat="44.4474705" lon="11.1263581"><ele>264.0</ele><time>2026-03-22T10:11:52.687Z</time></trkpt><trkpt lat="44.4474004" lon="11.1263103"><ele>263.5</ele><time>2026-03-22T10:11:53.685Z</time></trkpt><trkpt lat="44.4473226" lon="11.1262816"><ele>263.0</ele><time>2026-03-22T10:11:54.683Z</time></trkpt><trkpt lat="44.4472453" lon="11.1262575"><ele>262.5</ele><time>2026-03-22T10:11:55.682Z</time></trkpt><trkpt lat="44.4471632" lon="11.1262295"><ele>262.0</ele><time>2026-03-22T10:11:56.678Z</time></trkpt><trkpt lat="44.447079" lon="11.1261918"><ele>261.5</ele><time>2026-03-22T10:11:57.683Z</time></trkpt><trkpt lat="44.4469887" lon="11.1261513"><ele>261.0</ele><time>2026-03-22T10:11:58.681Z</time></trkpt><trkpt lat="44.4468997" lon="11.1261027"><ele>261.0</ele><time>2026-03-22T10:11:59.679Z</time></trkpt><trkpt lat="44.4468126" lon="11.1260521"><ele>261.0</ele><time>2026-03-22T10:12:00.683Z</time></trkpt><trkpt lat="44.4467253" lon="11.1260004"><ele>261.0</ele><time>2026-03-22T10:12:01.679Z</time></trkpt><trkpt lat="44.4466402" lon="11.1259506"><ele>261.0</ele><time>2026-03-22T10:12:02.681Z</time></trkpt><trkpt lat="44.446564" lon="11.1259108"><ele>261.0</ele><time>2026-03-22T10:12:03.699Z</time></trkpt><trkpt lat="44.4464973" lon="11.1258828"><ele>261.0</ele><time>2026-03-22T10:12:05.678Z</time></trkpt><trkpt lat="44.4464304" lon="11.1258568"><ele>261.0</ele><time>2026-03-22T10:12:11.692Z</time></trkpt><trkpt lat="44.4463755" lon="11.1257808"><ele>261.0</ele><time>2026-03-22T10:12:13.686Z</time></trkpt><trkpt lat="44.4463299" lon="11.1257189"><ele>261.0</ele><time>2026-03-22T10:12:14.685Z</time></trkpt><trkpt lat="44.4462755" lon="11.1256707"><ele>261.0</ele><time>2026-03-22T10:12:15.696Z</time></trkpt><trkpt lat="44.4461976" lon="11.1256252"><ele>261.0</ele><time>2026-03-22T10:12:16.679Z</time></trkpt><trkpt lat="44.4461119" lon="11.1255785"><ele>261.0</ele><time>2026-03-22T10:12:17.679Z</time></trkpt><trkpt lat="44.4460062" lon="11.1255306"><ele>258.75</ele><time>2026-03-22T10:12:18.681Z</time></trkpt><trkpt lat="44.4458884" lon="11.1254787"><ele>256.5</ele><time>2026-03-22T10:12:19.68Z</time></trkpt><trkpt lat="44.445763" lon="11.1254166"><ele>254.25</ele><time>2026-03-22T10:12:20.682Z</time></trkpt><trkpt lat="44.445638" lon="11.125379"><ele>252.0</ele><time>2026-03-22T10:12:21.679Z</time></trkpt><trkpt lat="44.4455176" lon="11.1253282"><ele>254.5</ele><time>2026-03-22T10:12:22.676Z</time></trkpt><trkpt lat="44.445406" lon="11.1252831"><ele>257.0</ele><time>2026-03-22T10:12:23.684Z</time></trkpt><trkpt lat="44.4453109" lon="11.1252362"><ele>259.5</ele><time>2026-03-22T10:12:24.684Z</time></trkpt><trkpt lat="44.4452298" lon="11.1252044"><ele>262.0</ele><time>2026-03-22T10:12:25.687Z</time></trkpt><trkpt lat="44.4451584" lon="11.1251903"><ele>264.5</ele><time>2026-03-22T10:12:26.675Z</time></trkpt><trkpt lat="44.4450868" lon="11.1251779"><ele>267.0</ele><time>2026-03-22T10:12:27.684Z</time></trkpt><trkpt lat="44.4450187" lon="11.1251915"><ele>267.0</ele><time>2026-03-22T10:12:28.682Z</time></trkpt><trkpt lat="44.4449519" lon="11.125253"><ele>267.0</ele><time>2026-03-22T10:12:29.683Z</time></trkpt><trkpt lat="44.4448971" lon="11.1253187"><ele>267.0</ele><time>2026-03-22T10:12:30.682Z</time></trkpt><trkpt lat="44.4448477" lon="11.1253815"><ele>267.0</ele><time>2026-03-22T10:12:31.673Z</time></trkpt><trkpt lat="44.4447576" lon="11.1254667"><ele>267.0</ele><time>2026-03-22T10:12:33.685Z</time></trkpt><trkpt lat="44.4446971" lon="11.1254979"><ele>267.0</ele><time>2026-03-22T10:12:34.679Z</time></trkpt><trkpt lat="44.4446185" lon="11.1255128"><ele>267.1666666666667</ele><time>2026-03-22T10:12:35.685Z</time></trkpt><trkpt lat="44.4445316" lon="11.1255298"><ele>267.3333333333333</ele><time>2026-03-22T10:12:36.682Z</time></trkpt><trkpt lat="44.4444562" lon="11.1255423"><ele>267.5</ele><time>2026-03-22T10:12:37.682Z</time></trkpt><trkpt lat="44.4443753" lon="11.1255406"><ele>267.66666666666663</ele><time>2026-03-22T10:12:38.678Z</time></trkpt><trkpt lat="44.4442834" lon="11.1255482"><ele>267.8333333333333</ele><time>2026-03-22T10:12:39.68Z</time></trkpt><trkpt lat="44.4442041" lon="11.1255477"><ele>268.0</ele><time>2026-03-22T10:12:40.683Z</time></trkpt><trkpt lat="44.4441244" lon="11.12557"><ele>268.0</ele><time>2026-03-22T10:12:41.688Z</time></trkpt><trkpt lat="44.4440631" lon="11.1256212"><ele>268.0</ele><time>2026-03-22T10:12:42.684Z</time></trkpt><trkpt lat="44.4440056" lon="11.1256793"><ele>268.0</ele><time>2026-03-22T10:12:43.692Z</time></trkpt><trkpt lat="44.4439449" lon="11.1257303"><ele>268.0</ele><time>2026-03-22T10:12:44.683Z</time></trkpt><trkpt lat="44.4438717" lon="11.1257563"><ele>268.0</ele><time>2026-03-22T10:12:45.701Z</time></trkpt><trkpt lat="44.4437726" lon="11.1257865"><ele>268.0</ele><time>2026-03-22T10:12:46.674Z</time></trkpt><trkpt lat="44.4436671" lon="11.1258296"><ele>272.25</ele><time>2026-03-22T10:12:47.684Z</time></trkpt><trkpt lat="44.4435511" lon="11.1258672"><ele>276.5</ele><time>2026-03-22T10:12:48.684Z</time></trkpt><trkpt lat="44.4434258" lon="11.1259107"><ele>280.75</ele><time>2026-03-22T10:12:49.681Z</time></trkpt><trkpt lat="44.4433144" lon="11.125964"><ele>285.0</ele><time>2026-03-22T10:12:50.683Z</time></trkpt><trkpt lat="44.4432023" lon="11.1260114"><ele>285.0</ele><time>2026-03-22T10:12:51.684Z</time></trkpt><trkpt lat="44.4430989" lon="11.1260546"><ele>285.0</ele><time>2026-03-22T10:12:52.678Z</time></trkpt><trkpt lat="44.4430004" lon="11.1260926"><ele>285.0</ele><time>2026-03-22T10:12:53.675Z</time></trkpt><trkpt lat="44.4428957" lon="11.126116"><ele>285.0</ele><time>2026-03-22T10:12:54.68Z</time></trkpt><trkpt lat="44.4427927" lon="11.1261026"><ele>285.0</ele><time>2026-03-22T10:12:55.68Z</time></trkpt><trkpt lat="44.4426855" lon="11.1261086"><ele>288.4</ele><time>2026-03-22T10:12:56.701Z</time></trkpt><trkpt lat="44.4425783" lon="11.1261229"><ele>291.8</ele><time>2026-03-22T10:12:57.676Z</time></trkpt><trkpt lat="44.4424756" lon="11.1261181"><ele>295.2</ele><time>2026-03-22T10:12:58.679Z</time></trkpt><trkpt lat="44.4423858" lon="11.1261029"><ele>298.6</ele><time>2026-03-22T10:12:59.684Z</time></trkpt><trkpt lat="44.4422551" lon="11.1261155"><ele>302.0</ele><time>2026-03-22T10:13:01.701Z</time></trkpt><trkpt lat="44.4421607" lon="11.1262222"><ele>300.6</ele><time>2026-03-22T10:13:02.68Z</time></trkpt><trkpt lat="44.4420838" lon="11.1262845"><ele>299.2</ele><time>2026-03-22T10:13:03.68Z</time></trkpt><trkpt lat="44.4419557" lon="11.1263231"><ele>297.8</ele><time>2026-03-22T10:13:05.677Z</time></trkpt><trkpt lat="44.4418521" lon="11.1263576"><ele>296.4</ele><time>2026-03-22T10:13:06.675Z</time></trkpt><trkpt lat="44.4417518" lon="11.1263812"><ele>295.0</ele><time>2026-03-22T10:13:07.679Z</time></trkpt><trkpt lat="44.441655" lon="11.1264089"><ele>295.0</ele><time>2026-03-22T10:13:08.672Z</time></trkpt><trkpt lat="44.4415539" lon="11.1264363"><ele>295.0</ele><time>2026-03-22T10:13:09.68Z</time></trkpt><trkpt lat="44.4414091" lon="11.1264108"><ele>295.0</ele><time>2026-03-22T10:13:10.681Z</time></trkpt><trkpt lat="44.441303" lon="11.1263629"><ele>295.0</ele><time>2026-03-22T10:13:11.672Z</time></trkpt><trkpt lat="44.4412001" lon="11.1263555"><ele>293.8</ele><time>2026-03-22T10:13:12.682Z</time></trkpt><trkpt lat="44.4411253" lon="11.1262859"><ele>292.6</ele><time>2026-03-22T10:13:13.701Z</time></trkpt><trkpt lat="44.4410413" lon="11.1262435"><ele>291.4</ele><time>2026-03-22T10:13:14.68Z</time></trkpt><trkpt lat="44.440958" lon="11.1262085"><ele>290.2</ele><time>2026-03-22T10:13:15.68Z</time></trkpt><trkpt lat="44.4408544" lon="11.1261616"><ele>289.0</ele><time>2026-03-22T10:13:16.684Z</time></trkpt><trkpt lat="44.4407517" lon="11.1261491"><ele>289.0</ele><time>2026-03-22T10:13:17.683Z</time></trkpt><trkpt lat="44.440656" lon="11.1261595"><ele>289.0</ele><time>2026-03-22T10:13:18.68Z</time></trkpt><trkpt lat="44.4405489" lon="11.1261854"><ele>289.0</ele><time>2026-03-22T10:13:19.679Z</time></trkpt><trkpt lat="44.4404377" lon="11.1262139"><ele>289.0</ele><time>2026-03-22T10:13:20.687Z</time></trkpt><trkpt lat="44.4403462" lon="11.1262747"><ele>289.0</ele><time>2026-03-22T10:13:21.694Z</time></trkpt><trkpt lat="44.4402597" lon="11.1263465"><ele>286.5</ele><time>2026-03-22T10:13:22.684Z</time></trkpt><trkpt lat="44.4401598" lon="11.1263865"><ele>284.0</ele><time>2026-03-22T10:13:23.683Z</time></trkpt><trkpt lat="44.440045" lon="11.1264287"><ele>281.5</ele><time>2026-03-22T10:13:24.683Z</time></trkpt><trkpt lat="44.4399207" lon="11.1264666"><ele>279.0</ele><time>2026-03-22T10:13:25.687Z</time></trkpt><trkpt lat="44.4397843" lon="11.1265017"><ele>279.0</ele><time>2026-03-22T10:13:26.687Z</time></trkpt><trkpt lat="44.439648" lon="11.1265446"><ele>279.0</ele><time>2026-03-22T10:13:27.683Z</time></trkpt><trkpt lat="44.4395139" lon="11.1265771"><ele>279.0</ele><time>2026-03-22T10:13:28.683Z</time></trkpt><trkpt lat="44.4393715" lon="11.1266153"><ele>279.0</ele><time>2026-03-22T10:13:29.68Z</time></trkpt><trkpt lat="44.4392294" lon="11.1266639"><ele>279.75</ele><time>2026-03-22T10:13:30.686Z</time></trkpt><trkpt lat="44.4390864" lon="11.1267177"><ele>280.5</ele><time>2026-03-22T10:13:31.674Z</time></trkpt><trkpt lat="44.4389524" lon="11.1267682"><ele>281.25</ele><time>2026-03-22T10:13:32.687Z</time></trkpt><trkpt lat="44.4388284" lon="11.1268283"><ele>282.0</ele><time>2026-03-22T10:13:33.68Z</time></trkpt><trkpt lat="44.4387086" lon="11.1268994"><ele>282.0</ele><time>2026-03-22T10:13:34.686Z</time></trkpt><trkpt lat="44.4385939" lon="11.1269766"><ele>282.0</ele><time>2026-03-22T10:13:35.691Z</time></trkpt><trkpt lat="44.4384889" lon="11.1270539"><ele>282.0</ele><time>2026-03-22T10:13:36.685Z</time></trkpt><trkpt lat="44.4383901" lon="11.1271311"><ele>282.0</ele><time>2026-03-22T10:13:37.685Z</time></trkpt><trkpt lat="44.4382965" lon="11.1272018"><ele>282.0</ele><time>2026-03-22T10:13:38.674Z</time></trkpt><trkpt lat="44.4382081" lon="11.1272783"><ele>282.0</ele><time>2026-03-22T10:13:39.686Z</time></trkpt><trkpt lat="44.4381156" lon="11.1273581"><ele>282.0</ele><time>2026-03-22T10:13:40.701Z</time></trkpt><trkpt lat="44.438021" lon="11.1274432"><ele>282.0</ele><time>2026-03-22T10:13:41.691Z</time></trkpt><trkpt lat="44.4379305" lon="11.1275288"><ele>282.0</ele><time>2026-03-22T10:13:42.689Z</time></trkpt><trkpt lat="44.4378454" lon="11.1276139"><ele>281.6</ele><time>2026-03-22T10:13:43.683Z</time></trkpt><trkpt lat="44.437756" lon="11.1276893"><ele>281.2</ele><time>2026-03-22T10:13:44.684Z</time></trkpt><trkpt lat="44.4376616" lon="11.1277392"><ele>280.8</ele><time>2026-03-22T10:13:45.701Z</time></trkpt><trkpt lat="44.4375661" lon="11.1277831"><ele>280.4</ele><time>2026-03-22T10:13:46.691Z</time></trkpt><trkpt lat="44.4374705" lon="11.127806"><ele>280.0</ele><time>2026-03-22T10:13:47.68Z</time></trkpt><trkpt lat="44.4373691" lon="11.12781"><ele>280.0</ele><time>2026-03-22T10:13:48.682Z</time></trkpt><trkpt lat="44.4372872" lon="11.1278337"><ele>280.0</ele><time>2026-03-22T10:13:49.685Z</time></trkpt><trkpt lat="44.437209" lon="11.1278429"><ele>280.0</ele><time>2026-03-22T10:13:51.686Z</time></trkpt><trkpt lat="44.4370996" lon="11.1278703"><ele>280.0</ele><time>2026-03-22T10:14:19.677Z</time></trkpt><trkpt lat="44.4370009" lon="11.1278658"><ele>280.0</ele><time>2026-03-22T10:14:22.678Z</time></trkpt><trkpt lat="44.4369238" lon="11.1278895"><ele>279.8</ele><time>2026-03-22T10:14:24.701Z</time></trkpt><trkpt lat="44.4368407" lon="11.1279024"><ele>279.6</ele><time>2026-03-22T10:14:26.701Z</time></trkpt><trkpt lat="44.4367318" lon="11.1279041"><ele>279.4</ele><time>2026-03-22T10:14:28.682Z</time></trkpt><trkpt lat="44.4366178" lon="11.1279112"><ele>279.2</ele><time>2026-03-22T10:14:30.682Z</time></trkpt><trkpt lat="44.4365146" lon="11.12791"><ele>279.0</ele><time>2026-03-22T10:14:32.682Z</time></trkpt><trkpt lat="44.4363987" lon="11.1279236"><ele>281.0</ele><time>2026-03-22T10:14:34.682Z</time></trkpt><trkpt lat="44.4362818" lon="11.1279315"><ele>283.0</ele><time>2026-03-22T10:14:36.675Z</time></trkpt><trkpt lat="44.4361629" lon="11.127947"><ele>285.0</ele><time>2026-03-22T10:14:38.677Z</time></trkpt><trkpt lat="44.4360702" lon="11.1279641"><ele>287.0</ele><time>2026-03-22T10:14:40.686Z</time></trkpt><trkpt lat="44.4359778" lon="11.1279828"><ele>289.0</ele><time>2026-03-22T10:14:42.689Z</time></trkpt><trkpt lat="44.4358804" lon="11.128003"><ele>289.0</ele><time>2026-03-22T10:14:44.677Z</time></trkpt><trkpt lat="44.4357749" lon="11.1280176"><ele>289.0</ele><time>2026-03-22T10:14:46.701Z</time></trkpt><trkpt lat="44.4356466" lon="11.1280248"><ele>289.0</ele><time>2026-03-22T10:14:48.686Z</time></trkpt><trkpt lat="44.4355344" lon="11.1280049"><ele>289.0</ele><time>2026-03-22T10:14:50.681Z</time></trkpt><trkpt lat="44.4354096" lon="11.1279795"><ele>290.16666666666663</ele><time>2026-03-22T10:14:52.701Z</time></trkpt><trkpt lat="44.435342" lon="11.1279723"><ele>291.3333333333333</ele><time>2026-03-22T10:14:53.686Z</time></trkpt><trkpt lat="44.4352654" lon="11.1279579"><ele>292.5</ele><time>2026-03-22T10:14:54.677Z</time></trkpt><trkpt lat="44.4351879" lon="11.1279343"><ele>293.6666666666667</ele><time>2026-03-22T10:14:55.701Z</time></trkpt><trkpt lat="44.4351087" lon="11.1279075"><ele>294.83333333333337</ele><time>2026-03-22T10:14:56.683Z</time></trkpt><trkpt lat="44.4350274" lon="11.1278852"><ele>296.0</ele><time>2026-03-22T10:14:57.68Z</time></trkpt><trkpt lat="44.434954" lon="11.1278581"><ele>296.0</ele><time>2026-03-22T10:14:58.68Z</time></trkpt><trkpt lat="44.4348819" lon="11.127833"><ele>296.0</ele><time>2026-03-22T10:14:59.689Z</time></trkpt><trkpt lat="44.4348074" lon="11.1278176"><ele>296.0</ele><time>2026-03-22T10:15:00.686Z</time></trkpt><trkpt lat="44.4347395" lon="11.1277957"><ele>296.0</ele><time>2026-03-22T10:15:01.68Z</time></trkpt><trkpt lat="44.4346747" lon="11.1277813"><ele>296.0</ele><time>2026-03-22T10:15:02.684Z</time></trkpt><trkpt lat="44.4345689" lon="11.1277612"><ele>296.0</ele><time>2026-03-22T10:15:04.68Z</time></trkpt><trkpt lat="44.4344901" lon="11.1277268"><ele>299.0</ele><time>2026-03-22T10:15:06.675Z</time></trkpt><trkpt lat="44.4343885" lon="11.1277397"><ele>302.0</ele><time>2026-03-22T10:15:08.68Z</time></trkpt><trkpt lat="44.4343227" lon="11.1277783"><ele>305.0</ele><time>2026-03-22T10:15:09.695Z</time></trkpt><trkpt lat="44.4342588" lon="11.1278766"><ele>308.0</ele><time>2026-03-22T10:15:10.679Z</time></trkpt><trkpt lat="44.4342061" lon="11.1279747"><ele>311.0</ele><time>2026-03-22T10:15:11.69Z</time></trkpt><trkpt lat="44.434157" lon="11.1280946"><ele>311.0</ele><time>2026-03-22T10:15:12.683Z</time></trkpt><trkpt lat="44.4341071" lon="11.1282135"><ele>311.0</ele><time>2026-03-22T10:15:13.69Z</time></trkpt><trkpt lat="44.4340566" lon="11.1283376"><ele>311.0</ele><time>2026-03-22T10:15:14.685Z</time></trkpt><trkpt lat="44.4340018" lon="11.1284663"><ele>311.0</ele><time>2026-03-22T10:15:15.684Z</time></trkpt><trkpt lat="44.4339503" lon="11.1285822"><ele>311.0</ele><time>2026-03-22T10:15:16.688Z</time></trkpt><trkpt lat="44.433898" lon="11.1286942"><ele>311.6</ele><time>2026-03-22T10:15:17.684Z</time></trkpt><trkpt lat="44.4338399" lon="11.1287958"><ele>312.20000000000005</ele><time>2026-03-22T10:15:18.701Z</time></trkpt><trkpt lat="44.4337734" lon="11.1288987"><ele>312.79999999999995</ele><time>2026-03-22T10:15:19.686Z</time></trkpt><trkpt lat="44.4337052" lon="11.1290047"><ele>313.4</ele><time>2026-03-22T10:15:20.684Z</time></trkpt><trkpt lat="44.4336377" lon="11.1291077"><ele>314.0</ele><time>2026-03-22T10:15:21.69Z</time></trkpt><trkpt lat="44.4335673" lon="11.1291996"><ele>310.0</ele><time>2026-03-22T10:15:22.69Z</time></trkpt><trkpt lat="44.4335077" lon="11.1292948"><ele>306.0</ele><time>2026-03-22T10:15:23.687Z</time></trkpt><trkpt lat="44.4334468" lon="11.1293827"><ele>302.0</ele><time>2026-03-22T10:15:24.688Z</time></trkpt><trkpt lat="44.4333978" lon="11.129495"><ele>298.0</ele><time>2026-03-22T10:15:25.685Z</time></trkpt><trkpt lat="44.4333555" lon="11.1296067"><ele>294.0</ele><time>2026-03-22T10:15:26.691Z</time></trkpt><trkpt lat="44.4333336" lon="11.1297188"><ele>290.0</ele><time>2026-03-22T10:15:27.689Z</time></trkpt><trkpt lat="44.4333226" lon="11.1298308"><ele>288.6666666666667</ele><time>2026-03-22T10:15:28.681Z</time></trkpt><trkpt lat="44.4333211" lon="11.1299214"><ele>287.33333333333337</ele><time>2026-03-22T10:15:29.683Z</time></trkpt><trkpt lat="44.4333169" lon="11.1300289"><ele>286.0</ele><time>2026-03-22T10:15:31.701Z</time></trkpt><trkpt lat="44.4332838" lon="11.1301055"><ele>284.6666666666667</ele><time>2026-03-22T10:15:43.701Z</time></trkpt><trkpt lat="44.4331831" lon="11.1301502"><ele>283.3333333333333</ele><time>2026-03-22T10:15:45.688Z</time></trkpt><trkpt lat="44.4330695" lon="11.1301664"><ele>282.0</ele><time>2026-03-22T10:15:46.686Z</time></trkpt><trkpt lat="44.4329269" lon="11.1301889"><ele>282.0</ele><time>2026-03-22T10:15:47.692Z</time></trkpt><trkpt lat="44.4327676" lon="11.1302172"><ele>282.0</ele><time>2026-03-22T10:15:48.674Z</time></trkpt><trkpt lat="44.4325785" lon="11.130253"><ele>282.0</ele><time>2026-03-22T10:15:49.68Z</time></trkpt><trkpt lat="44.4323853" lon="11.1302854"><ele>282.0</ele><time>2026-03-22T10:15:50.692Z</time></trkpt><trkpt lat="44.4322018" lon="11.130316"><ele>282.0</ele><time>2026-03-22T10:15:51.684Z</time></trkpt><trkpt lat="44.4320348" lon="11.1303409"><ele>282.0</ele><time>2026-03-22T10:15:52.681Z</time></trkpt><trkpt lat="44.4318987" lon="11.1303541"><ele>281.8</ele><time>2026-03-22T10:15:53.681Z</time></trkpt><trkpt lat="44.4317727" lon="11.1303674"><ele>281.6</ele><time>2026-03-22T10:15:54.68Z</time></trkpt><trkpt lat="44.4316665" lon="11.1303766"><ele>281.40000000000003</ele><time>2026-03-22T10:15:55.682Z</time></trkpt><trkpt lat="44.4315802" lon="11.1303901"><ele>281.2</ele><time>2026-03-22T10:15:56.68Z</time></trkpt><trkpt lat="44.4314649" lon="11.1304396"><ele>281.0</ele><time>2026-03-22T10:15:58.675Z</time></trkpt><trkpt lat="44.4313814" lon="11.1305385"><ele>281.0</ele><time>2026-03-22T10:16:00.694Z</time></trkpt><trkpt lat="44.4313479" lon="11.1306335"><ele>281.0</ele><time>2026-03-22T10:16:01.685Z</time></trkpt><trkpt lat="44.4313228" lon="11.1307413"><ele>281.0</ele><time>2026-03-22T10:16:02.678Z</time></trkpt><trkpt lat="44.4312997" lon="11.1308518"><ele>281.0</ele><time>2026-03-22T10:16:03.684Z</time></trkpt><trkpt lat="44.4312805" lon="11.1309586"><ele>281.0</ele><time>2026-03-22T10:16:04.683Z</time></trkpt><trkpt lat="44.4312641" lon="11.1310481"><ele>281.0</ele><time>2026-03-22T10:16:05.698Z</time></trkpt><trkpt lat="44.4312464" lon="11.1311794"><ele>281.0</ele><time>2026-03-22T10:16:07.675Z</time></trkpt><trkpt lat="44.4312326" lon="11.1312826"><ele>281.0</ele><time>2026-03-22T10:17:13.689Z</time></trkpt><trkpt lat="44.4312456" lon="11.1314206"><ele>281.0</ele><time>2026-03-22T10:17:15.696Z</time></trkpt><trkpt lat="44.4312642" lon="11.1315191"><ele>281.0</ele><time>2026-03-22T10:17:16.689Z</time></trkpt><trkpt lat="44.431294" lon="11.131636"><ele>281.0</ele><time>2026-03-22T10:17:17.682Z</time></trkpt><trkpt lat="44.431337" lon="11.1317575"><ele>281.0</ele><time>2026-03-22T10:17:18.691Z</time></trkpt><trkpt lat="44.4313881" lon="11.1318824"><ele>281.0</ele><time>2026-03-22T10:17:19.682Z</time></trkpt><trkpt lat="44.4314446" lon="11.1320109"><ele>281.0</ele><time>2026-03-22T10:17:20.683Z</time></trkpt><trkpt lat="44.4314998" lon="11.1321401"><ele>281.0</ele><time>2026-03-22T10:17:21.679Z</time></trkpt><trkpt lat="44.4315592" lon="11.1322739"><ele>281.0</ele><time>2026-03-22T10:17:22.683Z</time></trkpt><trkpt lat="44.4316165" lon="11.1324184"><ele>281.0</ele><time>2026-03-22T10:17:23.686Z</time></trkpt><trkpt lat="44.4316709" lon="11.132564"><ele>278.25</ele><time>2026-03-22T10:17:24.682Z</time></trkpt><trkpt lat="44.4317215" lon="11.1327194"><ele>275.5</ele><time>2026-03-22T10:17:25.683Z</time></trkpt><trkpt lat="44.4317693" lon="11.132874"><ele>272.75</ele><time>2026-03-22T10:17:26.688Z</time></trkpt><trkpt lat="44.431816" lon="11.1330291"><ele>270.0</ele><time>2026-03-22T10:17:27.681Z</time></trkpt><trkpt lat="44.4318552" lon="11.1331836"><ele>269.5</ele><time>2026-03-22T10:17:28.684Z</time></trkpt><trkpt lat="44.4318974" lon="11.1333261"><ele>269.0</ele><time>2026-03-22T10:17:29.683Z</time></trkpt><trkpt lat="44.4319397" lon="11.1334723"><ele>268.5</ele><time>2026-03-22T10:17:30.686Z</time></trkpt><trkpt lat="44.4319858" lon="11.1336194"><ele>268.0</ele><time>2026-03-22T10:17:31.683Z</time></trkpt><trkpt lat="44.4320355" lon="11.1337632"><ele>268.0</ele><time>2026-03-22T10:17:32.693Z</time></trkpt><trkpt lat="44.4320877" lon="11.1338962"><ele>268.0</ele><time>2026-03-22T10:17:33.681Z</time></trkpt><trkpt lat="44.4321387" lon="11.1340039"><ele>268.0</ele><time>2026-03-22T10:17:34.688Z</time></trkpt><trkpt lat="44.4321876" lon="11.1340903"><ele>268.0</ele><time>2026-03-22T10:17:35.687Z</time></trkpt><trkpt lat="44.4322337" lon="11.1341824"><ele>268.0</ele><time>2026-03-22T10:17:37.696Z</time></trkpt><trkpt lat="44.4323037" lon="11.1342887"><ele>270.0</ele><time>2026-03-22T10:17:40.685Z</time></trkpt><trkpt lat="44.4323789" lon="11.134406"><ele>272.0</ele><time>2026-03-22T10:17:42.687Z</time></trkpt><trkpt lat="44.4324343" lon="11.1344733"><ele>274.0</ele><time>2026-03-22T10:17:43.69Z</time></trkpt><trkpt lat="44.4325045" lon="11.1345272"><ele>276.0</ele><time>2026-03-22T10:17:44.701Z</time></trkpt><trkpt lat="44.4325757" lon="11.1345685"><ele>278.0</ele><time>2026-03-22T10:17:45.701Z</time></trkpt><trkpt lat="44.4326504" lon="11.1346123"><ele>280.0</ele><time>2026-03-22T10:17:46.683Z</time></trkpt><trkpt lat="44.4327331" lon="11.134643"><ele>280.0</ele><time>2026-03-22T10:17:47.687Z</time></trkpt><trkpt lat="44.4328157" lon="11.1346809"><ele>280.0</ele><time>2026-03-22T10:17:48.694Z</time></trkpt><trkpt lat="44.4328942" lon="11.1347185"><ele>280.0</ele><time>2026-03-22T10:17:49.686Z</time></trkpt><trkpt lat="44.4329756" lon="11.134756"><ele>280.0</ele><time>2026-03-22T10:17:50.701Z</time></trkpt><trkpt lat="44.4330516" lon="11.1347967"><ele>280.0</ele><time>2026-03-22T10:17:51.701Z</time></trkpt><trkpt lat="44.4331312" lon="11.1348376"><ele>280.0</ele><time>2026-03-22T10:17:52.686Z</time></trkpt><trkpt lat="44.4332226" lon="11.1348752"><ele>277.5</ele><time>2026-03-22T10:17:53.701Z</time></trkpt><trkpt lat="44.4333299" lon="11.1349338"><ele>275.0</ele><time>2026-03-22T10:17:54.686Z</time></trkpt><trkpt lat="44.4334419" lon="11.1349842"><ele>272.5</ele><time>2026-03-22T10:17:55.685Z</time></trkpt><trkpt lat="44.4335483" lon="11.135049"><ele>270.0</ele><time>2026-03-22T10:17:56.692Z</time></trkpt><trkpt lat="44.4336497" lon="11.1351293"><ele>270.0</ele><time>2026-03-22T10:17:57.686Z</time></trkpt><trkpt lat="44.4337551" lon="11.135224"><ele>270.0</ele><time>2026-03-22T10:17:58.691Z</time></trkpt><trkpt lat="44.4338383" lon="11.1353492"><ele>270.0</ele><time>2026-03-22T10:17:59.687Z</time></trkpt><trkpt lat="44.4339004" lon="11.1354986"><ele>270.0</ele><time>2026-03-22T10:18:00.701Z</time></trkpt><trkpt lat="44.4339494" lon="11.135662"><ele>271.2</ele><time>2026-03-22T10:18:01.685Z</time></trkpt><trkpt lat="44.4339925" lon="11.1358108"><ele>272.4</ele><time>2026-03-22T10:18:02.684Z</time></trkpt><trkpt lat="44.4340294" lon="11.1359499"><ele>273.6</ele><time>2026-03-22T10:18:03.701Z</time></trkpt><trkpt lat="44.4340638" lon="11.1360747"><ele>274.8</ele><time>2026-03-22T10:18:04.685Z</time></trkpt><trkpt lat="44.4340944" lon="11.1361875"><ele>276.0</ele><time>2026-03-22T10:18:05.684Z</time></trkpt><trkpt lat="44.4341237" lon="11.1362845"><ele>276.0</ele><time>2026-03-22T10:18:06.684Z</time></trkpt><trkpt lat="44.4341515" lon="11.1363783"><ele>276.0</ele><time>2026-03-22T10:18:07.685Z</time></trkpt><trkpt lat="44.4341816" lon="11.1364616"><ele>276.0</ele><time>2026-03-22T10:18:08.684Z</time></trkpt><trkpt lat="44.4342276" lon="11.1365662"><ele>276.0</ele><time>2026-03-22T10:18:10.701Z</time></trkpt><trkpt lat="44.4342277" lon="11.1366757"><ele>276.0</ele><time>2026-03-22T10:19:06.688Z</time></trkpt><trkpt lat="44.4342378" lon="11.1367898"><ele>276.0</ele><time>2026-03-22T10:19:08.682Z</time></trkpt><trkpt lat="44.434222" lon="11.136983"><ele>273.25</ele><time>2026-03-22T10:19:10.701Z</time></trkpt><trkpt lat="44.4341903" lon="11.137156"><ele>270.5</ele><time>2026-03-22T10:19:11.69Z</time></trkpt><trkpt lat="44.4341141" lon="11.1373432"><ele>267.75</ele><time>2026-03-22T10:19:12.691Z</time></trkpt><trkpt lat="44.4340761" lon="11.1375035"><ele>265.0</ele><time>2026-03-22T10:19:13.701Z</time></trkpt><trkpt lat="44.4340395" lon="11.1376659"><ele>262.75</ele><time>2026-03-22T10:19:14.679Z</time></trkpt><trkpt lat="44.4339998" lon="11.1378277"><ele>260.5</ele><time>2026-03-22T10:19:15.685Z</time></trkpt><trkpt lat="44.4339584" lon="11.1379901"><ele>258.25</ele><time>2026-03-22T10:19:16.674Z</time></trkpt><trkpt lat="44.4339197" lon="11.1381473"><ele>256.0</ele><time>2026-03-22T10:19:17.679Z</time></trkpt><trkpt lat="44.4338859" lon="11.1382828"><ele>254.16666666666666</ele><time>2026-03-22T10:19:18.677Z</time></trkpt><trkpt lat="44.4338522" lon="11.1384078"><ele>252.33333333333331</ele><time>2026-03-22T10:19:19.68Z</time></trkpt><trkpt lat="44.4338177" lon="11.1385256"><ele>250.5</ele><time>2026-03-22T10:19:20.685Z</time></trkpt><trkpt lat="44.4337811" lon="11.1386315"><ele>248.66666666666669</ele><time>2026-03-22T10:19:21.701Z</time></trkpt><trkpt lat="44.4337519" lon="11.1387268"><ele>246.83333333333334</ele><time>2026-03-22T10:19:22.701Z</time></trkpt><trkpt lat="44.4337342" lon="11.1388293"><ele>245.0</ele><time>2026-03-22T10:19:23.693Z</time></trkpt><trkpt lat="44.4337369" lon="11.1389447"><ele>242.2</ele><time>2026-03-22T10:19:24.692Z</time></trkpt><trkpt lat="44.4337581" lon="11.139059"><ele>239.4</ele><time>2026-03-22T10:19:25.683Z</time></trkpt><trkpt lat="44.4337939" lon="11.1391792"><ele>236.60000000000002</ele><time>2026-03-22T10:19:26.689Z</time></trkpt><trkpt lat="44.4338451" lon="11.1392981"><ele>233.8</ele><time>2026-03-22T10:19:27.683Z</time></trkpt><trkpt lat="44.4339096" lon="11.139418"><ele>231.0</ele><time>2026-03-22T10:19:28.678Z</time></trkpt><trkpt lat="44.4339788" lon="11.1395318"><ele>231.0</ele><time>2026-03-22T10:19:29.68Z</time></trkpt><trkpt lat="44.434053" lon="11.1396444"><ele>231.00000000000003</ele><time>2026-03-22T10:19:30.701Z</time></trkpt><trkpt lat="44.4341301" lon="11.1397474"><ele>231.00000000000003</ele><time>2026-03-22T10:19:31.684Z</time></trkpt><trkpt lat="44.4342147" lon="11.1398424"><ele>231.0</ele><time>2026-03-22T10:19:32.679Z</time></trkpt><trkpt lat="44.4343109" lon="11.139934"><ele>231.0</ele><time>2026-03-22T10:19:33.679Z</time></trkpt><trkpt lat="44.4344166" lon="11.1400201"><ele>228.20000000000002</ele><time>2026-03-22T10:19:34.701Z</time></trkpt><trkpt lat="44.434521" lon="11.1400935"><ele>225.40000000000003</ele><time>2026-03-22T10:19:35.701Z</time></trkpt><trkpt lat="44.4346222" lon="11.1401695"><ele>222.6</ele><time>2026-03-22T10:19:36.681Z</time></trkpt><trkpt lat="44.4347077" lon="11.1402347"><ele>219.8</ele><time>2026-03-22T10:19:37.689Z</time></trkpt><trkpt lat="44.4347772" lon="11.1402851"><ele>217.0</ele><time>2026-03-22T10:19:38.691Z</time></trkpt><trkpt lat="44.4348501" lon="11.1403542"><ele>217.0</ele><time>2026-03-22T10:19:40.689Z</time></trkpt><trkpt lat="44.4347983" lon="11.1404623"><ele>217.0</ele><time>2026-03-22T10:19:53.692Z</time></trkpt><trkpt lat="44.4347374" lon="11.1405318"><ele>217.0</ele><time>2026-03-22T10:19:54.692Z</time></trkpt><trkpt lat="44.4346589" lon="11.1406052"><ele>217.0</ele><time>2026-03-22T10:19:55.701Z</time></trkpt><trkpt lat="44.4345806" lon="11.1406739"><ele>217.0</ele><time>2026-03-22T10:19:56.676Z</time></trkpt><trkpt lat="44.4344953" lon="11.1407625"><ele>212.5</ele><time>2026-03-22T10:19:57.676Z</time></trkpt><trkpt lat="44.4343973" lon="11.1408488"><ele>208.0</ele><time>2026-03-22T10:19:58.684Z</time></trkpt><trkpt lat="44.4342969" lon="11.1409494"><ele>203.5</ele><time>2026-03-22T10:19:59.677Z</time></trkpt><trkpt lat="44.4342127" lon="11.1410424"><ele>199.0</ele><time>2026-03-22T10:20:00.681Z</time></trkpt><trkpt lat="44.434127" lon="11.1411462"><ele>199.0</ele><time>2026-03-22T10:20:01.676Z</time></trkpt><trkpt lat="44.434062" lon="11.1412516"><ele>199.0</ele><time>2026-03-22T10:20:02.681Z</time></trkpt><trkpt lat="44.4339897" lon="11.1413444"><ele>199.0</ele><time>2026-03-22T10:20:03.679Z</time></trkpt><trkpt lat="44.4339277" lon="11.1414219"><ele>199.0</ele><time>2026-03-22T10:20:04.678Z</time></trkpt><trkpt lat="44.4338671" lon="11.1414857"><ele>199.0</ele><time>2026-03-22T10:20:05.68Z</time></trkpt><trkpt lat="44.4337749" lon="11.1415263"><ele>198.2</ele><time>2026-03-22T10:20:07.683Z</time></trkpt><trkpt lat="44.4336514" lon="11.1414445"><ele>197.39999999999998</ele><time>2026-03-22T10:20:09.68Z</time></trkpt><trkpt lat="44.4335758" lon="11.1413708"><ele>196.6</ele><time>2026-03-22T10:20:10.683Z</time></trkpt><trkpt lat="44.4334941" lon="11.1412972"><ele>195.8</ele><time>2026-03-22T10:20:11.687Z</time></trkpt><trkpt lat="44.4334251" lon="11.1412415"><ele>195.0</ele><time>2026-03-22T10:20:12.684Z</time></trkpt><trkpt lat="44.4333663" lon="11.1411853"><ele>195.0</ele><time>2026-03-22T10:20:13.688Z</time></trkpt><trkpt lat="44.4332871" lon="11.141112"><ele>195.0</ele><time>2026-03-22T10:20:15.682Z</time></trkpt><trkpt lat="44.4331977" lon="11.1411078"><ele>195.0</ele><time>2026-03-22T10:20:17.701Z</time></trkpt><trkpt lat="44.4330923" lon="11.1411783"><ele>195.0</ele><time>2026-03-22T10:20:19.686Z</time></trkpt><trkpt lat="44.43301" lon="11.1413051"><ele>195.0</ele><time>2026-03-22T10:20:21.684Z</time></trkpt><trkpt lat="44.4329699" lon="11.1413816"><ele>192.66666666666666</ele><time>2026-03-22T10:20:22.675Z</time></trkpt><trkpt lat="44.432922" lon="11.1414541"><ele>190.33333333333334</ele><time>2026-03-22T10:20:23.682Z</time></trkpt><trkpt lat="44.4328844" lon="11.1415368"><ele>188.0</ele><time>2026-03-22T10:20:24.701Z</time></trkpt><trkpt lat="44.4328345" lon="11.1416238"><ele>185.66666666666669</ele><time>2026-03-22T10:20:25.675Z</time></trkpt><trkpt lat="44.4327797" lon="11.1417134"><ele>183.33333333333334</ele><time>2026-03-22T10:20:26.686Z</time></trkpt><trkpt lat="44.4327375" lon="11.1417938"><ele>181.0</ele><time>2026-03-22T10:20:27.689Z</time></trkpt><trkpt lat="44.4327006" lon="11.1418918"><ele>179.5</ele><time>2026-03-22T10:20:28.679Z</time></trkpt><trkpt lat="44.4326657" lon="11.1419718"><ele>178.0</ele><time>2026-03-22T10:20:29.701Z</time></trkpt><trkpt lat="44.4326304" lon="11.1420633"><ele>176.5</ele><time>2026-03-22T10:20:30.69Z</time></trkpt><trkpt lat="44.4326127" lon="11.1421547"><ele>175.0</ele><time>2026-03-22T10:20:31.682Z</time></trkpt><trkpt lat="44.432577" lon="11.1422906"><ele>173.5</ele><time>2026-03-22T10:20:33.682Z</time></trkpt><trkpt lat="44.4325662" lon="11.1423854"><ele>172.0</ele><time>2026-03-22T10:20:35.687Z</time></trkpt><trkpt lat="44.4325216" lon="11.1424587"><ele>171.83333333333334</ele><time>2026-03-22T10:20:39.688Z</time></trkpt><trkpt lat="44.4324894" lon="11.1425527"><ele>171.66666666666669</ele><time>2026-03-22T10:20:44.68Z</time></trkpt><trkpt lat="44.4324389" lon="11.1426188"><ele>171.5</ele><time>2026-03-22T10:20:46.701Z</time></trkpt><trkpt lat="44.4323606" lon="11.1425934"><ele>171.33333333333334</ele><time>2026-03-22T10:21:27.681Z</time></trkpt><trkpt lat="44.432277" lon="11.1425595"><ele>171.16666666666666</ele><time>2026-03-22T10:21:30.701Z</time></trkpt><trkpt lat="44.4322109" lon="11.1424898"><ele>171.0</ele><time>2026-03-22T10:21:32.684Z</time></trkpt><trkpt lat="44.4321202" lon="11.1423167"><ele>171.5</ele><time>2026-03-22T10:21:34.679Z</time></trkpt><trkpt lat="44.4320703" lon="11.1422245"><ele>172.0</ele><time>2026-03-22T10:21:35.677Z</time></trkpt><trkpt lat="44.4320383" lon="11.142147"><ele>172.5</ele><time>2026-03-22T10:21:36.677Z</time></trkpt><trkpt lat="44.4319609" lon="11.1420436"><ele>173.0</ele><time>2026-03-22T10:21:38.701Z</time></trkpt><trkpt lat="44.4319069" lon="11.1419656"><ele>173.5</ele><time>2026-03-22T10:21:41.675Z</time></trkpt><trkpt lat="44.4318256" lon="11.1420213"><ele>174.0</ele><time>2026-03-22T10:21:57.694Z</time></trkpt><trkpt lat="44.4317623" lon="11.1420455"><ele>174.0</ele><time>2026-03-22T10:21:59.685Z</time></trkpt><trkpt lat="44.4316992" lon="11.1419812"><ele>174.0</ele><time>2026-03-22T10:22:01.701Z</time></trkpt><trkpt lat="44.4316276" lon="11.1418814"><ele>174.0</ele><time>2026-03-22T10:22:03.675Z</time></trkpt><trkpt lat="44.4315961" lon="11.1417752"><ele>174.0</ele><time>2026-03-22T10:22:05.701Z</time></trkpt><trkpt lat="44.4315967" lon="11.1416564"><ele>174.0</ele><time>2026-03-22T10:22:07.679Z</time></trkpt><trkpt lat="44.4315887" lon="11.1415423"><ele>174.0</ele><time>2026-03-22T10:22:09.701Z</time></trkpt><trkpt lat="44.4315092" lon="11.1415041"><ele>174.0</ele><time>2026-03-22T10:22:20.674Z</time></trkpt><trkpt lat="44.4314473" lon="11.141473"><ele>174.0</ele><time>2026-03-22T10:22:23.685Z</time></trkpt><trkpt lat="44.4313878" lon="11.1415212"><ele>174.0</ele><time>2026-03-22T10:22:26.701Z</time></trkpt><trkpt lat="44.4313497" lon="11.1416017"><ele>174.0</ele><time>2026-03-22T10:22:29.69Z</time></trkpt><trkpt lat="44.4312766" lon="11.1416217"><ele>174.0</ele><time>2026-03-22T10:22:32.701Z</time></trkpt><trkpt lat="44.4312051" lon="11.1416499"><ele>174.0</ele><time>2026-03-22T10:22:38.701Z</time></trkpt><trkpt lat="44.431134" lon="11.141736"><ele>174.0</ele><time>2026-03-22T10:22:41.701Z</time></trkpt><trkpt lat="44.4310721" lon="11.1418194"><ele>175.0</ele><time>2026-03-22T10:22:43.701Z</time></trkpt><trkpt lat="44.4310042" lon="11.1418935"><ele>176.0</ele><time>2026-03-22T10:22:45.701Z</time></trkpt><trkpt lat="44.4309525" lon="11.1419475"><ele>177.0</ele><time>2026-03-22T10:22:47.701Z</time></trkpt><trkpt lat="44.4308482" lon="11.1420279"><ele>178.0</ele><time>2026-03-22T10:22:50.701Z</time></trkpt><trkpt lat="44.430768" lon="11.1420686"><ele>179.0</ele><time>2026-03-22T10:22:53.701Z</time></trkpt><trkpt lat="44.4307028" lon="11.1421149"><ele>180.0</ele><time>2026-03-22T10:22:55.687Z</time></trkpt><trkpt lat="44.4306116" lon="11.142164"><ele>180.0</ele><time>2026-03-22T10:22:57.701Z</time></trkpt><trkpt lat="44.4305188" lon="11.1421772"><ele>180.0</ele><time>2026-03-22T10:22:59.701Z</time></trkpt><trkpt lat="44.430437" lon="11.1421989"><ele>180.0</ele><time>2026-03-22T10:23:01.701Z</time></trkpt><trkpt lat="44.4303623" lon="11.1422256"><ele>180.0</ele><time>2026-03-22T10:23:03.701Z</time></trkpt><trkpt lat="44.4302953" lon="11.1422768"><ele>180.0</ele><time>2026-03-22T10:23:05.687Z</time></trkpt><trkpt lat="44.4302332" lon="11.1423332"><ele>180.0</ele><time>2026-03-22T10:23:07.683Z</time></trkpt><trkpt lat="44.4301714" lon="11.1423807"><ele>184.83333333333334</ele><time>2026-03-22T10:23:09.689Z</time></trkpt><trkpt lat="44.4301062" lon="11.1424098"><ele>189.66666666666669</ele><time>2026-03-22T10:23:11.701Z</time></trkpt><trkpt lat="44.4300353" lon="11.1424229"><ele>194.5</ele><time>2026-03-22T10:23:13.701Z</time></trkpt><trkpt lat="44.4299653" lon="11.1424276"><ele>199.33333333333334</ele><time>2026-03-22T10:23:15.701Z</time></trkpt><trkpt lat="44.4298825" lon="11.1424211"><ele>204.16666666666669</ele><time>2026-03-22T10:23:17.701Z</time></trkpt><trkpt lat="44.4297969" lon="11.1424161"><ele>209.0</ele><time>2026-03-22T10:23:19.701Z</time></trkpt><trkpt lat="44.4297171" lon="11.1424015"><ele>213.16666666666669</ele><time>2026-03-22T10:23:21.701Z</time></trkpt><trkpt lat="44.4296032" lon="11.1424056"><ele>217.33333333333334</ele><time>2026-03-22T10:23:24.701Z</time></trkpt><trkpt lat="44.4295221" lon="11.1423499"><ele>221.5</ele><time>2026-03-22T10:23:26.701Z</time></trkpt><trkpt lat="44.4294403" lon="11.142378"><ele>225.66666666666669</ele><time>2026-03-22T10:23:28.684Z</time></trkpt><trkpt lat="44.429398" lon="11.1424565"><ele>229.83333333333334</ele><time>2026-03-22T10:23:30.701Z</time></trkpt><trkpt lat="44.4293368" lon="11.1425476"><ele>234.0</ele><time>2026-03-22T10:23:32.701Z</time></trkpt><trkpt lat="44.4293019" lon="11.142635"><ele>235.83333333333334</ele><time>2026-03-22T10:23:33.701Z</time></trkpt><trkpt lat="44.4292663" lon="11.1427655"><ele>237.66666666666669</ele><time>2026-03-22T10:23:35.701Z</time></trkpt><trkpt lat="44.4292354" lon="11.1428792"><ele>239.5</ele><time>2026-03-22T10:23:37.686Z</time></trkpt><trkpt lat="44.4292099" lon="11.1429607"><ele>241.33333333333334</ele><time>2026-03-22T10:23:38.691Z</time></trkpt><trkpt lat="44.429164" lon="11.1430653"><ele>243.16666666666669</ele><time>2026-03-22T10:23:40.701Z</time></trkpt><trkpt lat="44.4291335" lon="11.1431577"><ele>245.0</ele><time>2026-03-22T10:23:43.688Z</time></trkpt><trkpt lat="44.429152" lon="11.1432718"><ele>245.83333333333334</ele><time>2026-03-22T10:23:45.687Z</time></trkpt><trkpt lat="44.4291312" lon="11.1433556"><ele>246.66666666666669</ele><time>2026-03-22T10:23:46.701Z</time></trkpt><trkpt lat="44.4291097" lon="11.1434401"><ele>247.5</ele><time>2026-03-22T10:23:47.701Z</time></trkpt><trkpt lat="44.4290657" lon="11.1435508"><ele>248.33333333333331</ele><time>2026-03-22T10:23:49.687Z</time></trkpt><trkpt lat="44.429025" lon="11.1436668"><ele>249.16666666666666</ele><time>2026-03-22T10:23:51.677Z</time></trkpt><trkpt lat="44.4289682" lon="11.1437884"><ele>250.0</ele><time>2026-03-22T10:23:53.701Z</time></trkpt><trkpt lat="44.4289259" lon="11.1439115"><ele>250.0</ele><time>2026-03-22T10:23:55.701Z</time></trkpt><trkpt lat="44.428879" lon="11.1440465"><ele>250.0</ele><time>2026-03-22T10:23:57.682Z</time></trkpt><trkpt lat="44.4288564" lon="11.1441682"><ele>250.0</ele><time>2026-03-22T10:23:58.682Z</time></trkpt><trkpt lat="44.428846" lon="11.1442836"><ele>250.0</ele><time>2026-03-22T10:23:59.701Z</time></trkpt><trkpt lat="44.4288368" lon="11.1443999"><ele>250.0</ele><time>2026-03-22T10:24:00.701Z</time></trkpt><trkpt lat="44.4288216" lon="11.1445239"><ele>250.49999999999997</ele><time>2026-03-22T10:24:01.678Z</time></trkpt><trkpt lat="44.4288105" lon="11.1446266"><ele>251.0</ele><time>2026-03-22T10:24:02.701Z</time></trkpt><trkpt lat="44.4287908" lon="11.1447429"><ele>251.5</ele><time>2026-03-22T10:24:03.695Z</time></trkpt><trkpt lat="44.4287743" lon="11.1448283"><ele>252.0</ele><time>2026-03-22T10:24:04.701Z</time></trkpt><trkpt lat="44.4287316" lon="11.1449281"><ele>252.49999999999997</ele><time>2026-03-22T10:24:10.701Z</time></trkpt><trkpt lat="44.4287112" lon="11.1450127"><ele>253.0</ele><time>2026-03-22T10:24:13.701Z</time></trkpt><trkpt lat="44.4286891" lon="11.1451361"><ele>256.8333333333333</ele><time>2026-03-22T10:24:16.701Z</time></trkpt><trkpt lat="44.4286733" lon="11.1452233"><ele>260.66666666666663</ele><time>2026-03-22T10:24:18.695Z</time></trkpt><trkpt lat="44.4286272" lon="11.1453303"><ele>264.5</ele><time>2026-03-22T10:24:21.701Z</time></trkpt><trkpt lat="44.4285855" lon="11.1454242"><ele>268.3333333333333</ele><time>2026-03-22T10:24:24.684Z</time></trkpt><trkpt lat="44.4285932" lon="11.1455239"><ele>272.1666666666667</ele><time>2026-03-22T10:24:27.701Z</time></trkpt><trkpt lat="44.4286041" lon="11.1454124"><ele>276.0</ele><time>2026-03-22T10:26:19.701Z</time></trkpt><trkpt lat="44.4285663" lon="11.1453102"><ele>276.0</ele><time>2026-03-22T10:26:21.701Z</time></trkpt><trkpt lat="44.4285136" lon="11.1451796"><ele>276.0</ele><time>2026-03-22T10:26:23.685Z</time></trkpt><trkpt lat="44.4284517" lon="11.1450713"><ele>276.0</ele><time>2026-03-22T10:26:25.681Z</time></trkpt><trkpt lat="44.4283842" lon="11.1449598"><ele>276.0</ele><time>2026-03-22T10:26:27.701Z</time></trkpt><trkpt lat="44.4283687" lon="11.1448634"><ele>276.0</ele><time>2026-03-22T10:26:29.688Z</time></trkpt><trkpt lat="44.4283853" lon="11.1447338"><ele>274.6</ele><time>2026-03-22T10:26:31.701Z</time></trkpt><trkpt lat="44.4284346" lon="11.1445789"><ele>273.20000000000005</ele><time>2026-03-22T10:26:33.691Z</time></trkpt><trkpt lat="44.4284582" lon="11.1444694"><ele>271.79999999999995</ele><time>2026-03-22T10:26:34.683Z</time></trkpt><trkpt lat="44.4285479" lon="11.1443754"><ele>270.4</ele><time>2026-03-22T10:26:35.701Z</time></trkpt><trkpt lat="44.4285894" lon="11.144252"><ele>269.0</ele><time>2026-03-22T10:26:36.701Z</time></trkpt><trkpt lat="44.428639" lon="11.1441419"><ele>266.83333333333337</ele><time>2026-03-22T10:26:37.701Z</time></trkpt><trkpt lat="44.4286404" lon="11.1440375"><ele>264.6666666666667</ele><time>2026-03-22T10:26:38.701Z</time></trkpt><trkpt lat="44.4286458" lon="11.1439311"><ele>262.5</ele><time>2026-03-22T10:26:39.701Z</time></trkpt><trkpt lat="44.4286591" lon="11.1437774"><ele>260.3333333333333</ele><time>2026-03-22T10:26:40.687Z</time></trkpt><trkpt lat="44.4286492" lon="11.1436721"><ele>258.16666666666663</ele><time>2026-03-22T10:26:41.701Z</time></trkpt><trkpt lat="44.4286529" lon="11.1435781"><ele>256.0</ele><time>2026-03-22T10:26:42.684Z</time></trkpt><trkpt lat="44.4286699" lon="11.143468"><ele>256.0</ele><time>2026-03-22T10:26:43.68Z</time></trkpt><trkpt lat="44.4287004" lon="11.1433219"><ele>256.0</ele><time>2026-03-22T10:26:44.68Z</time></trkpt><trkpt lat="44.4287158" lon="11.143208"><ele>256.0</ele><time>2026-03-22T10:26:45.68Z</time></trkpt><trkpt lat="44.4287234" lon="11.1431074"><ele>256.0</ele><time>2026-03-22T10:26:46.679Z</time></trkpt><trkpt lat="44.4287411" lon="11.1429888"><ele>256.0</ele><time>2026-03-22T10:26:47.701Z</time></trkpt><trkpt lat="44.4287457" lon="11.1428382"><ele>254.99999999999997</ele><time>2026-03-22T10:26:48.676Z</time></trkpt><trkpt lat="44.4287539" lon="11.1427156"><ele>254.0</ele><time>2026-03-22T10:26:49.685Z</time></trkpt><trkpt lat="44.428756" lon="11.1425998"><ele>253.0</ele><time>2026-03-22T10:26:50.687Z</time></trkpt><trkpt lat="44.4287561" lon="11.1424842"><ele>252.0</ele><time>2026-03-22T10:26:51.701Z</time></trkpt><trkpt lat="44.4287587" lon="11.1423884"><ele>250.99999999999997</ele><time>2026-03-22T10:26:52.701Z</time></trkpt><trkpt lat="44.4287502" lon="11.1422343"><ele>250.0</ele><time>2026-03-22T10:26:54.701Z</time></trkpt><trkpt lat="44.4287365" lon="11.1421019"><ele>249.99999999999997</ele><time>2026-03-22T10:26:56.68Z</time></trkpt><trkpt lat="44.4287698" lon="11.142199"><ele>250.0</ele><time>2026-03-22T10:27:20.701Z</time></trkpt><trkpt lat="44.4287552" lon="11.1423321"><ele>250.0</ele><time>2026-03-22T10:27:22.701Z</time></trkpt><trkpt lat="44.4287453" lon="11.1424604"><ele>250.0</ele><time>2026-03-22T10:27:24.701Z</time></trkpt><trkpt lat="44.4287495" lon="11.1425975"><ele>249.99999999999997</ele><time>2026-03-22T10:27:26.687Z</time></trkpt><trkpt lat="44.428794" lon="11.1426616"><ele>250.0</ele><time>2026-03-22T10:27:29.683Z</time></trkpt><trkpt lat="44.4287113" lon="11.1426669"><ele>249.99999999999997</ele><time>2026-03-22T10:27:43.673Z</time></trkpt><trkpt lat="44.4286475" lon="11.1426082"><ele>250.0</ele><time>2026-03-22T10:27:46.701Z</time></trkpt><trkpt lat="44.428589" lon="11.1425751"><ele>250.0</ele><time>2026-03-22T10:27:48.701Z</time></trkpt><trkpt lat="44.4285605" lon="11.1424638"><ele>250.0</ele><time>2026-03-22T10:27:51.674Z</time></trkpt><trkpt lat="44.4286159" lon="11.1424217"><ele>249.99999999999997</ele><time>2026-03-22T10:27:52.701Z</time></trkpt><trkpt lat="44.4286943" lon="11.1424929"><ele>250.0</ele><time>2026-03-22T10:27:54.684Z</time></trkpt><trkpt lat="44.4287172" lon="11.1425946"><ele>250.0</ele><time>2026-03-22T10:27:55.68Z</time></trkpt><trkpt lat="44.4287336" lon="11.1426815"><ele>250.0</ele><time>2026-03-22T10:27:57.681Z</time></trkpt><trkpt lat="44.428754" lon="11.1427883"><ele>250.0</ele><time>2026-03-22T10:28:21.682Z</time></trkpt><trkpt lat="44.4287388" lon="11.1429793"><ele>250.0</ele><time>2026-03-22T10:28:23.683Z</time></trkpt><trkpt lat="44.4287194" lon="11.1431138"><ele>250.0</ele><time>2026-03-22T10:28:24.683Z</time></trkpt><trkpt lat="44.4287009" lon="11.1432545"><ele>250.99999999999997</ele><time>2026-03-22T10:28:25.674Z</time></trkpt><trkpt lat="44.4286778" lon="11.1433802"><ele>252.0</ele><time>2026-03-22T10:28:26.698Z</time></trkpt><trkpt lat="44.4286643" lon="11.1434942"><ele>253.0</ele><time>2026-03-22T10:28:27.684Z</time></trkpt><trkpt lat="44.4286605" lon="11.1436009"><ele>254.0</ele><time>2026-03-22T10:28:28.701Z</time></trkpt><trkpt lat="44.4286599" lon="11.1437165"><ele>254.99999999999997</ele><time>2026-03-22T10:28:29.685Z</time></trkpt><trkpt lat="44.4286676" lon="11.1438618"><ele>256.0</ele><time>2026-03-22T10:28:30.701Z</time></trkpt><trkpt lat="44.428643" lon="11.144"><ele>258.16666666666663</ele><time>2026-03-22T10:28:31.701Z</time></trkpt><trkpt lat="44.4286301" lon="11.1440983"><ele>260.3333333333333</ele><time>2026-03-22T10:28:32.681Z</time></trkpt><trkpt lat="44.4285938" lon="11.14421"><ele>262.5</ele><time>2026-03-22T10:28:33.685Z</time></trkpt><trkpt lat="44.4285566" lon="11.1443272"><ele>264.6666666666667</ele><time>2026-03-22T10:28:34.684Z</time></trkpt><trkpt lat="44.4285151" lon="11.1444229"><ele>266.83333333333337</ele><time>2026-03-22T10:28:35.701Z</time></trkpt><trkpt lat="44.4284701" lon="11.1445093"><ele>269.0</ele><time>2026-03-22T10:28:36.677Z</time></trkpt><trkpt lat="44.4284197" lon="11.1446316"><ele>269.0</ele><time>2026-03-22T10:28:37.681Z</time></trkpt><trkpt lat="44.4284015" lon="11.1447377"><ele>269.0</ele><time>2026-03-22T10:28:38.679Z</time></trkpt><trkpt lat="44.4284159" lon="11.1448363"><ele>269.0</ele><time>2026-03-22T10:28:39.701Z</time></trkpt><trkpt lat="44.428447" lon="11.144928"><ele>269.0</ele><time>2026-03-22T10:28:40.701Z</time></trkpt><trkpt lat="44.4285021" lon="11.1449956"><ele>269.0</ele><time>2026-03-22T10:28:41.701Z</time></trkpt><trkpt lat="44.4285429" lon="11.145069"><ele>269.0</ele><time>2026-03-22T10:28:42.701Z</time></trkpt><trkpt lat="44.4285763" lon="11.1451582"><ele>269.0</ele><time>2026-03-22T10:28:43.684Z</time></trkpt><trkpt lat="44.4286099" lon="11.1452449"><ele>269.59999999999997</ele><time>2026-03-22T10:28:44.701Z</time></trkpt><trkpt lat="44.4286315" lon="11.1453376"><ele>270.2</ele><time>2026-03-22T10:28:45.678Z</time></trkpt><trkpt lat="44.4286443" lon="11.1455277"><ele>270.79999999999995</ele><time>2026-03-22T10:28:47.701Z</time></trkpt><trkpt lat="44.4286429" lon="11.1456655"><ele>271.4</ele><time>2026-03-22T10:28:48.701Z</time></trkpt><trkpt lat="44.4286594" lon="11.1458078"><ele>272.0</ele><time>2026-03-22T10:28:49.701Z</time></trkpt><trkpt lat="44.4286814" lon="11.1459636"><ele>272.0</ele><time>2026-03-22T10:28:50.701Z</time></trkpt><trkpt lat="44.4287164" lon="11.1461061"><ele>272.0</ele><time>2026-03-22T10:28:51.701Z</time></trkpt><trkpt lat="44.4287682" lon="11.1462744"><ele>272.0</ele><time>2026-03-22T10:28:52.701Z</time></trkpt><trkpt lat="44.4288358" lon="11.1464491"><ele>272.0</ele><time>2026-03-22T10:28:53.701Z</time></trkpt><trkpt lat="44.4288993" lon="11.146609"><ele>270.25</ele><time>2026-03-22T10:28:54.677Z</time></trkpt><trkpt lat="44.4289597" lon="11.1467665"><ele>268.5</ele><time>2026-03-22T10:28:55.68Z</time></trkpt><trkpt lat="44.4290223" lon="11.1469129"><ele>266.75</ele><time>2026-03-22T10:28:56.701Z</time></trkpt><trkpt lat="44.4290764" lon="11.1470629"><ele>265.0</ele><time>2026-03-22T10:28:57.701Z</time></trkpt><trkpt lat="44.4291271" lon="11.1472071"><ele>265.0</ele><time>2026-03-22T10:28:58.701Z</time></trkpt><trkpt lat="44.4291779" lon="11.1473216"><ele>265.0</ele><time>2026-03-22T10:28:59.699Z</time></trkpt><trkpt lat="44.4292338" lon="11.147405"><ele>265.0</ele><time>2026-03-22T10:29:00.701Z</time></trkpt><trkpt lat="44.4292827" lon="11.1475528"><ele>265.0</ele><time>2026-03-22T10:29:02.701Z</time></trkpt><trkpt lat="44.4292694" lon="11.1476402"><ele>265.0</ele><time>2026-03-22T10:29:03.701Z</time></trkpt><trkpt lat="44.4292778" lon="11.1477944"><ele>264.8</ele><time>2026-03-22T10:29:05.677Z</time></trkpt><trkpt lat="44.4293007" lon="11.1478783"><ele>264.6</ele><time>2026-03-22T10:29:06.701Z</time></trkpt><trkpt lat="44.4293251" lon="11.1479727"><ele>264.4</ele><time>2026-03-22T10:29:07.701Z</time></trkpt><trkpt lat="44.4293737" lon="11.1480766"><ele>264.2</ele><time>2026-03-22T10:29:08.678Z</time></trkpt><trkpt lat="44.4294373" lon="11.1481915"><ele>264.0</ele><time>2026-03-22T10:29:09.701Z</time></trkpt><trkpt lat="44.4295202" lon="11.1483327"><ele>264.0</ele><time>2026-03-22T10:29:10.701Z</time></trkpt><trkpt lat="44.4296114" lon="11.1484738"><ele>264.0</ele><time>2026-03-22T10:29:11.684Z</time></trkpt><trkpt lat="44.4296912" lon="11.148609"><ele>264.0</ele><time>2026-03-22T10:29:12.701Z</time></trkpt><trkpt lat="44.4297653" lon="11.1487348"><ele>264.0</ele><time>2026-03-22T10:29:13.701Z</time></trkpt><trkpt lat="44.4298384" lon="11.1488227"><ele>264.25</ele><time>2026-03-22T10:29:14.701Z</time></trkpt><trkpt lat="44.4299145" lon="11.1489027"><ele>264.5</ele><time>2026-03-22T10:29:15.701Z</time></trkpt><trkpt lat="44.4299991" lon="11.1490052"><ele>264.75</ele><time>2026-03-22T10:29:16.701Z</time></trkpt><trkpt lat="44.4300851" lon="11.1491147"><ele>265.0</ele><time>2026-03-22T10:29:17.701Z</time></trkpt><trkpt lat="44.4301733" lon="11.1492542"><ele>266.75</ele><time>2026-03-22T10:29:18.701Z</time></trkpt><trkpt lat="44.4302639" lon="11.1493945"><ele>268.5</ele><time>2026-03-22T10:29:19.701Z</time></trkpt><trkpt lat="44.4303422" lon="11.1495317"><ele>270.25</ele><time>2026-03-22T10:29:20.701Z</time></trkpt><trkpt lat="44.4303989" lon="11.1496403"><ele>272.0</ele><time>2026-03-22T10:29:21.701Z</time></trkpt><trkpt lat="44.4304482" lon="11.1497526"><ele>271.6666666666667</ele><time>2026-03-22T10:29:22.701Z</time></trkpt><trkpt lat="44.4304781" lon="11.1498603"><ele>271.33333333333337</ele><time>2026-03-22T10:29:23.701Z</time></trkpt><trkpt lat="44.430513" lon="11.1499673"><ele>271.0</ele><time>2026-03-22T10:29:24.688Z</time></trkpt><trkpt lat="44.4305269" lon="11.1500718"><ele>270.6666666666667</ele><time>2026-03-22T10:29:25.701Z</time></trkpt><trkpt lat="44.4305454" lon="11.1501864"><ele>270.3333333333333</ele><time>2026-03-22T10:29:26.701Z</time></trkpt><trkpt lat="44.4305522" lon="11.1503093"><ele>270.0</ele><time>2026-03-22T10:29:27.701Z</time></trkpt><trkpt lat="44.4305602" lon="11.1504643"><ele>272.75</ele><time>2026-03-22T10:29:28.685Z</time></trkpt><trkpt lat="44.4305457" lon="11.1506114"><ele>275.5</ele><time>2026-03-22T10:29:29.701Z</time></trkpt><trkpt lat="44.4305381" lon="11.150768"><ele>278.25</ele><time>2026-03-22T10:29:30.689Z</time></trkpt><trkpt lat="44.4305271" lon="11.150932"><ele>281.0</ele><time>2026-03-22T10:29:31.701Z</time></trkpt><trkpt lat="44.4305254" lon="11.1511141"><ele>283.5</ele><time>2026-03-22T10:29:32.701Z</time></trkpt><trkpt lat="44.4305281" lon="11.1513089"><ele>286.0</ele><time>2026-03-22T10:29:33.701Z</time></trkpt><trkpt lat="44.4305291" lon="11.1514976"><ele>288.5</ele><time>2026-03-22T10:29:34.701Z</time></trkpt><trkpt lat="44.4305351" lon="11.1516649"><ele>291.0</ele><time>2026-03-22T10:29:35.701Z</time></trkpt><trkpt lat="44.4305342" lon="11.1518362"><ele>293.0</ele><time>2026-03-22T10:29:36.701Z</time></trkpt><trkpt lat="44.4305207" lon="11.1519784"><ele>295.0</ele><time>2026-03-22T10:29:37.701Z</time></trkpt><trkpt lat="44.4305156" lon="11.1520968"><ele>297.0</ele><time>2026-03-22T10:29:38.701Z</time></trkpt><trkpt lat="44.4305241" lon="11.1522079"><ele>299.0</ele><time>2026-03-22T10:29:39.684Z</time></trkpt><trkpt lat="44.4305437" lon="11.1523107"><ele>301.0</ele><time>2026-03-22T10:29:40.701Z</time></trkpt><trkpt lat="44.4305644" lon="11.1524326"><ele>303.0</ele><time>2026-03-22T10:29:41.701Z</time></trkpt><trkpt lat="44.4305927" lon="11.1525535"><ele>304.2</ele><time>2026-03-22T10:29:42.701Z</time></trkpt><trkpt lat="44.4306365" lon="11.152675"><ele>305.4</ele><time>2026-03-22T10:29:43.698Z</time></trkpt><trkpt lat="44.430695" lon="11.1527892"><ele>306.59999999999997</ele><time>2026-03-22T10:29:44.701Z</time></trkpt><trkpt lat="44.4307573" lon="11.1529018"><ele>307.8</ele><time>2026-03-22T10:29:45.701Z</time></trkpt><trkpt lat="44.4308102" lon="11.1530282"><ele>309.0</ele><time>2026-03-22T10:29:46.684Z</time></trkpt><trkpt lat="44.4308561" lon="11.1531591"><ele>309.2</ele><time>2026-03-22T10:29:47.701Z</time></trkpt><trkpt lat="44.4308998" lon="11.1532794"><ele>309.4</ele><time>2026-03-22T10:29:48.701Z</time></trkpt><trkpt lat="44.4309578" lon="11.1533893"><ele>309.6</ele><time>2026-03-22T10:29:49.701Z</time></trkpt><trkpt lat="44.4310237" lon="11.1534906"><ele>309.8</ele><time>2026-03-22T10:29:50.701Z</time></trkpt><trkpt lat="44.4310807" lon="11.1535866"><ele>310.0</ele><time>2026-03-22T10:29:51.701Z</time></trkpt><trkpt lat="44.431138" lon="11.1536662"><ele>310.0</ele><time>2026-03-22T10:29:52.701Z</time></trkpt><trkpt lat="44.4312084" lon="11.1537676"><ele>310.0</ele><time>2026-03-22T10:29:54.678Z</time></trkpt><trkpt lat="44.4312773" lon="11.1538209"><ele>310.0</ele><time>2026-03-22T10:30:21.685Z</time></trkpt><trkpt lat="44.4313634" lon="11.1538047"><ele>310.0</ele><time>2026-03-22T10:30:23.701Z</time></trkpt><trkpt lat="44.4314618" lon="11.1537286"><ele>310.0</ele><time>2026-03-22T10:30:25.688Z</time></trkpt><trkpt lat="44.4315423" lon="11.1536098"><ele>308.57142857142856</ele><time>2026-03-22T10:30:27.681Z</time></trkpt><trkpt lat="44.4315825" lon="11.1535339"><ele>307.1428571428571</ele><time>2026-03-22T10:30:28.684Z</time></trkpt><trkpt lat="44.4316146" lon="11.1534557"><ele>305.71428571428567</ele><time>2026-03-22T10:30:29.701Z</time></trkpt><trkpt lat="44.4316499" lon="11.1533657"><ele>304.2857142857143</ele><time>2026-03-22T10:30:30.681Z</time></trkpt><trkpt lat="44.4317039" lon="11.1532998"><ele>302.85714285714283</ele><time>2026-03-22T10:30:31.682Z</time></trkpt><trkpt lat="44.4317662" lon="11.1532455"><ele>301.4285714285714</ele><time>2026-03-22T10:30:32.701Z</time></trkpt><trkpt lat="44.4318246" lon="11.1531817"><ele>300.0</ele><time>2026-03-22T10:30:33.685Z</time></trkpt><trkpt lat="44.4318756" lon="11.1531133"><ele>298.85714285714283</ele><time>2026-03-22T10:30:34.701Z</time></trkpt><trkpt lat="44.4319277" lon="11.1530497"><ele>297.7142857142857</ele><time>2026-03-22T10:30:35.693Z</time></trkpt><trkpt lat="44.431979" lon="11.1529825"><ele>296.57142857142856</ele><time>2026-03-22T10:30:36.7Z</time></trkpt><trkpt lat="44.4320262" lon="11.1529073"><ele>295.42857142857144</ele><time>2026-03-22T10:30:37.69Z</time></trkpt><trkpt lat="44.4320731" lon="11.152833"><ele>294.2857142857143</ele><time>2026-03-22T10:30:38.701Z</time></trkpt><trkpt lat="44.4321209" lon="11.152762"><ele>293.1428571428571</ele><time>2026-03-22T10:30:39.692Z</time></trkpt><trkpt lat="44.4321651" lon="11.1526803"><ele>292.0</ele><time>2026-03-22T10:30:40.697Z</time></trkpt><trkpt lat="44.4322137" lon="11.1525938"><ele>290.16666666666663</ele><time>2026-03-22T10:30:41.691Z</time></trkpt><trkpt lat="44.432251" lon="11.1525151"><ele>288.3333333333333</ele><time>2026-03-22T10:30:42.701Z</time></trkpt><trkpt lat="44.4322924" lon="11.1524372"><ele>286.5</ele><time>2026-03-22T10:30:43.701Z</time></trkpt><trkpt lat="44.4323416" lon="11.1523624"><ele>284.6666666666667</ele><time>2026-03-22T10:30:44.701Z</time></trkpt><trkpt lat="44.4323992" lon="11.1522676"><ele>282.83333333333337</ele><time>2026-03-22T10:30:45.701Z</time></trkpt><trkpt lat="44.4324621" lon="11.1521503"><ele>281.0</ele><time>2026-03-22T10:30:46.679Z</time></trkpt><trkpt lat="44.432512" lon="11.1520219"><ele>280.1666666666667</ele><time>2026-03-22T10:30:47.68Z</time></trkpt><trkpt lat="44.4325562" lon="11.151907"><ele>279.33333333333337</ele><time>2026-03-22T10:30:48.685Z</time></trkpt><trkpt lat="44.4325914" lon="11.1518082"><ele>278.5</ele><time>2026-03-22T10:30:49.701Z</time></trkpt><trkpt lat="44.4326232" lon="11.1517137"><ele>277.6666666666667</ele><time>2026-03-22T10:30:50.678Z</time></trkpt><trkpt lat="44.4326658" lon="11.1516345"><ele>276.8333333333333</ele><time>2026-03-22T10:30:51.701Z</time></trkpt><trkpt lat="44.4327045" lon="11.1515453"><ele>276.0</ele><time>2026-03-22T10:30:52.683Z</time></trkpt><trkpt lat="44.4327359" lon="11.1514665"><ele>275.40000000000003</ele><time>2026-03-22T10:30:53.701Z</time></trkpt><trkpt lat="44.4328712" lon="11.1514016"><ele>274.8</ele><time>2026-03-22T10:30:54.701Z</time></trkpt><trkpt lat="44.4329919" lon="11.1513523"><ele>274.20000000000005</ele><time>2026-03-22T10:30:55.701Z</time></trkpt><trkpt lat="44.4330496" lon="11.1514039"><ele>273.6</ele><time>2026-03-22T10:30:56.701Z</time></trkpt><trkpt lat="44.4331115" lon="11.1514233"><ele>273.0</ele><time>2026-03-22T10:30:57.697Z</time></trkpt><trkpt lat="44.4331768" lon="11.1514537"><ele>272.2</ele><time>2026-03-22T10:30:58.677Z</time></trkpt><trkpt lat="44.4332666" lon="11.1515747"><ele>271.4</ele><time>2026-03-22T10:31:00.681Z</time></trkpt><trkpt lat="44.4333526" lon="11.1517216"><ele>270.59999999999997</ele><time>2026-03-22T10:31:02.701Z</time></trkpt><trkpt lat="44.4334185" lon="11.1517881"><ele>269.8</ele><time>2026-03-22T10:31:03.701Z</time></trkpt><trkpt lat="44.4335204" lon="11.1518343"><ele>269.0</ele><time>2026-03-22T10:31:04.681Z</time></trkpt><trkpt lat="44.4336056" lon="11.1518265"><ele>269.0</ele><time>2026-03-22T10:31:05.701Z</time></trkpt><trkpt lat="44.4336847" lon="11.1518486"><ele>269.0</ele><time>2026-03-22T10:31:06.701Z</time></trkpt><trkpt lat="44.4337265" lon="11.1519312"><ele>269.0</ele><time>2026-03-22T10:31:08.681Z</time></trkpt><trkpt lat="44.4338023" lon="11.1520284"><ele>269.0</ele><time>2026-03-22T10:31:10.701Z</time></trkpt><trkpt lat="44.4338913" lon="11.1521245"><ele>269.0</ele><time>2026-03-22T10:31:12.681Z</time></trkpt><trkpt lat="44.4339928" lon="11.1521672"><ele>265.4</ele><time>2026-03-22T10:31:14.698Z</time></trkpt><trkpt lat="44.4340922" lon="11.1521453"><ele>261.79999999999995</ele><time>2026-03-22T10:31:16.684Z</time></trkpt><trkpt lat="44.4341947" lon="11.1521147"><ele>258.20000000000005</ele><time>2026-03-22T10:31:18.686Z</time></trkpt><trkpt lat="44.4343156" lon="11.1521069"><ele>254.60000000000002</ele><time>2026-03-22T10:31:20.701Z</time></trkpt><trkpt lat="44.4343864" lon="11.1521316"><ele>251.0</ele><time>2026-03-22T10:31:21.696Z</time></trkpt><trkpt lat="44.4344676" lon="11.1522209"><ele>250.99999999999997</ele><time>2026-03-22T10:31:22.701Z</time></trkpt><trkpt lat="44.4345368" lon="11.1522761"><ele>251.0</ele><time>2026-03-22T10:31:23.683Z</time></trkpt><trkpt lat="44.4345639" lon="11.1523716"><ele>250.99999999999997</ele><time>2026-03-22T10:31:24.688Z</time></trkpt><trkpt lat="44.4346178" lon="11.152452"><ele>250.99999999999997</ele><time>2026-03-22T10:31:25.681Z</time></trkpt><trkpt lat="44.4346694" lon="11.1525153"><ele>251.0</ele><time>2026-03-22T10:31:26.701Z</time></trkpt><trkpt lat="44.4347357" lon="11.1525726"><ele>250.99999999999997</ele><time>2026-03-22T10:31:27.687Z</time></trkpt><trkpt lat="44.4348061" lon="11.1525828"><ele>250.99999999999997</ele><time>2026-03-22T10:31:28.676Z</time></trkpt><trkpt lat="44.4348674" lon="11.1526272"><ele>245.50000000000003</ele><time>2026-03-22T10:31:29.701Z</time></trkpt><trkpt lat="44.4349458" lon="11.1526363"><ele>240.0</ele><time>2026-03-22T10:31:30.701Z</time></trkpt><trkpt lat="44.4350478" lon="11.1525982"><ele>234.5</ele><time>2026-03-22T10:31:31.701Z</time></trkpt><trkpt lat="44.4351156" lon="11.1526389"><ele>229.0</ele><time>2026-03-22T10:31:32.677Z</time></trkpt><trkpt lat="44.4351906" lon="11.1526392"><ele>223.50000000000003</ele><time>2026-03-22T10:31:34.701Z</time></trkpt><trkpt lat="44.435244" lon="11.1525882"><ele>218.0</ele><time>2026-03-22T10:31:35.701Z</time></trkpt><trkpt lat="44.4352942" lon="11.1524916"><ele>218.00000000000003</ele><time>2026-03-22T10:31:36.687Z</time></trkpt><trkpt lat="44.4353279" lon="11.1523909"><ele>218.0</ele><time>2026-03-22T10:31:37.701Z</time></trkpt><trkpt lat="44.4354121" lon="11.1523294"><ele>218.0</ele><time>2026-03-22T10:31:38.701Z</time></trkpt><trkpt lat="44.4354572" lon="11.1522604"><ele>218.0</ele><time>2026-03-22T10:31:39.701Z</time></trkpt><trkpt lat="44.4355057" lon="11.152152"><ele>218.00000000000003</ele><time>2026-03-22T10:31:40.701Z</time></trkpt><trkpt lat="44.4355589" lon="11.1520587"><ele>218.0</ele><time>2026-03-22T10:31:41.701Z</time></trkpt><trkpt lat="44.4356053" lon="11.1519826"><ele>215.83333333333334</ele><time>2026-03-22T10:31:42.679Z</time></trkpt><trkpt lat="44.4356476" lon="11.1519108"><ele>213.66666666666669</ele><time>2026-03-22T10:31:43.687Z</time></trkpt><trkpt lat="44.4357184" lon="11.1517915"><ele>211.5</ele><time>2026-03-22T10:31:45.688Z</time></trkpt><trkpt lat="44.4357614" lon="11.1517219"><ele>209.33333333333331</ele><time>2026-03-22T10:31:47.691Z</time></trkpt><trkpt lat="44.4356829" lon="11.1517987"><ele>207.16666666666666</ele><time>2026-03-22T10:33:29.683Z</time></trkpt><trkpt lat="44.4356252" lon="11.1518909"><ele>205.0</ele><time>2026-03-22T10:33:38.679Z</time></trkpt><trkpt lat="44.4355381" lon="11.1519972"><ele>205.0</ele><time>2026-03-22T10:33:40.697Z</time></trkpt><trkpt lat="44.4354859" lon="11.1520869"><ele>205.0</ele><time>2026-03-22T10:33:41.685Z</time></trkpt><trkpt lat="44.4354365" lon="11.1521713"><ele>205.0</ele><time>2026-03-22T10:33:42.681Z</time></trkpt><trkpt lat="44.4353948" lon="11.1522479"><ele>205.0</ele><time>2026-03-22T10:33:43.687Z</time></trkpt><trkpt lat="44.4353438" lon="11.1523106"><ele>205.0</ele><time>2026-03-22T10:33:44.688Z</time></trkpt><trkpt lat="44.4352917" lon="11.1523721"><ele>205.0</ele><time>2026-03-22T10:33:45.683Z</time></trkpt><trkpt lat="44.435231" lon="11.1524432"><ele>205.0</ele><time>2026-03-22T10:33:46.677Z</time></trkpt><trkpt lat="44.4352162" lon="11.1525425"><ele>207.6</ele><time>2026-03-22T10:33:47.701Z</time></trkpt><trkpt lat="44.4351292" lon="11.1526404"><ele>210.2</ele><time>2026-03-22T10:33:49.683Z</time></trkpt><trkpt lat="44.4350458" lon="11.1526194"><ele>212.8</ele><time>2026-03-22T10:33:51.677Z</time></trkpt><trkpt lat="44.4349388" lon="11.152568"><ele>215.4</ele><time>2026-03-22T10:33:53.696Z</time></trkpt><trkpt lat="44.4348788" lon="11.1525259"><ele>218.0</ele><time>2026-03-22T10:33:54.677Z</time></trkpt><trkpt lat="44.4348079" lon="11.1525016"><ele>218.0</ele><time>2026-03-22T10:33:55.687Z</time></trkpt><trkpt lat="44.4347347" lon="11.1524678"><ele>218.0</ele><time>2026-03-22T10:33:56.678Z</time></trkpt><trkpt lat="44.4346097" lon="11.1524091"><ele>218.0</ele><time>2026-03-22T10:33:58.673Z</time></trkpt><trkpt lat="44.4344869" lon="11.1523312"><ele>218.0</ele><time>2026-03-22T10:34:00.682Z</time></trkpt><trkpt lat="44.4344042" lon="11.1522745"><ele>218.0</ele><time>2026-03-22T10:34:01.688Z</time></trkpt><trkpt lat="44.4343241" lon="11.1522556"><ele>224.60000000000002</ele><time>2026-03-22T10:34:02.677Z</time></trkpt><trkpt lat="44.4342513" lon="11.1522289"><ele>231.20000000000002</ele><time>2026-03-22T10:34:03.682Z</time></trkpt><trkpt lat="44.4341727" lon="11.1522337"><ele>237.8</ele><time>2026-03-22T10:34:04.676Z</time></trkpt><trkpt lat="44.4340477" lon="11.1522007"><ele>244.4</ele><time>2026-03-22T10:34:05.689Z</time></trkpt><trkpt lat="44.4339527" lon="11.1521831"><ele>251.0</ele><time>2026-03-22T10:34:06.678Z</time></trkpt><trkpt lat="44.4338809" lon="11.1521576"><ele>254.60000000000002</ele><time>2026-03-22T10:34:07.678Z</time></trkpt><trkpt lat="44.4337753" lon="11.1520427"><ele>258.20000000000005</ele><time>2026-03-22T10:34:09.686Z</time></trkpt><trkpt lat="44.4337269" lon="11.1519819"><ele>261.79999999999995</ele><time>2026-03-22T10:34:10.677Z</time></trkpt><trkpt lat="44.433674" lon="11.1519243"><ele>265.4</ele><time>2026-03-22T10:34:11.689Z</time></trkpt><trkpt lat="44.4335968" lon="11.1518683"><ele>269.0</ele><time>2026-03-22T10:34:12.678Z</time></trkpt><trkpt lat="44.4334855" lon="11.1518548"><ele>269.0</ele><time>2026-03-22T10:34:13.676Z</time></trkpt><trkpt lat="44.4333847" lon="11.1518277"><ele>269.0</ele><time>2026-03-22T10:34:14.682Z</time></trkpt><trkpt lat="44.4332989" lon="11.1518119"><ele>269.0</ele><time>2026-03-22T10:34:15.701Z</time></trkpt><trkpt lat="44.4332701" lon="11.1517173"><ele>269.0</ele><time>2026-03-22T10:34:16.682Z</time></trkpt><trkpt lat="44.4332309" lon="11.1516475"><ele>269.0</ele><time>2026-03-22T10:34:17.682Z</time></trkpt><trkpt lat="44.4331783" lon="11.1515843"><ele>269.0</ele><time>2026-03-22T10:34:18.68Z</time></trkpt><trkpt lat="44.4331006" lon="11.151531"><ele>269.6666666666667</ele><time>2026-03-22T10:34:20.676Z</time></trkpt><trkpt lat="44.4330288" lon="11.1515342"><ele>270.33333333333337</ele><time>2026-03-22T10:34:21.691Z</time></trkpt><trkpt lat="44.4329415" lon="11.1515431"><ele>271.0</ele><time>2026-03-22T10:34:22.701Z</time></trkpt><trkpt lat="44.432858" lon="11.1515956"><ele>271.6666666666667</ele><time>2026-03-22T10:34:23.69Z</time></trkpt><trkpt lat="44.4327902" lon="11.1516782"><ele>272.3333333333333</ele><time>2026-03-22T10:34:24.676Z</time></trkpt><trkpt lat="44.432703" lon="11.1517224"><ele>273.0</ele><time>2026-03-22T10:34:25.693Z</time></trkpt><trkpt lat="44.4326381" lon="11.1517967"><ele>273.6</ele><time>2026-03-22T10:34:26.694Z</time></trkpt><trkpt lat="44.4325845" lon="11.15192"><ele>274.20000000000005</ele><time>2026-03-22T10:34:27.685Z</time></trkpt><trkpt lat="44.4325231" lon="11.1520453"><ele>274.8</ele><time>2026-03-22T10:34:28.684Z</time></trkpt><trkpt lat="44.4324566" lon="11.1521733"><ele>275.40000000000003</ele><time>2026-03-22T10:34:29.685Z</time></trkpt><trkpt lat="44.4323859" lon="11.1522889"><ele>276.0</ele><time>2026-03-22T10:34:30.682Z</time></trkpt><trkpt lat="44.4323216" lon="11.1523893"><ele>276.8333333333333</ele><time>2026-03-22T10:34:31.684Z</time></trkpt><trkpt lat="44.4322695" lon="11.1524858"><ele>277.6666666666667</ele><time>2026-03-22T10:34:32.686Z</time></trkpt><trkpt lat="44.4322129" lon="11.1525814"><ele>278.5</ele><time>2026-03-22T10:34:33.682Z</time></trkpt><trkpt lat="44.4321529" lon="11.1526778"><ele>279.33333333333337</ele><time>2026-03-22T10:34:34.684Z</time></trkpt><trkpt lat="44.4320911" lon="11.1527698"><ele>280.1666666666667</ele><time>2026-03-22T10:34:35.686Z</time></trkpt><trkpt lat="44.4320343" lon="11.1528679"><ele>281.0</ele><time>2026-03-22T10:34:36.681Z</time></trkpt><trkpt lat="44.4319784" lon="11.152959"><ele>282.83333333333337</ele><time>2026-03-22T10:34:37.693Z</time></trkpt><trkpt lat="44.4319173" lon="11.1530502"><ele>284.6666666666667</ele><time>2026-03-22T10:34:38.701Z</time></trkpt><trkpt lat="44.4318523" lon="11.1531413"><ele>286.5</ele><time>2026-03-22T10:34:39.701Z</time></trkpt><trkpt lat="44.4317808" lon="11.1532087"><ele>288.3333333333333</ele><time>2026-03-22T10:34:40.687Z</time></trkpt><trkpt lat="44.4317089" lon="11.153284"><ele>290.16666666666663</ele><time>2026-03-22T10:34:41.682Z</time></trkpt><trkpt lat="44.4316475" lon="11.1533662"><ele>292.0</ele><time>2026-03-22T10:34:42.68Z</time></trkpt><trkpt lat="44.431609" lon="11.1534651"><ele>293.3333333333333</ele><time>2026-03-22T10:34:43.681Z</time></trkpt><trkpt lat="44.4315643" lon="11.1535495"><ele>294.66666666666663</ele><time>2026-03-22T10:34:44.701Z</time></trkpt><trkpt lat="44.4315223" lon="11.1536325"><ele>296.0</ele><time>2026-03-22T10:34:45.679Z</time></trkpt><trkpt lat="44.4314629" lon="11.1537115"><ele>297.3333333333333</ele><time>2026-03-22T10:34:46.683Z</time></trkpt><trkpt lat="44.4313935" lon="11.1537701"><ele>298.6666666666667</ele><time>2026-03-22T10:34:47.693Z</time></trkpt><trkpt lat="44.4313168" lon="11.1538042"><ele>300.0</ele><time>2026-03-22T10:34:48.701Z</time></trkpt><trkpt lat="44.4312442" lon="11.1538455"><ele>301.6666666666667</ele><time>2026-03-22T10:34:50.686Z</time></trkpt><trkpt lat="44.4312497" lon="11.1539529"><ele>303.3333333333333</ele><time>2026-03-22T10:34:56.69Z</time></trkpt><trkpt lat="44.4312543" lon="11.1540803"><ele>305.0</ele><time>2026-03-22T10:35:34.682Z</time></trkpt><trkpt lat="44.4312565" lon="11.154175"><ele>306.66666666666663</ele><time>2026-03-22T10:35:35.701Z</time></trkpt><trkpt lat="44.4312453" lon="11.1542812"><ele>308.3333333333333</ele><time>2026-03-22T10:35:36.684Z</time></trkpt><trkpt lat="44.4312105" lon="11.1543698"><ele>310.0</ele><time>2026-03-22T10:35:37.701Z</time></trkpt><trkpt lat="44.4311575" lon="11.1544314"><ele>310.8</ele><time>2026-03-22T10:35:38.687Z</time></trkpt><trkpt lat="44.4310382" lon="11.1544468"><ele>311.6</ele><time>2026-03-22T10:35:40.701Z</time></trkpt><trkpt lat="44.4309306" lon="11.1544256"><ele>312.4</ele><time>2026-03-22T10:35:42.701Z</time></trkpt><trkpt lat="44.4308185" lon="11.1544845"><ele>313.2</ele><time>2026-03-22T10:35:44.681Z</time></trkpt><trkpt lat="44.4307735" lon="11.1545528"><ele>314.0</ele><time>2026-03-22T10:35:45.684Z</time></trkpt><trkpt lat="44.4307291" lon="11.1546287"><ele>314.0</ele><time>2026-03-22T10:35:46.687Z</time></trkpt><trkpt lat="44.430679" lon="11.1547116"><ele>314.0</ele><time>2026-03-22T10:35:47.685Z</time></trkpt><trkpt lat="44.4306356" lon="11.1547957"><ele>314.0</ele><time>2026-03-22T10:35:48.701Z</time></trkpt><trkpt lat="44.4305856" lon="11.1548742"><ele>314.0</ele><time>2026-03-22T10:35:49.701Z</time></trkpt><trkpt lat="44.4305478" lon="11.1549676"><ele>314.0</ele><time>2026-03-22T10:35:50.688Z</time></trkpt><trkpt lat="44.4305031" lon="11.1550566"><ele>314.0</ele><time>2026-03-22T10:35:51.686Z</time></trkpt><trkpt lat="44.4304605" lon="11.1551489"><ele>313.1666666666667</ele><time>2026-03-22T10:35:52.684Z</time></trkpt><trkpt lat="44.430428" lon="11.1552388"><ele>312.33333333333337</ele><time>2026-03-22T10:35:53.685Z</time></trkpt><trkpt lat="44.430398" lon="11.1553206"><ele>311.5</ele><time>2026-03-22T10:35:54.693Z</time></trkpt><trkpt lat="44.4303429" lon="11.1554628"><ele>310.6666666666667</ele><time>2026-03-22T10:35:56.68Z</time></trkpt><trkpt lat="44.4303191" lon="11.1555507"><ele>309.8333333333333</ele><time>2026-03-22T10:35:57.678Z</time></trkpt><trkpt lat="44.430331" lon="11.1557226"><ele>309.0</ele><time>2026-03-22T10:35:59.692Z</time></trkpt><trkpt lat="44.4303512" lon="11.1558082"><ele>309.0</ele><time>2026-03-22T10:36:00.679Z</time></trkpt><trkpt lat="44.4303822" lon="11.1558958"><ele>309.0</ele><time>2026-03-22T10:36:01.678Z</time></trkpt><trkpt lat="44.4304631" lon="11.1560569"><ele>309.0</ele><time>2026-03-22T10:36:03.688Z</time></trkpt><trkpt lat="44.4305071" lon="11.1561349"><ele>309.0</ele><time>2026-03-22T10:36:04.702Z</time></trkpt><trkpt lat="44.4305893" lon="11.1562606"><ele>309.0</ele><time>2026-03-22T10:36:06.685Z</time></trkpt><trkpt lat="44.4306346" lon="11.1563863"><ele>309.0</ele><time>2026-03-22T10:36:08.686Z</time></trkpt><trkpt lat="44.4306509" lon="11.1565009"><ele>309.0</ele><time>2026-03-22T10:36:24.679Z</time></trkpt><trkpt lat="44.4306818" lon="11.1565974"><ele>309.0</ele><time>2026-03-22T10:36:27.694Z</time></trkpt><trkpt lat="44.4307305" lon="11.1567047"><ele>309.0</ele><time>2026-03-22T10:36:30.681Z</time></trkpt><trkpt lat="44.430776" lon="11.156775"><ele>309.0</ele><time>2026-03-22T10:37:40.68Z</time></trkpt><trkpt lat="44.4308068" lon="11.1568796"><ele>309.0</ele><time>2026-03-22T10:43:52.701Z</time></trkpt><trkpt lat="44.43085" lon="11.1569849"><ele>309.0</ele><time>2026-03-22T10:43:54.701Z</time></trkpt><trkpt lat="44.4309063" lon="11.1571014"><ele>309.0</ele><time>2026-03-22T10:43:56.677Z</time></trkpt><trkpt lat="44.4309467" lon="11.1572235"><ele>309.0</ele><time>2026-03-22T10:43:58.679Z</time></trkpt><trkpt lat="44.4309743" lon="11.1573585"><ele>309.0</ele><time>2026-03-22T10:44:00.682Z</time></trkpt><trkpt lat="44.4310062" lon="11.1574866"><ele>309.0</ele><time>2026-03-22T10:44:02.676Z</time></trkpt><trkpt lat="44.4310578" lon="11.1576074"><ele>308.25</ele><time>2026-03-22T10:44:04.673Z</time></trkpt><trkpt lat="44.431108" lon="11.1577945"><ele>307.5</ele><time>2026-03-22T10:44:06.682Z</time></trkpt><trkpt lat="44.4311461" lon="11.1579248"><ele>306.75</ele><time>2026-03-22T10:44:07.677Z</time></trkpt><trkpt lat="44.4311851" lon="11.1580711"><ele>306.0</ele><time>2026-03-22T10:44:08.679Z</time></trkpt><trkpt lat="44.4312285" lon="11.1582259"><ele>306.0</ele><time>2026-03-22T10:44:09.679Z</time></trkpt><trkpt lat="44.4312746" lon="11.1583982"><ele>306.0</ele><time>2026-03-22T10:44:10.676Z</time></trkpt><trkpt lat="44.4313225" lon="11.1585676"><ele>306.0</ele><time>2026-03-22T10:44:11.68Z</time></trkpt><trkpt lat="44.4313672" lon="11.158716"><ele>306.0</ele><time>2026-03-22T10:44:12.672Z</time></trkpt><trkpt lat="44.4314111" lon="11.1588998"><ele>309.8333333333333</ele><time>2026-03-22T10:44:13.682Z</time></trkpt><trkpt lat="44.431453" lon="11.1590575"><ele>313.6666666666667</ele><time>2026-03-22T10:44:14.683Z</time></trkpt><trkpt lat="44.4314931" lon="11.1591771"><ele>317.5</ele><time>2026-03-22T10:44:15.685Z</time></trkpt><trkpt lat="44.4315201" lon="11.1592751"><ele>321.33333333333337</ele><time>2026-03-22T10:44:16.68Z</time></trkpt><trkpt lat="44.4315433" lon="11.159369"><ele>325.1666666666667</ele><time>2026-03-22T10:44:17.677Z</time></trkpt><trkpt lat="44.4315579" lon="11.1594675"><ele>329.0</ele><time>2026-03-22T10:44:18.678Z</time></trkpt><trkpt lat="44.4315436" lon="11.159644"><ele>329.0</ele><time>2026-03-22T10:44:20.682Z</time></trkpt><trkpt lat="44.4315179" lon="11.1597359"><ele>329.0</ele><time>2026-03-22T10:44:21.681Z</time></trkpt><trkpt lat="44.4314746" lon="11.159854"><ele>329.0</ele><time>2026-03-22T10:44:22.683Z</time></trkpt><trkpt lat="44.4314182" lon="11.1599874"><ele>329.0</ele><time>2026-03-22T10:44:23.676Z</time></trkpt><trkpt lat="44.4313737" lon="11.1601141"><ele>329.0</ele><time>2026-03-22T10:44:24.68Z</time></trkpt><trkpt lat="44.4313383" lon="11.1602431"><ele>328.2</ele><time>2026-03-22T10:44:25.674Z</time></trkpt><trkpt lat="44.4312991" lon="11.1603656"><ele>327.4</ele><time>2026-03-22T10:44:26.678Z</time></trkpt><trkpt lat="44.4312682" lon="11.160506"><ele>326.6</ele><time>2026-03-22T10:44:27.679Z</time></trkpt><trkpt lat="44.4312372" lon="11.160651"><ele>325.8</ele><time>2026-03-22T10:44:28.678Z</time></trkpt><trkpt lat="44.4312086" lon="11.1607905"><ele>325.0</ele><time>2026-03-22T10:44:29.686Z</time></trkpt><trkpt lat="44.4311509" lon="11.1609197"><ele>325.0</ele><time>2026-03-22T10:44:30.681Z</time></trkpt><trkpt lat="44.4310917" lon="11.1610623"><ele>325.0</ele><time>2026-03-22T10:44:31.678Z</time></trkpt><trkpt lat="44.4310428" lon="11.1612039"><ele>325.0</ele><time>2026-03-22T10:44:32.683Z</time></trkpt><trkpt lat="44.4309855" lon="11.1613507"><ele>325.0</ele><time>2026-03-22T10:44:33.676Z</time></trkpt><trkpt lat="44.4309333" lon="11.1614949"><ele>327.0</ele><time>2026-03-22T10:44:34.678Z</time></trkpt><trkpt lat="44.4308731" lon="11.1616319"><ele>329.0</ele><time>2026-03-22T10:44:35.685Z</time></trkpt><trkpt lat="44.4308158" lon="11.1617552"><ele>331.0</ele><time>2026-03-22T10:44:36.685Z</time></trkpt><trkpt lat="44.4307546" lon="11.1618528"><ele>333.0</ele><time>2026-03-22T10:44:37.68Z</time></trkpt><trkpt lat="44.4307163" lon="11.1619332"><ele>335.0</ele><time>2026-03-22T10:44:38.68Z</time></trkpt><trkpt lat="44.4306333" lon="11.162028"><ele>335.0</ele><time>2026-03-22T10:44:40.69Z</time></trkpt><trkpt lat="44.4306089" lon="11.1621574"><ele>335.0</ele><time>2026-03-22T10:44:42.681Z</time></trkpt><trkpt lat="44.4306231" lon="11.1622452"><ele>335.0</ele><time>2026-03-22T10:44:43.679Z</time></trkpt><trkpt lat="44.4306487" lon="11.162369"><ele>335.0</ele><time>2026-03-22T10:44:44.678Z</time></trkpt><trkpt lat="44.4306835" lon="11.162515"><ele>335.0</ele><time>2026-03-22T10:44:45.677Z</time></trkpt><trkpt lat="44.4307188" lon="11.1626568"><ele>334.6</ele><time>2026-03-22T10:44:46.678Z</time></trkpt><trkpt lat="44.4307299" lon="11.1628089"><ele>334.2</ele><time>2026-03-22T10:44:47.68Z</time></trkpt><trkpt lat="44.4307401" lon="11.1629812"><ele>333.79999999999995</ele><time>2026-03-22T10:44:48.673Z</time></trkpt><trkpt lat="44.4307417" lon="11.1631217"><ele>333.4</ele><time>2026-03-22T10:44:49.68Z</time></trkpt><trkpt lat="44.4307326" lon="11.1632437"><ele>333.0</ele><time>2026-03-22T10:44:50.674Z</time></trkpt><trkpt lat="44.4307141" lon="11.163375"><ele>332.6666666666667</ele><time>2026-03-22T10:44:51.678Z</time></trkpt><trkpt lat="44.4306762" lon="11.1634902"><ele>332.3333333333333</ele><time>2026-03-22T10:44:52.691Z</time></trkpt><trkpt lat="44.4306404" lon="11.1635823"><ele>332.0</ele><time>2026-03-22T10:44:53.689Z</time></trkpt><trkpt lat="44.4305975" lon="11.1636524"><ele>331.66666666666663</ele><time>2026-03-22T10:44:54.682Z</time></trkpt><trkpt lat="44.430551" lon="11.1637373"><ele>331.3333333333333</ele><time>2026-03-22T10:44:55.679Z</time></trkpt><trkpt lat="44.4305115" lon="11.1638338"><ele>331.0</ele><time>2026-03-22T10:44:56.676Z</time></trkpt><trkpt lat="44.4304694" lon="11.1639228"><ele>324.3333333333333</ele><time>2026-03-22T10:44:57.678Z</time></trkpt><trkpt lat="44.4304273" lon="11.1640096"><ele>317.66666666666663</ele><time>2026-03-22T10:44:58.681Z</time></trkpt><trkpt lat="44.4303876" lon="11.1640945"><ele>311.0</ele><time>2026-03-22T10:44:59.678Z</time></trkpt><trkpt lat="44.4303486" lon="11.1641766"><ele>304.3333333333333</ele><time>2026-03-22T10:45:00.682Z</time></trkpt><trkpt lat="44.4303013" lon="11.1643326"><ele>297.6666666666667</ele><time>2026-03-22T10:45:02.673Z</time></trkpt><trkpt lat="44.4302571" lon="11.1644741"><ele>291.0</ele><time>2026-03-22T10:45:04.678Z</time></trkpt><trkpt lat="44.4302317" lon="11.1646102"><ele>291.0</ele><time>2026-03-22T10:45:06.685Z</time></trkpt><trkpt lat="44.4302061" lon="11.1647268"><ele>291.0</ele><time>2026-03-22T10:45:08.676Z</time></trkpt><trkpt lat="44.4301794" lon="11.1648471"><ele>291.0</ele><time>2026-03-22T10:45:10.678Z</time></trkpt><trkpt lat="44.4301535" lon="11.1649552"><ele>291.0</ele><time>2026-03-22T10:45:12.682Z</time></trkpt><trkpt lat="44.430121" lon="11.1650683"><ele>291.0</ele><time>2026-03-22T10:45:14.687Z</time></trkpt><trkpt lat="44.4301116" lon="11.1651766"><ele>291.0</ele><time>2026-03-22T10:45:16.676Z</time></trkpt><trkpt lat="44.4301212" lon="11.1652706"><ele>290.6666666666667</ele><time>2026-03-22T10:45:18.687Z</time></trkpt><trkpt lat="44.4301404" lon="11.1653622"><ele>290.3333333333333</ele><time>2026-03-22T10:45:20.681Z</time></trkpt><trkpt lat="44.4301595" lon="11.1654694"><ele>290.0</ele><time>2026-03-22T10:45:22.676Z</time></trkpt><trkpt lat="44.4301807" lon="11.1655998"><ele>289.66666666666663</ele><time>2026-03-22T10:45:24.68Z</time></trkpt><trkpt lat="44.4302041" lon="11.1657295"><ele>289.3333333333333</ele><time>2026-03-22T10:45:26.686Z</time></trkpt><trkpt lat="44.4302401" lon="11.1658643"><ele>289.0</ele><time>2026-03-22T10:45:28.683Z</time></trkpt><trkpt lat="44.4302727" lon="11.1660007"><ele>289.0</ele><time>2026-03-22T10:45:30.685Z</time></trkpt><trkpt lat="44.4302638" lon="11.1661329"><ele>289.0</ele><time>2026-03-22T10:45:32.678Z</time></trkpt><trkpt lat="44.4302478" lon="11.1662663"><ele>289.0</ele><time>2026-03-22T10:45:34.684Z</time></trkpt><trkpt lat="44.4302803" lon="11.1663923"><ele>289.0</ele><time>2026-03-22T10:45:36.675Z</time></trkpt><trkpt lat="44.4304047" lon="11.1664644"><ele>289.0</ele><time>2026-03-22T10:45:38.677Z</time></trkpt><trkpt lat="44.4304912" lon="11.1664744"><ele>293.75</ele><time>2026-03-22T10:45:39.68Z</time></trkpt><trkpt lat="44.4306317" lon="11.1664729"><ele>298.5</ele><time>2026-03-22T10:45:40.677Z</time></trkpt><trkpt lat="44.4307506" lon="11.1664845"><ele>303.25</ele><time>2026-03-22T10:45:41.683Z</time></trkpt><trkpt lat="44.4308621" lon="11.1665083"><ele>308.0</ele><time>2026-03-22T10:45:42.677Z</time></trkpt><trkpt lat="44.4309643" lon="11.1665398"><ele>308.0</ele><time>2026-03-22T10:45:43.679Z</time></trkpt><trkpt lat="44.4310429" lon="11.1666028"><ele>308.0</ele><time>2026-03-22T10:45:44.675Z</time></trkpt><trkpt lat="44.4311156" lon="11.1666543"><ele>308.0</ele><time>2026-03-22T10:45:45.681Z</time></trkpt><trkpt lat="44.4311788" lon="11.1667335"><ele>308.0</ele><time>2026-03-22T10:45:46.675Z</time></trkpt><trkpt lat="44.431117" lon="11.1668865"><ele>308.0</ele><time>2026-03-22T10:45:47.676Z</time></trkpt><trkpt lat="44.4311139" lon="11.1669956"><ele>308.0</ele><time>2026-03-22T10:45:48.676Z</time></trkpt><trkpt lat="44.4310983" lon="11.1671158"><ele>308.0</ele><time>2026-03-22T10:45:49.701Z</time></trkpt><trkpt lat="44.4310708" lon="11.1672432"><ele>308.0</ele><time>2026-03-22T10:45:50.682Z</time></trkpt><trkpt lat="44.431095" lon="11.1673498"><ele>308.0</ele><time>2026-03-22T10:45:51.673Z</time></trkpt><trkpt lat="44.4311224" lon="11.1674491"><ele>308.0</ele><time>2026-03-22T10:45:52.683Z</time></trkpt><trkpt lat="44.4311444" lon="11.1675349"><ele>308.0</ele><time>2026-03-22T10:45:53.674Z</time></trkpt><trkpt lat="44.4312151" lon="11.167641"><ele>307.0</ele><time>2026-03-22T10:46:00.687Z</time></trkpt><trkpt lat="44.4312527" lon="11.1677169"><ele>306.0</ele><time>2026-03-22T10:46:01.679Z</time></trkpt><trkpt lat="44.4313041" lon="11.1678185"><ele>305.0</ele><time>2026-03-22T10:46:02.673Z</time></trkpt><trkpt lat="44.4313614" lon="11.1678866"><ele>304.0</ele><time>2026-03-22T10:46:03.683Z</time></trkpt><trkpt lat="44.4314226" lon="11.1679307"><ele>303.0</ele><time>2026-03-22T10:46:04.682Z</time></trkpt><trkpt lat="44.4314793" lon="11.1679718"><ele>302.0</ele><time>2026-03-22T10:46:05.674Z</time></trkpt><trkpt lat="44.4315982" lon="11.1678891"><ele>308.0</ele><time>2026-03-22T10:46:07.675Z</time></trkpt><trkpt lat="44.4316562" lon="11.1678188"><ele>314.0</ele><time>2026-03-22T10:46:08.677Z</time></trkpt><trkpt lat="44.4317284" lon="11.1677322"><ele>320.0</ele><time>2026-03-22T10:46:09.676Z</time></trkpt><trkpt lat="44.4318168" lon="11.167674"><ele>326.0</ele><time>2026-03-22T10:46:10.677Z</time></trkpt><trkpt lat="44.4318919" lon="11.1676273"><ele>332.0</ele><time>2026-03-22T10:46:11.67Z</time></trkpt><trkpt lat="44.4319721" lon="11.1676331"><ele>338.0</ele><time>2026-03-22T10:46:12.676Z</time></trkpt><trkpt lat="44.4320766" lon="11.1676817"><ele>341.59999999999997</ele><time>2026-03-22T10:46:13.681Z</time></trkpt><trkpt lat="44.4321873" lon="11.1676834"><ele>345.2</ele><time>2026-03-22T10:46:15.678Z</time></trkpt><trkpt lat="44.4322463" lon="11.1676212"><ele>348.8</ele><time>2026-03-22T10:46:16.68Z</time></trkpt><trkpt lat="44.4323481" lon="11.1675638"><ele>352.4</ele><time>2026-03-22T10:46:17.68Z</time></trkpt><trkpt lat="44.4324556" lon="11.1675358"><ele>356.0</ele><time>2026-03-22T10:46:18.683Z</time></trkpt><trkpt lat="44.4325362" lon="11.1675049"><ele>356.0</ele><time>2026-03-22T10:46:19.68Z</time></trkpt><trkpt lat="44.4326267" lon="11.1675046"><ele>356.0</ele><time>2026-03-22T10:46:20.673Z</time></trkpt><trkpt lat="44.432752" lon="11.1676498"><ele>356.0</ele><time>2026-03-22T10:46:21.679Z</time></trkpt><trkpt lat="44.4328516" lon="11.1677353"><ele>356.0</ele><time>2026-03-22T10:46:22.682Z</time></trkpt><trkpt lat="44.4329308" lon="11.1678144"><ele>352.33333333333337</ele><time>2026-03-22T10:46:23.678Z</time></trkpt><trkpt lat="44.4330088" lon="11.167851"><ele>348.6666666666667</ele><time>2026-03-22T10:46:24.678Z</time></trkpt><trkpt lat="44.4330732" lon="11.1678745"><ele>345.0</ele><time>2026-03-22T10:46:25.679Z</time></trkpt><trkpt lat="44.4331426" lon="11.167853"><ele>341.3333333333333</ele><time>2026-03-22T10:46:26.684Z</time></trkpt><trkpt lat="44.4332045" lon="11.1677471"><ele>337.66666666666663</ele><time>2026-03-22T10:46:27.679Z</time></trkpt><trkpt lat="44.433267" lon="11.1676418"><ele>334.0</ele><time>2026-03-22T10:46:28.677Z</time></trkpt><trkpt lat="44.4333324" lon="11.1675386"><ele>334.0</ele><time>2026-03-22T10:46:29.679Z</time></trkpt><trkpt lat="44.4333962" lon="11.1674026"><ele>334.0</ele><time>2026-03-22T10:46:30.676Z</time></trkpt><trkpt lat="44.4334148" lon="11.1672536"><ele>334.0</ele><time>2026-03-22T10:46:31.68Z</time></trkpt><trkpt lat="44.4334524" lon="11.1670911"><ele>334.0</ele><time>2026-03-22T10:46:32.681Z</time></trkpt><trkpt lat="44.4334652" lon="11.1669601"><ele>334.0</ele><time>2026-03-22T10:46:33.68Z</time></trkpt><trkpt lat="44.4334849" lon="11.1668607"><ele>334.6</ele><time>2026-03-22T10:46:34.678Z</time></trkpt><trkpt lat="44.4335452" lon="11.1667789"><ele>335.2</ele><time>2026-03-22T10:46:35.684Z</time></trkpt><trkpt lat="44.4336277" lon="11.1667572"><ele>335.8</ele><time>2026-03-22T10:46:36.682Z</time></trkpt><trkpt lat="44.4337317" lon="11.1667806"><ele>336.40000000000003</ele><time>2026-03-22T10:46:37.681Z</time></trkpt><trkpt lat="44.4338405" lon="11.1668186"><ele>337.0</ele><time>2026-03-22T10:46:38.678Z</time></trkpt><trkpt lat="44.4339539" lon="11.1668481"><ele>337.0</ele><time>2026-03-22T10:46:39.681Z</time></trkpt><trkpt lat="44.4340649" lon="11.1668452"><ele>337.0</ele><time>2026-03-22T10:46:40.687Z</time></trkpt><trkpt lat="44.4341595" lon="11.166809"><ele>337.0</ele><time>2026-03-22T10:46:41.679Z</time></trkpt><trkpt lat="44.4342474" lon="11.1667521"><ele>337.0</ele><time>2026-03-22T10:46:42.68Z</time></trkpt><trkpt lat="44.4343271" lon="11.1666541"><ele>337.0</ele><time>2026-03-22T10:46:43.682Z</time></trkpt><trkpt lat="44.4343908" lon="11.1665289"><ele>339.20000000000005</ele><time>2026-03-22T10:46:44.682Z</time></trkpt><trkpt lat="44.4344338" lon="11.1663826"><ele>341.4</ele><time>2026-03-22T10:46:45.68Z</time></trkpt><trkpt lat="44.4344409" lon="11.1662279"><ele>343.6</ele><time>2026-03-22T10:46:46.682Z</time></trkpt><trkpt lat="44.4344436" lon="11.1660726"><ele>345.79999999999995</ele><time>2026-03-22T10:46:47.686Z</time></trkpt><trkpt lat="44.4344194" lon="11.1659298"><ele>348.0</ele><time>2026-03-22T10:46:48.684Z</time></trkpt><trkpt lat="44.4343702" lon="11.165798"><ele>348.0</ele><time>2026-03-22T10:46:49.685Z</time></trkpt><trkpt lat="44.4342935" lon="11.1657112"><ele>348.0</ele><time>2026-03-22T10:46:50.678Z</time></trkpt><trkpt lat="44.4341991" lon="11.1656576"><ele>348.0</ele><time>2026-03-22T10:46:51.683Z</time></trkpt><trkpt lat="44.4341233" lon="11.1656207"><ele>348.0</ele><time>2026-03-22T10:46:52.682Z</time></trkpt><trkpt lat="44.4340402" lon="11.1655345"><ele>348.0</ele><time>2026-03-22T10:46:54.681Z</time></trkpt><trkpt lat="44.4340322" lon="11.1654444"><ele>348.0</ele><time>2026-03-22T10:47:17.678Z</time></trkpt><trkpt lat="44.4340455" lon="11.1653291"><ele>348.0</ele><time>2026-03-22T10:47:19.679Z</time></trkpt><trkpt lat="44.4340428" lon="11.1652389"><ele>348.0</ele><time>2026-03-22T10:47:20.687Z</time></trkpt><trkpt lat="44.434035" lon="11.1651352"><ele>348.0</ele><time>2026-03-22T10:47:21.673Z</time></trkpt><trkpt lat="44.4340221" lon="11.1649822"><ele>348.0</ele><time>2026-03-22T10:47:23.676Z</time></trkpt><trkpt lat="44.4339835" lon="11.1648384"><ele>348.0</ele><time>2026-03-22T10:47:25.68Z</time></trkpt><trkpt lat="44.4339847" lon="11.1647314"><ele>348.0</ele><time>2026-03-22T10:47:27.687Z</time></trkpt><trkpt lat="44.4339856" lon="11.1646252"><ele>348.0</ele><time>2026-03-22T10:47:29.682Z</time></trkpt><trkpt lat="44.4339987" lon="11.1645119"><ele>348.0</ele><time>2026-03-22T10:47:31.677Z</time></trkpt><trkpt lat="44.4340219" lon="11.1643908"><ele>348.0</ele><time>2026-03-22T10:47:33.684Z</time></trkpt><trkpt lat="44.4340438" lon="11.1642695"><ele>348.0</ele><time>2026-03-22T10:47:35.701Z</time></trkpt><trkpt lat="44.4340597" lon="11.1641554"><ele>348.0</ele><time>2026-03-22T10:47:37.679Z</time></trkpt><trkpt lat="44.4340859" lon="11.1640593"><ele>348.0</ele><time>2026-03-22T10:47:39.688Z</time></trkpt><trkpt lat="44.4341085" lon="11.1639324"><ele>347.2</ele><time>2026-03-22T10:47:42.681Z</time></trkpt><trkpt lat="44.4341078" lon="11.1637833"><ele>346.4</ele><time>2026-03-22T10:47:45.689Z</time></trkpt><trkpt lat="44.4341133" lon="11.1636409"><ele>345.59999999999997</ele><time>2026-03-22T10:47:47.685Z</time></trkpt><trkpt lat="44.4340982" lon="11.1635104"><ele>344.79999999999995</ele><time>2026-03-22T10:47:49.673Z</time></trkpt><trkpt lat="44.4340836" lon="11.1633745"><ele>344.0</ele><time>2026-03-22T10:47:51.679Z</time></trkpt><trkpt lat="44.4341023" lon="11.1632323"><ele>344.5</ele><time>2026-03-22T10:47:53.676Z</time></trkpt><trkpt lat="44.4341437" lon="11.163115"><ele>345.0</ele><time>2026-03-22T10:47:55.685Z</time></trkpt><trkpt lat="44.4342152" lon="11.1630061"><ele>345.5</ele><time>2026-03-22T10:47:57.68Z</time></trkpt><trkpt lat="44.4342744" lon="11.1629355"><ele>346.0</ele><time>2026-03-22T10:47:59.68Z</time></trkpt><trkpt lat="44.4343354" lon="11.1628839"><ele>346.5</ele><time>2026-03-22T10:48:01.681Z</time></trkpt><trkpt lat="44.4344087" lon="11.1628274"><ele>347.0</ele><time>2026-03-22T10:48:03.684Z</time></trkpt><trkpt lat="44.4344865" lon="11.1627854"><ele>347.0</ele><time>2026-03-22T10:48:05.683Z</time></trkpt><trkpt lat="44.4345661" lon="11.1627411"><ele>347.0</ele><time>2026-03-22T10:48:07.684Z</time></trkpt><trkpt lat="44.4346462" lon="11.1626931"><ele>347.0</ele><time>2026-03-22T10:48:09.681Z</time></trkpt><trkpt lat="44.4347198" lon="11.1626349"><ele>347.0</ele><time>2026-03-22T10:48:11.684Z</time></trkpt><trkpt lat="44.4347772" lon="11.1625637"><ele>347.0</ele><time>2026-03-22T10:48:13.693Z</time></trkpt><trkpt lat="44.4348257" lon="11.1624753"><ele>347.0</ele><time>2026-03-22T10:48:15.684Z</time></trkpt><trkpt lat="44.4348516" lon="11.1623745"><ele>342.33333333333337</ele><time>2026-03-22T10:48:17.684Z</time></trkpt><trkpt lat="44.4348547" lon="11.1622669"><ele>337.6666666666667</ele><time>2026-03-22T10:48:19.682Z</time></trkpt><trkpt lat="44.434851" lon="11.1621641"><ele>333.0</ele><time>2026-03-22T10:48:21.679Z</time></trkpt><trkpt lat="44.4348368" lon="11.1620515"><ele>328.3333333333333</ele><time>2026-03-22T10:48:23.679Z</time></trkpt><trkpt lat="44.4348265" lon="11.1619363"><ele>323.66666666666663</ele><time>2026-03-22T10:48:25.677Z</time></trkpt><trkpt lat="44.434823" lon="11.16181"><ele>319.0</ele><time>2026-03-22T10:48:27.677Z</time></trkpt><trkpt lat="44.4348191" lon="11.161685"><ele>319.0</ele><time>2026-03-22T10:48:29.673Z</time></trkpt><trkpt lat="44.4348192" lon="11.1615563"><ele>319.0</ele><time>2026-03-22T10:48:31.668Z</time></trkpt><trkpt lat="44.4348377" lon="11.1614369"><ele>319.0</ele><time>2026-03-22T10:48:33.685Z</time></trkpt><trkpt lat="44.4348759" lon="11.1613266"><ele>319.0</ele><time>2026-03-22T10:48:35.683Z</time></trkpt><trkpt lat="44.4349374" lon="11.1612235"><ele>319.0</ele><time>2026-03-22T10:48:37.683Z</time></trkpt><trkpt lat="44.4349967" lon="11.1611209"><ele>319.79999999999995</ele><time>2026-03-22T10:48:39.67Z</time></trkpt><trkpt lat="44.4350624" lon="11.161018"><ele>320.59999999999997</ele><time>2026-03-22T10:48:41.681Z</time></trkpt><trkpt lat="44.4351349" lon="11.1609117"><ele>321.4</ele><time>2026-03-22T10:48:43.675Z</time></trkpt><trkpt lat="44.4351997" lon="11.1608183"><ele>322.2</ele><time>2026-03-22T10:48:45.684Z</time></trkpt><trkpt lat="44.4352544" lon="11.1607154"><ele>323.0</ele><time>2026-03-22T10:48:47.68Z</time></trkpt><trkpt lat="44.4352954" lon="11.1605997"><ele>323.0</ele><time>2026-03-22T10:48:49.677Z</time></trkpt><trkpt lat="44.4353398" lon="11.160498"><ele>323.0</ele><time>2026-03-22T10:48:51.677Z</time></trkpt><trkpt lat="44.4353626" lon="11.1603785"><ele>323.0</ele><time>2026-03-22T10:51:13.676Z</time></trkpt><trkpt lat="44.4354072" lon="11.1602957"><ele>323.0</ele><time>2026-03-22T10:51:15.687Z</time></trkpt><trkpt lat="44.4355047" lon="11.1602323"><ele>323.0</ele><time>2026-03-22T10:51:17.678Z</time></trkpt><trkpt lat="44.4356088" lon="11.1601851"><ele>322.2</ele><time>2026-03-22T10:51:19.678Z</time></trkpt><trkpt lat="44.4357048" lon="11.1601459"><ele>321.4</ele><time>2026-03-22T10:51:21.686Z</time></trkpt><trkpt lat="44.4357913" lon="11.1601014"><ele>320.59999999999997</ele><time>2026-03-22T10:51:23.671Z</time></trkpt><trkpt lat="44.4358597" lon="11.1599907"><ele>319.79999999999995</ele><time>2026-03-22T10:51:25.683Z</time></trkpt><trkpt lat="44.4359099" lon="11.159937"><ele>319.0</ele><time>2026-03-22T10:51:26.684Z</time></trkpt><trkpt lat="44.4360303" lon="11.1599217"><ele>319.0</ele><time>2026-03-22T10:51:28.689Z</time></trkpt><trkpt lat="44.4360968" lon="11.1599635"><ele>319.0</ele><time>2026-03-22T10:51:29.679Z</time></trkpt><trkpt lat="44.4361684" lon="11.1599777"><ele>319.0</ele><time>2026-03-22T10:51:30.676Z</time></trkpt><trkpt lat="44.4362485" lon="11.1599798"><ele>319.0</ele><time>2026-03-22T10:51:31.682Z</time></trkpt><trkpt lat="44.4363149" lon="11.1599579"><ele>319.0</ele><time>2026-03-22T10:51:32.685Z</time></trkpt><trkpt lat="44.4363816" lon="11.159909"><ele>319.0</ele><time>2026-03-22T10:51:33.682Z</time></trkpt><trkpt lat="44.4364506" lon="11.1598457"><ele>321.0</ele><time>2026-03-22T10:51:34.684Z</time></trkpt><trkpt lat="44.4365167" lon="11.1597779"><ele>323.0</ele><time>2026-03-22T10:51:35.683Z</time></trkpt><trkpt lat="44.4365944" lon="11.1597252"><ele>325.0</ele><time>2026-03-22T10:51:36.688Z</time></trkpt><trkpt lat="44.4366692" lon="11.1596941"><ele>327.0</ele><time>2026-03-22T10:51:37.682Z</time></trkpt><trkpt lat="44.4367491" lon="11.1596716"><ele>329.0</ele><time>2026-03-22T10:51:38.679Z</time></trkpt><trkpt lat="44.4368565" lon="11.1597038"><ele>331.0</ele><time>2026-03-22T10:51:39.683Z</time></trkpt><trkpt lat="44.4369935" lon="11.1597633"><ele>331.0</ele><time>2026-03-22T10:51:40.684Z</time></trkpt><trkpt lat="44.4371205" lon="11.1598412"><ele>331.0</ele><time>2026-03-22T10:51:41.682Z</time></trkpt><trkpt lat="44.4372416" lon="11.1599235"><ele>331.0</ele><time>2026-03-22T10:51:42.692Z</time></trkpt><trkpt lat="44.4373649" lon="11.1600037"><ele>331.0</ele><time>2026-03-22T10:51:43.681Z</time></trkpt><trkpt lat="44.4374975" lon="11.1600602"><ele>332.5</ele><time>2026-03-22T10:51:44.681Z</time></trkpt><trkpt lat="44.4376166" lon="11.1601382"><ele>334.0</ele><time>2026-03-22T10:51:45.677Z</time></trkpt><trkpt lat="44.4377302" lon="11.1602274"><ele>335.5</ele><time>2026-03-22T10:51:46.681Z</time></trkpt><trkpt lat="44.4378516" lon="11.1603214"><ele>337.0</ele><time>2026-03-22T10:51:47.68Z</time></trkpt><trkpt lat="44.4379839" lon="11.1604063"><ele>342.0</ele><time>2026-03-22T10:51:48.679Z</time></trkpt><trkpt lat="44.4381066" lon="11.1604622"><ele>347.0</ele><time>2026-03-22T10:51:49.681Z</time></trkpt><trkpt lat="44.4382611" lon="11.1605387"><ele>352.0</ele><time>2026-03-22T10:51:50.685Z</time></trkpt><trkpt lat="44.438368" lon="11.1605724"><ele>357.0</ele><time>2026-03-22T10:51:51.681Z</time></trkpt><trkpt lat="44.4384673" lon="11.1605525"><ele>357.0</ele><time>2026-03-22T10:51:52.68Z</time></trkpt><trkpt lat="44.4385607" lon="11.1605713"><ele>357.0</ele><time>2026-03-22T10:51:53.684Z</time></trkpt><trkpt lat="44.4386388" lon="11.1605916"><ele>357.0</ele><time>2026-03-22T10:51:54.689Z</time></trkpt><trkpt lat="44.4387103" lon="11.1605918"><ele>357.0</ele><time>2026-03-22T10:51:55.684Z</time></trkpt><trkpt lat="44.4388127" lon="11.16058"><ele>357.0</ele><time>2026-03-22T10:51:57.682Z</time></trkpt><trkpt lat="44.4389694" lon="11.1605191"><ele>357.6</ele><time>2026-03-22T10:51:59.684Z</time></trkpt><trkpt lat="44.4390636" lon="11.1605165"><ele>358.20000000000005</ele><time>2026-03-22T10:52:00.683Z</time></trkpt><trkpt lat="44.4391762" lon="11.1605726"><ele>358.8</ele><time>2026-03-22T10:52:01.699Z</time></trkpt><trkpt lat="44.4392716" lon="11.1606231"><ele>359.4</ele><time>2026-03-22T10:52:02.685Z</time></trkpt><trkpt lat="44.4393829" lon="11.1606911"><ele>360.0</ele><time>2026-03-22T10:52:03.681Z</time></trkpt><trkpt lat="44.4395203" lon="11.1607696"><ele>357.25</ele><time>2026-03-22T10:52:04.683Z</time></trkpt><trkpt lat="44.4396465" lon="11.1608154"><ele>354.5</ele><time>2026-03-22T10:52:05.684Z</time></trkpt><trkpt lat="44.4397827" lon="11.1608283"><ele>351.75</ele><time>2026-03-22T10:52:06.676Z</time></trkpt><trkpt lat="44.439961" lon="11.1608541"><ele>349.0</ele><time>2026-03-22T10:52:07.679Z</time></trkpt><trkpt lat="44.4400784" lon="11.1608516"><ele>349.0</ele><time>2026-03-22T10:52:08.683Z</time></trkpt><trkpt lat="44.4402085" lon="11.160886"><ele>349.0</ele><time>2026-03-22T10:52:09.685Z</time></trkpt><trkpt lat="44.4402827" lon="11.1609143"><ele>349.0</ele><time>2026-03-22T10:52:10.69Z</time></trkpt><trkpt lat="44.4403847" lon="11.1609393"><ele>349.0</ele><time>2026-03-22T10:52:11.68Z</time></trkpt><trkpt lat="44.4404802" lon="11.1611145"><ele>347.79999999999995</ele><time>2026-03-22T10:52:12.686Z</time></trkpt><trkpt lat="44.4405555" lon="11.1612145"><ele>346.59999999999997</ele><time>2026-03-22T10:52:13.684Z</time></trkpt><trkpt lat="44.4406603" lon="11.1612489"><ele>345.4</ele><time>2026-03-22T10:52:14.686Z</time></trkpt><trkpt lat="44.4407732" lon="11.1612872"><ele>344.2</ele><time>2026-03-22T10:52:15.679Z</time></trkpt><trkpt lat="44.4408885" lon="11.1613102"><ele>343.0</ele><time>2026-03-22T10:52:16.689Z</time></trkpt><trkpt lat="44.4410362" lon="11.1613117"><ele>343.0</ele><time>2026-03-22T10:52:17.682Z</time></trkpt><trkpt lat="44.4411466" lon="11.1613088"><ele>343.0</ele><time>2026-03-22T10:52:18.687Z</time></trkpt><trkpt lat="44.4412786" lon="11.1613231"><ele>343.0</ele><time>2026-03-22T10:52:19.678Z</time></trkpt><trkpt lat="44.4414058" lon="11.1613575"><ele>343.0</ele><time>2026-03-22T10:52:20.685Z</time></trkpt><trkpt lat="44.4415149" lon="11.1613814"><ele>340.5</ele><time>2026-03-22T10:52:21.684Z</time></trkpt><trkpt lat="44.4416245" lon="11.1614109"><ele>338.0</ele><time>2026-03-22T10:52:22.684Z</time></trkpt><trkpt lat="44.4417404" lon="11.161521"><ele>335.5</ele><time>2026-03-22T10:52:23.676Z</time></trkpt><trkpt lat="44.4418238" lon="11.1616623"><ele>333.0</ele><time>2026-03-22T10:52:24.682Z</time></trkpt><trkpt lat="44.4419416" lon="11.1618565"><ele>333.0</ele><time>2026-03-22T10:52:25.684Z</time></trkpt><trkpt lat="44.4420357" lon="11.1620167"><ele>333.0</ele><time>2026-03-22T10:52:26.676Z</time></trkpt><trkpt lat="44.4421323" lon="11.1621626"><ele>333.0</ele><time>2026-03-22T10:52:27.683Z</time></trkpt><trkpt lat="44.4422472" lon="11.1623019"><ele>333.0</ele><time>2026-03-22T10:52:28.681Z</time></trkpt><trkpt lat="44.4423571" lon="11.1624379"><ele>336.5</ele><time>2026-03-22T10:52:29.674Z</time></trkpt><trkpt lat="44.4424575" lon="11.1625938"><ele>340.0</ele><time>2026-03-22T10:52:30.68Z</time></trkpt><trkpt lat="44.4425471" lon="11.1627348"><ele>343.5</ele><time>2026-03-22T10:52:31.678Z</time></trkpt><trkpt lat="44.4426524" lon="11.1628705"><ele>347.0</ele><time>2026-03-22T10:52:32.681Z</time></trkpt><trkpt lat="44.4427606" lon="11.1630049"><ele>347.0</ele><time>2026-03-22T10:52:33.682Z</time></trkpt><trkpt lat="44.4428617" lon="11.1631322"><ele>347.0</ele><time>2026-03-22T10:52:34.677Z</time></trkpt><trkpt lat="44.442945" lon="11.1632554"><ele>347.0</ele><time>2026-03-22T10:52:35.697Z</time></trkpt><trkpt lat="44.4430216" lon="11.1633465"><ele>347.0</ele><time>2026-03-22T10:52:36.679Z</time></trkpt><trkpt lat="44.4430866" lon="11.1634219"><ele>347.0</ele><time>2026-03-22T10:52:37.691Z</time></trkpt><trkpt lat="44.4431731" lon="11.1635158"><ele>348.83333333333337</ele><time>2026-03-22T10:52:39.683Z</time></trkpt><trkpt lat="44.4432419" lon="11.1635292"><ele>350.6666666666667</ele><time>2026-03-22T10:52:46.689Z</time></trkpt><trkpt lat="44.4433136" lon="11.1636036"><ele>352.5</ele><time>2026-03-22T10:52:48.692Z</time></trkpt><trkpt lat="44.4433941" lon="11.1636497"><ele>354.3333333333333</ele><time>2026-03-22T10:52:49.682Z</time></trkpt><trkpt lat="44.4434636" lon="11.1637008"><ele>356.16666666666663</ele><time>2026-03-22T10:52:50.678Z</time></trkpt><trkpt lat="44.4435611" lon="11.1637131"><ele>358.0</ele><time>2026-03-22T10:52:51.678Z</time></trkpt><trkpt lat="44.4436563" lon="11.1637188"><ele>358.0</ele><time>2026-03-22T10:52:52.687Z</time></trkpt><trkpt lat="44.4437658" lon="11.1637307"><ele>358.0</ele><time>2026-03-22T10:52:53.681Z</time></trkpt><trkpt lat="44.4438665" lon="11.1637491"><ele>358.0</ele><time>2026-03-22T10:52:54.679Z</time></trkpt><trkpt lat="44.4439747" lon="11.1637773"><ele>358.0</ele><time>2026-03-22T10:52:55.692Z</time></trkpt><trkpt lat="44.4441054" lon="11.1638503"><ele>359.0</ele><time>2026-03-22T10:52:56.678Z</time></trkpt><trkpt lat="44.4442203" lon="11.1639007"><ele>360.0</ele><time>2026-03-22T10:52:57.678Z</time></trkpt><trkpt lat="44.4443209" lon="11.1639579"><ele>361.0</ele><time>2026-03-22T10:52:58.685Z</time></trkpt><trkpt lat="44.4443888" lon="11.1640529"><ele>362.0</ele><time>2026-03-22T10:53:00.682Z</time></trkpt><trkpt lat="44.4444103" lon="11.1642997"><ele>359.0</ele><time>2026-03-22T10:53:01.681Z</time></trkpt><trkpt lat="44.4444013" lon="11.16445"><ele>356.0</ele><time>2026-03-22T10:53:02.678Z</time></trkpt><trkpt lat="44.4443778" lon="11.1645872"><ele>353.0</ele><time>2026-03-22T10:53:03.681Z</time></trkpt><trkpt lat="44.4443521" lon="11.164724"><ele>350.0</ele><time>2026-03-22T10:53:04.68Z</time></trkpt><trkpt lat="44.4443299" lon="11.1648338"><ele>347.0</ele><time>2026-03-22T10:53:05.68Z</time></trkpt><trkpt lat="44.444308" lon="11.1649654"><ele>344.5</ele><time>2026-03-22T10:53:06.684Z</time></trkpt><trkpt lat="44.4443203" lon="11.1651233"><ele>342.0</ele><time>2026-03-22T10:53:07.678Z</time></trkpt><trkpt lat="44.4443547" lon="11.1652425"><ele>339.5</ele><time>2026-03-22T10:53:08.677Z</time></trkpt><trkpt lat="44.4444061" lon="11.1653939"><ele>337.0</ele><time>2026-03-22T10:53:09.679Z</time></trkpt><trkpt lat="44.4444888" lon="11.1655661"><ele>337.3333333333333</ele><time>2026-03-22T10:53:10.676Z</time></trkpt><trkpt lat="44.4445744" lon="11.1657594"><ele>337.6666666666667</ele><time>2026-03-22T10:53:11.675Z</time></trkpt><trkpt lat="44.4446532" lon="11.1659283"><ele>338.0</ele><time>2026-03-22T10:53:12.677Z</time></trkpt><trkpt lat="44.444733" lon="11.1661"><ele>338.0</ele><time>2026-03-22T10:53:13.684Z</time></trkpt><trkpt lat="44.4448174" lon="11.1662377"><ele>338.0</ele><time>2026-03-22T10:53:14.678Z</time></trkpt><trkpt lat="44.4448847" lon="11.1663972"><ele>338.0</ele><time>2026-03-22T10:53:15.676Z</time></trkpt><trkpt lat="44.4449418" lon="11.1665589"><ele>338.0</ele><time>2026-03-22T10:53:16.678Z</time></trkpt><trkpt lat="44.444993" lon="11.1667358"><ele>337.0</ele><time>2026-03-22T10:53:17.701Z</time></trkpt><trkpt lat="44.4450671" lon="11.1669136"><ele>336.0</ele><time>2026-03-22T10:53:18.683Z</time></trkpt><trkpt lat="44.4451501" lon="11.1670842"><ele>335.0</ele><time>2026-03-22T10:53:19.679Z</time></trkpt><trkpt lat="44.4452552" lon="11.1672558"><ele>337.6666666666667</ele><time>2026-03-22T10:53:20.68Z</time></trkpt><trkpt lat="44.4453735" lon="11.1674278"><ele>340.3333333333333</ele><time>2026-03-22T10:53:21.674Z</time></trkpt><trkpt lat="44.4454727" lon="11.1675939"><ele>343.0</ele><time>2026-03-22T10:53:22.677Z</time></trkpt><trkpt lat="44.4455787" lon="11.1677406"><ele>343.0</ele><time>2026-03-22T10:53:23.68Z</time></trkpt><trkpt lat="44.4456417" lon="11.1679185"><ele>343.0</ele><time>2026-03-22T10:53:24.681Z</time></trkpt><trkpt lat="44.4456979" lon="11.168106"><ele>343.0</ele><time>2026-03-22T10:53:25.679Z</time></trkpt><trkpt lat="44.4457511" lon="11.1682604"><ele>343.0</ele><time>2026-03-22T10:53:26.68Z</time></trkpt><trkpt lat="44.4457961" lon="11.1683906"><ele>343.0</ele><time>2026-03-22T10:53:27.682Z</time></trkpt><trkpt lat="44.4458623" lon="11.1684918"><ele>343.0</ele><time>2026-03-22T10:53:28.68Z</time></trkpt><trkpt lat="44.4459464" lon="11.1685769"><ele>343.0</ele><time>2026-03-22T10:53:29.68Z</time></trkpt><trkpt lat="44.446029" lon="11.1686343"><ele>343.0</ele><time>2026-03-22T10:53:30.676Z</time></trkpt><trkpt lat="44.4461191" lon="11.1686842"><ele>343.0</ele><time>2026-03-22T10:53:31.679Z</time></trkpt><trkpt lat="44.4462388" lon="11.1687538"><ele>341.75</ele><time>2026-03-22T10:53:32.678Z</time></trkpt><trkpt lat="44.4463679" lon="11.1688359"><ele>340.5</ele><time>2026-03-22T10:53:33.681Z</time></trkpt><trkpt lat="44.446499" lon="11.1689255"><ele>339.25</ele><time>2026-03-22T10:53:34.678Z</time></trkpt><trkpt lat="44.4466208" lon="11.1690213"><ele>338.0</ele><time>2026-03-22T10:53:35.679Z</time></trkpt><trkpt lat="44.446737" lon="11.1690983"><ele>338.0</ele><time>2026-03-22T10:53:36.68Z</time></trkpt><trkpt lat="44.4468263" lon="11.1692059"><ele>338.0</ele><time>2026-03-22T10:53:37.701Z</time></trkpt><trkpt lat="44.4469018" lon="11.169333"><ele>338.0</ele><time>2026-03-22T10:53:38.683Z</time></trkpt><trkpt lat="44.4469544" lon="11.1694627"><ele>338.0</ele><time>2026-03-22T10:53:39.678Z</time></trkpt><trkpt lat="44.4469921" lon="11.1696198"><ele>338.0</ele><time>2026-03-22T10:53:40.678Z</time></trkpt><trkpt lat="44.4470221" lon="11.1697764"><ele>338.0</ele><time>2026-03-22T10:53:41.678Z</time></trkpt><trkpt lat="44.4470409" lon="11.16994"><ele>338.0</ele><time>2026-03-22T10:53:42.676Z</time></trkpt><trkpt lat="44.4470627" lon="11.1700927"><ele>338.0</ele><time>2026-03-22T10:53:43.681Z</time></trkpt><trkpt lat="44.4470983" lon="11.1702225"><ele>338.0</ele><time>2026-03-22T10:53:44.679Z</time></trkpt><trkpt lat="44.4471566" lon="11.1703453"><ele>342.75</ele><time>2026-03-22T10:53:45.679Z</time></trkpt><trkpt lat="44.4472349" lon="11.1704541"><ele>347.5</ele><time>2026-03-22T10:53:46.681Z</time></trkpt><trkpt lat="44.4473321" lon="11.1705391"><ele>352.25</ele><time>2026-03-22T10:53:47.68Z</time></trkpt><trkpt lat="44.4474505" lon="11.1706029"><ele>357.0</ele><time>2026-03-22T10:53:48.679Z</time></trkpt><trkpt lat="44.447585" lon="11.1706643"><ele>353.5</ele><time>2026-03-22T10:53:49.677Z</time></trkpt><trkpt lat="44.4477238" lon="11.1707195"><ele>350.0</ele><time>2026-03-22T10:53:50.675Z</time></trkpt><trkpt lat="44.4478625" lon="11.1707816"><ele>346.5</ele><time>2026-03-22T10:53:51.679Z</time></trkpt><trkpt lat="44.4479787" lon="11.1708659"><ele>343.0</ele><time>2026-03-22T10:53:52.675Z</time></trkpt><trkpt lat="44.448094" lon="11.1709806"><ele>343.75</ele><time>2026-03-22T10:53:53.677Z</time></trkpt><trkpt lat="44.4482061" lon="11.171125"><ele>344.5</ele><time>2026-03-22T10:53:54.676Z</time></trkpt><trkpt lat="44.4483134" lon="11.1712571"><ele>345.25</ele><time>2026-03-22T10:53:55.677Z</time></trkpt><trkpt lat="44.4483751" lon="11.1713929"><ele>346.0</ele><time>2026-03-22T10:53:56.675Z</time></trkpt><trkpt lat="44.4484568" lon="11.171525"><ele>346.0</ele><time>2026-03-22T10:53:57.701Z</time></trkpt><trkpt lat="44.4485318" lon="11.1716395"><ele>346.0</ele><time>2026-03-22T10:53:58.676Z</time></trkpt><trkpt lat="44.4485995" lon="11.1717221"><ele>346.0</ele><time>2026-03-22T10:53:59.683Z</time></trkpt><trkpt lat="44.4486391" lon="11.1718059"><ele>346.0</ele><time>2026-03-22T10:54:00.681Z</time></trkpt><trkpt lat="44.4486741" lon="11.1718837"><ele>346.0</ele><time>2026-03-22T10:54:01.68Z</time></trkpt><trkpt lat="44.4487001" lon="11.1720238"><ele>346.0</ele><time>2026-03-22T10:54:03.701Z</time></trkpt><trkpt lat="44.4487058" lon="11.1721631"><ele>346.0</ele><time>2026-03-22T10:54:05.679Z</time></trkpt><trkpt lat="44.4487262" lon="11.1723163"><ele>346.0</ele><time>2026-03-22T10:54:07.682Z</time></trkpt><trkpt lat="44.4487324" lon="11.1724447"><ele>346.0</ele><time>2026-03-22T10:54:09.678Z</time></trkpt><trkpt lat="44.4487293" lon="11.1725912"><ele>346.0</ele><time>2026-03-22T10:54:11.681Z</time></trkpt><trkpt lat="44.4487347" lon="11.1727436"><ele>346.0</ele><time>2026-03-22T10:54:13.678Z</time></trkpt><trkpt lat="44.4487448" lon="11.1728969"><ele>345.0</ele><time>2026-03-22T10:54:15.676Z</time></trkpt><trkpt lat="44.4487534" lon="11.1729951"><ele>344.0</ele><time>2026-03-22T10:54:17.678Z</time></trkpt><trkpt lat="44.4487215" lon="11.1731172"><ele>343.0</ele><time>2026-03-22T10:54:19.687Z</time></trkpt><trkpt lat="44.4486852" lon="11.1732096"><ele>342.0</ele><time>2026-03-22T10:54:20.675Z</time></trkpt><trkpt lat="44.4486221" lon="11.1732473"><ele>341.0</ele><time>2026-03-22T10:54:21.682Z</time></trkpt><trkpt lat="44.4485497" lon="11.1733485"><ele>340.0</ele><time>2026-03-22T10:54:23.679Z</time></trkpt><trkpt lat="44.4484463" lon="11.1734344"><ele>340.0</ele><time>2026-03-22T10:54:24.678Z</time></trkpt><trkpt lat="44.4483746" lon="11.1734785"><ele>340.0</ele><time>2026-03-22T10:54:25.68Z</time></trkpt><trkpt lat="44.4483026" lon="11.173534"><ele>340.0</ele><time>2026-03-22T10:54:26.675Z</time></trkpt><trkpt lat="44.4482579" lon="11.1736107"><ele>340.0</ele><time>2026-03-22T10:54:27.681Z</time></trkpt><trkpt lat="44.4481969" lon="11.1736809"><ele>340.0</ele><time>2026-03-22T10:54:28.677Z</time></trkpt><trkpt lat="44.4481443" lon="11.1737561"><ele>340.0</ele><time>2026-03-22T10:54:29.678Z</time></trkpt><trkpt lat="44.4480823" lon="11.1738045"><ele>340.0</ele><time>2026-03-22T10:54:30.681Z</time></trkpt><trkpt lat="44.4479783" lon="11.1738862"><ele>340.0</ele><time>2026-03-22T10:54:32.685Z</time></trkpt><trkpt lat="44.4478704" lon="11.1739169"><ele>340.0</ele><time>2026-03-22T10:54:34.701Z</time></trkpt><trkpt lat="44.4478473" lon="11.1740402"><ele>340.0</ele><time>2026-03-22T10:54:47.685Z</time></trkpt><trkpt lat="44.4479225" lon="11.1741675"><ele>340.0</ele><time>2026-03-22T10:54:49.683Z</time></trkpt><trkpt lat="44.4479844" lon="11.1742425"><ele>341.8</ele><time>2026-03-22T10:54:50.687Z</time></trkpt><trkpt lat="44.4480561" lon="11.1743119"><ele>343.6</ele><time>2026-03-22T10:54:51.682Z</time></trkpt><trkpt lat="44.4481594" lon="11.1743882"><ele>345.4</ele><time>2026-03-22T10:54:52.68Z</time></trkpt><trkpt lat="44.4482727" lon="11.1744528"><ele>347.2</ele><time>2026-03-22T10:54:53.677Z</time></trkpt><trkpt lat="44.4483751" lon="11.1745159"><ele>349.0</ele><time>2026-03-22T10:54:54.687Z</time></trkpt><trkpt lat="44.448476" lon="11.1745726"><ele>349.0</ele><time>2026-03-22T10:54:55.701Z</time></trkpt><trkpt lat="44.4485878" lon="11.1746268"><ele>349.0</ele><time>2026-03-22T10:54:56.675Z</time></trkpt><trkpt lat="44.4486921" lon="11.1746883"><ele>349.0</ele><time>2026-03-22T10:54:57.68Z</time></trkpt><trkpt lat="44.4487905" lon="11.1747508"><ele>349.0</ele><time>2026-03-22T10:54:58.678Z</time></trkpt><trkpt lat="44.4488787" lon="11.1748201"><ele>349.0</ele><time>2026-03-22T10:54:59.682Z</time></trkpt><trkpt lat="44.4489812" lon="11.1748608"><ele>349.0</ele><time>2026-03-22T10:55:00.689Z</time></trkpt><trkpt lat="44.4490734" lon="11.174915"><ele>349.0</ele><time>2026-03-22T10:55:01.676Z</time></trkpt><trkpt lat="44.4491701" lon="11.1749394"><ele>349.0</ele><time>2026-03-22T10:55:02.681Z</time></trkpt><trkpt lat="44.4492771" lon="11.1749768"><ele>349.0</ele><time>2026-03-22T10:55:03.676Z</time></trkpt><trkpt lat="44.4493891" lon="11.1749984"><ele>349.0</ele><time>2026-03-22T10:55:04.68Z</time></trkpt><trkpt lat="44.4494928" lon="11.1750112"><ele>349.0</ele><time>2026-03-22T10:55:05.679Z</time></trkpt><trkpt lat="44.4495914" lon="11.1750162"><ele>349.0</ele><time>2026-03-22T10:55:06.681Z</time></trkpt><trkpt lat="44.4496865" lon="11.1750264"><ele>349.0</ele><time>2026-03-22T10:55:07.681Z</time></trkpt><trkpt lat="44.4497679" lon="11.1750519"><ele>349.0</ele><time>2026-03-22T10:55:08.677Z</time></trkpt><trkpt lat="44.4498464" lon="11.175057"><ele>349.0</ele><time>2026-03-22T10:55:09.676Z</time></trkpt><trkpt lat="44.4499092" lon="11.1750677"><ele>349.0</ele><time>2026-03-22T10:55:10.679Z</time></trkpt><trkpt lat="44.4499851" lon="11.1750917"><ele>350.4</ele><time>2026-03-22T10:55:19.681Z</time></trkpt><trkpt lat="44.4500646" lon="11.1750711"><ele>351.79999999999995</ele><time>2026-03-22T10:55:22.683Z</time></trkpt><trkpt lat="44.4500991" lon="11.1749529"><ele>353.20000000000005</ele><time>2026-03-22T10:55:42.686Z</time></trkpt><trkpt lat="44.4501739" lon="11.1747977"><ele>354.6</ele><time>2026-03-22T10:55:44.675Z</time></trkpt><trkpt lat="44.4502239" lon="11.1746968"><ele>356.0</ele><time>2026-03-22T10:55:45.68Z</time></trkpt><trkpt lat="44.4502665" lon="11.1745828"><ele>357.75</ele><time>2026-03-22T10:55:46.672Z</time></trkpt><trkpt lat="44.4503907" lon="11.1745443"><ele>359.5</ele><time>2026-03-22T10:55:47.676Z</time></trkpt><trkpt lat="44.4505077" lon="11.1743989"><ele>361.25</ele><time>2026-03-22T10:55:48.677Z</time></trkpt><trkpt lat="44.4506125" lon="11.1742563"><ele>363.0</ele><time>2026-03-22T10:55:49.679Z</time></trkpt><trkpt lat="44.4507047" lon="11.1740869"><ele>361.0</ele><time>2026-03-22T10:55:50.675Z</time></trkpt><trkpt lat="44.4508057" lon="11.1739516"><ele>359.0</ele><time>2026-03-22T10:55:51.683Z</time></trkpt><trkpt lat="44.4509193" lon="11.1738313"><ele>357.0</ele><time>2026-03-22T10:55:52.68Z</time></trkpt><trkpt lat="44.451036" lon="11.1737311"><ele>355.0</ele><time>2026-03-22T10:55:53.68Z</time></trkpt><trkpt lat="44.4511611" lon="11.1736483"><ele>355.0</ele><time>2026-03-22T10:55:54.677Z</time></trkpt><trkpt lat="44.4512856" lon="11.1735786"><ele>355.0</ele><time>2026-03-22T10:55:55.681Z</time></trkpt><trkpt lat="44.4513958" lon="11.1734771"><ele>355.0</ele><time>2026-03-22T10:55:56.701Z</time></trkpt><trkpt lat="44.4515063" lon="11.1733602"><ele>355.0</ele><time>2026-03-22T10:55:57.68Z</time></trkpt><trkpt lat="44.4516212" lon="11.1732412"><ele>350.0</ele><time>2026-03-22T10:55:58.677Z</time></trkpt><trkpt lat="44.4516841" lon="11.1731221"><ele>345.0</ele><time>2026-03-22T10:55:59.676Z</time></trkpt><trkpt lat="44.4517947" lon="11.1730253"><ele>340.0</ele><time>2026-03-22T10:56:00.676Z</time></trkpt><trkpt lat="44.4519015" lon="11.1729363"><ele>335.0</ele><time>2026-03-22T10:56:01.678Z</time></trkpt><trkpt lat="44.4520396" lon="11.1728841"><ele>334.25</ele><time>2026-03-22T10:56:02.683Z</time></trkpt><trkpt lat="44.4521514" lon="11.1728024"><ele>333.5</ele><time>2026-03-22T10:56:03.685Z</time></trkpt><trkpt lat="44.452268" lon="11.1727159"><ele>332.75</ele><time>2026-03-22T10:56:04.681Z</time></trkpt><trkpt lat="44.4523595" lon="11.1725701"><ele>332.0</ele><time>2026-03-22T10:56:05.677Z</time></trkpt><trkpt lat="44.4524729" lon="11.1724835"><ele>332.0</ele><time>2026-03-22T10:56:06.678Z</time></trkpt><trkpt lat="44.4526074" lon="11.1724334"><ele>332.0</ele><time>2026-03-22T10:56:07.677Z</time></trkpt><trkpt lat="44.4527266" lon="11.1723887"><ele>332.0</ele><time>2026-03-22T10:56:08.678Z</time></trkpt><trkpt lat="44.4528234" lon="11.1723497"><ele>332.0</ele><time>2026-03-22T10:56:09.674Z</time></trkpt><trkpt lat="44.4529281" lon="11.172311"><ele>326.0</ele><time>2026-03-22T10:56:10.68Z</time></trkpt><trkpt lat="44.4530262" lon="11.1722686"><ele>320.0</ele><time>2026-03-22T10:56:11.675Z</time></trkpt><trkpt lat="44.4531407" lon="11.1722291"><ele>314.0</ele><time>2026-03-22T10:56:12.674Z</time></trkpt><trkpt lat="44.4532362" lon="11.1721867"><ele>308.0</ele><time>2026-03-22T10:56:13.675Z</time></trkpt><trkpt lat="44.4533344" lon="11.1721666"><ele>302.0</ele><time>2026-03-22T10:56:14.677Z</time></trkpt><trkpt lat="44.4534273" lon="11.1721996"><ele>302.0</ele><time>2026-03-22T10:56:15.677Z</time></trkpt><trkpt lat="44.4535356" lon="11.1722166"><ele>302.0</ele><time>2026-03-22T10:56:16.676Z</time></trkpt><trkpt lat="44.4536343" lon="11.1722372"><ele>302.0</ele><time>2026-03-22T10:56:17.682Z</time></trkpt><trkpt lat="44.4537184" lon="11.1722761"><ele>302.0</ele><time>2026-03-22T10:56:18.682Z</time></trkpt><trkpt lat="44.4538293" lon="11.1723002"><ele>302.0</ele><time>2026-03-22T10:56:19.677Z</time></trkpt><trkpt lat="44.453919" lon="11.1723419"><ele>300.6</ele><time>2026-03-22T10:56:20.684Z</time></trkpt><trkpt lat="44.4540007" lon="11.1723886"><ele>299.2</ele><time>2026-03-22T10:56:21.68Z</time></trkpt><trkpt lat="44.454069" lon="11.1724322"><ele>297.8</ele><time>2026-03-22T10:56:22.677Z</time></trkpt><trkpt lat="44.4541736" lon="11.1724861"><ele>296.4</ele><time>2026-03-22T10:56:23.68Z</time></trkpt><trkpt lat="44.4542792" lon="11.1725323"><ele>295.0</ele><time>2026-03-22T10:56:24.68Z</time></trkpt><trkpt lat="44.4543786" lon="11.172566"><ele>295.0</ele><time>2026-03-22T10:56:25.68Z</time></trkpt><trkpt lat="44.4544788" lon="11.1726033"><ele>295.0</ele><time>2026-03-22T10:56:26.678Z</time></trkpt><trkpt lat="44.4545851" lon="11.1726298"><ele>295.0</ele><time>2026-03-22T10:56:27.675Z</time></trkpt><trkpt lat="44.4546921" lon="11.1726452"><ele>295.0</ele><time>2026-03-22T10:56:28.676Z</time></trkpt><trkpt lat="44.4548009" lon="11.1726464"><ele>295.0</ele><time>2026-03-22T10:56:29.681Z</time></trkpt><trkpt lat="44.4549153" lon="11.1726262"><ele>291.0</ele><time>2026-03-22T10:56:30.678Z</time></trkpt><trkpt lat="44.4550251" lon="11.1725936"><ele>287.0</ele><time>2026-03-22T10:56:31.678Z</time></trkpt><trkpt lat="44.4551438" lon="11.1725657"><ele>283.0</ele><time>2026-03-22T10:56:32.678Z</time></trkpt><trkpt lat="44.4552602" lon="11.1725434"><ele>279.0</ele><time>2026-03-22T10:56:33.689Z</time></trkpt><trkpt lat="44.4553793" lon="11.1725218"><ele>275.0</ele><time>2026-03-22T10:56:34.678Z</time></trkpt><trkpt lat="44.4554935" lon="11.1724944"><ele>271.0</ele><time>2026-03-22T10:56:35.676Z</time></trkpt><trkpt lat="44.4556149" lon="11.1724728"><ele>267.0</ele><time>2026-03-22T10:56:36.678Z</time></trkpt><trkpt lat="44.4557318" lon="11.17244"><ele>263.0</ele><time>2026-03-22T10:56:37.68Z</time></trkpt><trkpt lat="44.4558527" lon="11.172425"><ele>263.0</ele><time>2026-03-22T10:56:38.683Z</time></trkpt><trkpt lat="44.4559642" lon="11.1724116"><ele>263.0</ele><time>2026-03-22T10:56:39.685Z</time></trkpt><trkpt lat="44.4560585" lon="11.1724048"><ele>263.0</ele><time>2026-03-22T10:56:40.685Z</time></trkpt><trkpt lat="44.4561259" lon="11.172416"><ele>263.0</ele><time>2026-03-22T10:56:41.685Z</time></trkpt><trkpt lat="44.4561983" lon="11.1724078"><ele>263.0</ele><time>2026-03-22T10:56:42.701Z</time></trkpt><trkpt lat="44.4562524" lon="11.1723553"><ele>263.0</ele><time>2026-03-22T10:56:44.679Z</time></trkpt><trkpt lat="44.4561885" lon="11.172255"><ele>260.25</ele><time>2026-03-22T10:56:46.689Z</time></trkpt><trkpt lat="44.4561072" lon="11.1721812"><ele>257.5</ele><time>2026-03-22T10:56:47.685Z</time></trkpt><trkpt lat="44.456012" lon="11.1720746"><ele>254.75</ele><time>2026-03-22T10:56:48.676Z</time></trkpt><trkpt lat="44.455918" lon="11.1719674"><ele>252.0</ele><time>2026-03-22T10:56:49.678Z</time></trkpt><trkpt lat="44.4558235" lon="11.1718608"><ele>252.0</ele><time>2026-03-22T10:56:50.676Z</time></trkpt><trkpt lat="44.4557319" lon="11.1717516"><ele>252.0</ele><time>2026-03-22T10:56:51.683Z</time></trkpt><trkpt lat="44.4556477" lon="11.171641"><ele>252.0</ele><time>2026-03-22T10:56:52.671Z</time></trkpt><trkpt lat="44.4555731" lon="11.171533"><ele>252.0</ele><time>2026-03-22T10:56:53.679Z</time></trkpt><trkpt lat="44.4555038" lon="11.171426"><ele>252.0</ele><time>2026-03-22T10:56:54.677Z</time></trkpt><trkpt lat="44.4554422" lon="11.1713278"><ele>251.33333333333334</ele><time>2026-03-22T10:56:55.675Z</time></trkpt><trkpt lat="44.4553868" lon="11.1712334"><ele>250.66666666666669</ele><time>2026-03-22T10:56:56.676Z</time></trkpt><trkpt lat="44.4553448" lon="11.1711548"><ele>250.0</ele><time>2026-03-22T10:56:57.674Z</time></trkpt><trkpt lat="44.4553105" lon="11.1710662"><ele>249.33333333333334</ele><time>2026-03-22T10:56:58.674Z</time></trkpt><trkpt lat="44.4553053" lon="11.1709577"><ele>248.66666666666669</ele><time>2026-03-22T10:57:00.671Z</time></trkpt><trkpt lat="44.4554096" lon="11.1709447"><ele>248.0</ele><time>2026-03-22T10:57:02.677Z</time></trkpt><trkpt lat="44.4555077" lon="11.1709957"><ele>245.4</ele><time>2026-03-22T10:57:03.681Z</time></trkpt><trkpt lat="44.4555979" lon="11.1710443"><ele>242.8</ele><time>2026-03-22T10:57:04.684Z</time></trkpt><trkpt lat="44.4556884" lon="11.1710748"><ele>240.2</ele><time>2026-03-22T10:57:05.68Z</time></trkpt><trkpt lat="44.4558007" lon="11.1710489"><ele>237.6</ele><time>2026-03-22T10:57:06.671Z</time></trkpt><trkpt lat="44.4558896" lon="11.1710363"><ele>235.0</ele><time>2026-03-22T10:57:07.683Z</time></trkpt><trkpt lat="44.4559667" lon="11.1710311"><ele>234.99999999999997</ele><time>2026-03-22T10:57:08.701Z</time></trkpt><trkpt lat="44.456035" lon="11.1709814"><ele>235.0</ele><time>2026-03-22T10:57:10.676Z</time></trkpt><trkpt lat="44.4561145" lon="11.1709884"><ele>235.0</ele><time>2026-03-22T10:57:15.701Z</time></trkpt><trkpt lat="44.4561654" lon="11.171053"><ele>235.0</ele><time>2026-03-22T10:57:17.683Z</time></trkpt><trkpt lat="44.456213" lon="11.1711172"><ele>234.99999999999997</ele><time>2026-03-22T10:57:19.681Z</time></trkpt><trkpt lat="44.4562646" lon="11.1711689"><ele>235.0</ele><time>2026-03-22T10:57:20.679Z</time></trkpt><trkpt lat="44.4564606" lon="11.1711953"><ele>231.6</ele><time>2026-03-22T10:57:22.701Z</time></trkpt><trkpt lat="44.4565759" lon="11.1712075"><ele>228.2</ele><time>2026-03-22T10:57:23.701Z</time></trkpt><trkpt lat="44.4566928" lon="11.1712248"><ele>224.8</ele><time>2026-03-22T10:57:24.678Z</time></trkpt><trkpt lat="44.4568003" lon="11.1712476"><ele>221.4</ele><time>2026-03-22T10:57:25.677Z</time></trkpt><trkpt lat="44.4568898" lon="11.1712772"><ele>218.0</ele><time>2026-03-22T10:57:26.676Z</time></trkpt><trkpt lat="44.4569664" lon="11.1712927"><ele>218.0</ele><time>2026-03-22T10:57:27.701Z</time></trkpt><trkpt lat="44.4570323" lon="11.1713284"><ele>218.0</ele><time>2026-03-22T10:57:28.682Z</time></trkpt><trkpt lat="44.4571047" lon="11.1714195"><ele>218.0</ele><time>2026-03-22T10:57:29.683Z</time></trkpt><trkpt lat="44.4571796" lon="11.1715275"><ele>218.0</ele><time>2026-03-22T10:57:30.681Z</time></trkpt><trkpt lat="44.457252" lon="11.1716274"><ele>218.0</ele><time>2026-03-22T10:57:31.673Z</time></trkpt><trkpt lat="44.4573354" lon="11.1716956"><ele>219.60000000000002</ele><time>2026-03-22T10:57:32.701Z</time></trkpt><trkpt lat="44.4574123" lon="11.1717606"><ele>221.20000000000002</ele><time>2026-03-22T10:57:33.701Z</time></trkpt><trkpt lat="44.4574694" lon="11.1718163"><ele>222.8</ele><time>2026-03-22T10:57:34.68Z</time></trkpt><trkpt lat="44.4575131" lon="11.171995"><ele>224.4</ele><time>2026-03-22T10:57:36.682Z</time></trkpt><trkpt lat="44.4575388" lon="11.1721003"><ele>226.0</ele><time>2026-03-22T10:57:37.687Z</time></trkpt><trkpt lat="44.457571" lon="11.1722008"><ele>225.99999999999997</ele><time>2026-03-22T10:57:38.678Z</time></trkpt><trkpt lat="44.4576452" lon="11.1723507"><ele>226.0</ele><time>2026-03-22T10:57:40.681Z</time></trkpt><trkpt lat="44.4576906" lon="11.1724124"><ele>226.0</ele><time>2026-03-22T10:57:41.683Z</time></trkpt><trkpt lat="44.4577336" lon="11.172482"><ele>226.0</ele><time>2026-03-22T10:57:42.677Z</time></trkpt><trkpt lat="44.4577758" lon="11.1725477"><ele>225.99999999999997</ele><time>2026-03-22T10:57:43.681Z</time></trkpt><trkpt lat="44.4578645" lon="11.1726165"><ele>226.0</ele><time>2026-03-22T10:57:45.697Z</time></trkpt><trkpt lat="44.4579047" lon="11.1724963"><ele>226.0</ele><time>2026-03-22T10:57:47.683Z</time></trkpt><trkpt lat="44.4578318" lon="11.1723632"><ele>226.00000000000003</ele><time>2026-03-22T10:57:49.695Z</time></trkpt><trkpt lat="44.4577774" lon="11.1721792"><ele>226.00000000000003</ele><time>2026-03-22T10:57:51.679Z</time></trkpt><trkpt lat="44.4577439" lon="11.1720867"><ele>226.0</ele><time>2026-03-22T10:57:52.701Z</time></trkpt><trkpt lat="44.4577176" lon="11.1719719"><ele>226.0</ele><time>2026-03-22T10:57:53.684Z</time></trkpt><trkpt lat="44.4577326" lon="11.1717778"><ele>226.0</ele><time>2026-03-22T10:57:55.701Z</time></trkpt><trkpt lat="44.4577262" lon="11.1716538"><ele>226.00000000000003</ele><time>2026-03-22T10:57:56.685Z</time></trkpt><trkpt lat="44.457756" lon="11.1714354"><ele>226.00000000000003</ele><time>2026-03-22T10:57:57.683Z</time></trkpt><trkpt lat="44.4577412" lon="11.1713195"><ele>226.0</ele><time>2026-03-22T10:57:58.679Z</time></trkpt><trkpt lat="44.4577355" lon="11.1712282"><ele>226.0</ele><time>2026-03-22T10:57:59.685Z</time></trkpt><trkpt lat="44.4577267" lon="11.1711377"><ele>226.0</ele><time>2026-03-22T10:58:02.68Z</time></trkpt><trkpt lat="44.4577786" lon="11.1711953"><ele>226.00000000000003</ele><time>2026-03-22T10:58:25.682Z</time></trkpt><trkpt lat="44.4578003" lon="11.1713034"><ele>226.00000000000003</ele><time>2026-03-22T10:58:36.677Z</time></trkpt><trkpt lat="44.4578483" lon="11.1714553"><ele>226.0</ele><time>2026-03-22T10:58:38.671Z</time></trkpt><trkpt lat="44.4579153" lon="11.1716018"><ele>226.0</ele><time>2026-03-22T10:58:40.701Z</time></trkpt><trkpt lat="44.4579575" lon="11.1716725"><ele>219.66666666666666</ele><time>2026-03-22T10:58:41.683Z</time></trkpt><trkpt lat="44.4580436" lon="11.1718048"><ele>213.33333333333331</ele><time>2026-03-22T10:58:43.678Z</time></trkpt><trkpt lat="44.4581034" lon="11.1718522"><ele>207.0</ele><time>2026-03-22T10:58:44.677Z</time></trkpt><trkpt lat="44.4581674" lon="11.1719238"><ele>200.66666666666666</ele><time>2026-03-22T10:58:45.678Z</time></trkpt><trkpt lat="44.4582332" lon="11.171995"><ele>194.33333333333331</ele><time>2026-03-22T10:58:48.683Z</time></trkpt><trkpt lat="44.4582861" lon="11.1720565"><ele>188.0</ele><time>2026-03-22T10:58:50.682Z</time></trkpt><trkpt lat="44.4583358" lon="11.1721416"><ele>188.0</ele><time>2026-03-22T10:58:53.68Z</time></trkpt><trkpt lat="44.4583345" lon="11.171997"><ele>188.0</ele><time>2026-03-22T10:58:57.684Z</time></trkpt><trkpt lat="44.4582933" lon="11.1719085"><ele>188.0</ele><time>2026-03-22T10:58:58.674Z</time></trkpt><trkpt lat="44.4582535" lon="11.171807"><ele>188.0</ele><time>2026-03-22T10:58:59.678Z</time></trkpt><trkpt lat="44.4582135" lon="11.1717004"><ele>188.0</ele><time>2026-03-22T10:59:00.675Z</time></trkpt><trkpt lat="44.4581875" lon="11.1716198"><ele>188.0</ele><time>2026-03-22T10:59:01.676Z</time></trkpt><trkpt lat="44.4581597" lon="11.171536"><ele>184.4</ele><time>2026-03-22T10:59:02.671Z</time></trkpt><trkpt lat="44.4581377" lon="11.17142"><ele>180.8</ele><time>2026-03-22T10:59:04.702Z</time></trkpt><trkpt lat="44.4581196" lon="11.1713291"><ele>177.2</ele><time>2026-03-22T10:59:05.686Z</time></trkpt><trkpt lat="44.4580872" lon="11.1711973"><ele>173.6</ele><time>2026-03-22T10:59:06.678Z</time></trkpt><trkpt lat="44.4580492" lon="11.1710761"><ele>170.0</ele><time>2026-03-22T10:59:07.701Z</time></trkpt><trkpt lat="44.4580254" lon="11.1708424"><ele>170.0</ele><time>2026-03-22T10:59:08.701Z</time></trkpt><trkpt lat="44.4579849" lon="11.1706963"><ele>170.0</ele><time>2026-03-22T10:59:09.701Z</time></trkpt><trkpt lat="44.4579476" lon="11.170545"><ele>170.0</ele><time>2026-03-22T10:59:10.684Z</time></trkpt><trkpt lat="44.4579329" lon="11.1703958"><ele>170.0</ele><time>2026-03-22T10:59:11.675Z</time></trkpt><trkpt lat="44.4578907" lon="11.1703034"><ele>170.0</ele><time>2026-03-22T10:59:12.674Z</time></trkpt><trkpt lat="44.4578489" lon="11.1701643"><ele>169.2</ele><time>2026-03-22T10:59:13.701Z</time></trkpt><trkpt lat="44.4577938" lon="11.1700255"><ele>168.4</ele><time>2026-03-22T10:59:14.701Z</time></trkpt><trkpt lat="44.4577504" lon="11.1698834"><ele>167.60000000000002</ele><time>2026-03-22T10:59:15.701Z</time></trkpt><trkpt lat="44.4576962" lon="11.1697643"><ele>166.8</ele><time>2026-03-22T10:59:16.682Z</time></trkpt><trkpt lat="44.4576489" lon="11.1696654"><ele>166.0</ele><time>2026-03-22T10:59:17.68Z</time></trkpt><trkpt lat="44.4575804" lon="11.1695787"><ele>166.0</ele><time>2026-03-22T10:59:18.686Z</time></trkpt><trkpt lat="44.457519" lon="11.1694716"><ele>166.0</ele><time>2026-03-22T10:59:19.701Z</time></trkpt><trkpt lat="44.4574824" lon="11.1693812"><ele>166.0</ele><time>2026-03-22T10:59:20.678Z</time></trkpt><trkpt lat="44.4574878" lon="11.1692346"><ele>166.0</ele><time>2026-03-22T10:59:23.682Z</time></trkpt><trkpt lat="44.4574995" lon="11.1691216"><ele>166.0</ele><time>2026-03-22T10:59:24.701Z</time></trkpt><trkpt lat="44.4575483" lon="11.1689826"><ele>164.5</ele><time>2026-03-22T10:59:25.701Z</time></trkpt><trkpt lat="44.4575899" lon="11.1688378"><ele>163.0</ele><time>2026-03-22T10:59:26.701Z</time></trkpt><trkpt lat="44.4576144" lon="11.1686796"><ele>161.5</ele><time>2026-03-22T10:59:27.684Z</time></trkpt><trkpt lat="44.4576637" lon="11.168534"><ele>160.0</ele><time>2026-03-22T10:59:28.685Z</time></trkpt><trkpt lat="44.4577066" lon="11.1683858"><ele>160.0</ele><time>2026-03-22T10:59:29.684Z</time></trkpt><trkpt lat="44.4577419" lon="11.1682697"><ele>160.0</ele><time>2026-03-22T10:59:30.681Z</time></trkpt><trkpt lat="44.457775" lon="11.1681661"><ele>160.0</ele><time>2026-03-22T10:59:31.701Z</time></trkpt><trkpt lat="44.4578355" lon="11.1680572"><ele>160.0</ele><time>2026-03-22T10:59:32.683Z</time></trkpt><trkpt lat="44.4578836" lon="11.1679152"><ele>160.0</ele><time>2026-03-22T10:59:33.701Z</time></trkpt><trkpt lat="44.4579284" lon="11.167788"><ele>155.33333333333334</ele><time>2026-03-22T10:59:34.69Z</time></trkpt><trkpt lat="44.4579824" lon="11.1677047"><ele>150.66666666666669</ele><time>2026-03-22T10:59:35.683Z</time></trkpt><trkpt lat="44.4580259" lon="11.1676127"><ele>146.0</ele><time>2026-03-22T10:59:36.682Z</time></trkpt><trkpt lat="44.4580773" lon="11.167505"><ele>141.33333333333334</ele><time>2026-03-22T10:59:37.678Z</time></trkpt><trkpt lat="44.4580854" lon="11.1674057"><ele>136.66666666666666</ele><time>2026-03-22T10:59:38.686Z</time></trkpt><trkpt lat="44.4580752" lon="11.1672949"><ele>132.0</ele><time>2026-03-22T10:59:39.68Z</time></trkpt><trkpt lat="44.4580634" lon="11.1671778"><ele>132.0</ele><time>2026-03-22T10:59:40.701Z</time></trkpt><trkpt lat="44.4580288" lon="11.1670539"><ele>132.0</ele><time>2026-03-22T10:59:41.681Z</time></trkpt><trkpt lat="44.4579652" lon="11.1669595"><ele>132.0</ele><time>2026-03-22T10:59:42.686Z</time></trkpt><trkpt lat="44.4578216" lon="11.1667474"><ele>132.0</ele><time>2026-03-22T10:59:44.679Z</time></trkpt><trkpt lat="44.457763" lon="11.1666727"><ele>132.0</ele><time>2026-03-22T10:59:45.678Z</time></trkpt><trkpt lat="44.4577018" lon="11.1665954"><ele>132.0</ele><time>2026-03-22T10:59:47.676Z</time></trkpt><trkpt lat="44.4577573" lon="11.1665421"><ele>132.0</ele><time>2026-03-22T10:59:48.688Z</time></trkpt><trkpt lat="44.4578631" lon="11.166531"><ele>132.0</ele><time>2026-03-22T10:59:50.688Z</time></trkpt><trkpt lat="44.4579441" lon="11.166546"><ele>132.0</ele><time>2026-03-22T10:59:51.682Z</time></trkpt><trkpt lat="44.4580087" lon="11.1665629"><ele>132.0</ele><time>2026-03-22T10:59:52.701Z</time></trkpt><trkpt lat="44.458128" lon="11.1666285"><ele>132.0</ele><time>2026-03-22T10:59:54.701Z</time></trkpt><trkpt lat="44.4581453" lon="11.1667338"><ele>132.0</ele><time>2026-03-22T10:59:55.676Z</time></trkpt><trkpt lat="44.4582165" lon="11.1668675"><ele>132.0</ele><time>2026-03-22T10:59:57.68Z</time></trkpt><trkpt lat="44.4582987" lon="11.1669725"><ele>132.0</ele><time>2026-03-22T10:59:59.685Z</time></trkpt><trkpt lat="44.4583232" lon="11.167067"><ele>132.0</ele><time>2026-03-22T11:00:00.688Z</time></trkpt><trkpt lat="44.4583273" lon="11.1671913"><ele>132.0</ele><time>2026-03-22T11:00:01.681Z</time></trkpt><trkpt lat="44.4583309" lon="11.1673166"><ele>132.0</ele><time>2026-03-22T11:00:02.684Z</time></trkpt><trkpt lat="44.4583603" lon="11.1674079"><ele>132.0</ele><time>2026-03-22T11:00:03.679Z</time></trkpt><trkpt lat="44.4584161" lon="11.1674676"><ele>132.0</ele><time>2026-03-22T11:00:04.679Z</time></trkpt><trkpt lat="44.458502" lon="11.1675056"><ele>132.0</ele><time>2026-03-22T11:00:05.676Z</time></trkpt><trkpt lat="44.4585922" lon="11.1675282"><ele>132.0</ele><time>2026-03-22T11:00:06.675Z</time></trkpt><trkpt lat="44.4586817" lon="11.1675242"><ele>131.79999999999998</ele><time>2026-03-22T11:00:07.68Z</time></trkpt><trkpt lat="44.4587728" lon="11.1675665"><ele>131.6</ele><time>2026-03-22T11:00:08.685Z</time></trkpt><trkpt lat="44.4588522" lon="11.1675808"><ele>131.39999999999998</ele><time>2026-03-22T11:00:09.681Z</time></trkpt><trkpt lat="44.4589551" lon="11.1675908"><ele>131.2</ele><time>2026-03-22T11:00:10.678Z</time></trkpt><trkpt lat="44.4590315" lon="11.167617"><ele>131.0</ele><time>2026-03-22T11:00:11.676Z</time></trkpt><trkpt lat="44.459131" lon="11.1676681"><ele>132.83333333333331</ele><time>2026-03-22T11:00:12.681Z</time></trkpt><trkpt lat="44.4592138" lon="11.1677382"><ele>134.66666666666666</ele><time>2026-03-22T11:00:13.683Z</time></trkpt><trkpt lat="44.4592762" lon="11.167819"><ele>136.5</ele><time>2026-03-22T11:00:14.687Z</time></trkpt><trkpt lat="44.4593312" lon="11.1678898"><ele>138.33333333333334</ele><time>2026-03-22T11:00:15.684Z</time></trkpt><trkpt lat="44.4593819" lon="11.1679524"><ele>140.16666666666669</ele><time>2026-03-22T11:00:16.682Z</time></trkpt><trkpt lat="44.4594747" lon="11.1680371"><ele>142.0</ele><time>2026-03-22T11:00:18.675Z</time></trkpt><trkpt lat="44.4595528" lon="11.1680921"><ele>144.16666666666669</ele><time>2026-03-22T11:00:20.682Z</time></trkpt><trkpt lat="44.4596313" lon="11.1681242"><ele>146.33333333333334</ele><time>2026-03-22T11:00:22.685Z</time></trkpt><trkpt lat="44.4596738" lon="11.1682055"><ele>148.5</ele><time>2026-03-22T11:00:24.687Z</time></trkpt><trkpt lat="44.4597086" lon="11.16828"><ele>150.66666666666666</ele><time>2026-03-22T11:01:18.686Z</time></trkpt><trkpt lat="44.4597852" lon="11.1683527"><ele>152.83333333333331</ele><time>2026-03-22T11:01:20.681Z</time></trkpt><trkpt lat="44.4598428" lon="11.1684151"><ele>155.0</ele><time>2026-03-22T11:01:21.701Z</time></trkpt><trkpt lat="44.4599132" lon="11.1685045"><ele>155.0</ele><time>2026-03-22T11:01:22.674Z</time></trkpt><trkpt lat="44.4599717" lon="11.16863"><ele>155.0</ele><time>2026-03-22T11:01:23.683Z</time></trkpt><trkpt lat="44.4600389" lon="11.1687694"><ele>155.0</ele><time>2026-03-22T11:01:24.681Z</time></trkpt><trkpt lat="44.4601116" lon="11.1689188"><ele>155.0</ele><time>2026-03-22T11:01:25.683Z</time></trkpt><trkpt lat="44.4601929" lon="11.1690492"><ele>151.75</ele><time>2026-03-22T11:01:26.682Z</time></trkpt><trkpt lat="44.4602659" lon="11.1691735"><ele>148.5</ele><time>2026-03-22T11:01:27.701Z</time></trkpt><trkpt lat="44.4603376" lon="11.1692875"><ele>145.25</ele><time>2026-03-22T11:01:28.676Z</time></trkpt><trkpt lat="44.4604161" lon="11.169404"><ele>142.0</ele><time>2026-03-22T11:01:29.68Z</time></trkpt><trkpt lat="44.4604869" lon="11.1695312"><ele>143.75</ele><time>2026-03-22T11:01:30.679Z</time></trkpt><trkpt lat="44.4605651" lon="11.1696626"><ele>145.5</ele><time>2026-03-22T11:01:31.676Z</time></trkpt><trkpt lat="44.460643" lon="11.1697929"><ele>147.25</ele><time>2026-03-22T11:01:32.701Z</time></trkpt><trkpt lat="44.4607131" lon="11.1699144"><ele>149.0</ele><time>2026-03-22T11:01:33.682Z</time></trkpt><trkpt lat="44.460782" lon="11.1700297"><ele>149.0</ele><time>2026-03-22T11:01:34.682Z</time></trkpt><trkpt lat="44.4608537" lon="11.1701406"><ele>149.0</ele><time>2026-03-22T11:01:35.701Z</time></trkpt><trkpt lat="44.460936" lon="11.1702616"><ele>149.0</ele><time>2026-03-22T11:01:36.701Z</time></trkpt><trkpt lat="44.461049" lon="11.1703804"><ele>149.0</ele><time>2026-03-22T11:01:37.701Z</time></trkpt><trkpt lat="44.4611668" lon="11.1705026"><ele>146.33333333333331</ele><time>2026-03-22T11:01:38.676Z</time></trkpt><trkpt lat="44.4612923" lon="11.1706302"><ele>143.66666666666666</ele><time>2026-03-22T11:01:39.686Z</time></trkpt><trkpt lat="44.4614223" lon="11.1707698"><ele>141.0</ele><time>2026-03-22T11:01:40.683Z</time></trkpt><trkpt lat="44.4615568" lon="11.1709072"><ele>141.0</ele><time>2026-03-22T11:01:41.676Z</time></trkpt><trkpt lat="44.461687" lon="11.1710383"><ele>141.0</ele><time>2026-03-22T11:01:42.679Z</time></trkpt><trkpt lat="44.4618198" lon="11.1711701"><ele>141.0</ele><time>2026-03-22T11:01:43.691Z</time></trkpt><trkpt lat="44.4619515" lon="11.1713051"><ele>141.0</ele><time>2026-03-22T11:01:44.685Z</time></trkpt><trkpt lat="44.4620751" lon="11.171431"><ele>141.0</ele><time>2026-03-22T11:01:45.684Z</time></trkpt><trkpt lat="44.4621974" lon="11.1715551"><ele>141.0</ele><time>2026-03-22T11:01:46.683Z</time></trkpt><trkpt lat="44.4623211" lon="11.1716896"><ele>139.0</ele><time>2026-03-22T11:01:47.678Z</time></trkpt><trkpt lat="44.4624509" lon="11.1718216"><ele>137.0</ele><time>2026-03-22T11:01:48.687Z</time></trkpt><trkpt lat="44.4624976" lon="11.172046"><ele>135.0</ele><time>2026-03-22T11:01:49.682Z</time></trkpt><trkpt lat="44.4625504" lon="11.172251"><ele>133.33333333333334</ele><time>2026-03-22T11:01:50.686Z</time></trkpt><trkpt lat="44.4625878" lon="11.1724609"><ele>131.66666666666669</ele><time>2026-03-22T11:01:51.681Z</time></trkpt><trkpt lat="44.4626209" lon="11.1726748"><ele>130.0</ele><time>2026-03-22T11:01:52.686Z</time></trkpt><trkpt lat="44.4626926" lon="11.1731131"><ele>128.66666666666669</ele><time>2026-03-22T11:01:54.692Z</time></trkpt><trkpt lat="44.4627307" lon="11.1733347"><ele>127.33333333333334</ele><time>2026-03-22T11:01:55.683Z</time></trkpt><trkpt lat="44.4627808" lon="11.1735405"><ele>126.0</ele><time>2026-03-22T11:01:56.682Z</time></trkpt><trkpt lat="44.4628573" lon="11.1737387"><ele>132.0</ele><time>2026-03-22T11:01:57.681Z</time></trkpt><trkpt lat="44.4629518" lon="11.173923"><ele>138.0</ele><time>2026-03-22T11:01:58.694Z</time></trkpt><trkpt lat="44.4630695" lon="11.1740863"><ele>144.0</ele><time>2026-03-22T11:01:59.677Z</time></trkpt><trkpt lat="44.4631715" lon="11.174266"><ele>144.0</ele><time>2026-03-22T11:02:00.682Z</time></trkpt><trkpt lat="44.4632518" lon="11.1744673"><ele>144.0</ele><time>2026-03-22T11:02:01.691Z</time></trkpt><trkpt lat="44.4633034" lon="11.1746852"><ele>144.0</ele><time>2026-03-22T11:02:02.701Z</time></trkpt><trkpt lat="44.4633268" lon="11.1749151"><ele>139.5</ele><time>2026-03-22T11:02:03.684Z</time></trkpt><trkpt lat="44.4633539" lon="11.1751442"><ele>135.0</ele><time>2026-03-22T11:02:04.68Z</time></trkpt><trkpt lat="44.4634141" lon="11.1755704"><ele>133.75</ele><time>2026-03-22T11:02:06.68Z</time></trkpt><trkpt lat="44.4634349" lon="11.175765"><ele>132.5</ele><time>2026-03-22T11:02:07.682Z</time></trkpt><trkpt lat="44.4634519" lon="11.1759422"><ele>131.25</ele><time>2026-03-22T11:02:08.683Z</time></trkpt><trkpt lat="44.4634609" lon="11.1761017"><ele>130.0</ele><time>2026-03-22T11:02:09.679Z</time></trkpt><trkpt lat="44.4634673" lon="11.1762631"><ele>130.0</ele><time>2026-03-22T11:02:10.679Z</time></trkpt><trkpt lat="44.4634615" lon="11.1764298"><ele>130.0</ele><time>2026-03-22T11:02:11.683Z</time></trkpt><trkpt lat="44.4634487" lon="11.1766069"><ele>130.0</ele><time>2026-03-22T11:02:12.681Z</time></trkpt><trkpt lat="44.4634488" lon="11.1767608"><ele>130.0</ele><time>2026-03-22T11:02:13.701Z</time></trkpt><trkpt lat="44.4634487" lon="11.1769081"><ele>129.5</ele><time>2026-03-22T11:02:14.683Z</time></trkpt><trkpt lat="44.4634493" lon="11.1770497"><ele>129.0</ele><time>2026-03-22T11:02:15.678Z</time></trkpt><trkpt lat="44.4634537" lon="11.1773157"><ele>128.5</ele><time>2026-03-22T11:02:17.684Z</time></trkpt><trkpt lat="44.4634577" lon="11.1774497"><ele>128.0</ele><time>2026-03-22T11:02:18.678Z</time></trkpt><trkpt lat="44.463471" lon="11.1775834"><ele>128.0</ele><time>2026-03-22T11:02:19.701Z</time></trkpt><trkpt lat="44.4634908" lon="11.1777218"><ele>128.0</ele><time>2026-03-22T11:02:20.701Z</time></trkpt><trkpt lat="44.4635242" lon="11.1778758"><ele>128.0</ele><time>2026-03-22T11:02:21.701Z</time></trkpt><trkpt lat="44.4635593" lon="11.178032"><ele>128.0</ele><time>2026-03-22T11:02:22.68Z</time></trkpt><trkpt lat="44.4635924" lon="11.1781927"><ele>127.0</ele><time>2026-03-22T11:02:23.683Z</time></trkpt><trkpt lat="44.4636306" lon="11.1783542"><ele>126.0</ele><time>2026-03-22T11:02:24.701Z</time></trkpt><trkpt lat="44.4636711" lon="11.1785231"><ele>125.0</ele><time>2026-03-22T11:02:25.701Z</time></trkpt><trkpt lat="44.4637184" lon="11.1786791"><ele>124.0</ele><time>2026-03-22T11:02:26.683Z</time></trkpt><trkpt lat="44.4637583" lon="11.1788452"><ele>124.75</ele><time>2026-03-22T11:02:27.689Z</time></trkpt><trkpt lat="44.4637988" lon="11.1790075"><ele>125.5</ele><time>2026-03-22T11:02:28.682Z</time></trkpt><trkpt lat="44.4638409" lon="11.1791683"><ele>126.25</ele><time>2026-03-22T11:02:29.682Z</time></trkpt><trkpt lat="44.4638821" lon="11.1793341"><ele>127.0</ele><time>2026-03-22T11:02:30.689Z</time></trkpt><trkpt lat="44.4639234" lon="11.1794969"><ele>127.0</ele><time>2026-03-22T11:02:31.686Z</time></trkpt><trkpt lat="44.4639667" lon="11.1796606"><ele>127.0</ele><time>2026-03-22T11:02:32.68Z</time></trkpt><trkpt lat="44.464007" lon="11.179815"><ele>127.0</ele><time>2026-03-22T11:02:33.679Z</time></trkpt><trkpt lat="44.4640455" lon="11.1799583"><ele>127.0</ele><time>2026-03-22T11:02:34.701Z</time></trkpt><trkpt lat="44.4640805" lon="11.1801034"><ele>125.66666666666667</ele><time>2026-03-22T11:02:35.691Z</time></trkpt><trkpt lat="44.4641157" lon="11.1802294"><ele>124.33333333333334</ele><time>2026-03-22T11:02:36.675Z</time></trkpt><trkpt lat="44.4641423" lon="11.1803487"><ele>123.0</ele><time>2026-03-22T11:02:37.701Z</time></trkpt><trkpt lat="44.4641707" lon="11.1804637"><ele>121.66666666666666</ele><time>2026-03-22T11:02:38.681Z</time></trkpt><trkpt lat="44.4641987" lon="11.1805652"><ele>120.33333333333333</ele><time>2026-03-22T11:02:39.686Z</time></trkpt><trkpt lat="44.4642225" lon="11.1806547"><ele>119.0</ele><time>2026-03-22T11:02:40.68Z</time></trkpt><trkpt lat="44.4642555" lon="11.1808015"><ele>118.4</ele><time>2026-03-22T11:02:42.681Z</time></trkpt><trkpt lat="44.4641908" lon="11.1808693"><ele>117.80000000000001</ele><time>2026-03-22T11:02:44.68Z</time></trkpt><trkpt lat="44.4640831" lon="11.1809155"><ele>117.19999999999999</ele><time>2026-03-22T11:02:46.682Z</time></trkpt><trkpt lat="44.4639797" lon="11.1809694"><ele>116.6</ele><time>2026-03-22T11:02:48.679Z</time></trkpt><trkpt lat="44.4639254" lon="11.1810735"><ele>116.0</ele><time>2026-03-22T11:02:50.681Z</time></trkpt><trkpt lat="44.4639527" lon="11.1812245"><ele>116.00000000000001</ele><time>2026-03-22T11:02:52.683Z</time></trkpt><trkpt lat="44.4639715" lon="11.1813103"><ele>116.0</ele><time>2026-03-22T11:02:53.701Z</time></trkpt><trkpt lat="44.463989" lon="11.1813967"><ele>116.00000000000001</ele><time>2026-03-22T11:02:54.683Z</time></trkpt><trkpt lat="44.4640102" lon="11.181488"><ele>116.00000000000001</ele><time>2026-03-22T11:02:55.679Z</time></trkpt><trkpt lat="44.464032" lon="11.181575"><ele>116.0</ele><time>2026-03-22T11:02:56.676Z</time></trkpt><trkpt lat="44.4640553" lon="11.1816619"><ele>116.00000000000001</ele><time>2026-03-22T11:02:57.682Z</time></trkpt><trkpt lat="44.4640753" lon="11.1817495"><ele>116.00000000000001</ele><time>2026-03-22T11:02:58.677Z</time></trkpt><trkpt lat="44.4640986" lon="11.1818381"><ele>116.16666666666666</ele><time>2026-03-22T11:02:59.676Z</time></trkpt><trkpt lat="44.4641198" lon="11.1819241"><ele>116.33333333333333</ele><time>2026-03-22T11:03:00.68Z</time></trkpt><trkpt lat="44.4641395" lon="11.1820079"><ele>116.5</ele><time>2026-03-22T11:03:01.679Z</time></trkpt><trkpt lat="44.4641871" lon="11.1821811"><ele>116.66666666666666</ele><time>2026-03-22T11:03:03.681Z</time></trkpt><trkpt lat="44.4642135" lon="11.1822686"><ele>116.83333333333333</ele><time>2026-03-22T11:03:04.679Z</time></trkpt><trkpt lat="44.4642396" lon="11.1823661"><ele>117.0</ele><time>2026-03-22T11:03:05.684Z</time></trkpt><trkpt lat="44.4642642" lon="11.1824596"><ele>117.16666666666667</ele><time>2026-03-22T11:03:06.683Z</time></trkpt><trkpt lat="44.46429" lon="11.1825511"><ele>117.33333333333334</ele><time>2026-03-22T11:03:07.685Z</time></trkpt><trkpt lat="44.4643123" lon="11.182635"><ele>117.5</ele><time>2026-03-22T11:03:08.676Z</time></trkpt><trkpt lat="44.4643531" lon="11.1827889"><ele>117.66666666666667</ele><time>2026-03-22T11:03:10.684Z</time></trkpt><trkpt lat="44.4643123" lon="11.1829078"><ele>117.83333333333334</ele><time>2026-03-22T11:03:12.681Z</time></trkpt><trkpt lat="44.4642275" lon="11.1829535"><ele>118.0</ele><time>2026-03-22T11:03:14.682Z</time></trkpt><trkpt lat="44.4641658" lon="11.1830211"><ele>118.0</ele><time>2026-03-22T11:03:16.693Z</time></trkpt><trkpt lat="44.4641303" lon="11.1830944"><ele>118.0</ele><time>2026-03-22T11:19:58.673Z</time></trkpt><trkpt lat="44.4641028" lon="11.1831819"><ele>118.0</ele><time>2026-03-22T11:20:15.682Z</time></trkpt><trkpt lat="44.4641865" lon="11.1831974"><ele>118.0</ele><time>2026-03-22T11:33:13.294Z</time></trkpt><trkpt lat="44.4641918" lon="11.1831006"><ele>118.0</ele><time>2026-03-22T11:35:12.744Z</time></trkpt><trkpt lat="44.4642092" lon="11.1831875"><ele>118.0</ele><time>2026-03-22T11:37:02.639Z</time></trkpt><trkpt lat="44.4642122" lon="11.1830758"><ele>118.0</ele><time>2026-03-22T11:37:19.639Z</time></trkpt><trkpt lat="44.4641485" lon="11.1830951"><ele>118.00000000000001</ele><time>2026-03-22T11:37:33.697Z</time></trkpt><trkpt lat="44.4641774" lon="11.1830157"><ele>118.0</ele><time>2026-03-22T11:38:50.639Z</time></trkpt><trkpt lat="44.4642306" lon="11.1829658"><ele>118.0</ele><time>2026-03-22T11:38:52.639Z</time></trkpt><trkpt lat="44.4643006" lon="11.1829328"><ele>118.0</ele><time>2026-03-22T11:38:54.639Z</time></trkpt><trkpt lat="44.4643788" lon="11.1829497"><ele>118.00000000000001</ele><time>2026-03-22T11:38:57.639Z</time></trkpt><trkpt lat="44.464417" lon="11.183057"><ele>118.0</ele><time>2026-03-22T11:38:59.639Z</time></trkpt><trkpt lat="44.4644501" lon="11.1831843"><ele>117.66666666666667</ele><time>2026-03-22T11:39:01.639Z</time></trkpt><trkpt lat="44.4644787" lon="11.1833452"><ele>117.33333333333334</ele><time>2026-03-22T11:39:03.639Z</time></trkpt><trkpt lat="44.4644858" lon="11.1834427"><ele>117.0</ele><time>2026-03-22T11:39:04.639Z</time></trkpt><trkpt lat="44.4644936" lon="11.1835421"><ele>116.66666666666666</ele><time>2026-03-22T11:39:05.639Z</time></trkpt><trkpt lat="44.4645003" lon="11.1836402"><ele>116.33333333333333</ele><time>2026-03-22T11:39:06.639Z</time></trkpt><trkpt lat="44.464506" lon="11.1837409"><ele>116.0</ele><time>2026-03-22T11:39:07.639Z</time></trkpt><trkpt lat="44.4645093" lon="11.183839"><ele>115.99999999999999</ele><time>2026-03-22T11:39:08.639Z</time></trkpt><trkpt lat="44.4645125" lon="11.1839399"><ele>116.0</ele><time>2026-03-22T11:39:09.639Z</time></trkpt><trkpt lat="44.4645166" lon="11.1840342"><ele>116.0</ele><time>2026-03-22T11:39:10.639Z</time></trkpt><trkpt lat="44.4645208" lon="11.1841262"><ele>116.0</ele><time>2026-03-22T11:39:11.639Z</time></trkpt><trkpt lat="44.4645309" lon="11.1843008"><ele>115.99999999999999</ele><time>2026-03-22T11:39:13.639Z</time></trkpt><trkpt lat="44.4645342" lon="11.1843894"><ele>116.0</ele><time>2026-03-22T11:39:14.639Z</time></trkpt><trkpt lat="44.4645416" lon="11.1845644"><ele>115.8</ele><time>2026-03-22T11:39:16.639Z</time></trkpt><trkpt lat="44.4645465" lon="11.1847295"><ele>115.6</ele><time>2026-03-22T11:39:18.639Z</time></trkpt><trkpt lat="44.4646035" lon="11.184858"><ele>115.4</ele><time>2026-03-22T11:39:20.639Z</time></trkpt><trkpt lat="44.4647185" lon="11.1848688"><ele>115.2</ele><time>2026-03-22T11:39:22.639Z</time></trkpt><trkpt lat="44.4648203" lon="11.1848497"><ele>115.0</ele><time>2026-03-22T11:39:24.639Z</time></trkpt><trkpt lat="44.4648905" lon="11.1848796"><ele>115.83333333333334</ele><time>2026-03-22T11:39:26.639Z</time></trkpt><trkpt lat="44.4649163" lon="11.1850288"><ele>116.66666666666667</ele><time>2026-03-22T11:39:28.639Z</time></trkpt><trkpt lat="44.4649176" lon="11.1851354"><ele>117.5</ele><time>2026-03-22T11:39:29.639Z</time></trkpt><trkpt lat="44.4649212" lon="11.1852474"><ele>118.33333333333334</ele><time>2026-03-22T11:39:30.639Z</time></trkpt><trkpt lat="44.4649295" lon="11.1853592"><ele>119.16666666666667</ele><time>2026-03-22T11:39:31.639Z</time></trkpt><trkpt lat="44.4649385" lon="11.1854849"><ele>120.0</ele><time>2026-03-22T11:39:32.639Z</time></trkpt><trkpt lat="44.4649542" lon="11.1856141"><ele>120.2</ele><time>2026-03-22T11:39:33.639Z</time></trkpt><trkpt lat="44.464977" lon="11.1857492"><ele>120.4</ele><time>2026-03-22T11:39:34.639Z</time></trkpt><trkpt lat="44.4650078" lon="11.1858891"><ele>120.6</ele><time>2026-03-22T11:39:35.639Z</time></trkpt><trkpt lat="44.4650444" lon="11.1860372"><ele>120.8</ele><time>2026-03-22T11:39:36.639Z</time></trkpt><trkpt lat="44.4650771" lon="11.1861942"><ele>121.0</ele><time>2026-03-22T11:39:37.639Z</time></trkpt><trkpt lat="44.4650978" lon="11.1863577"><ele>120.75</ele><time>2026-03-22T11:39:38.639Z</time></trkpt><trkpt lat="44.4650961" lon="11.1865265"><ele>120.5</ele><time>2026-03-22T11:39:39.639Z</time></trkpt><trkpt lat="44.4650672" lon="11.1866992"><ele>120.25</ele><time>2026-03-22T11:39:40.639Z</time></trkpt><trkpt lat="44.465015" lon="11.1868601"><ele>120.0</ele><time>2026-03-22T11:39:41.639Z</time></trkpt><trkpt lat="44.4649445" lon="11.1870126"><ele>120.0</ele><time>2026-03-22T11:39:42.639Z</time></trkpt><trkpt lat="44.4648759" lon="11.1871736"><ele>120.0</ele><time>2026-03-22T11:39:43.639Z</time></trkpt><trkpt lat="44.4648094" lon="11.1873314"><ele>120.0</ele><time>2026-03-22T11:39:44.639Z</time></trkpt><trkpt lat="44.4647514" lon="11.187502"><ele>120.0</ele><time>2026-03-22T11:39:45.639Z</time></trkpt><trkpt lat="44.4647105" lon="11.1876789"><ele>120.25</ele><time>2026-03-22T11:39:46.639Z</time></trkpt><trkpt lat="44.4646893" lon="11.1878634"><ele>120.5</ele><time>2026-03-22T11:39:47.639Z</time></trkpt><trkpt lat="44.4646904" lon="11.1880539"><ele>120.75</ele><time>2026-03-22T11:39:48.639Z</time></trkpt><trkpt lat="44.4647157" lon="11.188246"><ele>121.0</ele><time>2026-03-22T11:39:49.639Z</time></trkpt><trkpt lat="44.4647628" lon="11.1884341"><ele>121.0</ele><time>2026-03-22T11:39:50.64Z</time></trkpt><trkpt lat="44.4648224" lon="11.188614"><ele>121.0</ele><time>2026-03-22T11:39:51.639Z</time></trkpt><trkpt lat="44.4648793" lon="11.1887948"><ele>121.0</ele><time>2026-03-22T11:39:52.639Z</time></trkpt><trkpt lat="44.464939" lon="11.1889752"><ele>121.0</ele><time>2026-03-22T11:39:53.639Z</time></trkpt><trkpt lat="44.4650046" lon="11.1891579"><ele>119.25</ele><time>2026-03-22T11:39:54.639Z</time></trkpt><trkpt lat="44.4650655" lon="11.1893418"><ele>117.5</ele><time>2026-03-22T11:39:55.639Z</time></trkpt><trkpt lat="44.465128" lon="11.1895312"><ele>115.75</ele><time>2026-03-22T11:39:56.639Z</time></trkpt><trkpt lat="44.4651919" lon="11.189721"><ele>114.0</ele><time>2026-03-22T11:39:57.639Z</time></trkpt><trkpt lat="44.4652404" lon="11.1899233"><ele>113.33333333333334</ele><time>2026-03-22T11:39:58.639Z</time></trkpt><trkpt lat="44.4652624" lon="11.1901363"><ele>112.66666666666667</ele><time>2026-03-22T11:39:59.639Z</time></trkpt><trkpt lat="44.4652635" lon="11.1903476"><ele>112.0</ele><time>2026-03-22T11:40:00.639Z</time></trkpt><trkpt lat="44.4652648" lon="11.1905564"><ele>111.0</ele><time>2026-03-22T11:40:01.639Z</time></trkpt><trkpt lat="44.4652819" lon="11.1907641"><ele>110.0</ele><time>2026-03-22T11:40:02.639Z</time></trkpt><trkpt lat="44.4653163" lon="11.1909713"><ele>109.0</ele><time>2026-03-22T11:40:03.639Z</time></trkpt><trkpt lat="44.4653673" lon="11.1911711"><ele>109.0</ele><time>2026-03-22T11:40:04.639Z</time></trkpt><trkpt lat="44.4654415" lon="11.1913543"><ele>109.0</ele><time>2026-03-22T11:40:05.639Z</time></trkpt><trkpt lat="44.4655328" lon="11.1915247"><ele>109.0</ele><time>2026-03-22T11:40:06.639Z</time></trkpt><trkpt lat="44.4656353" lon="11.1916871"><ele>110.0</ele><time>2026-03-22T11:40:07.639Z</time></trkpt><trkpt lat="44.4657415" lon="11.1918458"><ele>111.0</ele><time>2026-03-22T11:40:08.639Z</time></trkpt><trkpt lat="44.4658457" lon="11.19201"><ele>112.0</ele><time>2026-03-22T11:40:09.639Z</time></trkpt><trkpt lat="44.4659395" lon="11.192192"><ele>111.0</ele><time>2026-03-22T11:40:10.639Z</time></trkpt><trkpt lat="44.4660231" lon="11.1923792"><ele>110.0</ele><time>2026-03-22T11:40:11.639Z</time></trkpt><trkpt lat="44.4661066" lon="11.1925667"><ele>109.0</ele><time>2026-03-22T11:40:12.639Z</time></trkpt><trkpt lat="44.4661904" lon="11.1927546"><ele>109.0</ele><time>2026-03-22T11:40:13.639Z</time></trkpt><trkpt lat="44.4662739" lon="11.1929419"><ele>109.0</ele><time>2026-03-22T11:40:14.639Z</time></trkpt><trkpt lat="44.4663606" lon="11.1931319"><ele>109.0</ele><time>2026-03-22T11:40:15.639Z</time></trkpt><trkpt lat="44.4664448" lon="11.1933179"><ele>109.33333333333334</ele><time>2026-03-22T11:40:16.639Z</time></trkpt><trkpt lat="44.466529" lon="11.1935047"><ele>109.66666666666666</ele><time>2026-03-22T11:40:17.639Z</time></trkpt><trkpt lat="44.4666141" lon="11.1936852"><ele>110.0</ele><time>2026-03-22T11:40:18.639Z</time></trkpt><trkpt lat="44.4666865" lon="11.1938751"><ele>109.0</ele><time>2026-03-22T11:40:19.639Z</time></trkpt><trkpt lat="44.4667473" lon="11.1940696"><ele>108.0</ele><time>2026-03-22T11:40:20.639Z</time></trkpt><trkpt lat="44.466804" lon="11.1942701"><ele>107.0</ele><time>2026-03-22T11:40:21.639Z</time></trkpt><trkpt lat="44.4668576" lon="11.194467"><ele>107.0</ele><time>2026-03-22T11:40:22.639Z</time></trkpt><trkpt lat="44.4669026" lon="11.1946597"><ele>107.0</ele><time>2026-03-22T11:40:23.639Z</time></trkpt><trkpt lat="44.466953" lon="11.1948472"><ele>107.0</ele><time>2026-03-22T11:40:24.639Z</time></trkpt><trkpt lat="44.4669956" lon="11.1950193"><ele>107.0</ele><time>2026-03-22T11:40:25.639Z</time></trkpt><trkpt lat="44.4670318" lon="11.1951732"><ele>106.25</ele><time>2026-03-22T11:40:26.639Z</time></trkpt><trkpt lat="44.4670569" lon="11.1953162"><ele>105.5</ele><time>2026-03-22T11:40:27.639Z</time></trkpt><trkpt lat="44.4670328" lon="11.1954644"><ele>104.75</ele><time>2026-03-22T11:40:28.639Z</time></trkpt><trkpt lat="44.4669726" lon="11.1955981"><ele>104.0</ele><time>2026-03-22T11:40:29.639Z</time></trkpt><trkpt lat="44.4668779" lon="11.1957211"><ele>103.25</ele><time>2026-03-22T11:40:30.639Z</time></trkpt><trkpt lat="44.4667739" lon="11.1958383"><ele>102.5</ele><time>2026-03-22T11:40:31.639Z</time></trkpt><trkpt lat="44.4666669" lon="11.1959604"><ele>101.75</ele><time>2026-03-22T11:40:32.639Z</time></trkpt><trkpt lat="44.466548" lon="11.196086"><ele>101.0</ele><time>2026-03-22T11:40:33.639Z</time></trkpt><trkpt lat="44.4664306" lon="11.1962235"><ele>101.0</ele><time>2026-03-22T11:40:34.639Z</time></trkpt><trkpt lat="44.4663053" lon="11.1963584"><ele>101.0</ele><time>2026-03-22T11:40:35.639Z</time></trkpt><trkpt lat="44.4661848" lon="11.1964959"><ele>101.0</ele><time>2026-03-22T11:40:36.639Z</time></trkpt><trkpt lat="44.4660686" lon="11.1966312"><ele>101.0</ele><time>2026-03-22T11:40:37.639Z</time></trkpt><trkpt lat="44.4659579" lon="11.1967611"><ele>101.0</ele><time>2026-03-22T11:40:38.639Z</time></trkpt><trkpt lat="44.4658498" lon="11.1968899"><ele>101.0</ele><time>2026-03-22T11:40:39.639Z</time></trkpt><trkpt lat="44.4657427" lon="11.1970194"><ele>101.0</ele><time>2026-03-22T11:40:40.639Z</time></trkpt><trkpt lat="44.4656408" lon="11.1971504"><ele>101.0</ele><time>2026-03-22T11:40:41.639Z</time></trkpt><trkpt lat="44.465543" lon="11.1972855"><ele>101.0</ele><time>2026-03-22T11:40:42.639Z</time></trkpt><trkpt lat="44.4654446" lon="11.1974192"><ele>101.0</ele><time>2026-03-22T11:40:43.639Z</time></trkpt><trkpt lat="44.465355" lon="11.1975625"><ele>101.0</ele><time>2026-03-22T11:40:44.639Z</time></trkpt><trkpt lat="44.4652755" lon="11.1977158"><ele>102.75</ele><time>2026-03-22T11:40:45.639Z</time></trkpt><trkpt lat="44.465208" lon="11.1978684"><ele>104.5</ele><time>2026-03-22T11:40:46.639Z</time></trkpt><trkpt lat="44.4651476" lon="11.1980234"><ele>106.25</ele><time>2026-03-22T11:40:47.639Z</time></trkpt><trkpt lat="44.4650944" lon="11.1981743"><ele>108.0</ele><time>2026-03-22T11:40:48.639Z</time></trkpt><trkpt lat="44.4650426" lon="11.1983133"><ele>108.0</ele><time>2026-03-22T11:40:49.639Z</time></trkpt><trkpt lat="44.4649865" lon="11.1984406"><ele>108.0</ele><time>2026-03-22T11:40:50.639Z</time></trkpt><trkpt lat="44.4649265" lon="11.1985492"><ele>108.0</ele><time>2026-03-22T11:40:51.639Z</time></trkpt><trkpt lat="44.4648822" lon="11.1986262"><ele>108.0</ele><time>2026-03-22T11:40:52.639Z</time></trkpt><trkpt lat="44.4648256" lon="11.1987173"><ele>108.0</ele><time>2026-03-22T11:40:58.639Z</time></trkpt><trkpt lat="44.4647659" lon="11.1987704"><ele>108.0</ele><time>2026-03-22T11:41:00.639Z</time></trkpt><trkpt lat="44.4646736" lon="11.1987547"><ele>108.4</ele><time>2026-03-22T11:41:02.639Z</time></trkpt><trkpt lat="44.464555" lon="11.198686"><ele>108.80000000000001</ele><time>2026-03-22T11:41:04.639Z</time></trkpt><trkpt lat="44.4644588" lon="11.1985934"><ele>109.2</ele><time>2026-03-22T11:41:06.639Z</time></trkpt><trkpt lat="44.4644402" lon="11.1984759"><ele>109.6</ele><time>2026-03-22T11:41:08.639Z</time></trkpt><trkpt lat="44.4644457" lon="11.1983869"><ele>110.0</ele><time>2026-03-22T11:41:10.639Z</time></trkpt><trkpt lat="44.4643966" lon="11.1983234"><ele>109.99999999999999</ele><time>2026-03-22T11:41:14.639Z</time></trkpt><trkpt lat="44.4643177" lon="11.1983596"><ele>110.0</ele><time>2026-03-22T11:44:38.639Z</time></trkpt><trkpt lat="44.4642601" lon="11.198404"><ele>110.0</ele><time>2026-03-22T11:44:42.639Z</time></trkpt><trkpt lat="44.4641542" lon="11.1984373"><ele>110.0</ele><time>2026-03-22T11:44:55.639Z</time></trkpt><trkpt lat="44.4640879" lon="11.1984188"><ele>109.99999999999999</ele><time>2026-03-22T11:44:56.639Z</time></trkpt><trkpt lat="44.4640152" lon="11.1983896"><ele>110.0</ele><time>2026-03-22T11:44:57.639Z</time></trkpt><trkpt lat="44.4639353" lon="11.1983827"><ele>110.0</ele><time>2026-03-22T11:44:58.639Z</time></trkpt><trkpt lat="44.4638533" lon="11.1984167"><ele>110.0</ele><time>2026-03-22T11:44:59.639Z</time></trkpt><trkpt lat="44.4637868" lon="11.1985036"><ele>110.0</ele><time>2026-03-22T11:45:00.639Z</time></trkpt><trkpt lat="44.4637452" lon="11.1986191"><ele>110.0</ele><time>2026-03-22T11:45:01.639Z</time></trkpt><trkpt lat="44.4637371" lon="11.1987554"><ele>110.0</ele><time>2026-03-22T11:45:02.639Z</time></trkpt><trkpt lat="44.4637442" lon="11.1989123"><ele>108.25</ele><time>2026-03-22T11:45:03.639Z</time></trkpt><trkpt lat="44.4637533" lon="11.1990748"><ele>106.5</ele><time>2026-03-22T11:45:04.639Z</time></trkpt><trkpt lat="44.4637695" lon="11.1992387"><ele>104.75</ele><time>2026-03-22T11:45:05.639Z</time></trkpt><trkpt lat="44.4637863" lon="11.1994019"><ele>103.0</ele><time>2026-03-22T11:45:06.639Z</time></trkpt><trkpt lat="44.46382" lon="11.1995615"><ele>103.0</ele><time>2026-03-22T11:45:07.639Z</time></trkpt><trkpt lat="44.4638536" lon="11.1997219"><ele>103.0</ele><time>2026-03-22T11:45:08.639Z</time></trkpt><trkpt lat="44.4639211" lon="11.1998758"><ele>103.0</ele><time>2026-03-22T11:45:09.639Z</time></trkpt><trkpt lat="44.4639914" lon="11.2000061"><ele>103.0</ele><time>2026-03-22T11:45:10.639Z</time></trkpt><trkpt lat="44.464091" lon="11.2000974"><ele>103.0</ele><time>2026-03-22T11:45:11.639Z</time></trkpt><trkpt lat="44.4641995" lon="11.2001803"><ele>103.0</ele><time>2026-03-22T11:45:12.639Z</time></trkpt><trkpt lat="44.4643199" lon="11.200261"><ele>103.0</ele><time>2026-03-22T11:45:13.639Z</time></trkpt><trkpt lat="44.4644267" lon="11.2003217"><ele>103.0</ele><time>2026-03-22T11:45:14.639Z</time></trkpt><trkpt lat="44.4645251" lon="11.200378"><ele>103.0</ele><time>2026-03-22T11:45:15.639Z</time></trkpt><trkpt lat="44.4646754" lon="11.2005069"><ele>103.0</ele><time>2026-03-22T11:45:16.639Z</time></trkpt><trkpt lat="44.4647973" lon="11.2005869"><ele>103.0</ele><time>2026-03-22T11:45:17.639Z</time></trkpt><trkpt lat="44.464925" lon="11.2006727"><ele>103.25</ele><time>2026-03-22T11:45:18.639Z</time></trkpt><trkpt lat="44.4650496" lon="11.2007588"><ele>103.5</ele><time>2026-03-22T11:45:19.639Z</time></trkpt><trkpt lat="44.4651837" lon="11.2008403"><ele>103.75</ele><time>2026-03-22T11:45:20.639Z</time></trkpt><trkpt lat="44.4653179" lon="11.2009224"><ele>104.0</ele><time>2026-03-22T11:45:21.639Z</time></trkpt><trkpt lat="44.4654529" lon="11.2010063"><ele>102.66666666666666</ele><time>2026-03-22T11:45:22.639Z</time></trkpt><trkpt lat="44.4655907" lon="11.2010856"><ele>101.33333333333334</ele><time>2026-03-22T11:45:23.639Z</time></trkpt><trkpt lat="44.4657278" lon="11.2011737"><ele>100.0</ele><time>2026-03-22T11:45:24.639Z</time></trkpt><trkpt lat="44.4658732" lon="11.2012573"><ele>100.0</ele><time>2026-03-22T11:45:25.639Z</time></trkpt><trkpt lat="44.4660117" lon="11.2013471"><ele>100.0</ele><time>2026-03-22T11:45:26.639Z</time></trkpt><trkpt lat="44.4661514" lon="11.2014378"><ele>100.0</ele><time>2026-03-22T11:45:27.639Z</time></trkpt><trkpt lat="44.4663055" lon="11.2015402"><ele>101.66666666666667</ele><time>2026-03-22T11:45:28.639Z</time></trkpt><trkpt lat="44.4664886" lon="11.2016697"><ele>103.33333333333334</ele><time>2026-03-22T11:45:29.639Z</time></trkpt><trkpt lat="44.4667085" lon="11.2018063"><ele>105.0</ele><time>2026-03-22T11:45:30.639Z</time></trkpt><trkpt lat="44.4669642" lon="11.2019351"><ele>104.5</ele><time>2026-03-22T11:45:31.639Z</time></trkpt><trkpt lat="44.4672504" lon="11.2020372"><ele>104.0</ele><time>2026-03-22T11:45:32.639Z</time></trkpt><trkpt lat="44.4675377" lon="11.2020855"><ele>104.0</ele><time>2026-03-22T11:45:33.639Z</time></trkpt><trkpt lat="44.4677984" lon="11.2020933"><ele>104.0</ele><time>2026-03-22T11:45:34.639Z</time></trkpt><trkpt lat="44.4680145" lon="11.201864"><ele>106.0</ele><time>2026-03-22T11:45:35.639Z</time></trkpt><trkpt lat="44.4681931" lon="11.2019592"><ele>108.0</ele><time>2026-03-22T11:45:36.639Z</time></trkpt><trkpt lat="44.4683258" lon="11.2020393"><ele>110.0</ele><time>2026-03-22T11:45:37.639Z</time></trkpt><trkpt lat="44.4684214" lon="11.202181"><ele>109.66666666666666</ele><time>2026-03-22T11:45:38.639Z</time></trkpt><trkpt lat="44.4685173" lon="11.2023405"><ele>109.33333333333334</ele><time>2026-03-22T11:45:39.639Z</time></trkpt><trkpt lat="44.4686497" lon="11.2025331"><ele>109.0</ele><time>2026-03-22T11:45:40.639Z</time></trkpt><trkpt lat="44.4687853" lon="11.2027309"><ele>109.0</ele><time>2026-03-22T11:45:41.639Z</time></trkpt><trkpt lat="44.468925" lon="11.2029375"><ele>109.0</ele><time>2026-03-22T11:45:42.639Z</time></trkpt><trkpt lat="44.4690692" lon="11.2031558"><ele>109.0</ele><time>2026-03-22T11:45:43.639Z</time></trkpt><trkpt lat="44.4692081" lon="11.2033645"><ele>109.33333333333334</ele><time>2026-03-22T11:45:44.639Z</time></trkpt><trkpt lat="44.4693512" lon="11.203588"><ele>109.66666666666666</ele><time>2026-03-22T11:45:45.639Z</time></trkpt><trkpt lat="44.4694917" lon="11.2038059"><ele>110.0</ele><time>2026-03-22T11:45:46.639Z</time></trkpt><trkpt lat="44.4695245" lon="11.2040746"><ele>109.66666666666666</ele><time>2026-03-22T11:45:47.64Z</time></trkpt><trkpt lat="44.4696493" lon="11.2042919"><ele>109.33333333333334</ele><time>2026-03-22T11:45:48.639Z</time></trkpt><trkpt lat="44.4697805" lon="11.2045096"><ele>109.0</ele><time>2026-03-22T11:45:49.639Z</time></trkpt><trkpt lat="44.4699174" lon="11.2047102"><ele>111.33333333333334</ele><time>2026-03-22T11:45:50.639Z</time></trkpt><trkpt lat="44.4700657" lon="11.2048958"><ele>113.66666666666666</ele><time>2026-03-22T11:45:51.639Z</time></trkpt><trkpt lat="44.4702243" lon="11.2050603"><ele>116.0</ele><time>2026-03-22T11:45:52.639Z</time></trkpt><trkpt lat="44.4703889" lon="11.2051997"><ele>114.0</ele><time>2026-03-22T11:45:53.639Z</time></trkpt><trkpt lat="44.4705432" lon="11.2052882"><ele>112.0</ele><time>2026-03-22T11:45:54.639Z</time></trkpt><trkpt lat="44.4706798" lon="11.2053625"><ele>110.0</ele><time>2026-03-22T11:45:55.639Z</time></trkpt><trkpt lat="44.4708188" lon="11.2054439"><ele>110.0</ele><time>2026-03-22T11:45:56.639Z</time></trkpt><trkpt lat="44.4709587" lon="11.2055051"><ele>110.0</ele><time>2026-03-22T11:45:57.639Z</time></trkpt><trkpt lat="44.4711009" lon="11.2055682"><ele>110.0</ele><time>2026-03-22T11:45:58.639Z</time></trkpt><trkpt lat="44.471225" lon="11.2056414"><ele>110.0</ele><time>2026-03-22T11:45:59.639Z</time></trkpt><trkpt lat="44.4713331" lon="11.2057295"><ele>108.5</ele><time>2026-03-22T11:46:00.639Z</time></trkpt><trkpt lat="44.4714321" lon="11.205847"><ele>107.0</ele><time>2026-03-22T11:46:01.639Z</time></trkpt><trkpt lat="44.4715169" lon="11.2059882"><ele>105.5</ele><time>2026-03-22T11:46:02.639Z</time></trkpt><trkpt lat="44.4716068" lon="11.2061354"><ele>104.0</ele><time>2026-03-22T11:46:03.639Z</time></trkpt><trkpt lat="44.4717025" lon="11.2062978"><ele>104.66666666666666</ele><time>2026-03-22T11:46:04.639Z</time></trkpt><trkpt lat="44.4717973" lon="11.2066296"><ele>105.33333333333334</ele><time>2026-03-22T11:46:05.639Z</time></trkpt><trkpt lat="44.4718717" lon="11.206846"><ele>106.0</ele><time>2026-03-22T11:46:06.639Z</time></trkpt><trkpt lat="44.4719403" lon="11.2070541"><ele>106.0</ele><time>2026-03-22T11:46:07.639Z</time></trkpt><trkpt lat="44.4720004" lon="11.207255"><ele>106.0</ele><time>2026-03-22T11:46:08.639Z</time></trkpt><trkpt lat="44.4720533" lon="11.2074519"><ele>106.0</ele><time>2026-03-22T11:46:09.639Z</time></trkpt><trkpt lat="44.4720997" lon="11.2076445"><ele>105.5</ele><time>2026-03-22T11:46:10.639Z</time></trkpt><trkpt lat="44.4721386" lon="11.2078346"><ele>105.0</ele><time>2026-03-22T11:46:11.639Z</time></trkpt><trkpt lat="44.4721705" lon="11.208026"><ele>104.5</ele><time>2026-03-22T11:46:12.639Z</time></trkpt><trkpt lat="44.4721986" lon="11.2082188"><ele>104.0</ele><time>2026-03-22T11:46:13.639Z</time></trkpt><trkpt lat="44.4722204" lon="11.2084128"><ele>104.0</ele><time>2026-03-22T11:46:14.639Z</time></trkpt><trkpt lat="44.4722411" lon="11.2086038"><ele>104.0</ele><time>2026-03-22T11:46:15.639Z</time></trkpt><trkpt lat="44.4722655" lon="11.2087959"><ele>104.0</ele><time>2026-03-22T11:46:16.639Z</time></trkpt><trkpt lat="44.4722921" lon="11.2089881"><ele>104.0</ele><time>2026-03-22T11:46:17.639Z</time></trkpt><trkpt lat="44.4723241" lon="11.2091812"><ele>103.0</ele><time>2026-03-22T11:46:18.639Z</time></trkpt><trkpt lat="44.4723653" lon="11.2093724"><ele>102.0</ele><time>2026-03-22T11:46:19.639Z</time></trkpt><trkpt lat="44.4724202" lon="11.2095594"><ele>101.0</ele><time>2026-03-22T11:46:20.639Z</time></trkpt><trkpt lat="44.4724815" lon="11.2097428"><ele>100.0</ele><time>2026-03-22T11:46:21.639Z</time></trkpt><trkpt lat="44.4725514" lon="11.2099178"><ele>100.0</ele><time>2026-03-22T11:46:22.639Z</time></trkpt><trkpt lat="44.4726223" lon="11.2100882"><ele>100.0</ele><time>2026-03-22T11:46:23.639Z</time></trkpt><trkpt lat="44.4726965" lon="11.2102539"><ele>100.0</ele><time>2026-03-22T11:46:24.639Z</time></trkpt><trkpt lat="44.4727711" lon="11.2104188"><ele>100.0</ele><time>2026-03-22T11:46:25.639Z</time></trkpt><trkpt lat="44.4728444" lon="11.2105781"><ele>100.5</ele><time>2026-03-22T11:46:26.64Z</time></trkpt><trkpt lat="44.4729162" lon="11.2107323"><ele>101.0</ele><time>2026-03-22T11:46:27.639Z</time></trkpt><trkpt lat="44.4729871" lon="11.2108819"><ele>101.5</ele><time>2026-03-22T11:46:28.639Z</time></trkpt><trkpt lat="44.4730581" lon="11.2110294"><ele>102.0</ele><time>2026-03-22T11:46:29.639Z</time></trkpt><trkpt lat="44.473127" lon="11.2111762"><ele>101.25</ele><time>2026-03-22T11:46:30.639Z</time></trkpt><trkpt lat="44.4731945" lon="11.2113213"><ele>100.5</ele><time>2026-03-22T11:46:31.639Z</time></trkpt><trkpt lat="44.4732598" lon="11.2114641"><ele>99.75</ele><time>2026-03-22T11:46:32.639Z</time></trkpt><trkpt lat="44.4733236" lon="11.2116027"><ele>99.0</ele><time>2026-03-22T11:46:33.639Z</time></trkpt><trkpt lat="44.4733851" lon="11.2117364"><ele>99.0</ele><time>2026-03-22T11:46:34.639Z</time></trkpt><trkpt lat="44.4734433" lon="11.2118671"><ele>99.0</ele><time>2026-03-22T11:46:35.639Z</time></trkpt><trkpt lat="44.4734992" lon="11.2119944"><ele>99.0</ele><time>2026-03-22T11:46:36.639Z</time></trkpt><trkpt lat="44.4735501" lon="11.2121173"><ele>99.0</ele><time>2026-03-22T11:46:37.639Z</time></trkpt><trkpt lat="44.4735936" lon="11.2122278"><ele>99.0</ele><time>2026-03-22T11:46:38.639Z</time></trkpt><trkpt lat="44.4736317" lon="11.2123242"><ele>99.2</ele><time>2026-03-22T11:46:39.639Z</time></trkpt><trkpt lat="44.4736631" lon="11.2124049"><ele>99.4</ele><time>2026-03-22T11:46:40.639Z</time></trkpt><trkpt lat="44.473707" lon="11.2125095"><ele>99.6</ele><time>2026-03-22T11:46:42.639Z</time></trkpt><trkpt lat="44.4737444" lon="11.212614"><ele>99.8</ele><time>2026-03-22T11:46:46.639Z</time></trkpt><trkpt lat="44.4737942" lon="11.2127195"><ele>100.0</ele><time>2026-03-22T11:46:48.639Z</time></trkpt><trkpt lat="44.4738571" lon="11.2128703"><ele>100.00000000000001</ele><time>2026-03-22T11:46:50.639Z</time></trkpt><trkpt lat="44.4738964" lon="11.2129619"><ele>100.0</ele><time>2026-03-22T11:46:51.639Z</time></trkpt><trkpt lat="44.4739412" lon="11.2130599"><ele>100.0</ele><time>2026-03-22T11:46:52.639Z</time></trkpt><trkpt lat="44.4739899" lon="11.2131589"><ele>100.0</ele><time>2026-03-22T11:46:53.639Z</time></trkpt><trkpt lat="44.474046" lon="11.2132568"><ele>100.00000000000001</ele><time>2026-03-22T11:46:54.639Z</time></trkpt><trkpt lat="44.4741089" lon="11.2133545"><ele>100.0</ele><time>2026-03-22T11:46:55.639Z</time></trkpt><trkpt lat="44.4741784" lon="11.2134555"><ele>99.0</ele><time>2026-03-22T11:46:56.639Z</time></trkpt><trkpt lat="44.4742538" lon="11.2135609"><ele>98.0</ele><time>2026-03-22T11:46:57.639Z</time></trkpt><trkpt lat="44.4743363" lon="11.2136718"><ele>97.0</ele><time>2026-03-22T11:46:58.639Z</time></trkpt><trkpt lat="44.4744236" lon="11.2137883"><ele>96.0</ele><time>2026-03-22T11:46:59.639Z</time></trkpt><trkpt lat="44.4745137" lon="11.2139099"><ele>95.75</ele><time>2026-03-22T11:47:00.639Z</time></trkpt><trkpt lat="44.4746061" lon="11.2140333"><ele>95.5</ele><time>2026-03-22T11:47:01.639Z</time></trkpt><trkpt lat="44.4746955" lon="11.2141588"><ele>95.25</ele><time>2026-03-22T11:47:02.639Z</time></trkpt><trkpt lat="44.4747803" lon="11.2142891"><ele>95.0</ele><time>2026-03-22T11:47:03.639Z</time></trkpt><trkpt lat="44.4748605" lon="11.2144283"><ele>95.0</ele><time>2026-03-22T11:47:04.639Z</time></trkpt><trkpt lat="44.474936" lon="11.2145821"><ele>95.0</ele><time>2026-03-22T11:47:05.639Z</time></trkpt><trkpt lat="44.4750022" lon="11.2147512"><ele>95.0</ele><time>2026-03-22T11:47:06.639Z</time></trkpt><trkpt lat="44.4750595" lon="11.2149396"><ele>95.0</ele><time>2026-03-22T11:47:07.639Z</time></trkpt><trkpt lat="44.4751044" lon="11.2151401"><ele>95.0</ele><time>2026-03-22T11:47:08.639Z</time></trkpt><trkpt lat="44.4751424" lon="11.2153486"><ele>95.0</ele><time>2026-03-22T11:47:09.639Z</time></trkpt><trkpt lat="44.4751767" lon="11.2155632"><ele>95.0</ele><time>2026-03-22T11:47:10.639Z</time></trkpt><trkpt lat="44.4752098" lon="11.2157768"><ele>94.5</ele><time>2026-03-22T11:47:11.639Z</time></trkpt><trkpt lat="44.4752435" lon="11.2159844"><ele>94.0</ele><time>2026-03-22T11:47:12.639Z</time></trkpt><trkpt lat="44.4752775" lon="11.216177"><ele>93.5</ele><time>2026-03-22T11:47:13.639Z</time></trkpt><trkpt lat="44.4753138" lon="11.2163488"><ele>93.0</ele><time>2026-03-22T11:47:14.639Z</time></trkpt><trkpt lat="44.4753523" lon="11.2164927"><ele>92.66666666666667</ele><time>2026-03-22T11:47:15.639Z</time></trkpt><trkpt lat="44.4753768" lon="11.2166082"><ele>92.33333333333333</ele><time>2026-03-22T11:47:16.639Z</time></trkpt><trkpt lat="44.4754062" lon="11.2167123"><ele>92.0</ele><time>2026-03-22T11:47:17.639Z</time></trkpt><trkpt lat="44.4754357" lon="11.2168141"><ele>91.66666666666666</ele><time>2026-03-22T11:47:18.639Z</time></trkpt><trkpt lat="44.4754673" lon="11.2169194"><ele>91.33333333333333</ele><time>2026-03-22T11:47:19.639Z</time></trkpt><trkpt lat="44.4755032" lon="11.2170287"><ele>91.0</ele><time>2026-03-22T11:47:20.639Z</time></trkpt><trkpt lat="44.4755397" lon="11.2171442"><ele>90.0</ele><time>2026-03-22T11:47:21.639Z</time></trkpt><trkpt lat="44.4755813" lon="11.2172656"><ele>89.0</ele><time>2026-03-22T11:47:22.639Z</time></trkpt><trkpt lat="44.4756272" lon="11.217392"><ele>88.0</ele><time>2026-03-22T11:47:23.639Z</time></trkpt><trkpt lat="44.4756746" lon="11.2175204"><ele>87.0</ele><time>2026-03-22T11:47:24.639Z</time></trkpt><trkpt lat="44.4757232" lon="11.2176491"><ele>86.0</ele><time>2026-03-22T11:47:25.639Z</time></trkpt><trkpt lat="44.4757742" lon="11.217777"><ele>86.0</ele><time>2026-03-22T11:47:26.639Z</time></trkpt><trkpt lat="44.4758281" lon="11.2179043"><ele>86.0</ele><time>2026-03-22T11:47:27.639Z</time></trkpt><trkpt lat="44.4758843" lon="11.2180302"><ele>86.0</ele><time>2026-03-22T11:47:28.639Z</time></trkpt><trkpt lat="44.4759437" lon="11.2181528"><ele>86.0</ele><time>2026-03-22T11:47:29.639Z</time></trkpt><trkpt lat="44.476004" lon="11.2182675"><ele>86.0</ele><time>2026-03-22T11:47:30.639Z</time></trkpt><trkpt lat="44.47606" lon="11.2183795"><ele>86.4</ele><time>2026-03-22T11:47:31.639Z</time></trkpt><trkpt lat="44.4761186" lon="11.2184849"><ele>86.8</ele><time>2026-03-22T11:47:32.639Z</time></trkpt><trkpt lat="44.4761804" lon="11.2185954"><ele>87.2</ele><time>2026-03-22T11:47:33.639Z</time></trkpt><trkpt lat="44.4762449" lon="11.2187072"><ele>87.60000000000001</ele><time>2026-03-22T11:47:34.639Z</time></trkpt><trkpt lat="44.4763112" lon="11.2188199"><ele>88.0</ele><time>2026-03-22T11:47:35.639Z</time></trkpt><trkpt lat="44.4763759" lon="11.2189332"><ele>88.0</ele><time>2026-03-22T11:47:36.639Z</time></trkpt><trkpt lat="44.4764401" lon="11.2190452"><ele>88.0</ele><time>2026-03-22T11:47:37.639Z</time></trkpt><trkpt lat="44.4765044" lon="11.2191573"><ele>88.0</ele><time>2026-03-22T11:47:38.639Z</time></trkpt><trkpt lat="44.4765683" lon="11.21927"><ele>88.0</ele><time>2026-03-22T11:47:39.639Z</time></trkpt><trkpt lat="44.476633" lon="11.2193837"><ele>88.0</ele><time>2026-03-22T11:47:40.639Z</time></trkpt><trkpt lat="44.4766973" lon="11.2194981"><ele>88.0</ele><time>2026-03-22T11:47:41.639Z</time></trkpt><trkpt lat="44.4767624" lon="11.2196125"><ele>88.0</ele><time>2026-03-22T11:47:42.639Z</time></trkpt><trkpt lat="44.4768279" lon="11.2197268"><ele>88.0</ele><time>2026-03-22T11:47:43.639Z</time></trkpt><trkpt lat="44.4768943" lon="11.2198413"><ele>88.0</ele><time>2026-03-22T11:47:44.639Z</time></trkpt><trkpt lat="44.4769611" lon="11.2199576"><ele>88.0</ele><time>2026-03-22T11:47:45.639Z</time></trkpt><trkpt lat="44.4770299" lon="11.2200754"><ele>88.60000000000001</ele><time>2026-03-22T11:47:46.639Z</time></trkpt><trkpt lat="44.4770987" lon="11.2201946"><ele>89.2</ele><time>2026-03-22T11:47:47.639Z</time></trkpt><trkpt lat="44.4771669" lon="11.2203134"><ele>89.8</ele><time>2026-03-22T11:47:48.639Z</time></trkpt><trkpt lat="44.477235" lon="11.2204336"><ele>90.4</ele><time>2026-03-22T11:47:49.639Z</time></trkpt><trkpt lat="44.4773022" lon="11.2205563"><ele>91.0</ele><time>2026-03-22T11:47:50.639Z</time></trkpt><trkpt lat="44.4773685" lon="11.220683"><ele>91.25</ele><time>2026-03-22T11:47:51.639Z</time></trkpt><trkpt lat="44.4774284" lon="11.220817"><ele>91.5</ele><time>2026-03-22T11:47:52.639Z</time></trkpt><trkpt lat="44.4774816" lon="11.2209585"><ele>91.75</ele><time>2026-03-22T11:47:53.639Z</time></trkpt><trkpt lat="44.4775278" lon="11.221108"><ele>92.0</ele><time>2026-03-22T11:47:54.639Z</time></trkpt><trkpt lat="44.477568" lon="11.2212664"><ele>92.0</ele><time>2026-03-22T11:47:55.639Z</time></trkpt><trkpt lat="44.4776057" lon="11.2214312"><ele>92.0</ele><time>2026-03-22T11:47:56.639Z</time></trkpt><trkpt lat="44.477643" lon="11.2216023"><ele>92.0</ele><time>2026-03-22T11:47:57.639Z</time></trkpt><trkpt lat="44.4776834" lon="11.2217781"><ele>92.0</ele><time>2026-03-22T11:47:58.639Z</time></trkpt><trkpt lat="44.477728" lon="11.2219565"><ele>92.25</ele><time>2026-03-22T11:47:59.639Z</time></trkpt><trkpt lat="44.477779" lon="11.22213"><ele>92.5</ele><time>2026-03-22T11:48:00.639Z</time></trkpt><trkpt lat="44.4778362" lon="11.2222971"><ele>92.75</ele><time>2026-03-22T11:48:01.639Z</time></trkpt><trkpt lat="44.4779009" lon="11.2224553"><ele>93.0</ele><time>2026-03-22T11:48:02.639Z</time></trkpt><trkpt lat="44.4779741" lon="11.2226082"><ele>91.25</ele><time>2026-03-22T11:48:03.639Z</time></trkpt><trkpt lat="44.4780581" lon="11.2227527"><ele>89.5</ele><time>2026-03-22T11:48:04.639Z</time></trkpt><trkpt lat="44.4781518" lon="11.2228835"><ele>87.75</ele><time>2026-03-22T11:48:05.639Z</time></trkpt><trkpt lat="44.4782525" lon="11.2230024"><ele>86.0</ele><time>2026-03-22T11:48:06.639Z</time></trkpt><trkpt lat="44.4783604" lon="11.2231092"><ele>86.0</ele><time>2026-03-22T11:48:07.639Z</time></trkpt><trkpt lat="44.4784733" lon="11.223202"><ele>86.0</ele><time>2026-03-22T11:48:08.639Z</time></trkpt><trkpt lat="44.4785921" lon="11.2232763"><ele>86.0</ele><time>2026-03-22T11:48:09.639Z</time></trkpt><trkpt lat="44.4787149" lon="11.2233349"><ele>86.0</ele><time>2026-03-22T11:48:10.639Z</time></trkpt><trkpt lat="44.4788415" lon="11.2233824"><ele>86.0</ele><time>2026-03-22T11:48:11.639Z</time></trkpt><trkpt lat="44.4789709" lon="11.2234275"><ele>86.0</ele><time>2026-03-22T11:48:12.639Z</time></trkpt><trkpt lat="44.4790999" lon="11.223469"><ele>86.0</ele><time>2026-03-22T11:48:13.639Z</time></trkpt><trkpt lat="44.479232" lon="11.2235064"><ele>86.0</ele><time>2026-03-22T11:48:14.639Z</time></trkpt><trkpt lat="44.4793634" lon="11.2235449"><ele>86.0</ele><time>2026-03-22T11:48:15.639Z</time></trkpt><trkpt lat="44.4794959" lon="11.2235832"><ele>86.0</ele><time>2026-03-22T11:48:16.639Z</time></trkpt><trkpt lat="44.4796287" lon="11.2236212"><ele>86.0</ele><time>2026-03-22T11:48:17.639Z</time></trkpt><trkpt lat="44.4797622" lon="11.2236597"><ele>86.0</ele><time>2026-03-22T11:48:18.639Z</time></trkpt><trkpt lat="44.4798957" lon="11.2236996"><ele>85.0</ele><time>2026-03-22T11:48:19.639Z</time></trkpt><trkpt lat="44.4800291" lon="11.2237376"><ele>84.0</ele><time>2026-03-22T11:48:20.639Z</time></trkpt><trkpt lat="44.480164" lon="11.2237765"><ele>83.0</ele><time>2026-03-22T11:48:21.639Z</time></trkpt><trkpt lat="44.4802982" lon="11.2238157"><ele>82.0</ele><time>2026-03-22T11:48:22.639Z</time></trkpt><trkpt lat="44.480434" lon="11.2238552"><ele>81.75</ele><time>2026-03-22T11:48:23.639Z</time></trkpt><trkpt lat="44.480571" lon="11.2238929"><ele>81.5</ele><time>2026-03-22T11:48:24.639Z</time></trkpt><trkpt lat="44.4807078" lon="11.223932"><ele>81.25</ele><time>2026-03-22T11:48:25.639Z</time></trkpt><trkpt lat="44.4808458" lon="11.2239731"><ele>81.0</ele><time>2026-03-22T11:48:26.639Z</time></trkpt><trkpt lat="44.4809855" lon="11.2240146"><ele>81.5</ele><time>2026-03-22T11:48:27.639Z</time></trkpt><trkpt lat="44.4811266" lon="11.2240556"><ele>82.0</ele><time>2026-03-22T11:48:28.639Z</time></trkpt><trkpt lat="44.481268" lon="11.2240966"><ele>82.5</ele><time>2026-03-22T11:48:29.639Z</time></trkpt><trkpt lat="44.4814107" lon="11.224138"><ele>83.0</ele><time>2026-03-22T11:48:30.639Z</time></trkpt><trkpt lat="44.4815539" lon="11.2241797"><ele>83.0</ele><time>2026-03-22T11:48:31.639Z</time></trkpt><trkpt lat="44.4816953" lon="11.2242195"><ele>83.0</ele><time>2026-03-22T11:48:32.639Z</time></trkpt><trkpt lat="44.4818369" lon="11.2242588"><ele>83.0</ele><time>2026-03-22T11:48:33.639Z</time></trkpt><trkpt lat="44.481979" lon="11.2242989"><ele>83.0</ele><time>2026-03-22T11:48:34.639Z</time></trkpt><trkpt lat="44.4821206" lon="11.2243396"><ele>82.5</ele><time>2026-03-22T11:48:35.639Z</time></trkpt><trkpt lat="44.4822617" lon="11.2243817"><ele>82.0</ele><time>2026-03-22T11:48:36.639Z</time></trkpt><trkpt lat="44.482402" lon="11.2244223"><ele>81.5</ele><time>2026-03-22T11:48:37.639Z</time></trkpt><trkpt lat="44.482542" lon="11.2244626"><ele>81.0</ele><time>2026-03-22T11:48:38.639Z</time></trkpt><trkpt lat="44.4826811" lon="11.2245031"><ele>81.0</ele><time>2026-03-22T11:48:39.639Z</time></trkpt><trkpt lat="44.4828222" lon="11.2245427"><ele>81.0</ele><time>2026-03-22T11:48:40.639Z</time></trkpt><trkpt lat="44.4829617" lon="11.2245822"><ele>81.0</ele><time>2026-03-22T11:48:41.639Z</time></trkpt><trkpt lat="44.4831022" lon="11.2246221"><ele>81.0</ele><time>2026-03-22T11:48:42.639Z</time></trkpt><trkpt lat="44.4832442" lon="11.224662"><ele>80.5</ele><time>2026-03-22T11:48:43.639Z</time></trkpt><trkpt lat="44.4833873" lon="11.2247034"><ele>80.0</ele><time>2026-03-22T11:48:44.639Z</time></trkpt><trkpt lat="44.4835303" lon="11.2247444"><ele>79.5</ele><time>2026-03-22T11:48:45.639Z</time></trkpt><trkpt lat="44.4836738" lon="11.2247864"><ele>79.0</ele><time>2026-03-22T11:48:46.639Z</time></trkpt><trkpt lat="44.4838164" lon="11.2248278"><ele>78.75</ele><time>2026-03-22T11:48:47.639Z</time></trkpt><trkpt lat="44.4839588" lon="11.2248687"><ele>78.5</ele><time>2026-03-22T11:48:48.639Z</time></trkpt><trkpt lat="44.4841014" lon="11.2249093"><ele>78.25</ele><time>2026-03-22T11:48:49.639Z</time></trkpt><trkpt lat="44.4842427" lon="11.2249493"><ele>78.0</ele><time>2026-03-22T11:48:50.639Z</time></trkpt><trkpt lat="44.4843854" lon="11.224993"><ele>78.0</ele><time>2026-03-22T11:48:51.639Z</time></trkpt><trkpt lat="44.4845303" lon="11.2250396"><ele>78.0</ele><time>2026-03-22T11:48:52.639Z</time></trkpt><trkpt lat="44.4846759" lon="11.2250787"><ele>78.0</ele><time>2026-03-22T11:48:53.639Z</time></trkpt><trkpt lat="44.484821" lon="11.2251176"><ele>78.0</ele><time>2026-03-22T11:48:54.639Z</time></trkpt><trkpt lat="44.4849659" lon="11.2251568"><ele>78.25</ele><time>2026-03-22T11:48:55.639Z</time></trkpt><trkpt lat="44.485109" lon="11.2252013"><ele>78.5</ele><time>2026-03-22T11:48:56.639Z</time></trkpt><trkpt lat="44.4852492" lon="11.2252512"><ele>78.75</ele><time>2026-03-22T11:48:57.639Z</time></trkpt><trkpt lat="44.4853879" lon="11.2253079"><ele>79.0</ele><time>2026-03-22T11:48:58.639Z</time></trkpt><trkpt lat="44.4855228" lon="11.2253703"><ele>79.0</ele><time>2026-03-22T11:48:59.639Z</time></trkpt><trkpt lat="44.4856563" lon="11.2254417"><ele>79.0</ele><time>2026-03-22T11:49:00.639Z</time></trkpt><trkpt lat="44.4857826" lon="11.2255214"><ele>79.0</ele><time>2026-03-22T11:49:01.639Z</time></trkpt><trkpt lat="44.4859052" lon="11.225601"><ele>79.0</ele><time>2026-03-22T11:49:02.639Z</time></trkpt><trkpt lat="44.4860233" lon="11.22568"><ele>79.5</ele><time>2026-03-22T11:49:03.639Z</time></trkpt><trkpt lat="44.4861394" lon="11.2257583"><ele>80.0</ele><time>2026-03-22T11:49:04.639Z</time></trkpt><trkpt lat="44.4862467" lon="11.2258339"><ele>80.5</ele><time>2026-03-22T11:49:05.639Z</time></trkpt><trkpt lat="44.48635" lon="11.2259123"><ele>81.0</ele><time>2026-03-22T11:49:06.639Z</time></trkpt><trkpt lat="44.486448" lon="11.2259867"><ele>81.0</ele><time>2026-03-22T11:49:07.639Z</time></trkpt><trkpt lat="44.4865419" lon="11.2260599"><ele>81.0</ele><time>2026-03-22T11:49:08.639Z</time></trkpt><trkpt lat="44.4866324" lon="11.2261319"><ele>81.0</ele><time>2026-03-22T11:49:09.639Z</time></trkpt><trkpt lat="44.4867181" lon="11.2262015"><ele>81.0</ele><time>2026-03-22T11:49:10.639Z</time></trkpt><trkpt lat="44.4867977" lon="11.2262699"><ele>81.0</ele><time>2026-03-22T11:49:11.639Z</time></trkpt><trkpt lat="44.486869" lon="11.2263365"><ele>81.0</ele><time>2026-03-22T11:49:12.639Z</time></trkpt><trkpt lat="44.4869336" lon="11.2264065"><ele>81.0</ele><time>2026-03-22T11:49:13.639Z</time></trkpt><trkpt lat="44.4869939" lon="11.2264832"><ele>81.0</ele><time>2026-03-22T11:49:14.639Z</time></trkpt><trkpt lat="44.4870495" lon="11.2265751"><ele>81.0</ele><time>2026-03-22T11:49:15.639Z</time></trkpt><trkpt lat="44.4871017" lon="11.2266806"><ele>81.0</ele><time>2026-03-22T11:49:16.639Z</time></trkpt><trkpt lat="44.4871407" lon="11.2268081"><ele>81.0</ele><time>2026-03-22T11:49:17.639Z</time></trkpt><trkpt lat="44.4871661" lon="11.2269487"><ele>80.75</ele><time>2026-03-22T11:49:18.639Z</time></trkpt><trkpt lat="44.4871886" lon="11.2270971"><ele>80.5</ele><time>2026-03-22T11:49:19.639Z</time></trkpt><trkpt lat="44.4872095" lon="11.2272546"><ele>80.25</ele><time>2026-03-22T11:49:20.639Z</time></trkpt><trkpt lat="44.4872241" lon="11.2274283"><ele>80.0</ele><time>2026-03-22T11:49:21.639Z</time></trkpt><trkpt lat="44.4872199" lon="11.2276153"><ele>78.66666666666667</ele><time>2026-03-22T11:49:22.639Z</time></trkpt><trkpt lat="44.4871959" lon="11.2278101"><ele>77.33333333333333</ele><time>2026-03-22T11:49:23.639Z</time></trkpt><trkpt lat="44.4871599" lon="11.2280263"><ele>76.0</ele><time>2026-03-22T11:49:24.639Z</time></trkpt><trkpt lat="44.487121" lon="11.2282411"><ele>75.75</ele><time>2026-03-22T11:49:25.639Z</time></trkpt><trkpt lat="44.487083" lon="11.2284477"><ele>75.5</ele><time>2026-03-22T11:49:26.639Z</time></trkpt><trkpt lat="44.4870509" lon="11.2286497"><ele>75.25</ele><time>2026-03-22T11:49:27.639Z</time></trkpt><trkpt lat="44.487021" lon="11.2288463"><ele>75.0</ele><time>2026-03-22T11:49:28.639Z</time></trkpt><trkpt lat="44.4869908" lon="11.2290446"><ele>75.0</ele><time>2026-03-22T11:49:29.639Z</time></trkpt><trkpt lat="44.4869559" lon="11.2292315"><ele>75.0</ele><time>2026-03-22T11:49:30.639Z</time></trkpt><trkpt lat="44.4869215" lon="11.2294364"><ele>75.0</ele><time>2026-03-22T11:49:31.639Z</time></trkpt><trkpt lat="44.4868832" lon="11.2296546"><ele>75.0</ele><time>2026-03-22T11:49:32.639Z</time></trkpt><trkpt lat="44.4868466" lon="11.2298883"><ele>75.0</ele><time>2026-03-22T11:49:33.639Z</time></trkpt><trkpt lat="44.4868038" lon="11.2301308"><ele>75.0</ele><time>2026-03-22T11:49:34.639Z</time></trkpt><trkpt lat="44.4867601" lon="11.2303712"><ele>75.0</ele><time>2026-03-22T11:49:35.639Z</time></trkpt><trkpt lat="44.4867161" lon="11.2306081"><ele>75.66666666666667</ele><time>2026-03-22T11:49:36.639Z</time></trkpt><trkpt lat="44.4866736" lon="11.2308446"><ele>76.33333333333334</ele><time>2026-03-22T11:49:37.639Z</time></trkpt><trkpt lat="44.4866316" lon="11.2310805"><ele>77.0</ele><time>2026-03-22T11:49:38.639Z</time></trkpt><trkpt lat="44.4865866" lon="11.2313179"><ele>77.0</ele><time>2026-03-22T11:49:39.639Z</time></trkpt><trkpt lat="44.4865396" lon="11.2315602"><ele>77.0</ele><time>2026-03-22T11:49:40.639Z</time></trkpt><trkpt lat="44.4864919" lon="11.2318042"><ele>77.0</ele><time>2026-03-22T11:49:41.639Z</time></trkpt><trkpt lat="44.4864445" lon="11.2320514"><ele>77.0</ele><time>2026-03-22T11:49:42.639Z</time></trkpt><trkpt lat="44.4863969" lon="11.2323003"><ele>77.0</ele><time>2026-03-22T11:49:43.639Z</time></trkpt><trkpt lat="44.4863487" lon="11.2325515"><ele>77.0</ele><time>2026-03-22T11:49:44.639Z</time></trkpt><trkpt lat="44.4863006" lon="11.2328063"><ele>76.0</ele><time>2026-03-22T11:49:45.639Z</time></trkpt><trkpt lat="44.4862536" lon="11.2330614"><ele>75.0</ele><time>2026-03-22T11:49:46.639Z</time></trkpt><trkpt lat="44.4862074" lon="11.2333111"><ele>74.0</ele><time>2026-03-22T11:49:47.639Z</time></trkpt><trkpt lat="44.4861624" lon="11.233557"><ele>74.0</ele><time>2026-03-22T11:49:48.639Z</time></trkpt><trkpt lat="44.4861178" lon="11.2337997"><ele>74.0</ele><time>2026-03-22T11:49:49.639Z</time></trkpt><trkpt lat="44.4860755" lon="11.2340402"><ele>74.0</ele><time>2026-03-22T11:49:50.639Z</time></trkpt><trkpt lat="44.4860325" lon="11.2342784"><ele>74.33333333333334</ele><time>2026-03-22T11:49:51.639Z</time></trkpt><trkpt lat="44.4859906" lon="11.2345153"><ele>74.66666666666667</ele><time>2026-03-22T11:49:52.639Z</time></trkpt><trkpt lat="44.4859505" lon="11.2347487"><ele>75.0</ele><time>2026-03-22T11:49:53.639Z</time></trkpt><trkpt lat="44.4859131" lon="11.2349774"><ele>75.33333333333333</ele><time>2026-03-22T11:49:54.639Z</time></trkpt><trkpt lat="44.4858811" lon="11.2352035"><ele>75.66666666666666</ele><time>2026-03-22T11:49:55.639Z</time></trkpt><trkpt lat="44.485853" lon="11.235424"><ele>76.0</ele><time>2026-03-22T11:49:56.639Z</time></trkpt><trkpt lat="44.4858276" lon="11.2356363"><ele>76.5</ele><time>2026-03-22T11:49:57.639Z</time></trkpt><trkpt lat="44.4858046" lon="11.2358415"><ele>77.0</ele><time>2026-03-22T11:49:58.639Z</time></trkpt><trkpt lat="44.4857828" lon="11.2360372"><ele>77.5</ele><time>2026-03-22T11:49:59.639Z</time></trkpt><trkpt lat="44.4857585" lon="11.2362274"><ele>78.0</ele><time>2026-03-22T11:50:00.639Z</time></trkpt><trkpt lat="44.4857285" lon="11.2364131"><ele>77.75</ele><time>2026-03-22T11:50:01.639Z</time></trkpt><trkpt lat="44.4856908" lon="11.2365908"><ele>77.5</ele><time>2026-03-22T11:50:02.639Z</time></trkpt><trkpt lat="44.48565" lon="11.2367615"><ele>77.25</ele><time>2026-03-22T11:50:03.639Z</time></trkpt><trkpt lat="44.4856086" lon="11.2369245"><ele>77.0</ele><time>2026-03-22T11:50:04.639Z</time></trkpt><trkpt lat="44.4855685" lon="11.23708"><ele>77.0</ele><time>2026-03-22T11:50:05.639Z</time></trkpt><trkpt lat="44.4855325" lon="11.2372251"><ele>77.0</ele><time>2026-03-22T11:50:06.639Z</time></trkpt><trkpt lat="44.4855005" lon="11.2373551"><ele>77.0</ele><time>2026-03-22T11:50:07.639Z</time></trkpt><trkpt lat="44.4854704" lon="11.2374723"><ele>77.0</ele><time>2026-03-22T11:50:08.639Z</time></trkpt><trkpt lat="44.485444" lon="11.2375776"><ele>77.0</ele><time>2026-03-22T11:50:09.639Z</time></trkpt><trkpt lat="44.4854185" lon="11.2376839"><ele>77.2</ele><time>2026-03-22T11:50:10.639Z</time></trkpt><trkpt lat="44.4853938" lon="11.2378003"><ele>77.4</ele><time>2026-03-22T11:50:11.639Z</time></trkpt><trkpt lat="44.4853642" lon="11.2379217"><ele>77.6</ele><time>2026-03-22T11:50:12.639Z</time></trkpt><trkpt lat="44.4853343" lon="11.238044"><ele>77.8</ele><time>2026-03-22T11:50:13.639Z</time></trkpt><trkpt lat="44.4853034" lon="11.2381688"><ele>78.0</ele><time>2026-03-22T11:50:14.639Z</time></trkpt><trkpt lat="44.4852734" lon="11.2382981"><ele>78.16666666666667</ele><time>2026-03-22T11:50:15.639Z</time></trkpt><trkpt lat="44.4852411" lon="11.2384279"><ele>78.33333333333333</ele><time>2026-03-22T11:50:16.639Z</time></trkpt><trkpt lat="44.4852101" lon="11.2385542"><ele>78.5</ele><time>2026-03-22T11:50:17.639Z</time></trkpt><trkpt lat="44.4851801" lon="11.2386706"><ele>78.66666666666666</ele><time>2026-03-22T11:50:18.639Z</time></trkpt><trkpt lat="44.4851447" lon="11.2387796"><ele>78.83333333333333</ele><time>2026-03-22T11:50:19.639Z</time></trkpt><trkpt lat="44.4850991" lon="11.2388754"><ele>79.0</ele><time>2026-03-22T11:50:20.639Z</time></trkpt><trkpt lat="44.4850407" lon="11.2389509"><ele>79.2</ele><time>2026-03-22T11:50:21.639Z</time></trkpt><trkpt lat="44.4849674" lon="11.2390206"><ele>79.4</ele><time>2026-03-22T11:50:22.639Z</time></trkpt><trkpt lat="44.4848972" lon="11.239097"><ele>79.6</ele><time>2026-03-22T11:50:23.639Z</time></trkpt><trkpt lat="44.4848455" lon="11.2392029"><ele>79.8</ele><time>2026-03-22T11:50:24.639Z</time></trkpt><trkpt lat="44.4848205" lon="11.2393361"><ele>80.0</ele><time>2026-03-22T11:50:25.639Z</time></trkpt><trkpt lat="44.4848346" lon="11.2394756"><ele>80.0</ele><time>2026-03-22T11:50:26.639Z</time></trkpt><trkpt lat="44.4848878" lon="11.2395847"><ele>80.0</ele><time>2026-03-22T11:50:27.639Z</time></trkpt><trkpt lat="44.4849962" lon="11.2395016"><ele>80.0</ele><time>2026-03-22T11:50:28.639Z</time></trkpt><trkpt lat="44.4850885" lon="11.2394928"><ele>80.0</ele><time>2026-03-22T11:50:29.639Z</time></trkpt><trkpt lat="44.4851835" lon="11.2394953"><ele>80.0</ele><time>2026-03-22T11:50:30.639Z</time></trkpt><trkpt lat="44.4852758" lon="11.2395368"><ele>80.0</ele><time>2026-03-22T11:50:31.639Z</time></trkpt><trkpt lat="44.485371" lon="11.2396046"><ele>80.0</ele><time>2026-03-22T11:50:32.639Z</time></trkpt><trkpt lat="44.4854809" lon="11.2396983"><ele>80.0</ele><time>2026-03-22T11:50:33.639Z</time></trkpt><trkpt lat="44.4855789" lon="11.2397842"><ele>80.0</ele><time>2026-03-22T11:50:34.639Z</time></trkpt><trkpt lat="44.4856757" lon="11.2398705"><ele>79.5</ele><time>2026-03-22T11:50:35.639Z</time></trkpt><trkpt lat="44.4857739" lon="11.239958"><ele>79.0</ele><time>2026-03-22T11:50:36.639Z</time></trkpt><trkpt lat="44.4858717" lon="11.240044"><ele>78.5</ele><time>2026-03-22T11:50:37.639Z</time></trkpt><trkpt lat="44.4859691" lon="11.2401296"><ele>78.0</ele><time>2026-03-22T11:50:38.639Z</time></trkpt><trkpt lat="44.4860662" lon="11.2402143"><ele>78.0</ele><time>2026-03-22T11:50:39.639Z</time></trkpt><trkpt lat="44.4861657" lon="11.2403022"><ele>78.0</ele><time>2026-03-22T11:50:40.639Z</time></trkpt><trkpt lat="44.486268" lon="11.2403957"><ele>78.0</ele><time>2026-03-22T11:50:41.639Z</time></trkpt><trkpt lat="44.4863723" lon="11.2404922"><ele>78.0</ele><time>2026-03-22T11:50:42.639Z</time></trkpt><trkpt lat="44.4864824" lon="11.2405867"><ele>77.5</ele><time>2026-03-22T11:50:43.639Z</time></trkpt><trkpt lat="44.486592" lon="11.2406851"><ele>77.0</ele><time>2026-03-22T11:50:44.639Z</time></trkpt><trkpt lat="44.4867045" lon="11.240783"><ele>76.5</ele><time>2026-03-22T11:50:45.639Z</time></trkpt><trkpt lat="44.4868162" lon="11.2408812"><ele>76.0</ele><time>2026-03-22T11:50:46.639Z</time></trkpt><trkpt lat="44.4869271" lon="11.240979"><ele>76.0</ele><time>2026-03-22T11:50:47.639Z</time></trkpt><trkpt lat="44.4870367" lon="11.2410766"><ele>76.0</ele><time>2026-03-22T11:50:48.639Z</time></trkpt><trkpt lat="44.4871463" lon="11.2411736"><ele>76.0</ele><time>2026-03-22T11:50:49.639Z</time></trkpt><trkpt lat="44.4872561" lon="11.2412679"><ele>76.0</ele><time>2026-03-22T11:50:50.639Z</time></trkpt><trkpt lat="44.4873654" lon="11.2413599"><ele>76.0</ele><time>2026-03-22T11:50:51.639Z</time></trkpt><trkpt lat="44.4874715" lon="11.2414497"><ele>76.0</ele><time>2026-03-22T11:50:52.639Z</time></trkpt><trkpt lat="44.4875721" lon="11.2415344"><ele>76.0</ele><time>2026-03-22T11:50:53.639Z</time></trkpt><trkpt lat="44.4876612" lon="11.2416269"><ele>76.0</ele><time>2026-03-22T11:50:54.639Z</time></trkpt><trkpt lat="44.4877297" lon="11.2417437"><ele>75.66666666666666</ele><time>2026-03-22T11:50:55.639Z</time></trkpt><trkpt lat="44.4877842" lon="11.2418623"><ele>75.33333333333333</ele><time>2026-03-22T11:50:56.639Z</time></trkpt><trkpt lat="44.487851" lon="11.2419549"><ele>75.0</ele><time>2026-03-22T11:50:57.639Z</time></trkpt><trkpt lat="44.487927" lon="11.2419988"><ele>74.66666666666667</ele><time>2026-03-22T11:50:58.639Z</time></trkpt><trkpt lat="44.4880115" lon="11.2420062"><ele>74.33333333333334</ele><time>2026-03-22T11:50:59.639Z</time></trkpt><trkpt lat="44.4880983" lon="11.2420156"><ele>74.0</ele><time>2026-03-22T11:51:00.639Z</time></trkpt><trkpt lat="44.4881821" lon="11.2420522"><ele>73.83333333333334</ele><time>2026-03-22T11:51:01.639Z</time></trkpt><trkpt lat="44.4882499" lon="11.2421267"><ele>73.66666666666667</ele><time>2026-03-22T11:51:02.639Z</time></trkpt><trkpt lat="44.4882948" lon="11.2422256"><ele>73.5</ele><time>2026-03-22T11:51:03.639Z</time></trkpt><trkpt lat="44.488319" lon="11.2423357"><ele>73.33333333333333</ele><time>2026-03-22T11:51:04.639Z</time></trkpt><trkpt lat="44.4883294" lon="11.2424403"><ele>73.16666666666666</ele><time>2026-03-22T11:51:05.639Z</time></trkpt><trkpt lat="44.48833" lon="11.2425468"><ele>73.0</ele><time>2026-03-22T11:51:06.639Z</time></trkpt><trkpt lat="44.4883206" lon="11.2426674"><ele>73.0</ele><time>2026-03-22T11:51:07.639Z</time></trkpt><trkpt lat="44.4883038" lon="11.2428057"><ele>73.0</ele><time>2026-03-22T11:51:08.639Z</time></trkpt><trkpt lat="44.4882951" lon="11.2429696"><ele>73.0</ele><time>2026-03-22T11:51:09.639Z</time></trkpt><trkpt lat="44.4882902" lon="11.2431848"><ele>73.0</ele><time>2026-03-22T11:51:10.639Z</time></trkpt><trkpt lat="44.4882716" lon="11.2434645"><ele>71.5</ele><time>2026-03-22T11:51:11.639Z</time></trkpt><trkpt lat="44.4882348" lon="11.243774"><ele>70.0</ele><time>2026-03-22T11:51:12.639Z</time></trkpt><trkpt lat="44.4881939" lon="11.244101"><ele>69.66666666666666</ele><time>2026-03-22T11:51:13.639Z</time></trkpt><trkpt lat="44.4880989" lon="11.2443667"><ele>69.33333333333333</ele><time>2026-03-22T11:51:14.639Z</time></trkpt><trkpt lat="44.4880281" lon="11.2446519"><ele>69.0</ele><time>2026-03-22T11:51:15.639Z</time></trkpt><trkpt lat="44.4878943" lon="11.2449328"><ele>69.0</ele><time>2026-03-22T11:51:16.639Z</time></trkpt><trkpt lat="44.4877163" lon="11.2450805"><ele>69.0</ele><time>2026-03-22T11:51:17.639Z</time></trkpt><trkpt lat="44.4875986" lon="11.2453107"><ele>69.0</ele><time>2026-03-22T11:51:18.639Z</time></trkpt><trkpt lat="44.4875054" lon="11.2455449"><ele>69.0</ele><time>2026-03-22T11:51:19.639Z</time></trkpt><trkpt lat="44.4876825" lon="11.2457383"><ele>69.0</ele><time>2026-03-22T11:51:20.639Z</time></trkpt><trkpt lat="44.4876853" lon="11.2459295"><ele>69.0</ele><time>2026-03-22T11:51:21.639Z</time></trkpt><trkpt lat="44.4876886" lon="11.2461101"><ele>69.0</ele><time>2026-03-22T11:51:22.639Z</time></trkpt><trkpt lat="44.4876544" lon="11.2462622"><ele>69.0</ele><time>2026-03-22T11:51:23.639Z</time></trkpt><trkpt lat="44.4876232" lon="11.2463888"><ele>69.0</ele><time>2026-03-22T11:51:24.639Z</time></trkpt><trkpt lat="44.4875926" lon="11.2464788"><ele>69.0</ele><time>2026-03-22T11:51:25.639Z</time></trkpt><trkpt lat="44.487547" lon="11.2465909"><ele>69.0</ele><time>2026-03-22T11:51:27.639Z</time></trkpt><trkpt lat="44.4875088" lon="11.2466727"><ele>69.0</ele><time>2026-03-22T11:51:29.639Z</time></trkpt><trkpt lat="44.487475" lon="11.2467615"><ele>69.4</ele><time>2026-03-22T11:51:31.639Z</time></trkpt><trkpt lat="44.4874406" lon="11.2468544"><ele>69.80000000000001</ele><time>2026-03-22T11:51:33.639Z</time></trkpt><trkpt lat="44.4873983" lon="11.2469795"><ele>70.19999999999999</ele><time>2026-03-22T11:51:35.639Z</time></trkpt><trkpt lat="44.4873589" lon="11.2470877"><ele>70.6</ele><time>2026-03-22T11:51:37.639Z</time></trkpt><trkpt lat="44.4873121" lon="11.2472152"><ele>71.0</ele><time>2026-03-22T11:51:39.639Z</time></trkpt><trkpt lat="44.4872573" lon="11.2473661"><ele>71.16666666666667</ele><time>2026-03-22T11:51:41.64Z</time></trkpt><trkpt lat="44.4872295" lon="11.2474461"><ele>71.33333333333334</ele><time>2026-03-22T11:51:42.639Z</time></trkpt><trkpt lat="44.4871925" lon="11.2475505"><ele>71.5</ele><time>2026-03-22T11:51:43.639Z</time></trkpt><trkpt lat="44.487155" lon="11.2476531"><ele>71.66666666666667</ele><time>2026-03-22T11:51:44.639Z</time></trkpt><trkpt lat="44.4871211" lon="11.2477681"><ele>71.83333333333333</ele><time>2026-03-22T11:51:45.639Z</time></trkpt><trkpt lat="44.4870855" lon="11.2478787"><ele>72.0</ele><time>2026-03-22T11:51:46.639Z</time></trkpt><trkpt lat="44.4870489" lon="11.2479889"><ele>72.16666666666667</ele><time>2026-03-22T11:51:47.639Z</time></trkpt><trkpt lat="44.4870116" lon="11.2481044"><ele>72.33333333333333</ele><time>2026-03-22T11:51:48.639Z</time></trkpt><trkpt lat="44.4869729" lon="11.2482183"><ele>72.5</ele><time>2026-03-22T11:51:49.639Z</time></trkpt><trkpt lat="44.4869333" lon="11.2483334"><ele>72.66666666666666</ele><time>2026-03-22T11:51:50.639Z</time></trkpt><trkpt lat="44.486898" lon="11.248428"><ele>72.83333333333333</ele><time>2026-03-22T11:51:51.639Z</time></trkpt><trkpt lat="44.4868645" lon="11.2485156"><ele>73.0</ele><time>2026-03-22T11:51:52.639Z</time></trkpt><trkpt lat="44.48683" lon="11.2485895"><ele>73.16666666666666</ele><time>2026-03-22T11:51:53.639Z</time></trkpt><trkpt lat="44.4867736" lon="11.2486922"><ele>73.33333333333333</ele><time>2026-03-22T11:51:55.639Z</time></trkpt><trkpt lat="44.4867294" lon="11.2487747"><ele>73.5</ele><time>2026-03-22T11:51:58.639Z</time></trkpt><trkpt lat="44.4866797" lon="11.2488583"><ele>73.66666666666667</ele><time>2026-03-22T11:52:31.639Z</time></trkpt><trkpt lat="44.4866108" lon="11.2489611"><ele>73.83333333333334</ele><time>2026-03-22T11:52:33.639Z</time></trkpt><trkpt lat="44.4865542" lon="11.2490142"><ele>74.0</ele><time>2026-03-22T11:52:34.639Z</time></trkpt><trkpt lat="44.4864878" lon="11.2490963"><ele>73.0</ele><time>2026-03-22T11:52:35.639Z</time></trkpt><trkpt lat="44.4864393" lon="11.2492254"><ele>72.0</ele><time>2026-03-22T11:52:36.639Z</time></trkpt><trkpt lat="44.4864294" lon="11.2493587"><ele>71.0</ele><time>2026-03-22T11:52:37.639Z</time></trkpt><trkpt lat="44.4864441" lon="11.2495141"><ele>70.0</ele><time>2026-03-22T11:52:38.639Z</time></trkpt><trkpt lat="44.486462" lon="11.2496683"><ele>69.0</ele><time>2026-03-22T11:52:39.639Z</time></trkpt><trkpt lat="44.4864668" lon="11.2498302"><ele>68.25</ele><time>2026-03-22T11:52:40.639Z</time></trkpt><trkpt lat="44.4864295" lon="11.2500176"><ele>67.5</ele><time>2026-03-22T11:52:41.639Z</time></trkpt><trkpt lat="44.4863757" lon="11.2502082"><ele>66.75</ele><time>2026-03-22T11:52:42.639Z</time></trkpt><trkpt lat="44.4863187" lon="11.2503969"><ele>66.0</ele><time>2026-03-22T11:52:43.639Z</time></trkpt><trkpt lat="44.4862632" lon="11.250579"><ele>66.5</ele><time>2026-03-22T11:52:44.639Z</time></trkpt><trkpt lat="44.4862106" lon="11.2507534"><ele>67.0</ele><time>2026-03-22T11:52:45.639Z</time></trkpt><trkpt lat="44.4861572" lon="11.2509182"><ele>67.5</ele><time>2026-03-22T11:52:46.639Z</time></trkpt><trkpt lat="44.4861051" lon="11.25107"><ele>68.0</ele><time>2026-03-22T11:52:47.639Z</time></trkpt><trkpt lat="44.486055" lon="11.2512065"><ele>68.0</ele><time>2026-03-22T11:52:48.639Z</time></trkpt><trkpt lat="44.486009" lon="11.2513291"><ele>68.0</ele><time>2026-03-22T11:52:49.639Z</time></trkpt><trkpt lat="44.4859675" lon="11.2514369"><ele>68.0</ele><time>2026-03-22T11:52:50.639Z</time></trkpt><trkpt lat="44.4859333" lon="11.2515278"><ele>68.0</ele><time>2026-03-22T11:52:51.639Z</time></trkpt><trkpt lat="44.4859051" lon="11.2516108"><ele>68.0</ele><time>2026-03-22T11:52:52.639Z</time></trkpt><trkpt lat="44.4858789" lon="11.2516948"><ele>68.0</ele><time>2026-03-22T11:52:53.639Z</time></trkpt><trkpt lat="44.485851" lon="11.2517896"><ele>68.4</ele><time>2026-03-22T11:52:54.639Z</time></trkpt><trkpt lat="44.4858203" lon="11.2518984"><ele>68.8</ele><time>2026-03-22T11:52:55.639Z</time></trkpt><trkpt lat="44.4857868" lon="11.252022"><ele>69.2</ele><time>2026-03-22T11:52:56.639Z</time></trkpt><trkpt lat="44.4857474" lon="11.2521591"><ele>69.6</ele><time>2026-03-22T11:52:57.639Z</time></trkpt><trkpt lat="44.4857056" lon="11.2522994"><ele>70.0</ele><time>2026-03-22T11:52:58.639Z</time></trkpt><trkpt lat="44.4856621" lon="11.2524359"><ele>70.6</ele><time>2026-03-22T11:52:59.639Z</time></trkpt><trkpt lat="44.4856158" lon="11.2525644"><ele>71.2</ele><time>2026-03-22T11:53:00.639Z</time></trkpt><trkpt lat="44.4855566" lon="11.2526803"><ele>71.8</ele><time>2026-03-22T11:53:01.639Z</time></trkpt><trkpt lat="44.4854849" lon="11.2527922"><ele>72.4</ele><time>2026-03-22T11:53:02.639Z</time></trkpt><trkpt lat="44.4854142" lon="11.2529158"><ele>73.0</ele><time>2026-03-22T11:53:03.639Z</time></trkpt><trkpt lat="44.4853662" lon="11.2530651"><ele>73.0</ele><time>2026-03-22T11:53:04.639Z</time></trkpt><trkpt lat="44.4853562" lon="11.2532396"><ele>73.0</ele><time>2026-03-22T11:53:05.639Z</time></trkpt><trkpt lat="44.4853853" lon="11.2534255"><ele>73.0</ele><time>2026-03-22T11:53:06.639Z</time></trkpt><trkpt lat="44.485426" lon="11.2536242"><ele>73.0</ele><time>2026-03-22T11:53:07.639Z</time></trkpt><trkpt lat="44.4854624" lon="11.2538376"><ele>73.33333333333333</ele><time>2026-03-22T11:53:08.639Z</time></trkpt><trkpt lat="44.485493" lon="11.2540578"><ele>73.66666666666667</ele><time>2026-03-22T11:53:09.639Z</time></trkpt><trkpt lat="44.4855181" lon="11.2542871"><ele>74.0</ele><time>2026-03-22T11:53:10.639Z</time></trkpt><trkpt lat="44.4855388" lon="11.2545209"><ele>74.0</ele><time>2026-03-22T11:53:11.639Z</time></trkpt><trkpt lat="44.4855574" lon="11.2547555"><ele>74.0</ele><time>2026-03-22T11:53:12.639Z</time></trkpt><trkpt lat="44.4855734" lon="11.2549856"><ele>74.0</ele><time>2026-03-22T11:53:13.639Z</time></trkpt><trkpt lat="44.4855886" lon="11.2552117"><ele>74.0</ele><time>2026-03-22T11:53:14.639Z</time></trkpt><trkpt lat="44.4856039" lon="11.2554312"><ele>74.0</ele><time>2026-03-22T11:53:15.639Z</time></trkpt><trkpt lat="44.485616" lon="11.2556445"><ele>74.0</ele><time>2026-03-22T11:53:16.639Z</time></trkpt><trkpt lat="44.4856105" lon="11.2558492"><ele>74.75</ele><time>2026-03-22T11:53:17.639Z</time></trkpt><trkpt lat="44.4855703" lon="11.2560385"><ele>75.5</ele><time>2026-03-22T11:53:18.639Z</time></trkpt><trkpt lat="44.4854938" lon="11.2562004"><ele>76.25</ele><time>2026-03-22T11:53:19.639Z</time></trkpt><trkpt lat="44.4853882" lon="11.2563271"><ele>77.0</ele><time>2026-03-22T11:53:20.639Z</time></trkpt><trkpt lat="44.4852635" lon="11.2564106"><ele>77.0</ele><time>2026-03-22T11:53:21.639Z</time></trkpt><trkpt lat="44.4851238" lon="11.256435"><ele>77.0</ele><time>2026-03-22T11:53:22.639Z</time></trkpt><trkpt lat="44.4849857" lon="11.2564164"><ele>77.0</ele><time>2026-03-22T11:53:23.639Z</time></trkpt><trkpt lat="44.484854" lon="11.2563852"><ele>77.0</ele><time>2026-03-22T11:53:24.639Z</time></trkpt><trkpt lat="44.4847291" lon="11.2563518"><ele>77.0</ele><time>2026-03-22T11:53:25.639Z</time></trkpt><trkpt lat="44.4846112" lon="11.2563207"><ele>77.0</ele><time>2026-03-22T11:53:26.639Z</time></trkpt><trkpt lat="44.4845018" lon="11.2562929"><ele>77.0</ele><time>2026-03-22T11:53:27.639Z</time></trkpt><trkpt lat="44.4844037" lon="11.2562679"><ele>77.0</ele><time>2026-03-22T11:53:28.639Z</time></trkpt><trkpt lat="44.484315" lon="11.2562412"><ele>77.0</ele><time>2026-03-22T11:53:29.639Z</time></trkpt><trkpt lat="44.4842372" lon="11.256196"><ele>76.33333333333334</ele><time>2026-03-22T11:53:30.639Z</time></trkpt><trkpt lat="44.4841757" lon="11.2561275"><ele>75.66666666666667</ele><time>2026-03-22T11:53:31.639Z</time></trkpt><trkpt lat="44.4841216" lon="11.2560462"><ele>75.0</ele><time>2026-03-22T11:53:32.639Z</time></trkpt><trkpt lat="44.4840637" lon="11.2559697"><ele>74.33333333333333</ele><time>2026-03-22T11:53:33.639Z</time></trkpt><trkpt lat="44.483997" lon="11.2559058"><ele>73.66666666666666</ele><time>2026-03-22T11:53:34.639Z</time></trkpt><trkpt lat="44.4839264" lon="11.2558489"><ele>73.0</ele><time>2026-03-22T11:53:35.639Z</time></trkpt><trkpt lat="44.4838587" lon="11.2557801"><ele>73.0</ele><time>2026-03-22T11:53:36.639Z</time></trkpt><trkpt lat="44.483797" lon="11.2556914"><ele>73.0</ele><time>2026-03-22T11:53:37.639Z</time></trkpt><trkpt lat="44.4837479" lon="11.2555792"><ele>73.0</ele><time>2026-03-22T11:53:38.639Z</time></trkpt><trkpt lat="44.4837014" lon="11.2554539"><ele>73.0</ele><time>2026-03-22T11:53:39.639Z</time></trkpt><trkpt lat="44.4836554" lon="11.255323"><ele>73.0</ele><time>2026-03-22T11:53:40.639Z</time></trkpt><trkpt lat="44.4836089" lon="11.2551875"><ele>73.8</ele><time>2026-03-22T11:53:41.639Z</time></trkpt><trkpt lat="44.4835614" lon="11.2550511"><ele>74.6</ele><time>2026-03-22T11:53:42.639Z</time></trkpt><trkpt lat="44.483514" lon="11.2549128"><ele>75.4</ele><time>2026-03-22T11:53:43.639Z</time></trkpt><trkpt lat="44.4834675" lon="11.2547775"><ele>76.2</ele><time>2026-03-22T11:53:44.639Z</time></trkpt><trkpt lat="44.4834136" lon="11.2546306"><ele>77.0</ele><time>2026-03-22T11:53:45.639Z</time></trkpt><trkpt lat="44.4833439" lon="11.2545049"><ele>77.25</ele><time>2026-03-22T11:53:46.639Z</time></trkpt><trkpt lat="44.4832611" lon="11.2543955"><ele>77.5</ele><time>2026-03-22T11:53:47.639Z</time></trkpt><trkpt lat="44.4831639" lon="11.2543073"><ele>77.75</ele><time>2026-03-22T11:53:48.639Z</time></trkpt><trkpt lat="44.483055" lon="11.2542445"><ele>78.0</ele><time>2026-03-22T11:53:49.639Z</time></trkpt><trkpt lat="44.4829382" lon="11.254212"><ele>79.5</ele><time>2026-03-22T11:53:50.639Z</time></trkpt><trkpt lat="44.4828183" lon="11.254212"><ele>81.0</ele><time>2026-03-22T11:53:51.639Z</time></trkpt><trkpt lat="44.4826995" lon="11.254244"><ele>82.5</ele><time>2026-03-22T11:53:52.639Z</time></trkpt><trkpt lat="44.4825865" lon="11.2543032"><ele>84.0</ele><time>2026-03-22T11:53:53.639Z</time></trkpt><trkpt lat="44.4824815" lon="11.254373"><ele>84.0</ele><time>2026-03-22T11:53:54.639Z</time></trkpt><trkpt lat="44.4823819" lon="11.2544369"><ele>84.0</ele><time>2026-03-22T11:53:55.639Z</time></trkpt><trkpt lat="44.4822848" lon="11.254482"><ele>84.0</ele><time>2026-03-22T11:53:56.639Z</time></trkpt><trkpt lat="44.4821867" lon="11.2544941"><ele>84.0</ele><time>2026-03-22T11:53:57.639Z</time></trkpt><trkpt lat="44.4820954" lon="11.2544606"><ele>84.0</ele><time>2026-03-22T11:53:58.639Z</time></trkpt><trkpt lat="44.4820189" lon="11.2543811"><ele>84.6</ele><time>2026-03-22T11:53:59.639Z</time></trkpt><trkpt lat="44.4819514" lon="11.2542801"><ele>85.2</ele><time>2026-03-22T11:54:00.639Z</time></trkpt><trkpt lat="44.481869" lon="11.2541949"><ele>85.8</ele><time>2026-03-22T11:54:01.639Z</time></trkpt><trkpt lat="44.4817726" lon="11.2541566"><ele>86.39999999999999</ele><time>2026-03-22T11:54:02.639Z</time></trkpt><trkpt lat="44.4816726" lon="11.2541741"><ele>87.0</ele><time>2026-03-22T11:54:03.639Z</time></trkpt><trkpt lat="44.4815734" lon="11.2542242"><ele>87.0</ele><time>2026-03-22T11:54:04.639Z</time></trkpt><trkpt lat="44.4814686" lon="11.2542558"><ele>87.0</ele><time>2026-03-22T11:54:05.639Z</time></trkpt><trkpt lat="44.4813668" lon="11.254229"><ele>87.0</ele><time>2026-03-22T11:54:06.639Z</time></trkpt><trkpt lat="44.4812704" lon="11.254164"><ele>87.0</ele><time>2026-03-22T11:54:07.639Z</time></trkpt><trkpt lat="44.4811668" lon="11.2540962"><ele>87.0</ele><time>2026-03-22T11:54:08.639Z</time></trkpt><trkpt lat="44.4810525" lon="11.2540531"><ele>88.0</ele><time>2026-03-22T11:54:09.639Z</time></trkpt><trkpt lat="44.4809292" lon="11.2540498"><ele>89.0</ele><time>2026-03-22T11:54:10.639Z</time></trkpt><trkpt lat="44.4808132" lon="11.2540854"><ele>90.0</ele><time>2026-03-22T11:54:11.639Z</time></trkpt><trkpt lat="44.4807131" lon="11.2541562"><ele>91.0</ele><time>2026-03-22T11:54:12.639Z</time></trkpt><trkpt lat="44.4806328" lon="11.2542481"><ele>91.0</ele><time>2026-03-22T11:54:13.639Z</time></trkpt><trkpt lat="44.4805721" lon="11.2543404"><ele>91.0</ele><time>2026-03-22T11:54:14.639Z</time></trkpt><trkpt lat="44.480527" lon="11.254419"><ele>91.0</ele><time>2026-03-22T11:54:15.639Z</time></trkpt><trkpt lat="44.4804822" lon="11.2545017"><ele>91.0</ele><time>2026-03-22T11:54:17.639Z</time></trkpt><trkpt lat="44.4804292" lon="11.2545936"><ele>91.0</ele><time>2026-03-22T11:54:21.639Z</time></trkpt><trkpt lat="44.4803613" lon="11.2547069"><ele>91.0</ele><time>2026-03-22T11:54:23.639Z</time></trkpt><trkpt lat="44.4803171" lon="11.2547811"><ele>92.0</ele><time>2026-03-22T11:54:24.639Z</time></trkpt><trkpt lat="44.4802658" lon="11.2548693"><ele>93.0</ele><time>2026-03-22T11:54:25.639Z</time></trkpt><trkpt lat="44.4802063" lon="11.2549717"><ele>94.0</ele><time>2026-03-22T11:54:26.639Z</time></trkpt><trkpt lat="44.4801403" lon="11.255086"><ele>95.0</ele><time>2026-03-22T11:54:27.639Z</time></trkpt><trkpt lat="44.4800739" lon="11.2552001"><ele>96.0</ele><time>2026-03-22T11:54:28.639Z</time></trkpt><trkpt lat="44.4800043" lon="11.2553184"><ele>96.0</ele><time>2026-03-22T11:54:29.639Z</time></trkpt><trkpt lat="44.4799332" lon="11.2554375"><ele>96.0</ele><time>2026-03-22T11:54:30.639Z</time></trkpt><trkpt lat="44.4798627" lon="11.2555543"><ele>96.0</ele><time>2026-03-22T11:54:31.639Z</time></trkpt><trkpt lat="44.4797944" lon="11.2556697"><ele>96.0</ele><time>2026-03-22T11:54:32.639Z</time></trkpt><trkpt lat="44.4797291" lon="11.2557798"><ele>96.0</ele><time>2026-03-22T11:54:33.639Z</time></trkpt><trkpt lat="44.4796671" lon="11.2558842"><ele>96.0</ele><time>2026-03-22T11:54:34.639Z</time></trkpt><trkpt lat="44.4796083" lon="11.2559827"><ele>96.0</ele><time>2026-03-22T11:54:35.639Z</time></trkpt><trkpt lat="44.4795557" lon="11.2560706"><ele>96.0</ele><time>2026-03-22T11:54:36.639Z</time></trkpt><trkpt lat="44.4795066" lon="11.2561504"><ele>96.0</ele><time>2026-03-22T11:54:37.639Z</time></trkpt><trkpt lat="44.4794308" lon="11.2562673"><ele>96.0</ele><time>2026-03-22T11:54:39.639Z</time></trkpt><trkpt lat="44.4793932" lon="11.2563477"><ele>96.0</ele><time>2026-03-22T11:54:42.639Z</time></trkpt><trkpt lat="44.4793436" lon="11.2564341"><ele>96.16666666666667</ele><time>2026-03-22T11:54:45.639Z</time></trkpt><trkpt lat="44.479274" lon="11.2565686"><ele>96.33333333333334</ele><time>2026-03-22T11:54:47.639Z</time></trkpt><trkpt lat="44.4792321" lon="11.2566512"><ele>96.5</ele><time>2026-03-22T11:54:48.639Z</time></trkpt><trkpt lat="44.4791882" lon="11.2567391"><ele>96.66666666666667</ele><time>2026-03-22T11:54:49.639Z</time></trkpt><trkpt lat="44.4791467" lon="11.2568207"><ele>96.83333333333334</ele><time>2026-03-22T11:54:50.639Z</time></trkpt><trkpt lat="44.4790917" lon="11.2569305"><ele>97.0</ele><time>2026-03-22T11:54:52.639Z</time></trkpt><trkpt lat="44.4790476" lon="11.2570265"><ele>97.0</ele><time>2026-03-22T11:54:56.639Z</time></trkpt><trkpt lat="44.4790119" lon="11.2571019"><ele>97.0</ele><time>2026-03-22T11:54:57.639Z</time></trkpt><trkpt lat="44.4789419" lon="11.2572282"><ele>97.0</ele><time>2026-03-22T11:54:58.639Z</time></trkpt><trkpt lat="44.4788645" lon="11.2573648"><ele>97.0</ele><time>2026-03-22T11:54:59.639Z</time></trkpt><trkpt lat="44.4787828" lon="11.2575076"><ele>97.0</ele><time>2026-03-22T11:55:00.639Z</time></trkpt><trkpt lat="44.4787039" lon="11.2576428"><ele>96.8</ele><time>2026-03-22T11:55:01.639Z</time></trkpt><trkpt lat="44.4786336" lon="11.257763"><ele>96.6</ele><time>2026-03-22T11:55:02.639Z</time></trkpt><trkpt lat="44.4785731" lon="11.2578612"><ele>96.39999999999999</ele><time>2026-03-22T11:55:03.639Z</time></trkpt><trkpt lat="44.4785273" lon="11.2579387"><ele>96.19999999999999</ele><time>2026-03-22T11:55:04.639Z</time></trkpt><trkpt lat="44.4784703" lon="11.2580328"><ele>96.0</ele><time>2026-03-22T11:55:06.639Z</time></trkpt><trkpt lat="44.4784067" lon="11.2581512"><ele>95.4</ele><time>2026-03-22T11:55:09.639Z</time></trkpt><trkpt lat="44.4783652" lon="11.2582247"><ele>94.8</ele><time>2026-03-22T11:55:10.639Z</time></trkpt><trkpt lat="44.4783154" lon="11.2583111"><ele>94.2</ele><time>2026-03-22T11:55:11.639Z</time></trkpt><trkpt lat="44.4782612" lon="11.2584031"><ele>93.60000000000001</ele><time>2026-03-22T11:55:12.639Z</time></trkpt><trkpt lat="44.4781976" lon="11.2585145"><ele>93.0</ele><time>2026-03-22T11:55:13.639Z</time></trkpt><trkpt lat="44.4781281" lon="11.2586468"><ele>93.0</ele><time>2026-03-22T11:55:14.639Z</time></trkpt><trkpt lat="44.4780582" lon="11.2588014"><ele>93.0</ele><time>2026-03-22T11:55:15.639Z</time></trkpt><trkpt lat="44.477993" lon="11.2589671"><ele>93.0</ele><time>2026-03-22T11:55:16.639Z</time></trkpt><trkpt lat="44.4779386" lon="11.2591338"><ele>93.0</ele><time>2026-03-22T11:55:17.639Z</time></trkpt><trkpt lat="44.4778933" lon="11.259295"><ele>94.60000000000001</ele><time>2026-03-22T11:55:18.639Z</time></trkpt><trkpt lat="44.4778556" lon="11.2594479"><ele>96.2</ele><time>2026-03-22T11:55:19.639Z</time></trkpt><trkpt lat="44.4778258" lon="11.259592"><ele>97.8</ele><time>2026-03-22T11:55:20.639Z</time></trkpt><trkpt lat="44.4778005" lon="11.2597266"><ele>99.4</ele><time>2026-03-22T11:55:21.639Z</time></trkpt><trkpt lat="44.4777761" lon="11.2598502"><ele>101.0</ele><time>2026-03-22T11:55:22.639Z</time></trkpt><trkpt lat="44.4777513" lon="11.2599639"><ele>100.99999999999999</ele><time>2026-03-22T11:55:23.639Z</time></trkpt><trkpt lat="44.4777275" lon="11.260053"><ele>101.0</ele><time>2026-03-22T11:55:24.639Z</time></trkpt><trkpt lat="44.4776974" lon="11.2601415"><ele>101.0</ele><time>2026-03-22T11:55:27.639Z</time></trkpt><trkpt lat="44.4776984" lon="11.2602387"><ele>101.0</ele><time>2026-03-22T11:55:37.639Z</time></trkpt><trkpt lat="44.4777584" lon="11.2603385"><ele>100.99999999999999</ele><time>2026-03-22T11:55:39.639Z</time></trkpt><trkpt lat="44.4778366" lon="11.2604336"><ele>101.0</ele><time>2026-03-22T11:55:41.639Z</time></trkpt><trkpt lat="44.4779148" lon="11.2605217"><ele>100.16666666666666</ele><time>2026-03-22T11:55:43.639Z</time></trkpt><trkpt lat="44.4779739" lon="11.2605894"><ele>99.33333333333333</ele><time>2026-03-22T11:55:45.639Z</time></trkpt><trkpt lat="44.47803" lon="11.2606441"><ele>98.5</ele><time>2026-03-22T11:55:48.639Z</time></trkpt><trkpt lat="44.4781141" lon="11.2607364"><ele>97.66666666666666</ele><time>2026-03-22T11:55:51.639Z</time></trkpt><trkpt lat="44.4781673" lon="11.2607968"><ele>96.83333333333333</ele><time>2026-03-22T11:55:52.639Z</time></trkpt><trkpt lat="44.4782267" lon="11.2608626"><ele>96.0</ele><time>2026-03-22T11:55:53.639Z</time></trkpt><trkpt lat="44.4782893" lon="11.2609312"><ele>95.99999999999999</ele><time>2026-03-22T11:55:54.639Z</time></trkpt><trkpt lat="44.4783529" lon="11.2609993"><ele>96.0</ele><time>2026-03-22T11:55:55.639Z</time></trkpt><trkpt lat="44.4784148" lon="11.2610657"><ele>96.0</ele><time>2026-03-22T11:55:56.639Z</time></trkpt><trkpt lat="44.4784757" lon="11.2611299"><ele>96.0</ele><time>2026-03-22T11:55:57.639Z</time></trkpt><trkpt lat="44.478534" lon="11.261193"><ele>96.0</ele><time>2026-03-22T11:55:58.639Z</time></trkpt><trkpt lat="44.4785904" lon="11.2612545"><ele>95.99999999999999</ele><time>2026-03-22T11:55:59.639Z</time></trkpt><trkpt lat="44.4786456" lon="11.2613138"><ele>96.0</ele><time>2026-03-22T11:56:00.639Z</time></trkpt><trkpt lat="44.4787365" lon="11.2614107"><ele>95.33333333333333</ele><time>2026-03-22T11:56:02.639Z</time></trkpt><trkpt lat="44.4787949" lon="11.2614749"><ele>94.66666666666667</ele><time>2026-03-22T11:56:05.639Z</time></trkpt><trkpt lat="44.4788541" lon="11.2615072"><ele>94.0</ele><time>2026-03-22T11:56:11.639Z</time></trkpt><trkpt lat="44.478926" lon="11.261418"><ele>93.33333333333334</ele><time>2026-03-22T11:56:14.639Z</time></trkpt><trkpt lat="44.4789609" lon="11.2613363"><ele>92.66666666666667</ele><time>2026-03-22T11:56:16.639Z</time></trkpt><trkpt lat="44.4790154" lon="11.2612381"><ele>92.0</ele><time>2026-03-22T11:56:18.639Z</time></trkpt><trkpt lat="44.479062" lon="11.2611422"><ele>91.85714285714286</ele><time>2026-03-22T11:56:20.639Z</time></trkpt><trkpt lat="44.4790807" lon="11.2610422"><ele>91.71428571428571</ele><time>2026-03-22T11:56:24.639Z</time></trkpt><trkpt lat="44.4790184" lon="11.2610079"><ele>91.57142857142857</ele><time>2026-03-22T11:56:46.639Z</time></trkpt><trkpt lat="44.4790243" lon="11.260911"><ele>91.42857142857143</ele><time>2026-03-22T11:57:10.639Z</time></trkpt><trkpt lat="44.4789809" lon="11.2608394"><ele>91.28571428571428</ele><time>2026-03-22T11:59:13.639Z</time></trkpt><trkpt lat="44.4789174" lon="11.260888"><ele>91.14285714285714</ele><time>2026-03-22T11:59:19.639Z</time></trkpt><trkpt lat="44.4789013" lon="11.2609746"><ele>91.0</ele><time>2026-03-22T11:59:28.639Z</time></trkpt><trkpt lat="44.4788525" lon="11.2610379"><ele>91.0</ele><time>2026-03-22T11:59:35.639Z</time></trkpt><trkpt lat="44.478818" lon="11.2611211"><ele>91.0</ele><time>2026-03-22T11:59:42.639Z</time></trkpt><trkpt lat="44.4788093" lon="11.2610325"><ele>91.0</ele><time>2026-03-22T12:00:15.639Z</time></trkpt><trkpt lat="44.478772" lon="11.2609541"><ele>91.0</ele><time>2026-03-22T12:00:20.675Z</time></trkpt><trkpt lat="44.4787166" lon="11.2610355"><ele>91.0</ele><time>2026-03-22T12:05:51.639Z</time></trkpt><trkpt lat="44.4786953" lon="11.2611257"><ele>91.0</ele><time>2026-03-22T12:05:58.655Z</time></trkpt><trkpt lat="44.4787332" lon="11.2612052"><ele>91.0</ele><time>2026-03-22T12:06:05.097Z</time></trkpt><trkpt lat="44.4786771" lon="11.2612535"><ele>91.0</ele><time>2026-03-22T12:06:23.581Z</time></trkpt><trkpt lat="44.4787396" lon="11.2612217"><ele>91.0</ele><time>2026-03-22T12:08:30.639Z</time></trkpt><trkpt lat="44.4787739" lon="11.2613073"><ele>91.0</ele><time>2026-03-22T12:11:00.639Z</time></trkpt><trkpt lat="44.4788469" lon="11.2613103"><ele>91.0</ele><time>2026-03-22T12:11:05.639Z</time></trkpt><trkpt lat="44.4788923" lon="11.2612427"><ele>91.0</ele><time>2026-03-22T12:11:10.639Z</time></trkpt><trkpt lat="44.4788978" lon="11.2611527"><ele>91.0</ele><time>2026-03-22T12:11:20.639Z</time></trkpt><trkpt lat="44.4788392" lon="11.2611158"><ele>91.0</ele><time>2026-03-22T12:12:00.639Z</time></trkpt><trkpt lat="44.4787744" lon="11.2611222"><ele>91.0</ele><time>2026-03-22T12:12:15.639Z</time></trkpt><trkpt lat="44.478711" lon="11.2611687"><ele>91.0</ele><time>2026-03-22T12:12:22.639Z</time></trkpt><trkpt lat="44.4786969" lon="11.2612674"><ele>91.0</ele><time>2026-03-22T12:12:28.639Z</time></trkpt><trkpt lat="44.4787161" lon="11.2613524"><ele>91.0</ele><time>2026-03-22T12:12:43.633Z</time></trkpt><trkpt lat="44.4787727" lon="11.2614197"><ele>91.0</ele><time>2026-03-22T12:12:48.639Z</time></trkpt><trkpt lat="44.4787804" lon="11.2615137"><ele>91.0</ele><time>2026-03-22T12:12:54.639Z</time></trkpt><trkpt lat="44.4788272" lon="11.2615814"><ele>91.0</ele><time>2026-03-22T12:13:01.639Z</time></trkpt><trkpt lat="44.4788915" lon="11.2616061"><ele>91.14285714285714</ele><time>2026-03-22T12:13:09.639Z</time></trkpt><trkpt lat="44.4789531" lon="11.2616786"><ele>91.28571428571428</ele><time>2026-03-22T12:13:16.639Z</time></trkpt><trkpt lat="44.4790275" lon="11.2616937"><ele>91.42857142857143</ele><time>2026-03-22T12:13:21.602Z</time></trkpt><trkpt lat="44.4790546" lon="11.2615985"><ele>91.57142857142857</ele><time>2026-03-22T12:13:25.624Z</time></trkpt><trkpt lat="44.4790169" lon="11.2615036"><ele>91.71428571428571</ele><time>2026-03-22T12:16:56.639Z</time></trkpt><trkpt lat="44.4789664" lon="11.2615839"><ele>91.85714285714286</ele><time>2026-03-22T12:42:39.639Z</time></trkpt><trkpt lat="44.4789899" lon="11.2616669"><ele>92.0</ele><time>2026-03-22T12:42:48.639Z</time></trkpt><trkpt lat="44.4789171" lon="11.2616713"><ele>92.0</ele><time>2026-03-22T12:42:55.616Z</time></trkpt><trkpt lat="44.4788804" lon="11.2615858"><ele>92.0</ele><time>2026-03-22T12:42:59.619Z</time></trkpt><trkpt lat="44.4789082" lon="11.2615026"><ele>92.0</ele><time>2026-03-22T12:43:04.639Z</time></trkpt><trkpt lat="44.4789281" lon="11.2614164"><ele>92.0</ele><time>2026-03-22T12:43:10.639Z</time></trkpt><trkpt lat="44.4789798" lon="11.2613413"><ele>92.0</ele><time>2026-03-22T12:43:28.73Z</time></trkpt><trkpt lat="44.4790055" lon="11.2612539"><ele>92.0</ele><time>2026-03-22T12:43:33.614Z</time></trkpt><trkpt lat="44.479038" lon="11.2611466"><ele>92.0</ele><time>2026-03-22T12:43:39.521Z</time></trkpt><trkpt lat="44.4790758" lon="11.261075"><ele>91.85714285714286</ele><time>2026-03-22T12:43:44.442Z</time></trkpt><trkpt lat="44.4790629" lon="11.2609861"><ele>91.71428571428571</ele><time>2026-03-22T12:43:51.639Z</time></trkpt><trkpt lat="44.4790424" lon="11.2608991"><ele>91.57142857142857</ele><time>2026-03-22T12:43:58.643Z</time></trkpt><trkpt lat="44.4790608" lon="11.2609845"><ele>91.42857142857143</ele><time>2026-03-22T12:45:29.639Z</time></trkpt><trkpt lat="44.4791173" lon="11.2609203"><ele>91.28571428571428</ele><time>2026-03-22T12:45:42.639Z</time></trkpt><trkpt lat="44.4791283" lon="11.2608288"><ele>91.14285714285714</ele><time>2026-03-22T12:45:47.639Z</time></trkpt><trkpt lat="44.4790951" lon="11.2609142"><ele>91.0</ele><time>2026-03-22T13:27:18.631Z</time></trkpt><trkpt lat="44.4791298" lon="11.2608338"><ele>91.0</ele><time>2026-03-22T13:27:29.631Z</time></trkpt><trkpt lat="44.4790845" lon="11.2609062"><ele>91.0</ele><time>2026-03-22T13:27:41.631Z</time></trkpt><trkpt lat="44.4790596" lon="11.2609914"><ele>91.0</ele><time>2026-03-22T13:27:47.631Z</time></trkpt><trkpt lat="44.4790523" lon="11.2610801"><ele>91.0</ele><time>2026-03-22T13:27:51.631Z</time></trkpt><trkpt lat="44.479027" lon="11.2611777"><ele>91.0</ele><time>2026-03-22T13:27:56.631Z</time></trkpt><trkpt lat="44.4789779" lon="11.2612751"><ele>91.0</ele><time>2026-03-22T13:28:09.573Z</time></trkpt><trkpt lat="44.4790228" lon="11.2612021"><ele>91.0</ele><time>2026-03-22T13:28:22.631Z</time></trkpt><trkpt lat="44.4790611" lon="11.2611261"><ele>91.0</ele><time>2026-03-22T13:28:31.64Z</time></trkpt><trkpt lat="44.4790158" lon="11.2609989"><ele>91.0</ele><time>2026-03-22T13:29:32.649Z</time></trkpt><trkpt lat="44.4790173" lon="11.2610958"><ele>91.0</ele><time>2026-03-22T13:29:41.626Z</time></trkpt><trkpt lat="44.4790093" lon="11.2611837"><ele>91.0</ele><time>2026-03-22T13:29:45.095Z</time></trkpt><trkpt lat="44.4789924" lon="11.2612786"><ele>91.0</ele><time>2026-03-22T13:29:49.631Z</time></trkpt><trkpt lat="44.4789671" lon="11.2613616"><ele>91.0</ele><time>2026-03-22T13:29:54.631Z</time></trkpt><trkpt lat="44.4789344" lon="11.2614416"><ele>91.0</ele><time>2026-03-22T13:30:00.737Z</time></trkpt><trkpt lat="44.4788821" lon="11.2615048"><ele>91.14285714285714</ele><time>2026-03-22T13:30:06.632Z</time></trkpt><trkpt lat="44.4788172" lon="11.2615158"><ele>91.28571428571428</ele><time>2026-03-22T13:30:10.642Z</time></trkpt><trkpt lat="44.4787585" lon="11.2614659"><ele>91.42857142857143</ele><time>2026-03-22T13:30:15.631Z</time></trkpt><trkpt lat="44.4787023" lon="11.2614039"><ele>91.57142857142857</ele><time>2026-03-22T13:30:20.673Z</time></trkpt><trkpt lat="44.4786371" lon="11.2613614"><ele>91.71428571428571</ele><time>2026-03-22T13:30:26.641Z</time></trkpt><trkpt lat="44.4785801" lon="11.2613184"><ele>91.85714285714286</ele><time>2026-03-22T13:30:31.653Z</time></trkpt><trkpt lat="44.478547" lon="11.2612295"><ele>92.0</ele><time>2026-03-22T13:30:35.631Z</time></trkpt><trkpt lat="44.47849" lon="11.2611759"><ele>92.57142857142857</ele><time>2026-03-22T13:30:42.219Z</time></trkpt><trkpt lat="44.4784629" lon="11.2610934"><ele>93.14285714285714</ele><time>2026-03-22T13:30:46.631Z</time></trkpt><trkpt lat="44.4784086" lon="11.2610263"><ele>93.71428571428571</ele><time>2026-03-22T13:30:52.644Z</time></trkpt><trkpt lat="44.4783645" lon="11.2609462"><ele>94.28571428571428</ele><time>2026-03-22T13:30:59.661Z</time></trkpt><trkpt lat="44.4783019" lon="11.2609071"><ele>94.85714285714286</ele><time>2026-03-22T13:31:06.631Z</time></trkpt><trkpt lat="44.4782377" lon="11.2608872"><ele>95.42857142857142</ele><time>2026-03-22T13:31:12.633Z</time></trkpt><trkpt lat="44.4781949" lon="11.2608132"><ele>96.0</ele><time>2026-03-22T13:31:18.631Z</time></trkpt><trkpt lat="44.4782167" lon="11.2607292"><ele>95.99999999999999</ele><time>2026-03-22T13:31:23.659Z</time></trkpt><trkpt lat="44.4782879" lon="11.2607241"><ele>96.0</ele><time>2026-03-22T13:31:30.631Z</time></trkpt><trkpt lat="44.4783176" lon="11.2608054"><ele>96.0</ele><time>2026-03-22T13:31:35.649Z</time></trkpt><trkpt lat="44.4782996" lon="11.2607144"><ele>96.0</ele><time>2026-03-22T14:17:50.631Z</time></trkpt><trkpt lat="44.4782355" lon="11.2607149"><ele>96.0</ele><time>2026-03-22T14:17:59.631Z</time></trkpt><trkpt lat="44.478187" lon="11.2607878"><ele>95.99999999999999</ele><time>2026-03-22T14:18:08.631Z</time></trkpt><trkpt lat="44.4781591" lon="11.2608688"><ele>96.0</ele><time>2026-03-22T14:18:25.631Z</time></trkpt><trkpt lat="44.4782126" lon="11.2609312"><ele>95.99999999999999</ele><time>2026-03-22T14:18:32.631Z</time></trkpt><trkpt lat="44.4782659" lon="11.2609975"><ele>96.0</ele><time>2026-03-22T14:18:42.631Z</time></trkpt><trkpt lat="44.4783169" lon="11.2610496"><ele>96.0</ele><time>2026-03-22T14:18:49.631Z</time></trkpt><trkpt lat="44.4783768" lon="11.2610064"><ele>96.0</ele><time>2026-03-22T14:18:55.631Z</time></trkpt><trkpt lat="44.4784397" lon="11.2609771"><ele>96.0</ele><time>2026-03-22T14:18:59.631Z</time></trkpt><trkpt lat="44.4784845" lon="11.2610593"><ele>95.99999999999999</ele><time>2026-03-22T14:19:34.673Z</time></trkpt><trkpt lat="44.4784911" lon="11.2611504"><ele>96.0</ele><time>2026-03-22T14:19:38.631Z</time></trkpt><trkpt lat="44.4784909" lon="11.2612406"><ele>95.99999999999999</ele><time>2026-03-22T14:19:42.738Z</time></trkpt><trkpt lat="44.4785555" lon="11.2612815"><ele>96.0</ele><time>2026-03-22T14:19:45.649Z</time></trkpt><trkpt lat="44.4786145" lon="11.2613873"><ele>96.0</ele><time>2026-03-22T14:19:48.669Z</time></trkpt><trkpt lat="44.4786661" lon="11.2614517"><ele>96.0</ele><time>2026-03-22T14:19:50.657Z</time></trkpt><trkpt lat="44.4787306" lon="11.2614725"><ele>96.0</ele><time>2026-03-22T14:19:56.631Z</time></trkpt><trkpt lat="44.4787894" lon="11.2615206"><ele>95.99999999999999</ele><time>2026-03-22T14:20:02.631Z</time></trkpt><trkpt lat="44.4788558" lon="11.2615334"><ele>96.0</ele><time>2026-03-22T14:20:08.631Z</time></trkpt><trkpt lat="44.478918" lon="11.2615047"><ele>95.28571428571428</ele><time>2026-03-22T14:20:23.797Z</time></trkpt><trkpt lat="44.4789643" lon="11.2614398"><ele>94.57142857142857</ele><time>2026-03-22T14:20:29.739Z</time></trkpt><trkpt lat="44.4790005" lon="11.2613663"><ele>93.85714285714286</ele><time>2026-03-22T14:20:33.974Z</time></trkpt><trkpt lat="44.4790442" lon="11.2612882"><ele>93.14285714285714</ele><time>2026-03-22T14:20:38.354Z</time></trkpt><trkpt lat="44.4790775" lon="11.2612084"><ele>92.42857142857143</ele><time>2026-03-22T14:20:42.631Z</time></trkpt><trkpt lat="44.4790883" lon="11.2611207"><ele>91.71428571428571</ele><time>2026-03-22T14:20:47.618Z</time></trkpt><trkpt lat="44.4791243" lon="11.2610471"><ele>91.0</ele><time>2026-03-22T14:20:52.631Z</time></trkpt><trkpt lat="44.47915" lon="11.2609588"><ele>91.0</ele><time>2026-03-22T14:20:59.631Z</time></trkpt><trkpt lat="44.4791753" lon="11.2608778"><ele>91.0</ele><time>2026-03-22T14:21:05.735Z</time></trkpt><trkpt lat="44.4791624" lon="11.260786"><ele>91.0</ele><time>2026-03-22T14:21:14.527Z</time></trkpt><trkpt lat="44.4791399" lon="11.2608828"><ele>91.0</ele><time>2026-03-22T14:22:39.639Z</time></trkpt><trkpt lat="44.4791374" lon="11.2609847"><ele>91.0</ele><time>2026-03-22T14:22:45.653Z</time></trkpt><trkpt lat="44.4791329" lon="11.2610754"><ele>91.0</ele><time>2026-03-22T14:22:50.631Z</time></trkpt><trkpt lat="44.4790977" lon="11.2611592"><ele>91.0</ele><time>2026-03-22T14:22:55.69Z</time></trkpt><trkpt lat="44.4790576" lon="11.2612423"><ele>91.0</ele><time>2026-03-22T14:23:01.631Z</time></trkpt><trkpt lat="44.4789971" lon="11.2612778"><ele>91.0</ele><time>2026-03-22T14:23:06.631Z</time></trkpt><trkpt lat="44.478944" lon="11.2613588"><ele>91.0</ele><time>2026-03-22T14:23:11.631Z</time></trkpt><trkpt lat="44.4788956" lon="11.261431"><ele>91.0</ele><time>2026-03-22T14:23:16.637Z</time></trkpt><trkpt lat="44.4788525" lon="11.2615016"><ele>91.0</ele><time>2026-03-22T14:23:39.631Z</time></trkpt><trkpt lat="44.4788767" lon="11.2615923"><ele>91.0</ele><time>2026-03-22T14:24:35.655Z</time></trkpt><trkpt lat="44.478923" lon="11.2616592"><ele>91.0</ele><time>2026-03-22T14:24:40.646Z</time></trkpt><trkpt lat="44.4789916" lon="11.2616087"><ele>91.0</ele><time>2026-03-22T14:24:45.631Z</time></trkpt><trkpt lat="44.4790565" lon="11.2615838"><ele>91.0</ele><time>2026-03-22T14:24:51.632Z</time></trkpt><trkpt lat="44.479101" lon="11.2615071"><ele>91.0</ele><time>2026-03-22T14:24:57.631Z</time></trkpt><trkpt lat="44.4791094" lon="11.2616041"><ele>91.0</ele><time>2026-03-22T14:28:26.631Z</time></trkpt><trkpt lat="44.4790992" lon="11.2615157"><ele>91.0</ele><time>2026-03-22T14:30:35.631Z</time></trkpt><trkpt lat="44.4790971" lon="11.261357"><ele>91.0</ele><time>2026-03-22T14:30:43.631Z</time></trkpt><trkpt lat="44.4791176" lon="11.2614494"><ele>91.14285714285714</ele><time>2026-03-22T14:30:50.631Z</time></trkpt><trkpt lat="44.4790697" lon="11.2615502"><ele>91.28571428571428</ele><time>2026-03-22T14:31:24.631Z</time></trkpt><trkpt lat="44.4790149" lon="11.2616047"><ele>91.42857142857143</ele><time>2026-03-22T14:32:04.631Z</time></trkpt><trkpt lat="44.4789542" lon="11.2615635"><ele>91.57142857142857</ele><time>2026-03-22T14:32:15.631Z</time></trkpt><trkpt lat="44.4789094" lon="11.2614974"><ele>91.71428571428571</ele><time>2026-03-22T14:32:27.631Z</time></trkpt><trkpt lat="44.4788404" lon="11.2615093"><ele>91.85714285714286</ele><time>2026-03-22T14:32:37.631Z</time></trkpt><trkpt lat="44.4787853" lon="11.2614614"><ele>92.0</ele><time>2026-03-22T14:32:46.631Z</time></trkpt><trkpt lat="44.4787175" lon="11.261447"><ele>92.66666666666667</ele><time>2026-03-22T14:32:55.631Z</time></trkpt><trkpt lat="44.4786677" lon="11.2613815"><ele>93.33333333333334</ele><time>2026-03-22T14:33:02.568Z</time></trkpt><trkpt lat="44.4786166" lon="11.2613221"><ele>94.0</ele><time>2026-03-22T14:33:09.604Z</time></trkpt><trkpt lat="44.4785703" lon="11.261244"><ele>94.66666666666667</ele><time>2026-03-22T14:33:18.631Z</time></trkpt><trkpt lat="44.4785203" lon="11.2611871"><ele>95.33333333333333</ele><time>2026-03-22T14:33:25.631Z</time></trkpt><trkpt lat="44.4784654" lon="11.2611247"><ele>96.0</ele><time>2026-03-22T14:33:34.631Z</time></trkpt><trkpt lat="44.4784556" lon="11.2609744"><ele>95.99999999999999</ele><time>2026-03-22T14:37:44.631Z</time></trkpt><trkpt lat="44.4783887" lon="11.2609595"><ele>96.0</ele><time>2026-03-22T14:38:11.631Z</time></trkpt><trkpt lat="44.4783242" lon="11.2609604"><ele>96.0</ele><time>2026-03-22T14:38:16.631Z</time></trkpt><trkpt lat="44.478261" lon="11.2609028"><ele>96.0</ele><time>2026-03-22T14:38:21.631Z</time></trkpt><trkpt lat="44.4781915" lon="11.2608535"><ele>96.0</ele><time>2026-03-22T14:38:26.99Z</time></trkpt><trkpt lat="44.4781847" lon="11.2607463"><ele>95.99999999999999</ele><time>2026-03-22T14:38:31.698Z</time></trkpt><trkpt lat="44.4782484" lon="11.2607076"><ele>96.0</ele><time>2026-03-22T14:38:41.631Z</time></trkpt><trkpt lat="44.4782998" lon="11.2607754"><ele>95.99999999999999</ele><time>2026-03-22T14:38:45.64Z</time></trkpt><trkpt lat="44.4782325" lon="11.2607422"><ele>96.0</ele><time>2026-03-22T15:15:05.631Z</time></trkpt><trkpt lat="44.4782601" lon="11.2608325"><ele>96.0</ele><time>2026-03-22T15:15:13.631Z</time></trkpt><trkpt lat="44.4783225" lon="11.2608778"><ele>96.0</ele><time>2026-03-22T15:15:19.631Z</time></trkpt><trkpt lat="44.4783858" lon="11.2609414"><ele>96.0</ele><time>2026-03-22T15:15:24.631Z</time></trkpt><trkpt lat="44.4784537" lon="11.2609987"><ele>95.99999999999999</ele><time>2026-03-22T15:15:30.631Z</time></trkpt><trkpt lat="44.4784552" lon="11.2610884"><ele>96.0</ele><time>2026-03-22T15:21:17.631Z</time></trkpt><trkpt lat="44.4784505" lon="11.2611869"><ele>95.99999999999999</ele><time>2026-03-22T15:21:26.631Z</time></trkpt><trkpt lat="44.4784995" lon="11.2612423"><ele>96.0</ele><time>2026-03-22T15:21:36.631Z</time></trkpt><trkpt lat="44.4785538" lon="11.261308"><ele>96.0</ele><time>2026-03-22T15:21:45.055Z</time></trkpt><trkpt lat="44.4786063" lon="11.2613582"><ele>96.0</ele><time>2026-03-22T15:21:50.649Z</time></trkpt><trkpt lat="44.4786505" lon="11.2614256"><ele>96.0</ele><time>2026-03-22T15:21:58.533Z</time></trkpt><trkpt lat="44.478708" lon="11.2614776"><ele>95.99999999999999</ele><time>2026-03-22T15:22:06.631Z</time></trkpt><trkpt lat="44.4787728" lon="11.2614731"><ele>96.0</ele><time>2026-03-22T15:22:13.646Z</time></trkpt><trkpt lat="44.47884" lon="11.261503"><ele>95.42857142857142</ele><time>2026-03-22T15:22:21.877Z</time></trkpt><trkpt lat="44.4789023" lon="11.261483"><ele>94.85714285714286</ele><time>2026-03-22T15:22:28.631Z</time></trkpt><trkpt lat="44.4789458" lon="11.2614082"><ele>94.28571428571428</ele><time>2026-03-22T15:22:34.671Z</time></trkpt><trkpt lat="44.4789725" lon="11.2613206"><ele>93.71428571428571</ele><time>2026-03-22T15:22:40.769Z</time></trkpt><trkpt lat="44.4790071" lon="11.261232"><ele>93.14285714285714</ele><time>2026-03-22T15:22:47.651Z</time></trkpt><trkpt lat="44.4790435" lon="11.2611434"><ele>92.57142857142857</ele><time>2026-03-22T15:22:55.695Z</time></trkpt><trkpt lat="44.4790839" lon="11.2610673"><ele>92.0</ele><time>2026-03-22T15:23:02.631Z</time></trkpt><trkpt lat="44.479045" lon="11.2609902"><ele>91.85714285714286</ele><time>2026-03-22T15:23:09.631Z</time></trkpt><trkpt lat="44.4789841" lon="11.260946"><ele>91.71428571428571</ele><time>2026-03-22T15:23:16.631Z</time></trkpt><trkpt lat="44.4789171" lon="11.2609692"><ele>91.57142857142857</ele><time>2026-03-22T15:23:26.745Z</time></trkpt><trkpt lat="44.4788531" lon="11.2609598"><ele>91.42857142857143</ele><time>2026-03-22T15:23:34.741Z</time></trkpt><trkpt lat="44.4789138" lon="11.2609039"><ele>91.28571428571428</ele><time>2026-03-22T15:41:36.631Z</time></trkpt><trkpt lat="44.4789798" lon="11.2608587"><ele>91.14285714285714</ele><time>2026-03-22T15:41:42.631Z</time></trkpt><trkpt lat="44.4790315" lon="11.2608032"><ele>91.0</ele><time>2026-03-22T15:41:47.631Z</time></trkpt><trkpt lat="44.4790993" lon="11.2608041"><ele>91.0</ele><time>2026-03-22T15:41:52.631Z</time></trkpt><trkpt lat="44.4791534" lon="11.2607589"><ele>91.0</ele><time>2026-03-22T15:41:58.631Z</time></trkpt><trkpt lat="44.4791342" lon="11.2608659"><ele>91.0</ele><time>2026-03-22T15:43:29.631Z</time></trkpt><trkpt lat="44.4791245" lon="11.2609931"><ele>91.0</ele><time>2026-03-22T15:43:32.631Z</time></trkpt><trkpt lat="44.4790765" lon="11.2610541"><ele>91.0</ele><time>2026-03-22T15:43:34.631Z</time></trkpt><trkpt lat="44.47904" lon="11.261136"><ele>91.0</ele><time>2026-03-22T15:43:36.631Z</time></trkpt><trkpt lat="44.479005" lon="11.2612239"><ele>91.0</ele><time>2026-03-22T15:43:38.631Z</time></trkpt><trkpt lat="44.4789609" lon="11.2613173"><ele>91.0</ele><time>2026-03-22T15:43:40.631Z</time></trkpt><trkpt lat="44.478915" lon="11.2614036"><ele>91.0</ele><time>2026-03-22T15:43:42.631Z</time></trkpt><trkpt lat="44.4788765" lon="11.261477"><ele>91.0</ele><time>2026-03-22T15:43:44.631Z</time></trkpt><trkpt lat="44.4788224" lon="11.2615875"><ele>91.0</ele><time>2026-03-22T15:43:47.631Z</time></trkpt><trkpt lat="44.4787702" lon="11.2617078"><ele>91.0</ele><time>2026-03-22T15:43:49.631Z</time></trkpt><trkpt lat="44.4787211" lon="11.2618415"><ele>91.0</ele><time>2026-03-22T15:43:51.631Z</time></trkpt><trkpt lat="44.478673" lon="11.2619819"><ele>91.8</ele><time>2026-03-22T15:43:53.631Z</time></trkpt><trkpt lat="44.4786236" lon="11.2621214"><ele>92.6</ele><time>2026-03-22T15:43:55.631Z</time></trkpt><trkpt lat="44.4785713" lon="11.2622352"><ele>93.4</ele><time>2026-03-22T15:43:57.631Z</time></trkpt><trkpt lat="44.4784846" lon="11.2622455"><ele>94.2</ele><time>2026-03-22T15:43:59.631Z</time></trkpt><trkpt lat="44.4783721" lon="11.2621893"><ele>95.0</ele><time>2026-03-22T15:44:01.631Z</time></trkpt><trkpt lat="44.478252" lon="11.2621146"><ele>95.0</ele><time>2026-03-22T15:44:03.631Z</time></trkpt><trkpt lat="44.4781467" lon="11.2620365"><ele>95.0</ele><time>2026-03-22T15:44:05.631Z</time></trkpt><trkpt lat="44.4780543" lon="11.2619734"><ele>95.0</ele><time>2026-03-22T15:44:07.631Z</time></trkpt><trkpt lat="44.477987" lon="11.2619294"><ele>95.0</ele><time>2026-03-22T15:44:10.631Z</time></trkpt><trkpt lat="44.4778885" lon="11.2618587"><ele>95.0</ele><time>2026-03-22T15:44:13.631Z</time></trkpt><trkpt lat="44.4777843" lon="11.2617859"><ele>95.33333333333334</ele><time>2026-03-22T15:44:15.631Z</time></trkpt><trkpt lat="44.4777237" lon="11.2617547"><ele>95.66666666666667</ele><time>2026-03-22T15:44:16.631Z</time></trkpt><trkpt lat="44.4776683" lon="11.2617121"><ele>96.0</ele><time>2026-03-22T15:44:17.631Z</time></trkpt><trkpt lat="44.4775702" lon="11.2616459"><ele>96.33333333333334</ele><time>2026-03-22T15:44:19.631Z</time></trkpt><trkpt lat="44.4774874" lon="11.2615913"><ele>96.66666666666667</ele><time>2026-03-22T15:44:21.631Z</time></trkpt><trkpt lat="44.4774124" lon="11.2615339"><ele>97.0</ele><time>2026-03-22T15:44:23.631Z</time></trkpt><trkpt lat="44.4773406" lon="11.2614818"><ele>97.42857142857143</ele><time>2026-03-22T15:44:25.631Z</time></trkpt><trkpt lat="44.4772791" lon="11.2614465"><ele>97.85714285714286</ele><time>2026-03-22T15:44:30.631Z</time></trkpt><trkpt lat="44.4772401" lon="11.2613735"><ele>98.28571428571429</ele><time>2026-03-22T15:44:36.631Z</time></trkpt><trkpt lat="44.4772553" lon="11.2612235"><ele>98.71428571428572</ele><time>2026-03-22T15:44:38.631Z</time></trkpt><trkpt lat="44.4772779" lon="11.2611409"><ele>99.14285714285714</ele><time>2026-03-22T15:44:39.631Z</time></trkpt><trkpt lat="44.4773009" lon="11.2610565"><ele>99.57142857142858</ele><time>2026-03-22T15:44:40.631Z</time></trkpt><trkpt lat="44.4773306" lon="11.260967"><ele>100.0</ele><time>2026-03-22T15:44:41.631Z</time></trkpt><trkpt lat="44.4773558" lon="11.2608789"><ele>100.00000000000001</ele><time>2026-03-22T15:44:42.631Z</time></trkpt><trkpt lat="44.4773937" lon="11.2607978"><ele>100.0</ele><time>2026-03-22T15:44:43.631Z</time></trkpt><trkpt lat="44.4774346" lon="11.2607189"><ele>100.0</ele><time>2026-03-22T15:44:44.631Z</time></trkpt><trkpt lat="44.4774824" lon="11.2606441"><ele>100.0</ele><time>2026-03-22T15:44:45.631Z</time></trkpt><trkpt lat="44.4775213" lon="11.2605675"><ele>100.00000000000001</ele><time>2026-03-22T15:44:46.631Z</time></trkpt><trkpt lat="44.4775901" lon="11.2604383"><ele>100.0</ele><time>2026-03-22T15:44:48.631Z</time></trkpt><trkpt lat="44.4776496" lon="11.2603079"><ele>100.16666666666667</ele><time>2026-03-22T15:44:50.631Z</time></trkpt><trkpt lat="44.4777028" lon="11.2601698"><ele>100.33333333333334</ele><time>2026-03-22T15:44:52.631Z</time></trkpt><trkpt lat="44.4777257" lon="11.2600858"><ele>100.5</ele><time>2026-03-22T15:44:53.631Z</time></trkpt><trkpt lat="44.4777512" lon="11.2599779"><ele>100.66666666666666</ele><time>2026-03-22T15:44:54.631Z</time></trkpt><trkpt lat="44.477775" lon="11.2598607"><ele>100.83333333333333</ele><time>2026-03-22T15:44:55.631Z</time></trkpt><trkpt lat="44.4777994" lon="11.2597364"><ele>101.0</ele><time>2026-03-22T15:44:56.631Z</time></trkpt><trkpt lat="44.4778254" lon="11.2596035"><ele>101.4</ele><time>2026-03-22T15:44:57.631Z</time></trkpt><trkpt lat="44.4778522" lon="11.2594705"><ele>101.8</ele><time>2026-03-22T15:44:58.631Z</time></trkpt><trkpt lat="44.4778826" lon="11.2593428"><ele>102.2</ele><time>2026-03-22T15:44:59.631Z</time></trkpt><trkpt lat="44.4779123" lon="11.2592131"><ele>102.60000000000001</ele><time>2026-03-22T15:45:00.631Z</time></trkpt><trkpt lat="44.4779485" lon="11.2590924"><ele>103.0</ele><time>2026-03-22T15:45:01.631Z</time></trkpt><trkpt lat="44.4779883" lon="11.2589729"><ele>101.0</ele><time>2026-03-22T15:45:02.631Z</time></trkpt><trkpt lat="44.4780329" lon="11.2588551"><ele>99.0</ele><time>2026-03-22T15:45:03.631Z</time></trkpt><trkpt lat="44.4780847" lon="11.258745"><ele>97.0</ele><time>2026-03-22T15:45:04.631Z</time></trkpt><trkpt lat="44.4781365" lon="11.258642"><ele>95.0</ele><time>2026-03-22T15:45:05.631Z</time></trkpt><trkpt lat="44.4781892" lon="11.2585445"><ele>93.0</ele><time>2026-03-22T15:45:06.631Z</time></trkpt><trkpt lat="44.4782444" lon="11.2584524"><ele>93.0</ele><time>2026-03-22T15:45:07.631Z</time></trkpt><trkpt lat="44.4782997" lon="11.2583639"><ele>93.0</ele><time>2026-03-22T15:45:08.631Z</time></trkpt><trkpt lat="44.4783487" lon="11.2582901"><ele>93.0</ele><time>2026-03-22T15:45:09.631Z</time></trkpt><trkpt lat="44.4784231" lon="11.2581868"><ele>93.0</ele><time>2026-03-22T15:45:11.631Z</time></trkpt><trkpt lat="44.4784629" lon="11.2581052"><ele>93.0</ele><time>2026-03-22T15:45:14.631Z</time></trkpt><trkpt lat="44.4785062" lon="11.2580395"><ele>93.0</ele><time>2026-03-22T15:45:16.631Z</time></trkpt><trkpt lat="44.4785765" lon="11.2579179"><ele>93.5</ele><time>2026-03-22T15:45:18.631Z</time></trkpt><trkpt lat="44.4786573" lon="11.2577938"><ele>94.0</ele><time>2026-03-22T15:45:20.631Z</time></trkpt><trkpt lat="44.4786997" lon="11.2577242"><ele>94.5</ele><time>2026-03-22T15:45:21.631Z</time></trkpt><trkpt lat="44.4787424" lon="11.257644"><ele>95.0</ele><time>2026-03-22T15:45:22.631Z</time></trkpt><trkpt lat="44.4787889" lon="11.2575707"><ele>95.5</ele><time>2026-03-22T15:45:23.631Z</time></trkpt><trkpt lat="44.4788324" lon="11.2574948"><ele>96.0</ele><time>2026-03-22T15:45:24.631Z</time></trkpt><trkpt lat="44.4788736" lon="11.2574254"><ele>96.19999999999999</ele><time>2026-03-22T15:45:25.631Z</time></trkpt><trkpt lat="44.4789425" lon="11.2573021"><ele>96.39999999999999</ele><time>2026-03-22T15:45:27.631Z</time></trkpt><trkpt lat="44.4790018" lon="11.2571899"><ele>96.6</ele><time>2026-03-22T15:45:29.631Z</time></trkpt><trkpt lat="44.4790439" lon="11.2571028"><ele>96.8</ele><time>2026-03-22T15:45:32.631Z</time></trkpt><trkpt lat="44.4791028" lon="11.2569737"><ele>97.0</ele><time>2026-03-22T15:45:35.631Z</time></trkpt><trkpt lat="44.4791561" lon="11.2568331"><ele>97.0</ele><time>2026-03-22T15:45:37.631Z</time></trkpt><trkpt lat="44.4792176" lon="11.2566889"><ele>97.0</ele><time>2026-03-22T15:45:39.631Z</time></trkpt><trkpt lat="44.4792801" lon="11.2565705"><ele>97.0</ele><time>2026-03-22T15:45:41.631Z</time></trkpt><trkpt lat="44.4793289" lon="11.2564705"><ele>97.0</ele><time>2026-03-22T15:45:43.631Z</time></trkpt><trkpt lat="44.4793703" lon="11.2564014"><ele>97.0</ele><time>2026-03-22T15:45:45.631Z</time></trkpt><trkpt lat="44.4794155" lon="11.2563121"><ele>96.8</ele><time>2026-03-22T15:45:48.631Z</time></trkpt><trkpt lat="44.4794901" lon="11.2561994"><ele>96.6</ele><time>2026-03-22T15:45:50.631Z</time></trkpt><trkpt lat="44.4795665" lon="11.2560688"><ele>96.39999999999999</ele><time>2026-03-22T15:45:52.631Z</time></trkpt><trkpt lat="44.4796172" lon="11.2559972"><ele>96.19999999999999</ele><time>2026-03-22T15:45:53.631Z</time></trkpt><trkpt lat="44.4796686" lon="11.2559184"><ele>96.0</ele><time>2026-03-22T15:45:54.631Z</time></trkpt><trkpt lat="44.479716" lon="11.2558325"><ele>96.0</ele><time>2026-03-22T15:45:55.631Z</time></trkpt><trkpt lat="44.4797686" lon="11.2557472"><ele>96.0</ele><time>2026-03-22T15:45:56.631Z</time></trkpt><trkpt lat="44.4798191" lon="11.2556615"><ele>96.0</ele><time>2026-03-22T15:45:57.631Z</time></trkpt><trkpt lat="44.4798696" lon="11.2555772"><ele>96.0</ele><time>2026-03-22T15:45:58.631Z</time></trkpt><trkpt lat="44.4799204" lon="11.2554946"><ele>96.0</ele><time>2026-03-22T15:45:59.631Z</time></trkpt><trkpt lat="44.4799737" lon="11.2554155"><ele>96.0</ele><time>2026-03-22T15:46:00.631Z</time></trkpt><trkpt lat="44.4800276" lon="11.2553325"><ele>95.99999999999999</ele><time>2026-03-22T15:46:01.631Z</time></trkpt><trkpt lat="44.4800798" lon="11.2552485"><ele>96.0</ele><time>2026-03-22T15:46:02.631Z</time></trkpt><trkpt lat="44.4801279" lon="11.2551671"><ele>96.0</ele><time>2026-03-22T15:46:03.631Z</time></trkpt><trkpt lat="44.4801752" lon="11.2550896"><ele>96.0</ele><time>2026-03-22T15:46:04.631Z</time></trkpt><trkpt lat="44.4802225" lon="11.2550173"><ele>96.0</ele><time>2026-03-22T15:46:05.631Z</time></trkpt><trkpt lat="44.4802639" lon="11.2549404"><ele>95.99999999999999</ele><time>2026-03-22T15:46:06.631Z</time></trkpt><trkpt lat="44.4803064" lon="11.2548743"><ele>96.0</ele><time>2026-03-22T15:46:07.631Z</time></trkpt><trkpt lat="44.4803786" lon="11.2547537"><ele>96.33333333333333</ele><time>2026-03-22T15:46:09.632Z</time></trkpt><trkpt lat="44.4803589" lon="11.254654"><ele>96.66666666666666</ele><time>2026-03-22T15:46:10.631Z</time></trkpt><trkpt lat="44.4804087" lon="11.2545817"><ele>97.0</ele><time>2026-03-22T15:46:12.631Z</time></trkpt><trkpt lat="44.4804617" lon="11.2544585"><ele>97.33333333333333</ele><time>2026-03-22T15:46:16.631Z</time></trkpt><trkpt lat="44.4805448" lon="11.2543412"><ele>97.66666666666666</ele><time>2026-03-22T15:46:18.631Z</time></trkpt><trkpt lat="44.4805936" lon="11.2542706"><ele>98.0</ele><time>2026-03-22T15:46:19.631Z</time></trkpt><trkpt lat="44.4806522" lon="11.2542002"><ele>96.60000000000001</ele><time>2026-03-22T15:46:20.631Z</time></trkpt><trkpt lat="44.4807217" lon="11.2541367"><ele>95.2</ele><time>2026-03-22T15:46:21.631Z</time></trkpt><trkpt lat="44.4808054" lon="11.2540938"><ele>93.8</ele><time>2026-03-22T15:46:22.631Z</time></trkpt><trkpt lat="44.4808961" lon="11.2540731"><ele>92.4</ele><time>2026-03-22T15:46:23.631Z</time></trkpt><trkpt lat="44.4809929" lon="11.2540781"><ele>91.0</ele><time>2026-03-22T15:46:24.631Z</time></trkpt><trkpt lat="44.4810833" lon="11.2541085"><ele>91.0</ele><time>2026-03-22T15:46:25.631Z</time></trkpt><trkpt lat="44.4811687" lon="11.2541585"><ele>91.0</ele><time>2026-03-22T15:46:26.631Z</time></trkpt><trkpt lat="44.4812447" lon="11.2542172"><ele>91.0</ele><time>2026-03-22T15:46:27.631Z</time></trkpt><trkpt lat="44.4813102" lon="11.2542725"><ele>91.0</ele><time>2026-03-22T15:46:28.631Z</time></trkpt><trkpt lat="44.481367" lon="11.2543221"><ele>91.0</ele><time>2026-03-22T15:46:29.631Z</time></trkpt><trkpt lat="44.4814189" lon="11.2543724"><ele>91.0</ele><time>2026-03-22T15:46:30.631Z</time></trkpt><trkpt lat="44.4814673" lon="11.2544367"><ele>90.33333333333333</ele><time>2026-03-22T15:46:31.631Z</time></trkpt><trkpt lat="44.4815146" lon="11.2545166"><ele>89.66666666666666</ele><time>2026-03-22T15:46:32.631Z</time></trkpt><trkpt lat="44.4815697" lon="11.2545982"><ele>89.0</ele><time>2026-03-22T15:46:33.631Z</time></trkpt><trkpt lat="44.481643" lon="11.2546512"><ele>88.33333333333333</ele><time>2026-03-22T15:46:34.631Z</time></trkpt><trkpt lat="44.4817263" lon="11.2546606"><ele>87.66666666666667</ele><time>2026-03-22T15:46:35.631Z</time></trkpt><trkpt lat="44.4818056" lon="11.2546224"><ele>87.0</ele><time>2026-03-22T15:46:36.631Z</time></trkpt><trkpt lat="44.4818725" lon="11.2545378"><ele>87.0</ele><time>2026-03-22T15:46:37.631Z</time></trkpt><trkpt lat="44.4819038" lon="11.2544177"><ele>87.0</ele><time>2026-03-22T15:46:38.631Z</time></trkpt><trkpt lat="44.4818896" lon="11.2542872"><ele>87.0</ele><time>2026-03-22T15:46:39.631Z</time></trkpt><trkpt lat="44.4818375" lon="11.2541731"><ele>87.0</ele><time>2026-03-22T15:46:40.631Z</time></trkpt><trkpt lat="44.4817784" lon="11.2540623"><ele>87.0</ele><time>2026-03-22T15:46:41.631Z</time></trkpt><trkpt lat="44.4817343" lon="11.2539316"><ele>87.25</ele><time>2026-03-22T15:46:42.631Z</time></trkpt><trkpt lat="44.4817158" lon="11.2537737"><ele>87.5</ele><time>2026-03-22T15:46:43.631Z</time></trkpt><trkpt lat="44.4817072" lon="11.2535865"><ele>87.75</ele><time>2026-03-22T15:46:44.631Z</time></trkpt><trkpt lat="44.4816991" lon="11.2533893"><ele>88.0</ele><time>2026-03-22T15:46:45.631Z</time></trkpt><trkpt lat="44.4816862" lon="11.253184"><ele>87.66666666666666</ele><time>2026-03-22T15:46:46.631Z</time></trkpt><trkpt lat="44.4816688" lon="11.2529727"><ele>87.33333333333333</ele><time>2026-03-22T15:46:47.631Z</time></trkpt><trkpt lat="44.481646" lon="11.2527633"><ele>87.0</ele><time>2026-03-22T15:46:48.631Z</time></trkpt><trkpt lat="44.4816205" lon="11.2525535"><ele>87.0</ele><time>2026-03-22T15:46:49.631Z</time></trkpt><trkpt lat="44.4815916" lon="11.2523454"><ele>87.0</ele><time>2026-03-22T15:46:50.631Z</time></trkpt><trkpt lat="44.4815589" lon="11.2521378"><ele>87.0</ele><time>2026-03-22T15:46:51.631Z</time></trkpt><trkpt lat="44.481527" lon="11.2519296"><ele>87.5</ele><time>2026-03-22T15:46:52.631Z</time></trkpt><trkpt lat="44.4814956" lon="11.2517227"><ele>88.0</ele><time>2026-03-22T15:46:53.631Z</time></trkpt><trkpt lat="44.4814641" lon="11.2515179"><ele>88.5</ele><time>2026-03-22T15:46:54.631Z</time></trkpt><trkpt lat="44.481433" lon="11.2513146"><ele>89.0</ele><time>2026-03-22T15:46:55.631Z</time></trkpt><trkpt lat="44.4814057" lon="11.2511144"><ele>89.0</ele><time>2026-03-22T15:46:56.631Z</time></trkpt><trkpt lat="44.4813882" lon="11.2509149"><ele>89.0</ele><time>2026-03-22T15:46:57.631Z</time></trkpt><trkpt lat="44.4813868" lon="11.2507187"><ele>89.0</ele><time>2026-03-22T15:46:58.631Z</time></trkpt><trkpt lat="44.4814077" lon="11.2505218"><ele>89.0</ele><time>2026-03-22T15:46:59.631Z</time></trkpt><trkpt lat="44.4814486" lon="11.2503342"><ele>88.5</ele><time>2026-03-22T15:47:00.631Z</time></trkpt><trkpt lat="44.481511" lon="11.2501588"><ele>88.0</ele><time>2026-03-22T15:47:01.631Z</time></trkpt><trkpt lat="44.4815905" lon="11.2499937"><ele>87.5</ele><time>2026-03-22T15:47:02.631Z</time></trkpt><trkpt lat="44.4816825" lon="11.2498403"><ele>87.0</ele><time>2026-03-22T15:47:03.631Z</time></trkpt><trkpt lat="44.4817773" lon="11.2496899"><ele>86.75</ele><time>2026-03-22T15:47:04.631Z</time></trkpt><trkpt lat="44.4818735" lon="11.249542"><ele>86.5</ele><time>2026-03-22T15:47:05.631Z</time></trkpt><trkpt lat="44.481969" lon="11.2493946"><ele>86.25</ele><time>2026-03-22T15:47:06.631Z</time></trkpt><trkpt lat="44.482064" lon="11.2492484"><ele>86.0</ele><time>2026-03-22T15:47:07.631Z</time></trkpt><trkpt lat="44.4821584" lon="11.2491026"><ele>86.75</ele><time>2026-03-22T15:47:08.631Z</time></trkpt><trkpt lat="44.4822523" lon="11.2489578"><ele>87.5</ele><time>2026-03-22T15:47:09.631Z</time></trkpt><trkpt lat="44.4823449" lon="11.2488162"><ele>88.25</ele><time>2026-03-22T15:47:10.631Z</time></trkpt><trkpt lat="44.4824355" lon="11.2486747"><ele>89.0</ele><time>2026-03-22T15:47:11.631Z</time></trkpt><trkpt lat="44.4825193" lon="11.2485274"><ele>89.0</ele><time>2026-03-22T15:47:12.631Z</time></trkpt><trkpt lat="44.4825939" lon="11.2483717"><ele>89.0</ele><time>2026-03-22T15:47:13.631Z</time></trkpt><trkpt lat="44.4826545" lon="11.248207"><ele>89.0</ele><time>2026-03-22T15:47:14.631Z</time></trkpt><trkpt lat="44.4827042" lon="11.2480379"><ele>89.0</ele><time>2026-03-22T15:47:15.631Z</time></trkpt><trkpt lat="44.4827465" lon="11.247865"><ele>89.5</ele><time>2026-03-22T15:47:16.631Z</time></trkpt><trkpt lat="44.4827858" lon="11.2476939"><ele>90.0</ele><time>2026-03-22T15:47:17.631Z</time></trkpt><trkpt lat="44.4828247" lon="11.2475244"><ele>90.5</ele><time>2026-03-22T15:47:18.631Z</time></trkpt><trkpt lat="44.4828656" lon="11.24736"><ele>91.0</ele><time>2026-03-22T15:47:19.631Z</time></trkpt><trkpt lat="44.4829118" lon="11.2471999"><ele>90.25</ele><time>2026-03-22T15:47:20.631Z</time></trkpt><trkpt lat="44.4829688" lon="11.2470493"><ele>89.5</ele><time>2026-03-22T15:47:21.631Z</time></trkpt><trkpt lat="44.48304" lon="11.246913"><ele>88.75</ele><time>2026-03-22T15:47:22.631Z</time></trkpt><trkpt lat="44.4831238" lon="11.2467877"><ele>88.0</ele><time>2026-03-22T15:47:23.631Z</time></trkpt><trkpt lat="44.4832176" lon="11.2466784"><ele>88.0</ele><time>2026-03-22T15:47:24.631Z</time></trkpt><trkpt lat="44.4833173" lon="11.2465772"><ele>88.0</ele><time>2026-03-22T15:47:25.631Z</time></trkpt><trkpt lat="44.4834192" lon="11.2464802"><ele>88.0</ele><time>2026-03-22T15:47:26.631Z</time></trkpt><trkpt lat="44.4835217" lon="11.2463828"><ele>88.0</ele><time>2026-03-22T15:47:27.631Z</time></trkpt><trkpt lat="44.483623" lon="11.2462827"><ele>87.75</ele><time>2026-03-22T15:47:28.631Z</time></trkpt><trkpt lat="44.4837225" lon="11.2461785"><ele>87.5</ele><time>2026-03-22T15:47:29.631Z</time></trkpt><trkpt lat="44.4838204" lon="11.2460703"><ele>87.25</ele><time>2026-03-22T15:47:30.631Z</time></trkpt><trkpt lat="44.4839158" lon="11.2459581"><ele>87.0</ele><time>2026-03-22T15:47:31.631Z</time></trkpt><trkpt lat="44.4840066" lon="11.2458399"><ele>86.5</ele><time>2026-03-22T15:47:32.631Z</time></trkpt><trkpt lat="44.4840891" lon="11.2457105"><ele>86.0</ele><time>2026-03-22T15:47:33.631Z</time></trkpt><trkpt lat="44.4841587" lon="11.2455658"><ele>85.5</ele><time>2026-03-22T15:47:34.631Z</time></trkpt><trkpt lat="44.4842128" lon="11.2454124"><ele>85.0</ele><time>2026-03-22T15:47:35.631Z</time></trkpt><trkpt lat="44.4842536" lon="11.2452586"><ele>84.8</ele><time>2026-03-22T15:47:36.631Z</time></trkpt><trkpt lat="44.4842825" lon="11.2451015"><ele>84.6</ele><time>2026-03-22T15:47:37.631Z</time></trkpt><trkpt lat="44.484305" lon="11.2449454"><ele>84.4</ele><time>2026-03-22T15:47:38.631Z</time></trkpt><trkpt lat="44.4843233" lon="11.244794"><ele>84.2</ele><time>2026-03-22T15:47:39.631Z</time></trkpt><trkpt lat="44.4843438" lon="11.2446456"><ele>84.0</ele><time>2026-03-22T15:47:40.631Z</time></trkpt><trkpt lat="44.4843683" lon="11.2445059"><ele>83.80000000000001</ele><time>2026-03-22T15:47:41.631Z</time></trkpt><trkpt lat="44.4843855" lon="11.2443671"><ele>83.60000000000001</ele><time>2026-03-22T15:47:42.631Z</time></trkpt><trkpt lat="44.4843968" lon="11.2442291"><ele>83.4</ele><time>2026-03-22T15:47:43.631Z</time></trkpt><trkpt lat="44.4844046" lon="11.2440927"><ele>83.2</ele><time>2026-03-22T15:47:44.631Z</time></trkpt><trkpt lat="44.4844102" lon="11.2439656"><ele>83.0</ele><time>2026-03-22T15:47:45.631Z</time></trkpt><trkpt lat="44.4844136" lon="11.2438452"><ele>82.83333333333334</ele><time>2026-03-22T15:47:46.631Z</time></trkpt><trkpt lat="44.4844143" lon="11.2437323"><ele>82.66666666666667</ele><time>2026-03-22T15:47:47.631Z</time></trkpt><trkpt lat="44.4844117" lon="11.2436233"><ele>82.5</ele><time>2026-03-22T15:47:48.631Z</time></trkpt><trkpt lat="44.4844034" lon="11.2435176"><ele>82.33333333333333</ele><time>2026-03-22T15:47:49.631Z</time></trkpt><trkpt lat="44.4843903" lon="11.2434125"><ele>82.16666666666666</ele><time>2026-03-22T15:47:50.631Z</time></trkpt><trkpt lat="44.4843755" lon="11.2433051"><ele>82.0</ele><time>2026-03-22T15:47:51.631Z</time></trkpt><trkpt lat="44.4843597" lon="11.2431966"><ele>82.0</ele><time>2026-03-22T15:47:52.631Z</time></trkpt><trkpt lat="44.4843441" lon="11.2430851"><ele>82.0</ele><time>2026-03-22T15:47:53.631Z</time></trkpt><trkpt lat="44.4843282" lon="11.2429709"><ele>82.0</ele><time>2026-03-22T15:47:54.631Z</time></trkpt><trkpt lat="44.4843128" lon="11.2428521"><ele>82.0</ele><time>2026-03-22T15:47:55.631Z</time></trkpt><trkpt lat="44.484298" lon="11.2427315"><ele>82.0</ele><time>2026-03-22T15:47:56.631Z</time></trkpt><trkpt lat="44.4842867" lon="11.242607"><ele>82.0</ele><time>2026-03-22T15:47:57.631Z</time></trkpt><trkpt lat="44.4842855" lon="11.2424815"><ele>82.0</ele><time>2026-03-22T15:47:58.631Z</time></trkpt><trkpt lat="44.4842932" lon="11.2423539"><ele>82.0</ele><time>2026-03-22T15:47:59.631Z</time></trkpt><trkpt lat="44.4843078" lon="11.2422335"><ele>82.0</ele><time>2026-03-22T15:48:00.631Z</time></trkpt><trkpt lat="44.4843276" lon="11.2421204"><ele>82.0</ele><time>2026-03-22T15:48:01.631Z</time></trkpt><trkpt lat="44.4843511" lon="11.242015"><ele>82.0</ele><time>2026-03-22T15:48:02.631Z</time></trkpt><trkpt lat="44.4843753" lon="11.2419122"><ele>82.0</ele><time>2026-03-22T15:48:03.631Z</time></trkpt><trkpt lat="44.4844002" lon="11.2418111"><ele>82.0</ele><time>2026-03-22T15:48:04.631Z</time></trkpt><trkpt lat="44.4844236" lon="11.2417092"><ele>82.0</ele><time>2026-03-22T15:48:05.631Z</time></trkpt><trkpt lat="44.4844484" lon="11.241608"><ele>82.0</ele><time>2026-03-22T15:48:06.631Z</time></trkpt><trkpt lat="44.484473" lon="11.2415064"><ele>82.0</ele><time>2026-03-22T15:48:07.631Z</time></trkpt><trkpt lat="44.4844977" lon="11.2414045"><ele>82.0</ele><time>2026-03-22T15:48:08.631Z</time></trkpt><trkpt lat="44.4845225" lon="11.2413029"><ele>82.0</ele><time>2026-03-22T15:48:09.631Z</time></trkpt><trkpt lat="44.4845473" lon="11.2412008"><ele>81.99999999999999</ele><time>2026-03-22T15:48:10.631Z</time></trkpt><trkpt lat="44.4845709" lon="11.2411012"><ele>82.0</ele><time>2026-03-22T15:48:11.631Z</time></trkpt><trkpt lat="44.4845944" lon="11.2410057"><ele>82.0</ele><time>2026-03-22T15:48:12.631Z</time></trkpt><trkpt lat="44.4846181" lon="11.2409116"><ele>82.0</ele><time>2026-03-22T15:48:13.631Z</time></trkpt><trkpt lat="44.48464" lon="11.2408207"><ele>82.0</ele><time>2026-03-22T15:48:14.631Z</time></trkpt><trkpt lat="44.4846621" lon="11.2407349"><ele>81.99999999999999</ele><time>2026-03-22T15:48:15.631Z</time></trkpt><trkpt lat="44.4846832" lon="11.2406496"><ele>82.0</ele><time>2026-03-22T15:48:16.631Z</time></trkpt><trkpt lat="44.4847075" lon="11.2405585"><ele>81.66666666666666</ele><time>2026-03-22T15:48:17.631Z</time></trkpt><trkpt lat="44.4847333" lon="11.2404547"><ele>81.33333333333333</ele><time>2026-03-22T15:48:18.631Z</time></trkpt><trkpt lat="44.4847609" lon="11.2403416"><ele>81.0</ele><time>2026-03-22T15:48:19.631Z</time></trkpt><trkpt lat="44.4847903" lon="11.2402244"><ele>80.66666666666667</ele><time>2026-03-22T15:48:20.631Z</time></trkpt><trkpt lat="44.4848203" lon="11.2401057"><ele>80.33333333333334</ele><time>2026-03-22T15:48:21.631Z</time></trkpt><trkpt lat="44.4848482" lon="11.2399897"><ele>80.0</ele><time>2026-03-22T15:48:22.631Z</time></trkpt><trkpt lat="44.4848752" lon="11.2398796"><ele>80.0</ele><time>2026-03-22T15:48:23.631Z</time></trkpt><trkpt lat="44.4849019" lon="11.2397808"><ele>80.0</ele><time>2026-03-22T15:48:24.631Z</time></trkpt><trkpt lat="44.4849278" lon="11.239692"><ele>80.0</ele><time>2026-03-22T15:48:25.631Z</time></trkpt><trkpt lat="44.4849881" lon="11.2395387"><ele>80.0</ele><time>2026-03-22T15:48:27.631Z</time></trkpt><trkpt lat="44.4850268" lon="11.2394597"><ele>80.0</ele><time>2026-03-22T15:48:28.631Z</time></trkpt><trkpt lat="44.4850616" lon="11.2393652"><ele>80.0</ele><time>2026-03-22T15:48:29.631Z</time></trkpt><trkpt lat="44.4850838" lon="11.2392526"><ele>80.0</ele><time>2026-03-22T15:48:30.631Z</time></trkpt><trkpt lat="44.4850968" lon="11.2391259"><ele>80.0</ele><time>2026-03-22T15:48:31.631Z</time></trkpt><trkpt lat="44.4851097" lon="11.238998"><ele>80.0</ele><time>2026-03-22T15:48:32.631Z</time></trkpt><trkpt lat="44.4851299" lon="11.2388689"><ele>80.0</ele><time>2026-03-22T15:48:33.631Z</time></trkpt><trkpt lat="44.4851575" lon="11.2387413"><ele>80.0</ele><time>2026-03-22T15:48:34.631Z</time></trkpt><trkpt lat="44.485186" lon="11.2386157"><ele>79.83333333333334</ele><time>2026-03-22T15:48:35.631Z</time></trkpt><trkpt lat="44.4852156" lon="11.2384946"><ele>79.66666666666667</ele><time>2026-03-22T15:48:36.631Z</time></trkpt><trkpt lat="44.485244" lon="11.2383785"><ele>79.5</ele><time>2026-03-22T15:48:37.631Z</time></trkpt><trkpt lat="44.4852714" lon="11.2382659"><ele>79.33333333333333</ele><time>2026-03-22T15:48:38.631Z</time></trkpt><trkpt lat="44.485298" lon="11.2381578"><ele>79.16666666666666</ele><time>2026-03-22T15:48:39.631Z</time></trkpt><trkpt lat="44.4853237" lon="11.2380544"><ele>79.0</ele><time>2026-03-22T15:48:40.631Z</time></trkpt><trkpt lat="44.4853471" lon="11.2379577"><ele>78.8</ele><time>2026-03-22T15:48:41.631Z</time></trkpt><trkpt lat="44.4853685" lon="11.2378708"><ele>78.60000000000001</ele><time>2026-03-22T15:48:42.631Z</time></trkpt><trkpt lat="44.4854055" lon="11.2377266"><ele>78.4</ele><time>2026-03-22T15:48:44.631Z</time></trkpt><trkpt lat="44.4854469" lon="11.2376139"><ele>78.2</ele><time>2026-03-22T15:48:46.631Z</time></trkpt><trkpt lat="44.4854829" lon="11.2374935"><ele>78.0</ele><time>2026-03-22T15:48:48.631Z</time></trkpt><trkpt lat="44.4855041" lon="11.2373382"><ele>77.83333333333333</ele><time>2026-03-22T15:48:50.631Z</time></trkpt><trkpt lat="44.4855182" lon="11.2372481"><ele>77.66666666666667</ele><time>2026-03-22T15:48:51.631Z</time></trkpt><trkpt lat="44.4855395" lon="11.2371525"><ele>77.5</ele><time>2026-03-22T15:48:52.631Z</time></trkpt><trkpt lat="44.485564" lon="11.2370513"><ele>77.33333333333334</ele><time>2026-03-22T15:48:53.631Z</time></trkpt><trkpt lat="44.4855905" lon="11.2369477"><ele>77.16666666666667</ele><time>2026-03-22T15:48:54.631Z</time></trkpt><trkpt lat="44.485618" lon="11.2368425"><ele>77.0</ele><time>2026-03-22T15:48:55.631Z</time></trkpt><trkpt lat="44.4856464" lon="11.2367292"><ele>77.0</ele><time>2026-03-22T15:48:56.631Z</time></trkpt><trkpt lat="44.485675" lon="11.2366077"><ele>77.0</ele><time>2026-03-22T15:48:57.631Z</time></trkpt><trkpt lat="44.4857025" lon="11.2364798"><ele>77.0</ele><time>2026-03-22T15:48:58.631Z</time></trkpt><trkpt lat="44.4857258" lon="11.236349"><ele>77.0</ele><time>2026-03-22T15:48:59.631Z</time></trkpt><trkpt lat="44.4857448" lon="11.2362175"><ele>77.0</ele><time>2026-03-22T15:49:00.631Z</time></trkpt><trkpt lat="44.485762" lon="11.2360895"><ele>77.2</ele><time>2026-03-22T15:49:01.631Z</time></trkpt><trkpt lat="44.4857784" lon="11.235961"><ele>77.4</ele><time>2026-03-22T15:49:02.631Z</time></trkpt><trkpt lat="44.4857938" lon="11.2358316"><ele>77.6</ele><time>2026-03-22T15:49:03.631Z</time></trkpt><trkpt lat="44.4858092" lon="11.2357037"><ele>77.8</ele><time>2026-03-22T15:49:04.631Z</time></trkpt><trkpt lat="44.4858231" lon="11.2355828"><ele>78.0</ele><time>2026-03-22T15:49:05.631Z</time></trkpt><trkpt lat="44.4858383" lon="11.2354607"><ele>77.6</ele><time>2026-03-22T15:49:06.631Z</time></trkpt><trkpt lat="44.4858534" lon="11.2353344"><ele>77.19999999999999</ele><time>2026-03-22T15:49:07.631Z</time></trkpt><trkpt lat="44.4858702" lon="11.2352038"><ele>76.8</ele><time>2026-03-22T15:49:08.631Z</time></trkpt><trkpt lat="44.4858901" lon="11.2350699"><ele>76.39999999999999</ele><time>2026-03-22T15:49:09.631Z</time></trkpt><trkpt lat="44.4859113" lon="11.2349325"><ele>76.0</ele><time>2026-03-22T15:49:10.631Z</time></trkpt><trkpt lat="44.4859336" lon="11.2347943"><ele>75.8</ele><time>2026-03-22T15:49:11.631Z</time></trkpt><trkpt lat="44.4859564" lon="11.2346554"><ele>75.6</ele><time>2026-03-22T15:49:12.631Z</time></trkpt><trkpt lat="44.4859791" lon="11.2345195"><ele>75.4</ele><time>2026-03-22T15:49:13.631Z</time></trkpt><trkpt lat="44.4860025" lon="11.2343875"><ele>75.2</ele><time>2026-03-22T15:49:14.631Z</time></trkpt><trkpt lat="44.4860269" lon="11.2342543"><ele>75.0</ele><time>2026-03-22T15:49:15.631Z</time></trkpt><trkpt lat="44.4860505" lon="11.2341195"><ele>75.0</ele><time>2026-03-22T15:49:16.631Z</time></trkpt><trkpt lat="44.4860752" lon="11.2339812"><ele>75.0</ele><time>2026-03-22T15:49:17.631Z</time></trkpt><trkpt lat="44.4861006" lon="11.2338388"><ele>75.0</ele><time>2026-03-22T15:49:18.631Z</time></trkpt><trkpt lat="44.4861259" lon="11.2336946"><ele>75.0</ele><time>2026-03-22T15:49:19.631Z</time></trkpt><trkpt lat="44.4861524" lon="11.2335487"><ele>75.0</ele><time>2026-03-22T15:49:20.631Z</time></trkpt><trkpt lat="44.4861794" lon="11.2334024"><ele>75.0</ele><time>2026-03-22T15:49:21.631Z</time></trkpt><trkpt lat="44.4862056" lon="11.2332549"><ele>75.0</ele><time>2026-03-22T15:49:22.631Z</time></trkpt><trkpt lat="44.4862311" lon="11.2331084"><ele>75.0</ele><time>2026-03-22T15:49:23.631Z</time></trkpt><trkpt lat="44.4862576" lon="11.2329636"><ele>75.0</ele><time>2026-03-22T15:49:24.631Z</time></trkpt><trkpt lat="44.4862848" lon="11.2328213"><ele>75.0</ele><time>2026-03-22T15:49:25.631Z</time></trkpt><trkpt lat="44.4863121" lon="11.2326798"><ele>75.0</ele><time>2026-03-22T15:49:26.631Z</time></trkpt><trkpt lat="44.4863394" lon="11.2325405"><ele>75.0</ele><time>2026-03-22T15:49:27.631Z</time></trkpt><trkpt lat="44.486366" lon="11.2324033"><ele>75.0</ele><time>2026-03-22T15:49:28.631Z</time></trkpt><trkpt lat="44.4863929" lon="11.2322689"><ele>75.0</ele><time>2026-03-22T15:49:29.631Z</time></trkpt><trkpt lat="44.4864192" lon="11.2321354"><ele>75.0</ele><time>2026-03-22T15:49:30.631Z</time></trkpt><trkpt lat="44.4864449" lon="11.2320045"><ele>75.4</ele><time>2026-03-22T15:49:31.631Z</time></trkpt><trkpt lat="44.4864703" lon="11.2318733"><ele>75.8</ele><time>2026-03-22T15:49:32.631Z</time></trkpt><trkpt lat="44.4864953" lon="11.2317417"><ele>76.2</ele><time>2026-03-22T15:49:33.631Z</time></trkpt><trkpt lat="44.4865212" lon="11.2316093"><ele>76.6</ele><time>2026-03-22T15:49:34.631Z</time></trkpt><trkpt lat="44.4865461" lon="11.231477"><ele>77.0</ele><time>2026-03-22T15:49:35.631Z</time></trkpt><trkpt lat="44.4865718" lon="11.2313453"><ele>77.0</ele><time>2026-03-22T15:49:36.631Z</time></trkpt><trkpt lat="44.4865965" lon="11.2312131"><ele>77.0</ele><time>2026-03-22T15:49:37.631Z</time></trkpt><trkpt lat="44.4866213" lon="11.2310808"><ele>77.0</ele><time>2026-03-22T15:49:38.631Z</time></trkpt><trkpt lat="44.4866478" lon="11.2309465"><ele>77.0</ele><time>2026-03-22T15:49:39.631Z</time></trkpt><trkpt lat="44.4866736" lon="11.2308093"><ele>77.0</ele><time>2026-03-22T15:49:40.631Z</time></trkpt><trkpt lat="44.486698" lon="11.2306693"><ele>76.6</ele><time>2026-03-22T15:49:41.631Z</time></trkpt><trkpt lat="44.4867229" lon="11.230527"><ele>76.2</ele><time>2026-03-22T15:49:42.631Z</time></trkpt><trkpt lat="44.4867472" lon="11.2303834"><ele>75.8</ele><time>2026-03-22T15:49:43.631Z</time></trkpt><trkpt lat="44.4867722" lon="11.2302396"><ele>75.4</ele><time>2026-03-22T15:49:44.631Z</time></trkpt><trkpt lat="44.4867969" lon="11.230096"><ele>75.0</ele><time>2026-03-22T15:49:45.631Z</time></trkpt><trkpt lat="44.4868215" lon="11.2299527"><ele>75.0</ele><time>2026-03-22T15:49:46.631Z</time></trkpt><trkpt lat="44.4868449" lon="11.2298097"><ele>75.0</ele><time>2026-03-22T15:49:47.631Z</time></trkpt><trkpt lat="44.4868681" lon="11.229669"><ele>75.0</ele><time>2026-03-22T15:49:48.631Z</time></trkpt><trkpt lat="44.4868912" lon="11.2295297"><ele>75.0</ele><time>2026-03-22T15:49:49.631Z</time></trkpt><trkpt lat="44.4869148" lon="11.2293918"><ele>75.0</ele><time>2026-03-22T15:49:50.631Z</time></trkpt><trkpt lat="44.4869391" lon="11.2292573"><ele>75.0</ele><time>2026-03-22T15:49:51.631Z</time></trkpt><trkpt lat="44.4869623" lon="11.2291263"><ele>75.0</ele><time>2026-03-22T15:49:52.631Z</time></trkpt><trkpt lat="44.4869852" lon="11.2290002"><ele>75.0</ele><time>2026-03-22T15:49:53.631Z</time></trkpt><trkpt lat="44.487008" lon="11.2288756"><ele>75.0</ele><time>2026-03-22T15:49:54.631Z</time></trkpt><trkpt lat="44.4870313" lon="11.2287485"><ele>75.0</ele><time>2026-03-22T15:49:55.631Z</time></trkpt><trkpt lat="44.4870549" lon="11.2286197"><ele>75.0</ele><time>2026-03-22T15:49:56.631Z</time></trkpt><trkpt lat="44.4870799" lon="11.22849"><ele>75.0</ele><time>2026-03-22T15:49:57.631Z</time></trkpt><trkpt lat="44.4871055" lon="11.2283593"><ele>75.0</ele><time>2026-03-22T15:49:58.631Z</time></trkpt><trkpt lat="44.4871329" lon="11.2282301"><ele>75.0</ele><time>2026-03-22T15:49:59.631Z</time></trkpt><trkpt lat="44.4871638" lon="11.2281077"><ele>75.0</ele><time>2026-03-22T15:50:00.631Z</time></trkpt><trkpt lat="44.4871977" lon="11.2279951"><ele>75.2</ele><time>2026-03-22T15:50:01.631Z</time></trkpt><trkpt lat="44.4872357" lon="11.2278947"><ele>75.4</ele><time>2026-03-22T15:50:02.631Z</time></trkpt><trkpt lat="44.4872752" lon="11.2278113"><ele>75.6</ele><time>2026-03-22T15:50:03.631Z</time></trkpt><trkpt lat="44.4873513" lon="11.227699"><ele>75.8</ele><time>2026-03-22T15:50:05.631Z</time></trkpt><trkpt lat="44.4874478" lon="11.2275919"><ele>76.0</ele><time>2026-03-22T15:50:07.631Z</time></trkpt><trkpt lat="44.4875176" lon="11.2275301"><ele>76.0</ele><time>2026-03-22T15:50:08.631Z</time></trkpt><trkpt lat="44.4875967" lon="11.2274556"><ele>76.0</ele><time>2026-03-22T15:50:09.631Z</time></trkpt><trkpt lat="44.4876651" lon="11.2273624"><ele>76.0</ele><time>2026-03-22T15:50:10.631Z</time></trkpt><trkpt lat="44.4877117" lon="11.2272383"><ele>76.0</ele><time>2026-03-22T15:50:11.631Z</time></trkpt><trkpt lat="44.487722" lon="11.2270935"><ele>76.0</ele><time>2026-03-22T15:50:12.631Z</time></trkpt><trkpt lat="44.4876884" lon="11.2269494"><ele>77.0</ele><time>2026-03-22T15:50:13.631Z</time></trkpt><trkpt lat="44.4876161" lon="11.2268248"><ele>78.0</ele><time>2026-03-22T15:50:14.631Z</time></trkpt><trkpt lat="44.4875193" lon="11.2267235"><ele>79.0</ele><time>2026-03-22T15:50:15.631Z</time></trkpt><trkpt lat="44.4874077" lon="11.2266339"><ele>80.0</ele><time>2026-03-22T15:50:16.631Z</time></trkpt><trkpt lat="44.4872897" lon="11.226546"><ele>80.25</ele><time>2026-03-22T15:50:17.631Z</time></trkpt><trkpt lat="44.4871662" lon="11.226457"><ele>80.5</ele><time>2026-03-22T15:50:18.631Z</time></trkpt><trkpt lat="44.4870401" lon="11.2263677"><ele>80.75</ele><time>2026-03-22T15:50:19.631Z</time></trkpt><trkpt lat="44.4869148" lon="11.2262803"><ele>81.0</ele><time>2026-03-22T15:50:20.631Z</time></trkpt><trkpt lat="44.4867892" lon="11.2261928"><ele>81.0</ele><time>2026-03-22T15:50:21.631Z</time></trkpt><trkpt lat="44.4866636" lon="11.2261059"><ele>81.0</ele><time>2026-03-22T15:50:22.631Z</time></trkpt><trkpt lat="44.4865386" lon="11.2260194"><ele>81.0</ele><time>2026-03-22T15:50:23.631Z</time></trkpt><trkpt lat="44.4864142" lon="11.2259393"><ele>81.0</ele><time>2026-03-22T15:50:24.631Z</time></trkpt><trkpt lat="44.4862925" lon="11.2258581"><ele>80.5</ele><time>2026-03-22T15:50:25.631Z</time></trkpt><trkpt lat="44.4861734" lon="11.2257763"><ele>80.0</ele><time>2026-03-22T15:50:26.631Z</time></trkpt><trkpt lat="44.4860573" lon="11.2256951"><ele>79.5</ele><time>2026-03-22T15:50:27.631Z</time></trkpt><trkpt lat="44.4859431" lon="11.2256182"><ele>79.0</ele><time>2026-03-22T15:50:28.631Z</time></trkpt><trkpt lat="44.4858277" lon="11.2255413"><ele>79.0</ele><time>2026-03-22T15:50:29.631Z</time></trkpt><trkpt lat="44.485716" lon="11.2254713"><ele>79.0</ele><time>2026-03-22T15:50:30.631Z</time></trkpt><trkpt lat="44.485604" lon="11.2254035"><ele>79.0</ele><time>2026-03-22T15:50:31.631Z</time></trkpt><trkpt lat="44.4854909" lon="11.2253394"><ele>79.0</ele><time>2026-03-22T15:50:32.631Z</time></trkpt><trkpt lat="44.4853754" lon="11.2252815"><ele>79.25</ele><time>2026-03-22T15:50:33.631Z</time></trkpt><trkpt lat="44.4852581" lon="11.2252307"><ele>79.5</ele><time>2026-03-22T15:50:34.631Z</time></trkpt><trkpt lat="44.485143" lon="11.2251868"><ele>79.75</ele><time>2026-03-22T15:50:35.631Z</time></trkpt><trkpt lat="44.4850312" lon="11.2251506"><ele>80.0</ele><time>2026-03-22T15:50:36.631Z</time></trkpt><trkpt lat="44.4849349" lon="11.2251202"><ele>80.0</ele><time>2026-03-22T15:50:37.631Z</time></trkpt><trkpt lat="44.484862" lon="11.2250984"><ele>80.0</ele><time>2026-03-22T15:50:38.631Z</time></trkpt><trkpt lat="44.4847654" lon="11.2250705"><ele>80.0</ele><time>2026-03-22T15:50:40.631Z</time></trkpt><trkpt lat="44.4846938" lon="11.225048"><ele>80.0</ele><time>2026-03-22T15:50:42.631Z</time></trkpt><trkpt lat="44.4845857" lon="11.2250161"><ele>80.0</ele><time>2026-03-22T15:50:44.631Z</time></trkpt><trkpt lat="44.4845092" lon="11.2249958"><ele>80.0</ele><time>2026-03-22T15:50:45.631Z</time></trkpt><trkpt lat="44.4844208" lon="11.2249728"><ele>79.6</ele><time>2026-03-22T15:50:46.631Z</time></trkpt><trkpt lat="44.4843242" lon="11.2249488"><ele>79.2</ele><time>2026-03-22T15:50:47.631Z</time></trkpt><trkpt lat="44.4842229" lon="11.2249222"><ele>78.8</ele><time>2026-03-22T15:50:48.631Z</time></trkpt><trkpt lat="44.484116" lon="11.2248937"><ele>78.4</ele><time>2026-03-22T15:50:49.631Z</time></trkpt><trkpt lat="44.4840006" lon="11.2248613"><ele>78.0</ele><time>2026-03-22T15:50:50.631Z</time></trkpt><trkpt lat="44.4838801" lon="11.2248257"><ele>78.25</ele><time>2026-03-22T15:50:51.631Z</time></trkpt><trkpt lat="44.4837542" lon="11.2247881"><ele>78.5</ele><time>2026-03-22T15:50:52.631Z</time></trkpt><trkpt lat="44.4836224" lon="11.2247487"><ele>78.75</ele><time>2026-03-22T15:50:53.631Z</time></trkpt><trkpt lat="44.4834839" lon="11.2247076"><ele>79.0</ele><time>2026-03-22T15:50:54.631Z</time></trkpt><trkpt lat="44.4833417" lon="11.2246649"><ele>79.0</ele><time>2026-03-22T15:50:55.631Z</time></trkpt><trkpt lat="44.483196" lon="11.2246212"><ele>79.0</ele><time>2026-03-22T15:50:56.631Z</time></trkpt><trkpt lat="44.4830465" lon="11.2245777"><ele>79.0</ele><time>2026-03-22T15:50:57.631Z</time></trkpt><trkpt lat="44.4828942" lon="11.2245347"><ele>79.66666666666666</ele><time>2026-03-22T15:50:58.631Z</time></trkpt><trkpt lat="44.4827379" lon="11.2244907"><ele>80.33333333333333</ele><time>2026-03-22T15:50:59.631Z</time></trkpt><trkpt lat="44.4825784" lon="11.2244447"><ele>81.0</ele><time>2026-03-22T15:51:00.631Z</time></trkpt><trkpt lat="44.4824148" lon="11.2243972"><ele>81.0</ele><time>2026-03-22T15:51:01.631Z</time></trkpt><trkpt lat="44.4822468" lon="11.2243491"><ele>81.0</ele><time>2026-03-22T15:51:02.631Z</time></trkpt><trkpt lat="44.4820759" lon="11.2242993"><ele>81.0</ele><time>2026-03-22T15:51:03.631Z</time></trkpt><trkpt lat="44.4819031" lon="11.2242487"><ele>81.66666666666667</ele><time>2026-03-22T15:51:04.631Z</time></trkpt><trkpt lat="44.4817282" lon="11.2241983"><ele>82.33333333333334</ele><time>2026-03-22T15:51:05.631Z</time></trkpt><trkpt lat="44.4815519" lon="11.2241499"><ele>83.0</ele><time>2026-03-22T15:51:06.631Z</time></trkpt><trkpt lat="44.4813749" lon="11.2240997"><ele>83.33333333333334</ele><time>2026-03-22T15:51:07.631Z</time></trkpt><trkpt lat="44.4811974" lon="11.224048"><ele>83.66666666666667</ele><time>2026-03-22T15:51:08.631Z</time></trkpt><trkpt lat="44.4810196" lon="11.2239955"><ele>84.0</ele><time>2026-03-22T15:51:09.631Z</time></trkpt><trkpt lat="44.4808418" lon="11.2239426"><ele>83.33333333333333</ele><time>2026-03-22T15:51:10.631Z</time></trkpt><trkpt lat="44.4806639" lon="11.2238911"><ele>82.66666666666666</ele><time>2026-03-22T15:51:11.631Z</time></trkpt><trkpt lat="44.4804859" lon="11.2238401"><ele>82.0</ele><time>2026-03-22T15:51:12.631Z</time></trkpt><trkpt lat="44.480308" lon="11.2237903"><ele>82.0</ele><time>2026-03-22T15:51:13.631Z</time></trkpt><trkpt lat="44.4801293" lon="11.2237396"><ele>82.0</ele><time>2026-03-22T15:51:14.631Z</time></trkpt><trkpt lat="44.47995" lon="11.223689"><ele>82.0</ele><time>2026-03-22T15:51:15.631Z</time></trkpt><trkpt lat="44.4797707" lon="11.2236378"><ele>83.33333333333333</ele><time>2026-03-22T15:51:16.631Z</time></trkpt><trkpt lat="44.4795922" lon="11.2235861"><ele>84.66666666666667</ele><time>2026-03-22T15:51:17.631Z</time></trkpt><trkpt lat="44.479414" lon="11.2235344"><ele>86.0</ele><time>2026-03-22T15:51:18.631Z</time></trkpt><trkpt lat="44.4792358" lon="11.2234801"><ele>86.0</ele><time>2026-03-22T15:51:19.631Z</time></trkpt><trkpt lat="44.4790586" lon="11.2234229"><ele>86.0</ele><time>2026-03-22T15:51:20.631Z</time></trkpt><trkpt lat="44.4788824" lon="11.2233606"><ele>86.0</ele><time>2026-03-22T15:51:21.631Z</time></trkpt><trkpt lat="44.4787116" lon="11.2232822"><ele>86.0</ele><time>2026-03-22T15:51:22.631Z</time></trkpt><trkpt lat="44.478548" lon="11.2231832"><ele>86.0</ele><time>2026-03-22T15:51:23.631Z</time></trkpt><trkpt lat="44.4783919" lon="11.2230629"><ele>86.0</ele><time>2026-03-22T15:51:24.631Z</time></trkpt><trkpt lat="44.4782485" lon="11.2229189"><ele>86.0</ele><time>2026-03-22T15:51:25.631Z</time></trkpt><trkpt lat="44.4781172" lon="11.2227534"><ele>86.0</ele><time>2026-03-22T15:51:26.631Z</time></trkpt><trkpt lat="44.478002" lon="11.2225709"><ele>86.0</ele><time>2026-03-22T15:51:27.631Z</time></trkpt><trkpt lat="44.4779025" lon="11.2223713"><ele>88.33333333333334</ele><time>2026-03-22T15:51:28.631Z</time></trkpt><trkpt lat="44.4778195" lon="11.2221583"><ele>90.66666666666667</ele><time>2026-03-22T15:51:29.631Z</time></trkpt><trkpt lat="44.4777527" lon="11.221936"><ele>93.0</ele><time>2026-03-22T15:51:30.631Z</time></trkpt><trkpt lat="44.4776934" lon="11.2217092"><ele>92.66666666666667</ele><time>2026-03-22T15:51:31.631Z</time></trkpt><trkpt lat="44.4776384" lon="11.2214813"><ele>92.33333333333334</ele><time>2026-03-22T15:51:32.631Z</time></trkpt><trkpt lat="44.4775829" lon="11.2212549"><ele>92.0</ele><time>2026-03-22T15:51:33.631Z</time></trkpt><trkpt lat="44.47752" lon="11.2210349"><ele>92.0</ele><time>2026-03-22T15:51:34.631Z</time></trkpt><trkpt lat="44.4774456" lon="11.2208258"><ele>92.0</ele><time>2026-03-22T15:51:35.631Z</time></trkpt><trkpt lat="44.477359" lon="11.2206297"><ele>92.0</ele><time>2026-03-22T15:51:36.631Z</time></trkpt><trkpt lat="44.4772635" lon="11.2204479"><ele>91.66666666666667</ele><time>2026-03-22T15:51:37.631Z</time></trkpt><trkpt lat="44.4771663" lon="11.2202771"><ele>91.33333333333333</ele><time>2026-03-22T15:51:38.631Z</time></trkpt><trkpt lat="44.4770713" lon="11.2201129"><ele>91.0</ele><time>2026-03-22T15:51:39.631Z</time></trkpt><trkpt lat="44.4769793" lon="11.2199537"><ele>90.25</ele><time>2026-03-22T15:51:40.631Z</time></trkpt><trkpt lat="44.4768896" lon="11.2198007"><ele>89.5</ele><time>2026-03-22T15:51:41.631Z</time></trkpt><trkpt lat="44.4768042" lon="11.2196505"><ele>88.75</ele><time>2026-03-22T15:51:42.631Z</time></trkpt><trkpt lat="44.4767207" lon="11.2195034"><ele>88.0</ele><time>2026-03-22T15:51:43.631Z</time></trkpt><trkpt lat="44.4766406" lon="11.2193609"><ele>88.0</ele><time>2026-03-22T15:51:44.631Z</time></trkpt><trkpt lat="44.4765624" lon="11.2192226"><ele>88.0</ele><time>2026-03-22T15:51:45.631Z</time></trkpt><trkpt lat="44.4764879" lon="11.2190891"><ele>88.0</ele><time>2026-03-22T15:51:46.631Z</time></trkpt><trkpt lat="44.4764159" lon="11.2189616"><ele>88.0</ele><time>2026-03-22T15:51:47.631Z</time></trkpt><trkpt lat="44.4763469" lon="11.2188393"><ele>88.0</ele><time>2026-03-22T15:51:48.631Z</time></trkpt><trkpt lat="44.4762805" lon="11.2187208"><ele>88.0</ele><time>2026-03-22T15:51:49.631Z</time></trkpt><trkpt lat="44.476216" lon="11.2186054"><ele>88.0</ele><time>2026-03-22T15:51:50.631Z</time></trkpt><trkpt lat="44.4761528" lon="11.2184907"><ele>88.0</ele><time>2026-03-22T15:51:51.631Z</time></trkpt><trkpt lat="44.4760888" lon="11.2183742"><ele>88.0</ele><time>2026-03-22T15:51:52.631Z</time></trkpt><trkpt lat="44.4760255" lon="11.2182543"><ele>87.5</ele><time>2026-03-22T15:51:53.631Z</time></trkpt><trkpt lat="44.475963" lon="11.2181296"><ele>87.0</ele><time>2026-03-22T15:51:54.631Z</time></trkpt><trkpt lat="44.4759018" lon="11.2179983"><ele>86.5</ele><time>2026-03-22T15:51:55.631Z</time></trkpt><trkpt lat="44.4758416" lon="11.2178601"><ele>86.0</ele><time>2026-03-22T15:51:56.631Z</time></trkpt><trkpt lat="44.4757824" lon="11.2177157"><ele>86.0</ele><time>2026-03-22T15:51:57.631Z</time></trkpt><trkpt lat="44.4757247" lon="11.2175647"><ele>86.0</ele><time>2026-03-22T15:51:58.631Z</time></trkpt><trkpt lat="44.4756663" lon="11.2174069"><ele>86.0</ele><time>2026-03-22T15:51:59.631Z</time></trkpt><trkpt lat="44.4756075" lon="11.2172424"><ele>86.0</ele><time>2026-03-22T15:52:00.631Z</time></trkpt><trkpt lat="44.4755501" lon="11.217071"><ele>85.75</ele><time>2026-03-22T15:52:01.631Z</time></trkpt><trkpt lat="44.4754935" lon="11.2168957"><ele>85.5</ele><time>2026-03-22T15:52:02.631Z</time></trkpt><trkpt lat="44.4754383" lon="11.2167163"><ele>85.25</ele><time>2026-03-22T15:52:03.631Z</time></trkpt><trkpt lat="44.4753857" lon="11.2165329"><ele>85.0</ele><time>2026-03-22T15:52:04.631Z</time></trkpt><trkpt lat="44.475338" lon="11.2163434"><ele>87.0</ele><time>2026-03-22T15:52:05.631Z</time></trkpt><trkpt lat="44.4752967" lon="11.2161474"><ele>89.0</ele><time>2026-03-22T15:52:06.631Z</time></trkpt><trkpt lat="44.475262" lon="11.2159475"><ele>91.0</ele><time>2026-03-22T15:52:07.631Z</time></trkpt><trkpt lat="44.475233" lon="11.2157429"><ele>93.0</ele><time>2026-03-22T15:52:08.631Z</time></trkpt><trkpt lat="44.4752049" lon="11.2155378"><ele>93.66666666666667</ele><time>2026-03-22T15:52:09.631Z</time></trkpt><trkpt lat="44.4751761" lon="11.2153314"><ele>94.33333333333334</ele><time>2026-03-22T15:52:10.631Z</time></trkpt><trkpt lat="44.4751396" lon="11.215127"><ele>95.0</ele><time>2026-03-22T15:52:11.631Z</time></trkpt><trkpt lat="44.4750927" lon="11.214927"><ele>95.0</ele><time>2026-03-22T15:52:12.631Z</time></trkpt><trkpt lat="44.4750316" lon="11.2147324"><ele>95.0</ele><time>2026-03-22T15:52:13.631Z</time></trkpt><trkpt lat="44.4749565" lon="11.214545"><ele>95.0</ele><time>2026-03-22T15:52:14.631Z</time></trkpt><trkpt lat="44.4748693" lon="11.2143691"><ele>95.0</ele><time>2026-03-22T15:52:15.631Z</time></trkpt><trkpt lat="44.4747702" lon="11.2142018"><ele>95.0</ele><time>2026-03-22T15:52:16.631Z</time></trkpt><trkpt lat="44.4746626" lon="11.2140447"><ele>95.0</ele><time>2026-03-22T15:52:17.631Z</time></trkpt><trkpt lat="44.4745503" lon="11.2138904"><ele>95.33333333333334</ele><time>2026-03-22T15:52:18.631Z</time></trkpt><trkpt lat="44.4744363" lon="11.2137377"><ele>95.66666666666667</ele><time>2026-03-22T15:52:19.631Z</time></trkpt><trkpt lat="44.4743209" lon="11.2135821"><ele>96.0</ele><time>2026-03-22T15:52:20.631Z</time></trkpt><trkpt lat="44.4742075" lon="11.2134197"><ele>96.0</ele><time>2026-03-22T15:52:21.631Z</time></trkpt><trkpt lat="44.474099" lon="11.2132458"><ele>96.0</ele><time>2026-03-22T15:52:22.631Z</time></trkpt><trkpt lat="44.4739982" lon="11.2130583"><ele>96.0</ele><time>2026-03-22T15:52:23.631Z</time></trkpt><trkpt lat="44.4739076" lon="11.2128601"><ele>97.0</ele><time>2026-03-22T15:52:24.631Z</time></trkpt><trkpt lat="44.4738226" lon="11.2126548"><ele>98.0</ele><time>2026-03-22T15:52:25.631Z</time></trkpt><trkpt lat="44.4737409" lon="11.2124478"><ele>99.0</ele><time>2026-03-22T15:52:26.631Z</time></trkpt><trkpt lat="44.4736599" lon="11.2122393"><ele>99.0</ele><time>2026-03-22T15:52:27.631Z</time></trkpt><trkpt lat="44.4735777" lon="11.2120322"><ele>99.0</ele><time>2026-03-22T15:52:28.631Z</time></trkpt><trkpt lat="44.4734923" lon="11.2118302"><ele>99.0</ele><time>2026-03-22T15:52:29.631Z</time></trkpt><trkpt lat="44.4734053" lon="11.2116279"><ele>98.33333333333334</ele><time>2026-03-22T15:52:30.631Z</time></trkpt><trkpt lat="44.4733152" lon="11.2114287"><ele>97.66666666666667</ele><time>2026-03-22T15:52:31.631Z</time></trkpt><trkpt lat="44.4732246" lon="11.2112318"><ele>97.0</ele><time>2026-03-22T15:52:32.631Z</time></trkpt><trkpt lat="44.473135" lon="11.2110368"><ele>97.0</ele><time>2026-03-22T15:52:33.631Z</time></trkpt><trkpt lat="44.4730455" lon="11.2108436"><ele>97.0</ele><time>2026-03-22T15:52:34.631Z</time></trkpt><trkpt lat="44.4729569" lon="11.2106496"><ele>97.0</ele><time>2026-03-22T15:52:35.631Z</time></trkpt><trkpt lat="44.4728693" lon="11.2104569"><ele>98.0</ele><time>2026-03-22T15:52:36.631Z</time></trkpt><trkpt lat="44.472783" lon="11.2102649"><ele>99.0</ele><time>2026-03-22T15:52:37.631Z</time></trkpt><trkpt lat="44.4726991" lon="11.2100705"><ele>100.0</ele><time>2026-03-22T15:52:38.631Z</time></trkpt><trkpt lat="44.4726191" lon="11.2098731"><ele>100.0</ele><time>2026-03-22T15:52:39.631Z</time></trkpt><trkpt lat="44.4725451" lon="11.2096717"><ele>100.0</ele><time>2026-03-22T15:52:40.631Z</time></trkpt><trkpt lat="44.4724806" lon="11.2094624"><ele>100.0</ele><time>2026-03-22T15:52:41.631Z</time></trkpt><trkpt lat="44.4724282" lon="11.2092447"><ele>100.0</ele><time>2026-03-22T15:52:42.631Z</time></trkpt><trkpt lat="44.4723902" lon="11.2090209"><ele>100.0</ele><time>2026-03-22T15:52:43.631Z</time></trkpt><trkpt lat="44.4723618" lon="11.2087929"><ele>100.0</ele><time>2026-03-22T15:52:44.631Z</time></trkpt><trkpt lat="44.4723379" lon="11.2085645"><ele>100.33333333333334</ele><time>2026-03-22T15:52:45.631Z</time></trkpt><trkpt lat="44.4723151" lon="11.2083368"><ele>100.66666666666666</ele><time>2026-03-22T15:52:46.631Z</time></trkpt><trkpt lat="44.4722865" lon="11.2081116"><ele>101.0</ele><time>2026-03-22T15:52:47.631Z</time></trkpt><trkpt lat="44.4722514" lon="11.2078886"><ele>101.0</ele><time>2026-03-22T15:52:48.631Z</time></trkpt><trkpt lat="44.4722073" lon="11.2076711"><ele>101.0</ele><time>2026-03-22T15:52:49.631Z</time></trkpt><trkpt lat="44.4721562" lon="11.2074587"><ele>101.0</ele><time>2026-03-22T15:52:50.631Z</time></trkpt><trkpt lat="44.4720993" lon="11.2072507"><ele>102.66666666666666</ele><time>2026-03-22T15:52:51.631Z</time></trkpt><trkpt lat="44.4720378" lon="11.207046"><ele>104.33333333333334</ele><time>2026-03-22T15:52:52.631Z</time></trkpt><trkpt lat="44.4719711" lon="11.2068449"><ele>106.0</ele><time>2026-03-22T15:52:53.631Z</time></trkpt><trkpt lat="44.4718982" lon="11.2066495"><ele>105.33333333333334</ele><time>2026-03-22T15:52:54.631Z</time></trkpt><trkpt lat="44.471819" lon="11.2064614"><ele>104.66666666666666</ele><time>2026-03-22T15:52:55.631Z</time></trkpt><trkpt lat="44.4717299" lon="11.2062833"><ele>104.0</ele><time>2026-03-22T15:52:56.631Z</time></trkpt><trkpt lat="44.4716319" lon="11.2061172"><ele>104.0</ele><time>2026-03-22T15:52:57.631Z</time></trkpt><trkpt lat="44.4715223" lon="11.2059678"><ele>104.0</ele><time>2026-03-22T15:52:58.631Z</time></trkpt><trkpt lat="44.4714015" lon="11.2058392"><ele>104.0</ele><time>2026-03-22T15:52:59.631Z</time></trkpt><trkpt lat="44.4712693" lon="11.2057355"><ele>106.0</ele><time>2026-03-22T15:53:00.631Z</time></trkpt><trkpt lat="44.4711308" lon="11.2056535"><ele>108.0</ele><time>2026-03-22T15:53:01.631Z</time></trkpt><trkpt lat="44.4709895" lon="11.2055793"><ele>110.0</ele><time>2026-03-22T15:53:02.631Z</time></trkpt><trkpt lat="44.4708489" lon="11.2055023"><ele>110.0</ele><time>2026-03-22T15:53:03.631Z</time></trkpt><trkpt lat="44.4707117" lon="11.2054129"><ele>110.0</ele><time>2026-03-22T15:53:04.631Z</time></trkpt><trkpt lat="44.4705779" lon="11.2053087"><ele>110.0</ele><time>2026-03-22T15:53:05.631Z</time></trkpt><trkpt lat="44.4704488" lon="11.2051953"><ele>109.66666666666666</ele><time>2026-03-22T15:53:06.631Z</time></trkpt><trkpt lat="44.4703232" lon="11.2050715"><ele>109.33333333333334</ele><time>2026-03-22T15:53:07.631Z</time></trkpt><trkpt lat="44.4702044" lon="11.2049377"><ele>109.0</ele><time>2026-03-22T15:53:08.631Z</time></trkpt><trkpt lat="44.470093" lon="11.2047912"><ele>109.0</ele><time>2026-03-22T15:53:09.631Z</time></trkpt><trkpt lat="44.46999" lon="11.2046349"><ele>109.0</ele><time>2026-03-22T15:53:10.631Z</time></trkpt><trkpt lat="44.4698938" lon="11.2044708"><ele>109.0</ele><time>2026-03-22T15:53:11.631Z</time></trkpt><trkpt lat="44.469799" lon="11.2043037"><ele>109.0</ele><time>2026-03-22T15:53:12.631Z</time></trkpt><trkpt lat="44.4697053" lon="11.2041352"><ele>109.0</ele><time>2026-03-22T15:53:13.631Z</time></trkpt><trkpt lat="44.4696122" lon="11.2039677"><ele>109.0</ele><time>2026-03-22T15:53:14.631Z</time></trkpt><trkpt lat="44.4695186" lon="11.2038003"><ele>109.25</ele><time>2026-03-22T15:53:15.631Z</time></trkpt><trkpt lat="44.4694255" lon="11.2036343"><ele>109.5</ele><time>2026-03-22T15:53:16.631Z</time></trkpt><trkpt lat="44.4693303" lon="11.2034713"><ele>109.75</ele><time>2026-03-22T15:53:17.631Z</time></trkpt><trkpt lat="44.4692368" lon="11.2033163"><ele>110.0</ele><time>2026-03-22T15:53:18.631Z</time></trkpt><trkpt lat="44.4691414" lon="11.2031648"><ele>109.75</ele><time>2026-03-22T15:53:19.631Z</time></trkpt><trkpt lat="44.4690476" lon="11.2030197"><ele>109.5</ele><time>2026-03-22T15:53:20.631Z</time></trkpt><trkpt lat="44.4689553" lon="11.2028757"><ele>109.25</ele><time>2026-03-22T15:53:21.631Z</time></trkpt><trkpt lat="44.4688657" lon="11.2027307"><ele>109.0</ele><time>2026-03-22T15:53:22.631Z</time></trkpt><trkpt lat="44.4687778" lon="11.202583"><ele>109.25</ele><time>2026-03-22T15:53:23.631Z</time></trkpt><trkpt lat="44.4686942" lon="11.2024323"><ele>109.5</ele><time>2026-03-22T15:53:24.631Z</time></trkpt><trkpt lat="44.4686159" lon="11.202283"><ele>109.75</ele><time>2026-03-22T15:53:25.631Z</time></trkpt><trkpt lat="44.4685426" lon="11.2021397"><ele>110.0</ele><time>2026-03-22T15:53:26.631Z</time></trkpt><trkpt lat="44.468468" lon="11.202002"><ele>110.0</ele><time>2026-03-22T15:53:27.631Z</time></trkpt><trkpt lat="44.4683795" lon="11.2018842"><ele>110.0</ele><time>2026-03-22T15:53:28.631Z</time></trkpt><trkpt lat="44.4682734" lon="11.2017971"><ele>110.0</ele><time>2026-03-22T15:53:29.631Z</time></trkpt><trkpt lat="44.4681513" lon="11.2017499"><ele>110.0</ele><time>2026-03-22T15:53:30.631Z</time></trkpt><trkpt lat="44.4680218" lon="11.2017355"><ele>108.5</ele><time>2026-03-22T15:53:31.631Z</time></trkpt><trkpt lat="44.4678856" lon="11.2017423"><ele>107.0</ele><time>2026-03-22T15:53:32.631Z</time></trkpt><trkpt lat="44.4677444" lon="11.2017583"><ele>105.5</ele><time>2026-03-22T15:53:33.631Z</time></trkpt><trkpt lat="44.4675983" lon="11.2017747"><ele>104.0</ele><time>2026-03-22T15:53:34.631Z</time></trkpt><trkpt lat="44.4674477" lon="11.2017894"><ele>104.0</ele><time>2026-03-22T15:53:35.631Z</time></trkpt><trkpt lat="44.4672931" lon="11.2017977"><ele>104.0</ele><time>2026-03-22T15:53:36.631Z</time></trkpt><trkpt lat="44.4671364" lon="11.2017961"><ele>104.0</ele><time>2026-03-22T15:53:37.631Z</time></trkpt><trkpt lat="44.4669762" lon="11.2017784"><ele>104.33333333333333</ele><time>2026-03-22T15:53:38.631Z</time></trkpt><trkpt lat="44.4668155" lon="11.2017414"><ele>104.66666666666666</ele><time>2026-03-22T15:53:39.631Z</time></trkpt><trkpt lat="44.4666547" lon="11.2016839"><ele>105.0</ele><time>2026-03-22T15:53:40.631Z</time></trkpt><trkpt lat="44.4664956" lon="11.2016118"><ele>105.0</ele><time>2026-03-22T15:53:41.631Z</time></trkpt><trkpt lat="44.4663398" lon="11.2015291"><ele>105.0</ele><time>2026-03-22T15:53:42.631Z</time></trkpt><trkpt lat="44.4661859" lon="11.2014395"><ele>105.0</ele><time>2026-03-22T15:53:43.631Z</time></trkpt><trkpt lat="44.4660339" lon="11.2013468"><ele>103.33333333333334</ele><time>2026-03-22T15:53:44.631Z</time></trkpt><trkpt lat="44.4658837" lon="11.2012528"><ele>101.66666666666667</ele><time>2026-03-22T15:53:45.631Z</time></trkpt><trkpt lat="44.4657351" lon="11.2011594"><ele>100.0</ele><time>2026-03-22T15:53:46.631Z</time></trkpt><trkpt lat="44.4655898" lon="11.2010668"><ele>100.0</ele><time>2026-03-22T15:53:47.631Z</time></trkpt><trkpt lat="44.4654482" lon="11.2009756"><ele>100.0</ele><time>2026-03-22T15:53:48.631Z</time></trkpt><trkpt lat="44.4653115" lon="11.2008872"><ele>100.0</ele><time>2026-03-22T15:53:49.631Z</time></trkpt><trkpt lat="44.4651797" lon="11.2008019"><ele>100.75</ele><time>2026-03-22T15:53:50.631Z</time></trkpt><trkpt lat="44.4650532" lon="11.2007212"><ele>101.5</ele><time>2026-03-22T15:53:51.631Z</time></trkpt><trkpt lat="44.4649316" lon="11.200645"><ele>102.25</ele><time>2026-03-22T15:53:52.631Z</time></trkpt><trkpt lat="44.4648161" lon="11.2005716"><ele>103.0</ele><time>2026-03-22T15:53:53.631Z</time></trkpt><trkpt lat="44.4647066" lon="11.2004994"><ele>103.0</ele><time>2026-03-22T15:53:54.631Z</time></trkpt><trkpt lat="44.464605" lon="11.2004213"><ele>103.0</ele><time>2026-03-22T15:53:55.631Z</time></trkpt><trkpt lat="44.4645221" lon="11.2003255"><ele>103.0</ele><time>2026-03-22T15:53:56.631Z</time></trkpt><trkpt lat="44.4644664" lon="11.2002089"><ele>103.0</ele><time>2026-03-22T15:53:57.631Z</time></trkpt><trkpt lat="44.4644438" lon="11.2000795"><ele>103.0</ele><time>2026-03-22T15:53:58.631Z</time></trkpt><trkpt lat="44.4644535" lon="11.1999531"><ele>103.0</ele><time>2026-03-22T15:53:59.631Z</time></trkpt><trkpt lat="44.4644881" lon="11.1998331"><ele>103.0</ele><time>2026-03-22T15:54:00.631Z</time></trkpt><trkpt lat="44.4645275" lon="11.1997154"><ele>103.0</ele><time>2026-03-22T15:54:01.631Z</time></trkpt><trkpt lat="44.4645686" lon="11.1995966"><ele>103.0</ele><time>2026-03-22T15:54:02.631Z</time></trkpt><trkpt lat="44.4646089" lon="11.19948"><ele>103.0</ele><time>2026-03-22T15:54:03.631Z</time></trkpt><trkpt lat="44.464647" lon="11.1993673"><ele>103.33333333333334</ele><time>2026-03-22T15:54:04.631Z</time></trkpt><trkpt lat="44.464682" lon="11.1992654"><ele>103.66666666666667</ele><time>2026-03-22T15:54:05.631Z</time></trkpt><trkpt lat="44.4647115" lon="11.1991785"><ele>104.0</ele><time>2026-03-22T15:54:06.632Z</time></trkpt><trkpt lat="44.4647569" lon="11.1990456"><ele>104.33333333333334</ele><time>2026-03-22T15:54:08.631Z</time></trkpt><trkpt lat="44.4647914" lon="11.1989484"><ele>104.66666666666667</ele><time>2026-03-22T15:54:10.631Z</time></trkpt><trkpt lat="44.4648248" lon="11.1988573"><ele>105.0</ele><time>2026-03-22T15:54:13.631Z</time></trkpt><trkpt lat="44.4648626" lon="11.198748"><ele>105.6</ele><time>2026-03-22T15:54:16.631Z</time></trkpt><trkpt lat="44.4649016" lon="11.1986372"><ele>106.2</ele><time>2026-03-22T15:54:18.631Z</time></trkpt><trkpt lat="44.4649456" lon="11.198514"><ele>106.80000000000001</ele><time>2026-03-22T15:54:20.631Z</time></trkpt><trkpt lat="44.4650051" lon="11.1983557"><ele>107.4</ele><time>2026-03-22T15:54:22.631Z</time></trkpt><trkpt lat="44.4650384" lon="11.1982617"><ele>108.0</ele><time>2026-03-22T15:54:23.631Z</time></trkpt><trkpt lat="44.4650753" lon="11.198158"><ele>108.80000000000001</ele><time>2026-03-22T15:54:24.631Z</time></trkpt><trkpt lat="44.4651148" lon="11.1980446"><ele>109.60000000000001</ele><time>2026-03-22T15:54:25.631Z</time></trkpt><trkpt lat="44.4651584" lon="11.1979233"><ele>110.39999999999999</ele><time>2026-03-22T15:54:26.631Z</time></trkpt><trkpt lat="44.465207" lon="11.1978014"><ele>111.19999999999999</ele><time>2026-03-22T15:54:27.631Z</time></trkpt><trkpt lat="44.4652618" lon="11.1976813"><ele>112.0</ele><time>2026-03-22T15:54:28.631Z</time></trkpt><trkpt lat="44.465325" lon="11.1975617"><ele>112.0</ele><time>2026-03-22T15:54:29.631Z</time></trkpt><trkpt lat="44.4653956" lon="11.1974436"><ele>112.0</ele><time>2026-03-22T15:54:30.631Z</time></trkpt><trkpt lat="44.465474" lon="11.1973268"><ele>112.0</ele><time>2026-03-22T15:54:31.631Z</time></trkpt><trkpt lat="44.4655607" lon="11.1972136"><ele>112.0</ele><time>2026-03-22T15:54:32.631Z</time></trkpt><trkpt lat="44.4656541" lon="11.1971012"><ele>109.25</ele><time>2026-03-22T15:54:33.631Z</time></trkpt><trkpt lat="44.4657521" lon="11.1969891"><ele>106.5</ele><time>2026-03-22T15:54:34.631Z</time></trkpt><trkpt lat="44.4658529" lon="11.1968748"><ele>103.75</ele><time>2026-03-22T15:54:35.631Z</time></trkpt><trkpt lat="44.4659548" lon="11.1967582"><ele>101.0</ele><time>2026-03-22T15:54:36.631Z</time></trkpt><trkpt lat="44.4660583" lon="11.1966408"><ele>101.0</ele><time>2026-03-22T15:54:37.631Z</time></trkpt><trkpt lat="44.4661618" lon="11.1965222"><ele>101.0</ele><time>2026-03-22T15:54:38.631Z</time></trkpt><trkpt lat="44.4662655" lon="11.1964046"><ele>101.0</ele><time>2026-03-22T15:54:39.631Z</time></trkpt><trkpt lat="44.466368" lon="11.1962897"><ele>101.0</ele><time>2026-03-22T15:54:40.631Z</time></trkpt><trkpt lat="44.4664685" lon="11.1961785"><ele>101.0</ele><time>2026-03-22T15:54:41.631Z</time></trkpt><trkpt lat="44.4665668" lon="11.196071"><ele>101.0</ele><time>2026-03-22T15:54:42.631Z</time></trkpt><trkpt lat="44.4666626" lon="11.1959693"><ele>101.0</ele><time>2026-03-22T15:54:43.631Z</time></trkpt><trkpt lat="44.4667563" lon="11.195872"><ele>101.0</ele><time>2026-03-22T15:54:44.631Z</time></trkpt><trkpt lat="44.4668441" lon="11.1957737"><ele>101.0</ele><time>2026-03-22T15:54:45.631Z</time></trkpt><trkpt lat="44.4669251" lon="11.1956741"><ele>101.0</ele><time>2026-03-22T15:54:46.631Z</time></trkpt><trkpt lat="44.4669932" lon="11.1955631"><ele>101.0</ele><time>2026-03-22T15:54:47.631Z</time></trkpt><trkpt lat="44.4670331" lon="11.1954279"><ele>101.0</ele><time>2026-03-22T15:54:48.631Z</time></trkpt><trkpt lat="44.4670355" lon="11.1952803"><ele>101.0</ele><time>2026-03-22T15:54:49.631Z</time></trkpt><trkpt lat="44.4670049" lon="11.1951276"><ele>101.75</ele><time>2026-03-22T15:54:50.631Z</time></trkpt><trkpt lat="44.4669712" lon="11.1949647"><ele>102.5</ele><time>2026-03-22T15:54:51.631Z</time></trkpt><trkpt lat="44.4669352" lon="11.1947989"><ele>103.25</ele><time>2026-03-22T15:54:52.631Z</time></trkpt><trkpt lat="44.4669015" lon="11.1946436"><ele>104.0</ele><time>2026-03-22T15:54:53.631Z</time></trkpt><trkpt lat="44.4668703" lon="11.1945084"><ele>104.49999999999999</ele><time>2026-03-22T15:54:54.631Z</time></trkpt><trkpt lat="44.4668422" lon="11.1943903"><ele>105.0</ele><time>2026-03-22T15:54:55.631Z</time></trkpt><trkpt lat="44.4668175" lon="11.1942853"><ele>105.5</ele><time>2026-03-22T15:54:56.632Z</time></trkpt><trkpt lat="44.4667925" lon="11.194182"><ele>106.0</ele><time>2026-03-22T15:54:57.631Z</time></trkpt><trkpt lat="44.4667644" lon="11.1940728"><ele>106.49999999999999</ele><time>2026-03-22T15:54:58.631Z</time></trkpt><trkpt lat="44.4667302" lon="11.1939544"><ele>107.0</ele><time>2026-03-22T15:54:59.631Z</time></trkpt><trkpt lat="44.4666872" lon="11.19383"><ele>107.75</ele><time>2026-03-22T15:55:00.631Z</time></trkpt><trkpt lat="44.466635" lon="11.1937056"><ele>108.5</ele><time>2026-03-22T15:55:01.631Z</time></trkpt><trkpt lat="44.4665784" lon="11.1935804"><ele>109.25</ele><time>2026-03-22T15:55:02.631Z</time></trkpt><trkpt lat="44.4665148" lon="11.1934435"><ele>110.0</ele><time>2026-03-22T15:55:03.631Z</time></trkpt><trkpt lat="44.4664475" lon="11.1932955"><ele>109.75</ele><time>2026-03-22T15:55:04.631Z</time></trkpt><trkpt lat="44.4663762" lon="11.1931379"><ele>109.5</ele><time>2026-03-22T15:55:05.631Z</time></trkpt><trkpt lat="44.4663006" lon="11.1929715"><ele>109.25</ele><time>2026-03-22T15:55:06.631Z</time></trkpt><trkpt lat="44.4662234" lon="11.1927978"><ele>109.0</ele><time>2026-03-22T15:55:07.631Z</time></trkpt><trkpt lat="44.4661433" lon="11.1926169"><ele>109.0</ele><time>2026-03-22T15:55:08.631Z</time></trkpt><trkpt lat="44.466062" lon="11.1924309"><ele>109.0</ele><time>2026-03-22T15:55:09.631Z</time></trkpt><trkpt lat="44.4659766" lon="11.1922458"><ele>109.0</ele><time>2026-03-22T15:55:10.631Z</time></trkpt><trkpt lat="44.4658826" lon="11.1920666"><ele>110.0</ele><time>2026-03-22T15:55:11.631Z</time></trkpt><trkpt lat="44.465781" lon="11.1918976"><ele>111.0</ele><time>2026-03-22T15:55:12.631Z</time></trkpt><trkpt lat="44.4656769" lon="11.1917354"><ele>112.0</ele><time>2026-03-22T15:55:13.631Z</time></trkpt><trkpt lat="44.4655738" lon="11.1915757"><ele>111.25</ele><time>2026-03-22T15:55:14.631Z</time></trkpt><trkpt lat="44.4654765" lon="11.1914141"><ele>110.5</ele><time>2026-03-22T15:55:15.631Z</time></trkpt><trkpt lat="44.465394" lon="11.1912423"><ele>109.75</ele><time>2026-03-22T15:55:16.631Z</time></trkpt><trkpt lat="44.4653312" lon="11.1910586"><ele>109.0</ele><time>2026-03-22T15:55:17.631Z</time></trkpt><trkpt lat="44.4652881" lon="11.190863"><ele>110.0</ele><time>2026-03-22T15:55:18.631Z</time></trkpt><trkpt lat="44.4652638" lon="11.190658"><ele>111.0</ele><time>2026-03-22T15:55:19.632Z</time></trkpt><trkpt lat="44.4652565" lon="11.1904435"><ele>112.0</ele><time>2026-03-22T15:55:20.631Z</time></trkpt><trkpt lat="44.4652575" lon="11.1902208"><ele>112.0</ele><time>2026-03-22T15:55:21.631Z</time></trkpt><trkpt lat="44.4652389" lon="11.1899936"><ele>112.0</ele><time>2026-03-22T15:55:22.631Z</time></trkpt><trkpt lat="44.4651891" lon="11.1897677"><ele>112.0</ele><time>2026-03-22T15:55:23.631Z</time></trkpt><trkpt lat="44.4651222" lon="11.1895433"><ele>112.66666666666667</ele><time>2026-03-22T15:55:24.631Z</time></trkpt><trkpt lat="44.4650491" lon="11.1893217"><ele>113.33333333333334</ele><time>2026-03-22T15:55:25.631Z</time></trkpt><trkpt lat="44.4649752" lon="11.1891005"><ele>114.0</ele><time>2026-03-22T15:55:26.631Z</time></trkpt><trkpt lat="44.4649013" lon="11.1888793"><ele>116.33333333333334</ele><time>2026-03-22T15:55:27.631Z</time></trkpt><trkpt lat="44.464831" lon="11.1886617"><ele>118.66666666666667</ele><time>2026-03-22T15:55:28.631Z</time></trkpt><trkpt lat="44.4647638" lon="11.1884501"><ele>121.0</ele><time>2026-03-22T15:55:29.631Z</time></trkpt><trkpt lat="44.4647128" lon="11.1882356"><ele>121.66666666666667</ele><time>2026-03-22T15:55:30.631Z</time></trkpt><trkpt lat="44.4646892" lon="11.1880132"><ele>122.33333333333334</ele><time>2026-03-22T15:55:31.631Z</time></trkpt><trkpt lat="44.4646976" lon="11.187791"><ele>123.0</ele><time>2026-03-22T15:55:32.631Z</time></trkpt><trkpt lat="44.4647352" lon="11.1875747"><ele>123.0</ele><time>2026-03-22T15:55:33.631Z</time></trkpt><trkpt lat="44.4647967" lon="11.1873704"><ele>123.0</ele><time>2026-03-22T15:55:34.631Z</time></trkpt><trkpt lat="44.4648786" lon="11.1871831"><ele>123.0</ele><time>2026-03-22T15:55:35.631Z</time></trkpt><trkpt lat="44.4649693" lon="11.1870053"><ele>122.5</ele><time>2026-03-22T15:55:36.631Z</time></trkpt><trkpt lat="44.4650456" lon="11.1868186"><ele>122.0</ele><time>2026-03-22T15:55:37.631Z</time></trkpt><trkpt lat="44.465094" lon="11.1866225"><ele>121.5</ele><time>2026-03-22T15:55:38.631Z</time></trkpt><trkpt lat="44.4651131" lon="11.1864251"><ele>121.0</ele><time>2026-03-22T15:55:39.631Z</time></trkpt><trkpt lat="44.4650981" lon="11.1862332"><ele>121.0</ele><time>2026-03-22T15:55:40.631Z</time></trkpt><trkpt lat="44.4650629" lon="11.1860524"><ele>121.0</ele><time>2026-03-22T15:55:41.631Z</time></trkpt><trkpt lat="44.4650244" lon="11.1858783"><ele>121.0</ele><time>2026-03-22T15:55:42.631Z</time></trkpt><trkpt lat="44.4649909" lon="11.1857095"><ele>121.0</ele><time>2026-03-22T15:55:43.631Z</time></trkpt><trkpt lat="44.4649657" lon="11.1855458"><ele>120.8</ele><time>2026-03-22T15:55:44.631Z</time></trkpt><trkpt lat="44.4649491" lon="11.185393"><ele>120.6</ele><time>2026-03-22T15:55:45.631Z</time></trkpt><trkpt lat="44.4649391" lon="11.1852563"><ele>120.4</ele><time>2026-03-22T15:55:46.631Z</time></trkpt><trkpt lat="44.4649359" lon="11.1851381"><ele>120.2</ele><time>2026-03-22T15:55:47.631Z</time></trkpt><trkpt lat="44.4649367" lon="11.1850431"><ele>120.0</ele><time>2026-03-22T15:55:48.631Z</time></trkpt><trkpt lat="44.4649392" lon="11.1849083"><ele>120.0</ele><time>2026-03-22T15:55:50.631Z</time></trkpt><trkpt lat="44.4648952" lon="11.18484"><ele>120.0</ele><time>2026-03-22T15:55:52.631Z</time></trkpt><trkpt lat="44.4648204" lon="11.1848348"><ele>120.0</ele><time>2026-03-22T15:55:54.631Z</time></trkpt><trkpt lat="44.4647381" lon="11.1848451"><ele>120.0</ele><time>2026-03-22T15:55:56.631Z</time></trkpt><trkpt lat="44.4646516" lon="11.1848617"><ele>120.0</ele><time>2026-03-22T15:55:58.631Z</time></trkpt><trkpt lat="44.4645761" lon="11.1848101"><ele>120.0</ele><time>2026-03-22T15:56:00.631Z</time></trkpt><trkpt lat="44.4645548" lon="11.1847224"><ele>119.0</ele><time>2026-03-22T15:56:03.631Z</time></trkpt><trkpt lat="44.4645427" lon="11.1845872"><ele>118.0</ele><time>2026-03-22T15:56:15.631Z</time></trkpt><trkpt lat="44.4645365" lon="11.1844387"><ele>117.0</ele><time>2026-03-22T15:56:17.631Z</time></trkpt><trkpt lat="44.4645301" lon="11.1842551"><ele>116.0</ele><time>2026-03-22T15:56:19.631Z</time></trkpt><trkpt lat="44.4645267" lon="11.1841523"><ele>115.0</ele><time>2026-03-22T15:56:20.631Z</time></trkpt><trkpt lat="44.464523" lon="11.1840442"><ele>115.14285714285712</ele><time>2026-03-22T15:56:21.631Z</time></trkpt><trkpt lat="44.4645188" lon="11.1839335"><ele>115.28571428571428</ele><time>2026-03-22T15:56:22.631Z</time></trkpt><trkpt lat="44.4645144" lon="11.1838221"><ele>115.42857142857143</ele><time>2026-03-22T15:56:23.631Z</time></trkpt><trkpt lat="44.4645102" lon="11.183714"><ele>115.57142857142857</ele><time>2026-03-22T15:56:24.631Z</time></trkpt><trkpt lat="44.4645061" lon="11.1836115"><ele>115.71428571428572</ele><time>2026-03-22T15:56:25.631Z</time></trkpt><trkpt lat="44.4645" lon="11.1835151"><ele>115.85714285714288</ele><time>2026-03-22T15:56:26.631Z</time></trkpt><trkpt lat="44.464491" lon="11.1834267"><ele>116.00000000000001</ele><time>2026-03-22T15:56:27.631Z</time></trkpt><trkpt lat="44.4644657" lon="11.1832746"><ele>116.33333333333333</ele><time>2026-03-22T15:56:29.631Z</time></trkpt><trkpt lat="44.4644405" lon="11.1831478"><ele>116.66666666666666</ele><time>2026-03-22T15:56:31.631Z</time></trkpt><trkpt lat="44.4644168" lon="11.1830395"><ele>117.0</ele><time>2026-03-22T15:56:33.631Z</time></trkpt><trkpt lat="44.4643937" lon="11.1829551"><ele>117.33333333333334</ele><time>2026-03-22T15:56:35.631Z</time></trkpt><trkpt lat="44.4643204" lon="11.1829105"><ele>117.66666666666667</ele><time>2026-03-22T15:56:39.631Z</time></trkpt><trkpt lat="44.4642505" lon="11.1829409"><ele>118.0</ele><time>2026-03-22T15:56:42.631Z</time></trkpt><trkpt lat="44.4641737" lon="11.1829989"><ele>118.0</ele><time>2026-03-22T15:56:45.631Z</time></trkpt><trkpt lat="44.4641128" lon="11.1830235"><ele>118.0</ele><time>2026-03-22T15:56:49.631Z</time></trkpt><trkpt lat="44.4641608" lon="11.1830828"><ele>118.0</ele><time>2026-03-22T15:57:19.631Z</time></trkpt></trkseg></trk></gpx>